<?xml version="1.0" encoding="UTF-8" standalone="no" ?>
<gpx xmlns="http://www.topografix.com/GPX/1/1" xmlns:xsi="http://www.w3.org/2001/XMLSchema-instance" xsi:schemaLocation="http://www.topografix.com/GPX/1/1 http://www.topografix.com/GPX/1/1/gpx.xsd" version="1.1" creator="VisuGPX - https://www.visugpx.com">
  <metadata>
    <name>THP 80 2020 Off</name>
  </metadata>
  <trk>
    <name><![CDATA[THP 80 2020 Off]]></name>
    <trkseg>
      <trkpt lat="43.96003" lon="5.78022">
        <ele>551.43078613281</ele>
        <time>2020-10-22T16:50:39.000Z</time>
      </trkpt>
      <trkpt lat="43.9606" lon="5.77958">
        <ele>548.78692626953</ele>
        <time>2020-10-22T16:50:39.024Z</time>
      </trkpt>
      <trkpt lat="43.96088" lon="5.77897">
        <ele>549.47357177734</ele>
        <time>2020-10-22T16:50:39.066Z</time>
      </trkpt>
      <trkpt lat="43.96098" lon="5.77872">
        <ele>550.52807617188</ele>
        <time>2020-10-22T16:50:39.115Z</time>
      </trkpt>
      <trkpt lat="43.96112" lon="5.77843">
        <ele>553.03210449219</ele>
        <time>2020-10-22T16:50:39.172Z</time>
      </trkpt>
      <trkpt lat="43.9615" lon="5.77748">
        <ele>559.73944091797</ele>
        <time>2020-10-22T16:50:39.255Z</time>
      </trkpt>
      <trkpt lat="43.96179" lon="5.77657">
        <ele>565.78491210938</ele>
        <time>2020-10-22T16:50:39.362Z</time>
      </trkpt>
      <trkpt lat="43.9618" lon="5.77629">
        <ele>567.55920410156</ele>
        <time>2020-10-22T16:50:39.476Z</time>
      </trkpt>
      <trkpt lat="43.9616" lon="5.77569">
        <ele>570.43872070312</ele>
        <time>2020-10-22T16:50:39.606Z</time>
      </trkpt>
      <trkpt lat="43.9614" lon="5.77452">
        <ele>578.18688964844</ele>
        <time>2020-10-22T16:50:39.765Z</time>
      </trkpt>
      <trkpt lat="43.96126" lon="5.7738">
        <ele>580.10919189453</ele>
        <time>2020-10-22T16:50:39.942Z</time>
      </trkpt>
      <trkpt lat="43.96121" lon="5.77339">
        <ele>581.84887695312</ele>
        <time>2020-10-22T16:50:40.129Z</time>
      </trkpt>
      <trkpt lat="43.96114" lon="5.773">
        <ele>582.36413574219</ele>
        <time>2020-10-22T16:50:40.325Z</time>
      </trkpt>
      <trkpt lat="43.9612" lon="5.77279">
        <ele>582.11218261719</ele>
        <time>2020-10-22T16:50:40.527Z</time>
      </trkpt>
      <trkpt lat="43.96079" lon="5.77242">
        <ele>575.27056884766</ele>
        <time>2020-10-22T16:50:40.745Z</time>
      </trkpt>
      <trkpt lat="43.96069" lon="5.77236">
        <ele>573.49487304688</ele>
        <time>2020-10-22T16:50:40.967Z</time>
      </trkpt>
      <trkpt lat="43.96051" lon="5.77238">
        <ele>570.75933837891</ele>
        <time>2020-10-22T16:50:41.195Z</time>
      </trkpt>
      <trkpt lat="43.9601" lon="5.77251">
        <ele>564.00915527344</ele>
        <time>2020-10-22T16:50:41.437Z</time>
      </trkpt>
      <trkpt lat="43.95987" lon="5.77263">
        <ele>558.25012207031</ele>
        <time>2020-10-22T16:50:41.687Z</time>
      </trkpt>
      <trkpt lat="43.95941" lon="5.77292">
        <ele>557.28240966797</ele>
        <time>2020-10-22T16:50:41.954Z</time>
      </trkpt>
      <trkpt lat="43.95907" lon="5.77307">
        <ele>555.42401123047</ele>
        <time>2020-10-22T16:50:42.233Z</time>
      </trkpt>
      <trkpt lat="43.95878" lon="5.77312">
        <ele>551.41668701172</ele>
        <time>2020-10-22T16:50:42.522Z</time>
      </trkpt>
      <trkpt lat="43.95851" lon="5.77313">
        <ele>548.04064941406</ele>
        <time>2020-10-22T16:50:42.820Z</time>
      </trkpt>
      <trkpt lat="43.95832" lon="5.77319">
        <ele>545.30511474609</ele>
        <time>2020-10-22T16:50:43.124Z</time>
      </trkpt>
      <trkpt lat="43.95808" lon="5.77323">
        <ele>541.84973144531</ele>
        <time>2020-10-22T16:50:43.436Z</time>
      </trkpt>
      <trkpt lat="43.95781" lon="5.77325">
        <ele>538.62194824219</ele>
        <time>2020-10-22T16:50:43.757Z</time>
      </trkpt>
      <trkpt lat="43.95743" lon="5.77324">
        <ele>533.04791259766</ele>
        <time>2020-10-22T16:50:44.091Z</time>
      </trkpt>
      <trkpt lat="43.95728" lon="5.77327">
        <ele>530.85229492188</ele>
        <time>2020-10-22T16:50:44.430Z</time>
      </trkpt>
      <trkpt lat="43.95714" lon="5.77338">
        <ele>529.69549560547</ele>
        <time>2020-10-22T16:50:44.774Z</time>
      </trkpt>
      <trkpt lat="43.95701" lon="5.77339">
        <ele>528.3876953125</ele>
        <time>2020-10-22T16:50:45.123Z</time>
      </trkpt>
      <trkpt lat="43.95699" lon="5.77337">
        <ele>527.97973632812</ele>
        <time>2020-10-22T16:50:45.472Z</time>
      </trkpt>
      <trkpt lat="43.95699" lon="5.77333">
        <ele>527.59582519531</ele>
        <time>2020-10-22T16:50:45.822Z</time>
      </trkpt>
      <trkpt lat="43.95701" lon="5.77331">
        <ele>527.61981201172</ele>
        <time>2020-10-22T16:50:46.173Z</time>
      </trkpt>
      <trkpt lat="43.95748" lon="5.77308">
        <ele>533.05987548828</ele>
        <time>2020-10-22T16:50:46.541Z</time>
      </trkpt>
      <trkpt lat="43.95749" lon="5.77305">
        <ele>533.07189941406</ele>
        <time>2020-10-22T16:50:46.910Z</time>
      </trkpt>
      <trkpt lat="43.95748" lon="5.77302">
        <ele>532.21636962891</ele>
        <time>2020-10-22T16:50:47.279Z</time>
      </trkpt>
      <trkpt lat="43.95738" lon="5.77305">
        <ele>531.35620117188</ele>
        <time>2020-10-22T16:50:47.652Z</time>
      </trkpt>
      <trkpt lat="43.95734" lon="5.77304">
        <ele>530.56066894531</ele>
        <time>2020-10-22T16:50:48.026Z</time>
      </trkpt>
      <trkpt lat="43.95733" lon="5.77297">
        <ele>528.55700683594</ele>
        <time>2020-10-22T16:50:48.402Z</time>
      </trkpt>
      <trkpt lat="43.95772" lon="5.77277">
        <ele>527.845703125</ele>
        <time>2020-10-22T16:50:48.792Z</time>
      </trkpt>
      <trkpt lat="43.95806" lon="5.77249">
        <ele>523.60614013672</ele>
        <time>2020-10-22T16:50:49.195Z</time>
      </trkpt>
      <trkpt lat="43.95826" lon="5.7723">
        <ele>520.79864501953</ele>
        <time>2020-10-22T16:50:49.606Z</time>
      </trkpt>
      <trkpt lat="43.95845" lon="5.7722">
        <ele>520.892578125</ele>
        <time>2020-10-22T16:50:50.024Z</time>
      </trkpt>
      <trkpt lat="43.95856" lon="5.77211">
        <ele>520.60919189453</ele>
        <time>2020-10-22T16:50:50.446Z</time>
      </trkpt>
      <trkpt lat="43.95882" lon="5.7717">
        <ele>516.87048339844</ele>
        <time>2020-10-22T16:50:50.881Z</time>
      </trkpt>
      <trkpt lat="43.95894" lon="5.77148">
        <ele>513.64727783203</ele>
        <time>2020-10-22T16:50:51.323Z</time>
      </trkpt>
      <trkpt lat="43.95902" lon="5.77127">
        <ele>512.77227783203</ele>
        <time>2020-10-22T16:50:51.771Z</time>
      </trkpt>
      <trkpt lat="43.95915" lon="5.77106">
        <ele>514.78619384766</ele>
        <time>2020-10-22T16:50:52.225Z</time>
      </trkpt>
      <trkpt lat="43.95914" lon="5.77101">
        <ele>514.04229736328</ele>
        <time>2020-10-22T16:50:52.680Z</time>
      </trkpt>
      <trkpt lat="43.95917" lon="5.77082">
        <ele>511.37875366211</ele>
        <time>2020-10-22T16:50:53.140Z</time>
      </trkpt>
      <trkpt lat="43.9591" lon="5.77067">
        <ele>509.05114746094</ele>
        <time>2020-10-22T16:50:53.604Z</time>
      </trkpt>
      <trkpt lat="43.95888" lon="5.77051">
        <ele>507.27868652344</ele>
        <time>2020-10-22T16:50:54.077Z</time>
      </trkpt>
      <trkpt lat="43.95867" lon="5.77033">
        <ele>509.5823059082</ele>
        <time>2020-10-22T16:50:54.558Z</time>
      </trkpt>
      <trkpt lat="43.95852" lon="5.77029">
        <ele>511.34106445312</ele>
        <time>2020-10-22T16:50:55.044Z</time>
      </trkpt>
      <trkpt lat="43.9583" lon="5.77032">
        <ele>515.59808349609</ele>
        <time>2020-10-22T16:50:55.537Z</time>
      </trkpt>
      <trkpt lat="43.95839" lon="5.76996">
        <ele>519.60766601562</ele>
        <time>2020-10-22T16:50:56.040Z</time>
      </trkpt>
      <trkpt lat="43.95857" lon="5.76955">
        <ele>522.09552001953</ele>
        <time>2020-10-22T16:50:56.554Z</time>
      </trkpt>
      <trkpt lat="43.95868" lon="5.76938">
        <ele>524.10388183594</ele>
        <time>2020-10-22T16:50:57.074Z</time>
      </trkpt>
      <trkpt lat="43.9587" lon="5.76932">
        <ele>525.01574707031</ele>
        <time>2020-10-22T16:50:57.595Z</time>
      </trkpt>
      <trkpt lat="43.95883" lon="5.76867">
        <ele>534.67602539062</ele>
        <time>2020-10-22T16:50:58.132Z</time>
      </trkpt>
      <trkpt lat="43.95878" lon="5.76869">
        <ele>534.79595947266</ele>
        <time>2020-10-22T16:50:58.671Z</time>
      </trkpt>
      <trkpt lat="43.95874" lon="5.76866">
        <ele>535.44384765625</ele>
        <time>2020-10-22T16:50:59.212Z</time>
      </trkpt>
      <trkpt lat="43.95875" lon="5.76861">
        <ele>535.97180175781</ele>
        <time>2020-10-22T16:50:59.754Z</time>
      </trkpt>
      <trkpt lat="43.95866" lon="5.76857">
        <ele>537.099609375</ele>
        <time>2020-10-22T16:51:00.299Z</time>
      </trkpt>
      <trkpt lat="43.95861" lon="5.76852">
        <ele>538.05944824219</ele>
        <time>2020-10-22T16:51:00.846Z</time>
      </trkpt>
      <trkpt lat="43.95862" lon="5.76843">
        <ele>539.06726074219</ele>
        <time>2020-10-22T16:51:01.395Z</time>
      </trkpt>
      <trkpt lat="43.95861" lon="5.76836">
        <ele>539.97912597656</ele>
        <time>2020-10-22T16:51:01.946Z</time>
      </trkpt>
      <trkpt lat="43.95855" lon="5.76839">
        <ele>540.62622070312</ele>
        <time>2020-10-22T16:51:02.499Z</time>
      </trkpt>
      <trkpt lat="43.95852" lon="5.76834">
        <ele>542.08996582031</ele>
        <time>2020-10-22T16:51:03.054Z</time>
      </trkpt>
      <trkpt lat="43.95853" lon="5.76829">
        <ele>542.40191650391</ele>
        <time>2020-10-22T16:51:03.610Z</time>
      </trkpt>
      <trkpt lat="43.95852" lon="5.76824">
        <ele>543.28979492188</ele>
        <time>2020-10-22T16:51:04.167Z</time>
      </trkpt>
      <trkpt lat="43.95847" lon="5.76821">
        <ele>545.08947753906</ele>
        <time>2020-10-22T16:51:04.726Z</time>
      </trkpt>
      <trkpt lat="43.95849" lon="5.76797">
        <ele>547.48297119141</ele>
        <time>2020-10-22T16:51:05.291Z</time>
      </trkpt>
      <trkpt lat="43.95846" lon="5.76793">
        <ele>548.87475585938</ele>
        <time>2020-10-22T16:51:05.857Z</time>
      </trkpt>
      <trkpt lat="43.95844" lon="5.76785">
        <ele>550.57635498047</ele>
        <time>2020-10-22T16:51:06.425Z</time>
      </trkpt>
      <trkpt lat="43.95846" lon="5.76775">
        <ele>551.46423339844</ele>
        <time>2020-10-22T16:51:06.996Z</time>
      </trkpt>
      <trkpt lat="43.95852" lon="5.76761">
        <ele>551.82415771484</ele>
        <time>2020-10-22T16:51:07.571Z</time>
      </trkpt>
      <trkpt lat="43.95851" lon="5.76743">
        <ele>554.69165039062</ele>
        <time>2020-10-22T16:51:08.150Z</time>
      </trkpt>
      <trkpt lat="43.95858" lon="5.76723">
        <ele>555.70416259766</ele>
        <time>2020-10-22T16:51:08.734Z</time>
      </trkpt>
      <trkpt lat="43.95847" lon="5.76712">
        <ele>559.82000732422</ele>
        <time>2020-10-22T16:51:09.323Z</time>
      </trkpt>
      <trkpt lat="43.95846" lon="5.76701">
        <ele>561.96563720703</ele>
        <time>2020-10-22T16:51:09.915Z</time>
      </trkpt>
      <trkpt lat="43.95855" lon="5.76667">
        <ele>566.87280273438</ele>
        <time>2020-10-22T16:51:10.515Z</time>
      </trkpt>
      <trkpt lat="43.95854" lon="5.76653">
        <ele>569.74029541016</ele>
        <time>2020-10-22T16:51:11.119Z</time>
      </trkpt>
      <trkpt lat="43.95863" lon="5.76624">
        <ele>573.06304931641</ele>
        <time>2020-10-22T16:51:11.730Z</time>
      </trkpt>
      <trkpt lat="43.95873" lon="5.76512">
        <ele>583.54089355469</ele>
        <time>2020-10-22T16:51:12.369Z</time>
      </trkpt>
      <trkpt lat="43.95854" lon="5.76501">
        <ele>587.52111816406</ele>
        <time>2020-10-22T16:51:13.014Z</time>
      </trkpt>
      <trkpt lat="43.95845" lon="5.76506">
        <ele>587.17315673828</ele>
        <time>2020-10-22T16:51:13.663Z</time>
      </trkpt>
      <trkpt lat="43.95833" lon="5.76505">
        <ele>587.0771484375</ele>
        <time>2020-10-22T16:51:14.316Z</time>
      </trkpt>
      <trkpt lat="43.95826" lon="5.76474">
        <ele>588.48095703125</ele>
        <time>2020-10-22T16:51:14.976Z</time>
      </trkpt>
      <trkpt lat="43.95828" lon="5.76458">
        <ele>586.91516113281</ele>
        <time>2020-10-22T16:51:15.640Z</time>
      </trkpt>
      <trkpt lat="43.95832" lon="5.76448">
        <ele>585.64337158203</ele>
        <time>2020-10-22T16:51:16.307Z</time>
      </trkpt>
      <trkpt lat="43.95849" lon="5.76435">
        <ele>586.76513671875</ele>
        <time>2020-10-22T16:51:16.981Z</time>
      </trkpt>
      <trkpt lat="43.95848" lon="5.76382">
        <ele>584.74951171875</ele>
        <time>2020-10-22T16:51:17.667Z</time>
      </trkpt>
      <trkpt lat="43.95854" lon="5.76311">
        <ele>583.71875</ele>
        <time>2020-10-22T16:51:18.371Z</time>
      </trkpt>
      <trkpt lat="43.9587" lon="5.7628">
        <ele>585.03289794922</ele>
        <time>2020-10-22T16:51:19.084Z</time>
      </trkpt>
      <trkpt lat="43.95879" lon="5.76255">
        <ele>585.87274169922</ele>
        <time>2020-10-22T16:51:19.803Z</time>
      </trkpt>
      <trkpt lat="43.95902" lon="5.76214">
        <ele>589.06243896484</ele>
        <time>2020-10-22T16:51:20.535Z</time>
      </trkpt>
      <trkpt lat="43.95911" lon="5.7619">
        <ele>590.99530029297</ele>
        <time>2020-10-22T16:51:21.273Z</time>
      </trkpt>
      <trkpt lat="43.95914" lon="5.76166">
        <ele>593.04693603516</ele>
        <time>2020-10-22T16:51:22.017Z</time>
      </trkpt>
      <trkpt lat="43.95914" lon="5.7612">
        <ele>596.57086181641</ele>
        <time>2020-10-22T16:51:22.772Z</time>
      </trkpt>
      <trkpt lat="43.9592" lon="5.76088">
        <ele>599.56195068359</ele>
        <time>2020-10-22T16:51:23.535Z</time>
      </trkpt>
      <trkpt lat="43.95924" lon="5.76084">
        <ele>600.23388671875</ele>
        <time>2020-10-22T16:51:24.300Z</time>
      </trkpt>
      <trkpt lat="43.95929" lon="5.76073">
        <ele>601.50561523438</ele>
        <time>2020-10-22T16:51:25.068Z</time>
      </trkpt>
      <trkpt lat="43.9593" lon="5.76059">
        <ele>602.60943603516</ele>
        <time>2020-10-22T16:51:25.840Z</time>
      </trkpt>
      <trkpt lat="43.95938" lon="5.76046">
        <ele>604.26495361328</ele>
        <time>2020-10-22T16:51:26.616Z</time>
      </trkpt>
      <trkpt lat="43.95939" lon="5.76033">
        <ele>604.74487304688</ele>
        <time>2020-10-22T16:51:27.395Z</time>
      </trkpt>
      <trkpt lat="43.95937" lon="5.76025">
        <ele>605.0087890625</ele>
        <time>2020-10-22T16:51:28.176Z</time>
      </trkpt>
      <trkpt lat="43.95934" lon="5.75968">
        <ele>607.38647460938</ele>
        <time>2020-10-22T16:51:28.971Z</time>
      </trkpt>
      <trkpt lat="43.95925" lon="5.75946">
        <ele>610.0615234375</ele>
        <time>2020-10-22T16:51:29.772Z</time>
      </trkpt>
      <trkpt lat="43.95909" lon="5.75927">
        <ele>612.61712646484</ele>
        <time>2020-10-22T16:51:30.580Z</time>
      </trkpt>
      <trkpt lat="43.95897" lon="5.75923">
        <ele>613.67291259766</ele>
        <time>2020-10-22T16:51:31.392Z</time>
      </trkpt>
      <trkpt lat="43.95863" lon="5.75922">
        <ele>613.70941162109</ele>
        <time>2020-10-22T16:51:32.215Z</time>
      </trkpt>
      <trkpt lat="43.95846" lon="5.75926">
        <ele>613.44128417969</ele>
        <time>2020-10-22T16:51:33.044Z</time>
      </trkpt>
      <trkpt lat="43.9584" lon="5.7593">
        <ele>613.03332519531</ele>
        <time>2020-10-22T16:51:33.875Z</time>
      </trkpt>
      <trkpt lat="43.95824" lon="5.75935">
        <ele>612.82940673828</ele>
        <time>2020-10-22T16:51:34.712Z</time>
      </trkpt>
      <trkpt lat="43.95821" lon="5.75935">
        <ele>613.03039550781</ele>
        <time>2020-10-22T16:51:35.550Z</time>
      </trkpt>
      <trkpt lat="43.95819" lon="5.75933">
        <ele>613.41430664062</ele>
        <time>2020-10-22T16:51:36.388Z</time>
      </trkpt>
      <trkpt lat="43.95818" lon="5.7593">
        <ele>613.8251953125</ele>
        <time>2020-10-22T16:51:37.227Z</time>
      </trkpt>
      <trkpt lat="43.95819" lon="5.75919">
        <ele>615.50494384766</ele>
        <time>2020-10-22T16:51:38.069Z</time>
      </trkpt>
      <trkpt lat="43.95809" lon="5.75897">
        <ele>619.29632568359</ele>
        <time>2020-10-22T16:51:38.917Z</time>
      </trkpt>
      <trkpt lat="43.95806" lon="5.75885">
        <ele>620.60333251953</ele>
        <time>2020-10-22T16:51:39.768Z</time>
      </trkpt>
      <trkpt lat="43.958" lon="5.75875">
        <ele>619.85943603516</ele>
        <time>2020-10-22T16:51:40.622Z</time>
      </trkpt>
      <trkpt lat="43.95799" lon="5.75862">
        <ele>618.64764404297</ele>
        <time>2020-10-22T16:51:41.479Z</time>
      </trkpt>
      <trkpt lat="43.95793" lon="5.75843">
        <ele>617.03991699219</ele>
        <time>2020-10-22T16:51:42.341Z</time>
      </trkpt>
      <trkpt lat="43.95782" lon="5.75833">
        <ele>616.47601318359</ele>
        <time>2020-10-22T16:51:43.208Z</time>
      </trkpt>
      <trkpt lat="43.95775" lon="5.75832">
        <ele>616.63195800781</ele>
        <time>2020-10-22T16:51:44.077Z</time>
      </trkpt>
      <trkpt lat="43.95774" lon="5.75828">
        <ele>616.24615478516</ele>
        <time>2020-10-22T16:51:44.947Z</time>
      </trkpt>
      <trkpt lat="43.95783" lon="5.75813">
        <ele>614.52130126953</ele>
        <time>2020-10-22T16:51:45.822Z</time>
      </trkpt>
      <trkpt lat="43.95784" lon="5.75807">
        <ele>614.91723632812</ele>
        <time>2020-10-22T16:51:46.698Z</time>
      </trkpt>
      <trkpt lat="43.95771" lon="5.75766">
        <ele>615.2998046875</ele>
        <time>2020-10-22T16:51:47.585Z</time>
      </trkpt>
      <trkpt lat="43.95768" lon="5.75761">
        <ele>615.40777587891</ele>
        <time>2020-10-22T16:51:48.474Z</time>
      </trkpt>
      <trkpt lat="43.95743" lon="5.75746">
        <ele>615.34777832031</ele>
        <time>2020-10-22T16:51:49.372Z</time>
      </trkpt>
      <trkpt lat="43.95729" lon="5.75735">
        <ele>615.40777587891</ele>
        <time>2020-10-22T16:51:50.275Z</time>
      </trkpt>
      <trkpt lat="43.95704" lon="5.75695">
        <ele>616.87097167969</ele>
        <time>2020-10-22T16:51:51.191Z</time>
      </trkpt>
      <trkpt lat="43.95697" lon="5.75679">
        <ele>617.66284179688</ele>
        <time>2020-10-22T16:51:52.111Z</time>
      </trkpt>
      <trkpt lat="43.95695" lon="5.75669">
        <ele>618.21472167969</ele>
        <time>2020-10-22T16:51:53.034Z</time>
      </trkpt>
      <trkpt lat="43.95684" lon="5.75641">
        <ele>618.96160888672</ele>
        <time>2020-10-22T16:51:53.965Z</time>
      </trkpt>
      <trkpt lat="43.95678" lon="5.75612">
        <ele>618.89965820312</ele>
        <time>2020-10-22T16:51:54.903Z</time>
      </trkpt>
      <trkpt lat="43.95655" lon="5.75537">
        <ele>618.21917724609</ele>
        <time>2020-10-22T16:51:55.861Z</time>
      </trkpt>
      <trkpt lat="43.9563" lon="5.75479">
        <ele>616.931640625</ele>
        <time>2020-10-22T16:51:56.835Z</time>
      </trkpt>
      <trkpt lat="43.95624" lon="5.75461">
        <ele>616.83483886719</ele>
        <time>2020-10-22T16:51:57.814Z</time>
      </trkpt>
      <trkpt lat="43.95647" lon="5.75404">
        <ele>621.77972412109</ele>
        <time>2020-10-22T16:51:58.808Z</time>
      </trkpt>
      <trkpt lat="43.95657" lon="5.754">
        <ele>622.73956298828</ele>
        <time>2020-10-22T16:51:59.806Z</time>
      </trkpt>
      <trkpt lat="43.95667" lon="5.75407">
        <ele>623.69940185547</ele>
        <time>2020-10-22T16:52:00.807Z</time>
      </trkpt>
      <trkpt lat="43.95677" lon="5.75422">
        <ele>624.65924072266</ele>
        <time>2020-10-22T16:52:01.813Z</time>
      </trkpt>
      <trkpt lat="43.95687" lon="5.75425">
        <ele>625.61907958984</ele>
        <time>2020-10-22T16:52:02.823Z</time>
      </trkpt>
      <trkpt lat="43.95695" lon="5.75419">
        <ele>626.58044433594</ele>
        <time>2020-10-22T16:52:03.836Z</time>
      </trkpt>
      <trkpt lat="43.95707" lon="5.75405">
        <ele>628.30810546875</ele>
        <time>2020-10-22T16:52:04.854Z</time>
      </trkpt>
      <trkpt lat="43.95712" lon="5.75405">
        <ele>628.89776611328</ele>
        <time>2020-10-22T16:52:05.874Z</time>
      </trkpt>
      <trkpt lat="43.9572" lon="5.7541">
        <ele>629.94158935547</ele>
        <time>2020-10-22T16:52:06.897Z</time>
      </trkpt>
      <trkpt lat="43.95727" lon="5.7541">
        <ele>630.69750976562</ele>
        <time>2020-10-22T16:52:07.922Z</time>
      </trkpt>
      <trkpt lat="43.9573" lon="5.75403">
        <ele>630.76947021484</ele>
        <time>2020-10-22T16:52:08.949Z</time>
      </trkpt>
      <trkpt lat="43.95732" lon="5.75392">
        <ele>630.58953857422</ele>
        <time>2020-10-22T16:52:09.979Z</time>
      </trkpt>
      <trkpt lat="43.95738" lon="5.75391">
        <ele>631.20141601562</ele>
        <time>2020-10-22T16:52:11.011Z</time>
      </trkpt>
      <trkpt lat="43.95749" lon="5.754">
        <ele>632.71313476562</ele>
        <time>2020-10-22T16:52:12.047Z</time>
      </trkpt>
      <trkpt lat="43.95757" lon="5.75411">
        <ele>633.97296142578</ele>
        <time>2020-10-22T16:52:13.087Z</time>
      </trkpt>
      <trkpt lat="43.95764" lon="5.75408">
        <ele>634.62084960938</ele>
        <time>2020-10-22T16:52:14.129Z</time>
      </trkpt>
      <trkpt lat="43.9577" lon="5.754">
        <ele>634.98077392578</ele>
        <time>2020-10-22T16:52:15.174Z</time>
      </trkpt>
      <trkpt lat="43.95788" lon="5.75397">
        <ele>637.30902099609</ele>
        <time>2020-10-22T16:52:16.225Z</time>
      </trkpt>
      <trkpt lat="43.95805" lon="5.75398">
        <ele>639.79260253906</ele>
        <time>2020-10-22T16:52:17.282Z</time>
      </trkpt>
      <trkpt lat="43.95815" lon="5.7539">
        <ele>640.94439697266</ele>
        <time>2020-10-22T16:52:18.342Z</time>
      </trkpt>
      <trkpt lat="43.95817" lon="5.75379">
        <ele>640.939453125</ele>
        <time>2020-10-22T16:52:19.405Z</time>
      </trkpt>
      <trkpt lat="43.95826" lon="5.75386">
        <ele>642.40319824219</ele>
        <time>2020-10-22T16:52:20.472Z</time>
      </trkpt>
      <trkpt lat="43.95833" lon="5.75397">
        <ele>643.78796386719</ele>
        <time>2020-10-22T16:52:21.542Z</time>
      </trkpt>
      <trkpt lat="43.95845" lon="5.75386">
        <ele>645.13873291016</ele>
        <time>2020-10-22T16:52:22.617Z</time>
      </trkpt>
      <trkpt lat="43.9586" lon="5.75383">
        <ele>646.9501953125</ele>
        <time>2020-10-22T16:52:23.697Z</time>
      </trkpt>
      <trkpt lat="43.95874" lon="5.75384">
        <ele>648.70190429688</ele>
        <time>2020-10-22T16:52:24.782Z</time>
      </trkpt>
      <trkpt lat="43.95876" lon="5.75369">
        <ele>647.86206054688</ele>
        <time>2020-10-22T16:52:25.870Z</time>
      </trkpt>
      <trkpt lat="43.95894" lon="5.75361">
        <ele>649.44580078125</ele>
        <time>2020-10-22T16:52:26.965Z</time>
      </trkpt>
      <trkpt lat="43.95901" lon="5.75368">
        <ele>650.78955078125</ele>
        <time>2020-10-22T16:52:28.063Z</time>
      </trkpt>
      <trkpt lat="43.95911" lon="5.75361">
        <ele>651.48547363281</ele>
        <time>2020-10-22T16:52:29.164Z</time>
      </trkpt>
      <trkpt lat="43.95918" lon="5.75364">
        <ele>652.55511474609</ele>
        <time>2020-10-22T16:52:30.268Z</time>
      </trkpt>
      <trkpt lat="43.95923" lon="5.75353">
        <ele>652.7470703125</ele>
        <time>2020-10-22T16:52:31.375Z</time>
      </trkpt>
      <trkpt lat="43.95933" lon="5.75343">
        <ele>653.70690917969</ele>
        <time>2020-10-22T16:52:32.486Z</time>
      </trkpt>
      <trkpt lat="43.95941" lon="5.75341">
        <ele>654.76275634766</ele>
        <time>2020-10-22T16:52:33.600Z</time>
      </trkpt>
      <trkpt lat="43.95953" lon="5.75342">
        <ele>655.81915283203</ele>
        <time>2020-10-22T16:52:34.718Z</time>
      </trkpt>
      <trkpt lat="43.95962" lon="5.75335">
        <ele>656.23913574219</ele>
        <time>2020-10-22T16:52:35.839Z</time>
      </trkpt>
      <trkpt lat="43.95967" lon="5.7532">
        <ele>656.55279541016</ele>
        <time>2020-10-22T16:52:36.964Z</time>
      </trkpt>
      <trkpt lat="43.95964" lon="5.75303">
        <ele>656.33972167969</ele>
        <time>2020-10-22T16:52:38.093Z</time>
      </trkpt>
      <trkpt lat="43.95948" lon="5.75282">
        <ele>654.53997802734</ele>
        <time>2020-10-22T16:52:39.230Z</time>
      </trkpt>
      <trkpt lat="43.95942" lon="5.75269">
        <ele>653.98809814453</ele>
        <time>2020-10-22T16:52:40.370Z</time>
      </trkpt>
      <trkpt lat="43.9594" lon="5.75255">
        <ele>654.06030273438</ele>
        <time>2020-10-22T16:52:41.514Z</time>
      </trkpt>
      <trkpt lat="43.95948" lon="5.75231">
        <ele>655.76379394531</ele>
        <time>2020-10-22T16:52:42.664Z</time>
      </trkpt>
      <trkpt lat="43.95937" lon="5.752">
        <ele>657.07354736328</ele>
        <time>2020-10-22T16:52:43.823Z</time>
      </trkpt>
      <trkpt lat="43.95933" lon="5.75183">
        <ele>658.68133544922</ele>
        <time>2020-10-22T16:52:44.986Z</time>
      </trkpt>
      <trkpt lat="43.95934" lon="5.75165">
        <ele>660.94891357422</ele>
        <time>2020-10-22T16:52:46.153Z</time>
      </trkpt>
      <trkpt lat="43.95944" lon="5.75132">
        <ele>665.72198486328</ele>
        <time>2020-10-22T16:52:47.329Z</time>
      </trkpt>
      <trkpt lat="43.95958" lon="5.75126">
        <ele>667.66564941406</ele>
        <time>2020-10-22T16:52:48.510Z</time>
      </trkpt>
      <trkpt lat="43.95969" lon="5.75128">
        <ele>668.70947265625</ele>
        <time>2020-10-22T16:52:49.694Z</time>
      </trkpt>
      <trkpt lat="43.9598" lon="5.75125">
        <ele>670.11328125</ele>
        <time>2020-10-22T16:52:50.882Z</time>
      </trkpt>
      <trkpt lat="43.95996" lon="5.75113">
        <ele>672.70483398438</ele>
        <time>2020-10-22T16:52:52.076Z</time>
      </trkpt>
      <trkpt lat="43.95996" lon="5.75098">
        <ele>673.38195800781</ele>
        <time>2020-10-22T16:52:53.274Z</time>
      </trkpt>
      <trkpt lat="43.95991" lon="5.75083">
        <ele>673.56195068359</ele>
        <time>2020-10-22T16:52:54.476Z</time>
      </trkpt>
      <trkpt lat="43.95991" lon="5.7507">
        <ele>674.02984619141</ele>
        <time>2020-10-22T16:52:55.681Z</time>
      </trkpt>
      <trkpt lat="43.95996" lon="5.75062">
        <ele>674.677734375</ele>
        <time>2020-10-22T16:52:56.888Z</time>
      </trkpt>
      <trkpt lat="43.96001" lon="5.75062">
        <ele>675.03771972656</ele>
        <time>2020-10-22T16:52:58.097Z</time>
      </trkpt>
      <trkpt lat="43.96006" lon="5.75058">
        <ele>675.54162597656</ele>
        <time>2020-10-22T16:52:59.308Z</time>
      </trkpt>
      <trkpt lat="43.96011" lon="5.75046">
        <ele>676.33349609375</ele>
        <time>2020-10-22T16:53:00.522Z</time>
      </trkpt>
      <trkpt lat="43.96011" lon="5.74985">
        <ele>679.86901855469</ele>
        <time>2020-10-22T16:53:01.751Z</time>
      </trkpt>
      <trkpt lat="43.96016" lon="5.74967">
        <ele>680.82824707031</ele>
        <time>2020-10-22T16:53:02.985Z</time>
      </trkpt>
      <trkpt lat="43.96058" lon="5.74956">
        <ele>682.23645019531</ele>
        <time>2020-10-22T16:53:04.233Z</time>
      </trkpt>
      <trkpt lat="43.9607" lon="5.74945">
        <ele>681.63659667969</ele>
        <time>2020-10-22T16:53:05.486Z</time>
      </trkpt>
      <trkpt lat="43.96079" lon="5.74934">
        <ele>681.05218505859</ele>
        <time>2020-10-22T16:53:06.743Z</time>
      </trkpt>
      <trkpt lat="43.96102" lon="5.7493">
        <ele>682.59991455078</ele>
        <time>2020-10-22T16:53:08.007Z</time>
      </trkpt>
      <trkpt lat="43.96126" lon="5.74921">
        <ele>683.09320068359</ele>
        <time>2020-10-22T16:53:09.280Z</time>
      </trkpt>
      <trkpt lat="43.96136" lon="5.74915">
        <ele>683.04510498047</ele>
        <time>2020-10-22T16:53:10.556Z</time>
      </trkpt>
      <trkpt lat="43.96148" lon="5.74917">
        <ele>684.41290283203</ele>
        <time>2020-10-22T16:53:11.836Z</time>
      </trkpt>
      <trkpt lat="43.96162" lon="5.74916">
        <ele>685.88861083984</ele>
        <time>2020-10-22T16:53:13.121Z</time>
      </trkpt>
      <trkpt lat="43.9617" lon="5.74907">
        <ele>686.42852783203</ele>
        <time>2020-10-22T16:53:14.410Z</time>
      </trkpt>
      <trkpt lat="43.96189" lon="5.74871">
        <ele>684.68524169922</ele>
        <time>2020-10-22T16:53:15.709Z</time>
      </trkpt>
      <trkpt lat="43.96213" lon="5.74848">
        <ele>683.52398681641</ele>
        <time>2020-10-22T16:53:17.018Z</time>
      </trkpt>
      <trkpt lat="43.96223" lon="5.74842">
        <ele>683.64392089844</ele>
        <time>2020-10-22T16:53:18.331Z</time>
      </trkpt>
      <trkpt lat="43.96234" lon="5.74838">
        <ele>684.24383544922</ele>
        <time>2020-10-22T16:53:19.647Z</time>
      </trkpt>
      <trkpt lat="43.96248" lon="5.74836">
        <ele>685.56359863281</ele>
        <time>2020-10-22T16:53:20.968Z</time>
      </trkpt>
      <trkpt lat="43.96297" lon="5.74823">
        <ele>687.88317871094</ele>
        <time>2020-10-22T16:53:22.306Z</time>
      </trkpt>
      <trkpt lat="43.96336" lon="5.74818">
        <ele>688.20709228516</ele>
        <time>2020-10-22T16:53:23.657Z</time>
      </trkpt>
      <trkpt lat="43.96368" lon="5.74809">
        <ele>686.66351318359</ele>
        <time>2020-10-22T16:53:25.019Z</time>
      </trkpt>
      <trkpt lat="43.96406" lon="5.7481">
        <ele>684.64788818359</ele>
        <time>2020-10-22T16:53:26.393Z</time>
      </trkpt>
      <trkpt lat="43.96456" lon="5.74815">
        <ele>682.64306640625</ele>
        <time>2020-10-22T16:53:27.784Z</time>
      </trkpt>
      <trkpt lat="43.9649" lon="5.7481">
        <ele>677.47192382812</ele>
        <time>2020-10-22T16:53:29.186Z</time>
      </trkpt>
      <trkpt lat="43.96545" lon="5.74816">
        <ele>674.34881591797</ele>
        <time>2020-10-22T16:53:30.607Z</time>
      </trkpt>
      <trkpt lat="43.96573" lon="5.7481">
        <ele>672.23712158203</ele>
        <time>2020-10-22T16:53:32.037Z</time>
      </trkpt>
      <trkpt lat="43.9657" lon="5.74801">
        <ele>669.88446044922</ele>
        <time>2020-10-22T16:53:33.470Z</time>
      </trkpt>
      <trkpt lat="43.96555" lon="5.74788">
        <ele>666.03308105469</ele>
        <time>2020-10-22T16:53:34.909Z</time>
      </trkpt>
      <trkpt lat="43.96542" lon="5.74772">
        <ele>661.16192626953</ele>
        <time>2020-10-22T16:53:36.353Z</time>
      </trkpt>
      <trkpt lat="43.96513" lon="5.74745">
        <ele>653.66033935547</ele>
        <time>2020-10-22T16:53:37.809Z</time>
      </trkpt>
      <trkpt lat="43.96503" lon="5.74729">
        <ele>649.19708251953</ele>
        <time>2020-10-22T16:53:39.270Z</time>
      </trkpt>
      <trkpt lat="43.96497" lon="5.74728">
        <ele>649.30505371094</ele>
        <time>2020-10-22T16:53:40.733Z</time>
      </trkpt>
      <trkpt lat="43.96488" lon="5.7473">
        <ele>650.60083007812</ele>
        <time>2020-10-22T16:53:42.199Z</time>
      </trkpt>
      <trkpt lat="43.96487" lon="5.74709">
        <ele>644.01159667969</ele>
        <time>2020-10-22T16:53:43.670Z</time>
      </trkpt>
      <trkpt lat="43.96473" lon="5.74671">
        <ele>633.16540527344</ele>
        <time>2020-10-22T16:53:45.152Z</time>
      </trkpt>
      <trkpt lat="43.96457" lon="5.74659">
        <ele>630.57385253906</ele>
        <time>2020-10-22T16:53:46.640Z</time>
      </trkpt>
      <trkpt lat="43.96437" lon="5.74627">
        <ele>621.81298828125</ele>
        <time>2020-10-22T16:53:48.138Z</time>
      </trkpt>
      <trkpt lat="43.9643" lon="5.74602">
        <ele>614.23022460938</ele>
        <time>2020-10-22T16:53:49.642Z</time>
      </trkpt>
      <trkpt lat="43.96416" lon="5.74589">
        <ele>610.16290283203</ele>
        <time>2020-10-22T16:53:51.152Z</time>
      </trkpt>
      <trkpt lat="43.96407" lon="5.74576">
        <ele>606.15557861328</ele>
        <time>2020-10-22T16:53:52.666Z</time>
      </trkpt>
      <trkpt lat="43.96404" lon="5.74566">
        <ele>603.1201171875</ele>
        <time>2020-10-22T16:53:54.183Z</time>
      </trkpt>
      <trkpt lat="43.96392" lon="5.74558">
        <ele>600.57653808594</ele>
        <time>2020-10-22T16:53:55.704Z</time>
      </trkpt>
      <trkpt lat="43.96378" lon="5.74558">
        <ele>600.40856933594</ele>
        <time>2020-10-22T16:53:57.230Z</time>
      </trkpt>
      <trkpt lat="43.96362" lon="5.74554">
        <ele>599.0126953125</ele>
        <time>2020-10-22T16:53:58.761Z</time>
      </trkpt>
      <trkpt lat="43.96354" lon="5.74522">
        <ele>588.07659912109</ele>
        <time>2020-10-22T16:54:00.300Z</time>
      </trkpt>
      <trkpt lat="43.96354" lon="5.74498">
        <ele>580.01391601562</ele>
        <time>2020-10-22T16:54:01.845Z</time>
      </trkpt>
      <trkpt lat="43.9635" lon="5.74498">
        <ele>579.86993408203</ele>
        <time>2020-10-22T16:54:03.392Z</time>
      </trkpt>
      <trkpt lat="43.96346" lon="5.74493">
        <ele>578.04626464844</ele>
        <time>2020-10-22T16:54:04.940Z</time>
      </trkpt>
      <trkpt lat="43.96346" lon="5.74487">
        <ele>576.03057861328</ele>
        <time>2020-10-22T16:54:06.490Z</time>
      </trkpt>
      <trkpt lat="43.96341" lon="5.7449">
        <ele>576.85845947266</ele>
        <time>2020-10-22T16:54:08.042Z</time>
      </trkpt>
      <trkpt lat="43.96337" lon="5.7448">
        <ele>573.35504150391</ele>
        <time>2020-10-22T16:54:09.596Z</time>
      </trkpt>
      <trkpt lat="43.96335" lon="5.74468">
        <ele>569.94885253906</ele>
        <time>2020-10-22T16:54:11.153Z</time>
      </trkpt>
      <trkpt lat="43.96333" lon="5.74411">
        <ele>558.78704833984</ele>
        <time>2020-10-22T16:54:12.724Z</time>
      </trkpt>
      <trkpt lat="43.96328" lon="5.74356">
        <ele>550.54357910156</ele>
        <time>2020-10-22T16:54:14.308Z</time>
      </trkpt>
      <trkpt lat="43.9633" lon="5.74318">
        <ele>544.66455078125</ele>
        <time>2020-10-22T16:54:15.902Z</time>
      </trkpt>
      <trkpt lat="43.96333" lon="5.74302">
        <ele>541.47552490234</ele>
        <time>2020-10-22T16:54:17.500Z</time>
      </trkpt>
      <trkpt lat="43.96333" lon="5.74274">
        <ele>534.00439453125</ele>
        <time>2020-10-22T16:54:19.104Z</time>
      </trkpt>
      <trkpt lat="43.96322" lon="5.74223">
        <ele>524.09405517578</ele>
        <time>2020-10-22T16:54:20.721Z</time>
      </trkpt>
      <trkpt lat="43.96316" lon="5.74213">
        <ele>520.98919677734</ele>
        <time>2020-10-22T16:54:22.341Z</time>
      </trkpt>
      <trkpt lat="43.96307" lon="5.74203">
        <ele>517.83374023438</ele>
        <time>2020-10-22T16:54:23.965Z</time>
      </trkpt>
      <trkpt lat="43.96307" lon="5.74197">
        <ele>515.09820556641</ele>
        <time>2020-10-22T16:54:25.591Z</time>
      </trkpt>
      <trkpt lat="43.96325" lon="5.74199">
        <ele>513.20251464844</ele>
        <time>2020-10-22T16:54:27.223Z</time>
      </trkpt>
      <trkpt lat="43.96336" lon="5.74202">
        <ele>512.85455322266</ele>
        <time>2020-10-22T16:54:28.858Z</time>
      </trkpt>
      <trkpt lat="43.96351" lon="5.742">
        <ele>512.11889648438</ele>
        <time>2020-10-22T16:54:30.498Z</time>
      </trkpt>
      <trkpt lat="43.96354" lon="5.74193">
        <ele>510.25918579102</ele>
        <time>2020-10-22T16:54:32.140Z</time>
      </trkpt>
      <trkpt lat="43.96353" lon="5.7419">
        <ele>509.40734863281</ele>
        <time>2020-10-22T16:54:33.783Z</time>
      </trkpt>
      <trkpt lat="43.96355" lon="5.74186">
        <ele>508.35150146484</ele>
        <time>2020-10-22T16:54:35.427Z</time>
      </trkpt>
      <trkpt lat="43.96354" lon="5.74181">
        <ele>506.94775390625</ele>
        <time>2020-10-22T16:54:37.073Z</time>
      </trkpt>
      <trkpt lat="43.9636" lon="5.74162">
        <ele>501.84860229492</ele>
        <time>2020-10-22T16:54:38.724Z</time>
      </trkpt>
      <trkpt lat="43.96366" lon="5.74149">
        <ele>498.40518188477</ele>
        <time>2020-10-22T16:54:40.378Z</time>
      </trkpt>
      <trkpt lat="43.96374" lon="5.74143">
        <ele>497.06896972656</ele>
        <time>2020-10-22T16:54:42.035Z</time>
      </trkpt>
      <trkpt lat="43.96376" lon="5.74139">
        <ele>496.08514404297</ele>
        <time>2020-10-22T16:54:43.693Z</time>
      </trkpt>
      <trkpt lat="43.96375" lon="5.74132">
        <ele>494.58862304688</ele>
        <time>2020-10-22T16:54:45.353Z</time>
      </trkpt>
      <trkpt lat="43.96377" lon="5.74124">
        <ele>493.12484741211</ele>
        <time>2020-10-22T16:54:47.015Z</time>
      </trkpt>
      <trkpt lat="43.96383" lon="5.74116">
        <ele>491.80508422852</ele>
        <time>2020-10-22T16:54:48.680Z</time>
      </trkpt>
      <trkpt lat="43.96387" lon="5.74105">
        <ele>489.83740234375</ele>
        <time>2020-10-22T16:54:50.348Z</time>
      </trkpt>
      <trkpt lat="43.96387" lon="5.74091">
        <ele>487.14984130859</ele>
        <time>2020-10-22T16:54:52.019Z</time>
      </trkpt>
      <trkpt lat="43.96384" lon="5.7407">
        <ele>482.88714599609</ele>
        <time>2020-10-22T16:54:53.695Z</time>
      </trkpt>
      <trkpt lat="43.96384" lon="5.74064">
        <ele>481.6633605957</ele>
        <time>2020-10-22T16:54:55.373Z</time>
      </trkpt>
      <trkpt lat="43.96387" lon="5.74054">
        <ele>479.69863891602</ele>
        <time>2020-10-22T16:54:57.054Z</time>
      </trkpt>
      <trkpt lat="43.96391" lon="5.74051">
        <ele>479.47067260742</ele>
        <time>2020-10-22T16:54:58.736Z</time>
      </trkpt>
      <trkpt lat="43.96407" lon="5.74031">
        <ele>477.69497680664</ele>
        <time>2020-10-22T16:55:00.425Z</time>
      </trkpt>
      <trkpt lat="43.96412" lon="5.74022">
        <ele>476.77264404297</ele>
        <time>2020-10-22T16:55:02.117Z</time>
      </trkpt>
      <trkpt lat="43.96409" lon="5.74014">
        <ele>475.716796875</ele>
        <time>2020-10-22T16:55:03.811Z</time>
      </trkpt>
      <trkpt lat="43.96402" lon="5.7401">
        <ele>475.18890380859</ele>
        <time>2020-10-22T16:55:05.508Z</time>
      </trkpt>
      <trkpt lat="43.96395" lon="5.74002">
        <ele>474.1330871582</ele>
        <time>2020-10-22T16:55:07.208Z</time>
      </trkpt>
      <trkpt lat="43.96392" lon="5.73995">
        <ele>473.20922851562</ele>
        <time>2020-10-22T16:55:08.910Z</time>
      </trkpt>
      <trkpt lat="43.96392" lon="5.73991">
        <ele>472.68130493164</ele>
        <time>2020-10-22T16:55:10.613Z</time>
      </trkpt>
      <trkpt lat="43.96392" lon="5.73993">
        <ele>472.94528198242</ele>
        <time>2020-10-22T16:55:12.316Z</time>
      </trkpt>
      <trkpt lat="43.96393" lon="5.73986">
        <ele>472.02142333984</ele>
        <time>2020-10-22T16:55:14.021Z</time>
      </trkpt>
      <trkpt lat="43.96397" lon="5.73981">
        <ele>471.36154174805</ele>
        <time>2020-10-22T16:55:15.728Z</time>
      </trkpt>
      <trkpt lat="43.964" lon="5.73971">
        <ele>470.04174804688</ele>
        <time>2020-10-22T16:55:17.437Z</time>
      </trkpt>
      <trkpt lat="43.96401" lon="5.7396">
        <ele>469.74362182617</ele>
        <time>2020-10-22T16:55:19.149Z</time>
      </trkpt>
      <trkpt lat="43.96403" lon="5.73956">
        <ele>469.64764404297</ele>
        <time>2020-10-22T16:55:20.862Z</time>
      </trkpt>
      <trkpt lat="43.96409" lon="5.73953">
        <ele>469.57565307617</ele>
        <time>2020-10-22T16:55:22.577Z</time>
      </trkpt>
      <trkpt lat="43.96411" lon="5.73953">
        <ele>469.57565307617</ele>
        <time>2020-10-22T16:55:24.293Z</time>
      </trkpt>
      <trkpt lat="43.96413" lon="5.73956">
        <ele>469.64764404297</ele>
        <time>2020-10-22T16:55:26.010Z</time>
      </trkpt>
      <trkpt lat="43.96418" lon="5.73916">
        <ele>469.82485961914</ele>
        <time>2020-10-22T16:55:27.737Z</time>
      </trkpt>
      <trkpt lat="43.96404" lon="5.739">
        <ele>469.51290893555</ele>
        <time>2020-10-22T16:55:29.470Z</time>
      </trkpt>
      <trkpt lat="43.964" lon="5.73891">
        <ele>469.47692871094</ele>
        <time>2020-10-22T16:55:31.205Z</time>
      </trkpt>
      <trkpt lat="43.96397" lon="5.73881">
        <ele>470.02108764648</ele>
        <time>2020-10-22T16:55:32.943Z</time>
      </trkpt>
      <trkpt lat="43.9639" lon="5.7383">
        <ele>474.58941650391</ele>
        <time>2020-10-22T16:55:34.693Z</time>
      </trkpt>
      <trkpt lat="43.96386" lon="5.73825">
        <ele>474.9133605957</ele>
        <time>2020-10-22T16:55:36.445Z</time>
      </trkpt>
      <trkpt lat="43.9637" lon="5.7382">
        <ele>474.90426635742</ele>
        <time>2020-10-22T16:55:38.203Z</time>
      </trkpt>
      <trkpt lat="43.96362" lon="5.73812">
        <ele>475.38418579102</ele>
        <time>2020-10-22T16:55:39.964Z</time>
      </trkpt>
      <trkpt lat="43.9636" lon="5.73806">
        <ele>475.88519287109</ele>
        <time>2020-10-22T16:55:41.726Z</time>
      </trkpt>
      <trkpt lat="43.96349" lon="5.73724">
        <ele>487.41159057617</ele>
        <time>2020-10-22T16:55:43.509Z</time>
      </trkpt>
      <trkpt lat="43.96351" lon="5.73723">
        <ele>487.57955932617</ele>
        <time>2020-10-22T16:55:45.292Z</time>
      </trkpt>
      <trkpt lat="43.96344" lon="5.73684">
        <ele>491.40670776367</ele>
        <time>2020-10-22T16:55:47.085Z</time>
      </trkpt>
      <trkpt lat="43.96328" lon="5.73614">
        <ele>498.3740234375</ele>
        <time>2020-10-22T16:55:48.896Z</time>
      </trkpt>
      <trkpt lat="43.96323" lon="5.73598">
        <ele>499.57809448242</ele>
        <time>2020-10-22T16:55:50.711Z</time>
      </trkpt>
      <trkpt lat="43.96321" lon="5.73576">
        <ele>501.08984375</ele>
        <time>2020-10-22T16:55:52.531Z</time>
      </trkpt>
      <trkpt lat="43.96326" lon="5.73555">
        <ele>502.78155517578</ele>
        <time>2020-10-22T16:55:54.356Z</time>
      </trkpt>
      <trkpt lat="43.96344" lon="5.7353">
        <ele>506.04858398438</ele>
        <time>2020-10-22T16:55:56.190Z</time>
      </trkpt>
      <trkpt lat="43.96351" lon="5.73516">
        <ele>508.14822387695</ele>
        <time>2020-10-22T16:55:58.028Z</time>
      </trkpt>
      <trkpt lat="43.96361" lon="5.73481">
        <ele>512.71319580078</ele>
        <time>2020-10-22T16:55:59.875Z</time>
      </trkpt>
      <trkpt lat="43.96365" lon="5.73465">
        <ele>514.55737304688</ele>
        <time>2020-10-22T16:56:01.726Z</time>
      </trkpt>
      <trkpt lat="43.96366" lon="5.73444">
        <ele>516.33306884766</ele>
        <time>2020-10-22T16:56:03.582Z</time>
      </trkpt>
      <trkpt lat="43.9637" lon="5.73428">
        <ele>517.72485351562</ele>
        <time>2020-10-22T16:56:05.442Z</time>
      </trkpt>
      <trkpt lat="43.96369" lon="5.73408">
        <ele>519.392578125</ele>
        <time>2020-10-22T16:56:07.307Z</time>
      </trkpt>
      <trkpt lat="43.96401" lon="5.73256">
        <ele>537.45074462891</ele>
        <time>2020-10-22T16:56:09.210Z</time>
      </trkpt>
      <trkpt lat="43.96406" lon="5.73246">
        <ele>538.41058349609</ele>
        <time>2020-10-22T16:56:11.116Z</time>
      </trkpt>
      <trkpt lat="43.9643" lon="5.73215">
        <ele>542.53540039062</ele>
        <time>2020-10-22T16:56:13.033Z</time>
      </trkpt>
      <trkpt lat="43.96438" lon="5.73191">
        <ele>544.62475585938</ele>
        <time>2020-10-22T16:56:14.956Z</time>
      </trkpt>
      <trkpt lat="43.96452" lon="5.73133">
        <ele>548.55578613281</ele>
        <time>2020-10-22T16:56:16.894Z</time>
      </trkpt>
      <trkpt lat="43.96453" lon="5.731">
        <ele>552.91107177734</ele>
        <time>2020-10-22T16:56:18.840Z</time>
      </trkpt>
      <trkpt lat="43.9645" lon="5.73099">
        <ele>553.04309082031</ele>
        <time>2020-10-22T16:56:20.787Z</time>
      </trkpt>
      <trkpt lat="43.96446" lon="5.73057">
        <ele>558.43743896484</ele>
        <time>2020-10-22T16:56:22.744Z</time>
      </trkpt>
      <trkpt lat="43.96456" lon="5.72975">
        <ele>563.99639892578</ele>
        <time>2020-10-22T16:56:24.721Z</time>
      </trkpt>
      <trkpt lat="43.9646" lon="5.72955">
        <ele>564.66247558594</ele>
        <time>2020-10-22T16:56:26.703Z</time>
      </trkpt>
      <trkpt lat="43.96472" lon="5.72912">
        <ele>566.16680908203</ele>
        <time>2020-10-22T16:56:28.697Z</time>
      </trkpt>
      <trkpt lat="43.96477" lon="5.72874">
        <ele>569.63604736328</ele>
        <time>2020-10-22T16:56:30.700Z</time>
      </trkpt>
      <trkpt lat="43.96485" lon="5.72688">
        <ele>583.26245117188</ele>
        <time>2020-10-22T16:56:32.748Z</time>
      </trkpt>
      <trkpt lat="43.96484" lon="5.72649">
        <ele>588.00164794922</ele>
        <time>2020-10-22T16:56:34.805Z</time>
      </trkpt>
      <trkpt lat="43.96487" lon="5.72591">
        <ele>594.98895263672</ele>
        <time>2020-10-22T16:56:36.876Z</time>
      </trkpt>
      <trkpt lat="43.9649" lon="5.72582">
        <ele>596.1767578125</ele>
        <time>2020-10-22T16:56:38.949Z</time>
      </trkpt>
      <trkpt lat="43.96494" lon="5.72578">
        <ele>596.60870361328</ele>
        <time>2020-10-22T16:56:41.024Z</time>
      </trkpt>
      <trkpt lat="43.96502" lon="5.72574">
        <ele>596.89666748047</ele>
        <time>2020-10-22T16:56:43.102Z</time>
      </trkpt>
      <trkpt lat="43.96507" lon="5.72568">
        <ele>597.58056640625</ele>
        <time>2020-10-22T16:56:45.182Z</time>
      </trkpt>
      <trkpt lat="43.9651" lon="5.72558">
        <ele>598.91235351562</ele>
        <time>2020-10-22T16:56:47.265Z</time>
      </trkpt>
      <trkpt lat="43.9652" lon="5.72499">
        <ele>605.94555664062</ele>
        <time>2020-10-22T16:56:49.362Z</time>
      </trkpt>
      <trkpt lat="43.96535" lon="5.72381">
        <ele>618.64373779297</ele>
        <time>2020-10-22T16:56:51.488Z</time>
      </trkpt>
      <trkpt lat="43.96551" lon="5.72273">
        <ele>632.576171875</ele>
        <time>2020-10-22T16:56:53.641Z</time>
      </trkpt>
      <trkpt lat="43.96552" lon="5.72254">
        <ele>635.95959472656</ele>
        <time>2020-10-22T16:56:55.798Z</time>
      </trkpt>
      <trkpt lat="43.96547" lon="5.72203">
        <ele>645.04736328125</ele>
        <time>2020-10-22T16:56:57.968Z</time>
      </trkpt>
      <trkpt lat="43.96549" lon="5.72179">
        <ele>649.27069091797</ele>
        <time>2020-10-22T16:57:00.144Z</time>
      </trkpt>
      <trkpt lat="43.96547" lon="5.72178">
        <ele>649.54663085938</ele>
        <time>2020-10-22T16:57:02.320Z</time>
      </trkpt>
      <trkpt lat="43.9655" lon="5.72167">
        <ele>651.38232421875</ele>
        <time>2020-10-22T16:57:04.499Z</time>
      </trkpt>
      <trkpt lat="43.96559" lon="5.7215">
        <ele>654.00988769531</ele>
        <time>2020-10-22T16:57:06.683Z</time>
      </trkpt>
      <trkpt lat="43.96559" lon="5.72151">
        <ele>653.82989501953</ele>
        <time>2020-10-22T16:57:08.867Z</time>
      </trkpt>
      <trkpt lat="43.96566" lon="5.72133">
        <ele>656.92755126953</ele>
        <time>2020-10-22T16:57:11.056Z</time>
      </trkpt>
      <trkpt lat="43.96571" lon="5.72115">
        <ele>660.79089355469</ele>
        <time>2020-10-22T16:57:13.250Z</time>
      </trkpt>
      <trkpt lat="43.96578" lon="5.72078">
        <ele>668.88952636719</ele>
        <time>2020-10-22T16:57:15.453Z</time>
      </trkpt>
      <trkpt lat="43.96579" lon="5.71986">
        <ele>687.03198242188</ele>
        <time>2020-10-22T16:57:17.678Z</time>
      </trkpt>
      <trkpt lat="43.96581" lon="5.71968">
        <ele>690.38720703125</ele>
        <time>2020-10-22T16:57:19.908Z</time>
      </trkpt>
      <trkpt lat="43.96581" lon="5.71943">
        <ele>694.89990234375</ele>
        <time>2020-10-22T16:57:22.144Z</time>
      </trkpt>
      <trkpt lat="43.9658" lon="5.71929">
        <ele>697.76745605469</ele>
        <time>2020-10-22T16:57:24.383Z</time>
      </trkpt>
      <trkpt lat="43.96569" lon="5.71875">
        <ele>709.34564208984</ele>
        <time>2020-10-22T16:57:26.636Z</time>
      </trkpt>
      <trkpt lat="43.96569" lon="5.71863">
        <ele>712.22515869141</ele>
        <time>2020-10-22T16:57:28.891Z</time>
      </trkpt>
      <trkpt lat="43.96583" lon="5.71759">
        <ele>731.90301513672</ele>
        <time>2020-10-22T16:57:31.172Z</time>
      </trkpt>
      <trkpt lat="43.96593" lon="5.7172">
        <ele>737.37689208984</ele>
        <time>2020-10-22T16:57:33.463Z</time>
      </trkpt>
      <trkpt lat="43.96593" lon="5.71705">
        <ele>740.76513671875</ele>
        <time>2020-10-22T16:57:35.758Z</time>
      </trkpt>
      <trkpt lat="43.96595" lon="5.71701">
        <ele>741.00506591797</ele>
        <time>2020-10-22T16:57:38.054Z</time>
      </trkpt>
      <trkpt lat="43.96619" lon="5.71682">
        <ele>741.97283935547</ele>
        <time>2020-10-22T16:57:40.359Z</time>
      </trkpt>
      <trkpt lat="43.96622" lon="5.71675">
        <ele>743.29266357422</ele>
        <time>2020-10-22T16:57:42.666Z</time>
      </trkpt>
      <trkpt lat="43.9662" lon="5.71665">
        <ele>744.87634277344</ele>
        <time>2020-10-22T16:57:44.975Z</time>
      </trkpt>
      <trkpt lat="43.96612" lon="5.71652">
        <ele>746.67608642578</ele>
        <time>2020-10-22T16:57:47.288Z</time>
      </trkpt>
      <trkpt lat="43.96611" lon="5.71633">
        <ele>749.84393310547</ele>
        <time>2020-10-22T16:57:49.606Z</time>
      </trkpt>
      <trkpt lat="43.96604" lon="5.71627">
        <ele>752.23706054688</ele>
        <time>2020-10-22T16:57:51.927Z</time>
      </trkpt>
      <trkpt lat="43.96596" lon="5.71626">
        <ele>754.04455566406</ele>
        <time>2020-10-22T16:57:54.251Z</time>
      </trkpt>
      <trkpt lat="43.96587" lon="5.71597">
        <ele>763.05926513672</ele>
        <time>2020-10-22T16:57:56.582Z</time>
      </trkpt>
      <trkpt lat="43.96572" lon="5.71563">
        <ele>774.50531005859</ele>
        <time>2020-10-22T16:57:58.923Z</time>
      </trkpt>
      <trkpt lat="43.96568" lon="5.71546">
        <ele>778.64294433594</ele>
        <time>2020-10-22T16:58:01.268Z</time>
      </trkpt>
      <trkpt lat="43.96566" lon="5.71508">
        <ele>784.82244873047</ele>
        <time>2020-10-22T16:58:03.622Z</time>
      </trkpt>
      <trkpt lat="43.96563" lon="5.71501">
        <ele>787.13806152344</ele>
        <time>2020-10-22T16:58:05.978Z</time>
      </trkpt>
      <trkpt lat="43.96547" lon="5.71473">
        <ele>796.3525390625</ele>
        <time>2020-10-22T16:58:08.343Z</time>
      </trkpt>
      <trkpt lat="43.96541" lon="5.71468">
        <ele>797.22589111328</ele>
        <time>2020-10-22T16:58:10.710Z</time>
      </trkpt>
      <trkpt lat="43.96526" lon="5.71462">
        <ele>797.11791992188</ele>
        <time>2020-10-22T16:58:13.082Z</time>
      </trkpt>
      <trkpt lat="43.96524" lon="5.71454">
        <ele>797.11584472656</ele>
        <time>2020-10-22T16:58:15.456Z</time>
      </trkpt>
      <trkpt lat="43.96527" lon="5.71436">
        <ele>797.44183349609</ele>
        <time>2020-10-22T16:58:17.835Z</time>
      </trkpt>
      <trkpt lat="43.96535" lon="5.71411">
        <ele>797.83776855469</ele>
        <time>2020-10-22T16:58:20.220Z</time>
      </trkpt>
      <trkpt lat="43.96553" lon="5.71295">
        <ele>805.06488037109</ele>
        <time>2020-10-22T16:58:22.634Z</time>
      </trkpt>
      <trkpt lat="43.96594" lon="5.7115">
        <ele>810.64459228516</ele>
        <time>2020-10-22T16:58:25.085Z</time>
      </trkpt>
      <trkpt lat="43.96607" lon="5.71111">
        <ele>811.11584472656</ele>
        <time>2020-10-22T16:58:27.547Z</time>
      </trkpt>
      <trkpt lat="43.96618" lon="5.71071">
        <ele>810.97650146484</ele>
        <time>2020-10-22T16:58:30.019Z</time>
      </trkpt>
      <trkpt lat="43.9662" lon="5.7106">
        <ele>810.50006103516</ele>
        <time>2020-10-22T16:58:32.494Z</time>
      </trkpt>
      <trkpt lat="43.96621" lon="5.71033">
        <ele>812.66070556641</ele>
        <time>2020-10-22T16:58:34.975Z</time>
      </trkpt>
      <trkpt lat="43.96624" lon="5.71017">
        <ele>814.98834228516</ele>
        <time>2020-10-22T16:58:37.460Z</time>
      </trkpt>
      <trkpt lat="43.96633" lon="5.70996">
        <ele>818.40777587891</ele>
        <time>2020-10-22T16:58:39.951Z</time>
      </trkpt>
      <trkpt lat="43.96639" lon="5.70976">
        <ele>819.65106201172</ele>
        <time>2020-10-22T16:58:42.447Z</time>
      </trkpt>
      <trkpt lat="43.96639" lon="5.70968">
        <ele>820.39300537109</ele>
        <time>2020-10-22T16:58:44.945Z</time>
      </trkpt>
      <trkpt lat="43.96644" lon="5.70942">
        <ele>825.07220458984</ele>
        <time>2020-10-22T16:58:47.450Z</time>
      </trkpt>
      <trkpt lat="43.96643" lon="5.70919">
        <ele>829.10180664062</ele>
        <time>2020-10-22T16:58:49.960Z</time>
      </trkpt>
      <trkpt lat="43.96638" lon="5.70902">
        <ele>831.72937011719</ele>
        <time>2020-10-22T16:58:52.475Z</time>
      </trkpt>
      <trkpt lat="43.96639" lon="5.70886">
        <ele>834.00701904297</ele>
        <time>2020-10-22T16:58:54.994Z</time>
      </trkpt>
      <trkpt lat="43.96651" lon="5.70868">
        <ele>836.38262939453</ele>
        <time>2020-10-22T16:58:57.518Z</time>
      </trkpt>
      <trkpt lat="43.96654" lon="5.7086">
        <ele>837.52239990234</ele>
        <time>2020-10-22T16:59:00.045Z</time>
      </trkpt>
      <trkpt lat="43.96661" lon="5.70814">
        <ele>844.95758056641</ele>
        <time>2020-10-22T16:59:02.583Z</time>
      </trkpt>
      <trkpt lat="43.96666" lon="5.70793">
        <ele>847.48406982422</ele>
        <time>2020-10-22T16:59:05.126Z</time>
      </trkpt>
      <trkpt lat="43.96697" lon="5.70681">
        <ele>856.81774902344</ele>
        <time>2020-10-22T16:59:07.698Z</time>
      </trkpt>
      <trkpt lat="43.96704" lon="5.7063">
        <ele>860.23590087891</ele>
        <time>2020-10-22T16:59:10.283Z</time>
      </trkpt>
      <trkpt lat="43.96706" lon="5.70624">
        <ele>860.33184814453</ele>
        <time>2020-10-22T16:59:12.869Z</time>
      </trkpt>
      <trkpt lat="43.96714" lon="5.70616">
        <ele>860.52380371094</ele>
        <time>2020-10-22T16:59:15.459Z</time>
      </trkpt>
      <trkpt lat="43.96718" lon="5.70614">
        <ele>860.59582519531</ele>
        <time>2020-10-22T16:59:18.050Z</time>
      </trkpt>
      <trkpt lat="43.96737" lon="5.70616">
        <ele>860.7998046875</ele>
        <time>2020-10-22T16:59:20.647Z</time>
      </trkpt>
      <trkpt lat="43.96768" lon="5.70629">
        <ele>861.07873535156</ele>
        <time>2020-10-22T16:59:23.255Z</time>
      </trkpt>
      <trkpt lat="43.96854" lon="5.70642">
        <ele>857.57574462891</ele>
        <time>2020-10-22T16:59:25.892Z</time>
      </trkpt>
      <trkpt lat="43.96925" lon="5.70632">
        <ele>856.79089355469</ele>
        <time>2020-10-22T16:59:28.553Z</time>
      </trkpt>
      <trkpt lat="43.96944" lon="5.70633">
        <ele>856.28485107422</ele>
        <time>2020-10-22T16:59:31.220Z</time>
      </trkpt>
      <trkpt lat="43.97045" lon="5.70652">
        <ele>854.15832519531</ele>
        <time>2020-10-22T16:59:33.921Z</time>
      </trkpt>
      <trkpt lat="43.97105" lon="5.70652">
        <ele>857.03784179688</ele>
        <time>2020-10-22T16:59:36.642Z</time>
      </trkpt>
      <trkpt lat="43.97131" lon="5.70654">
        <ele>857.34857177734</ele>
        <time>2020-10-22T16:59:39.372Z</time>
      </trkpt>
      <trkpt lat="43.97178" lon="5.70645">
        <ele>858.21240234375</ele>
        <time>2020-10-22T16:59:42.118Z</time>
      </trkpt>
      <trkpt lat="43.97305" lon="5.7061">
        <ele>860.00811767578</ele>
        <time>2020-10-22T16:59:44.907Z</time>
      </trkpt>
      <trkpt lat="43.97309" lon="5.70611">
        <ele>860.03210449219</ele>
        <time>2020-10-22T16:59:47.697Z</time>
      </trkpt>
      <trkpt lat="43.9735" lon="5.70595">
        <ele>860.09497070312</ele>
        <time>2020-10-22T16:59:50.501Z</time>
      </trkpt>
      <trkpt lat="43.97366" lon="5.70592">
        <ele>860.67919921875</ele>
        <time>2020-10-22T16:59:53.311Z</time>
      </trkpt>
      <trkpt lat="43.97389" lon="5.70592">
        <ele>862.61083984375</ele>
        <time>2020-10-22T16:59:56.128Z</time>
      </trkpt>
      <trkpt lat="43.97419" lon="5.70595">
        <ele>864.66168212891</ele>
        <time>2020-10-22T16:59:58.955Z</time>
      </trkpt>
      <trkpt lat="43.97464" lon="5.70605">
        <ele>867.60119628906</ele>
        <time>2020-10-22T17:00:01.798Z</time>
      </trkpt>
      <trkpt lat="43.97527" lon="5.70613">
        <ele>871.28704833984</ele>
        <time>2020-10-22T17:00:04.662Z</time>
      </trkpt>
      <trkpt lat="43.97565" lon="5.70612">
        <ele>873.53070068359</ele>
        <time>2020-10-22T17:00:07.538Z</time>
      </trkpt>
      <trkpt lat="43.976" lon="5.70606">
        <ele>875.41436767578</ele>
        <time>2020-10-22T17:00:10.426Z</time>
      </trkpt>
      <trkpt lat="43.97639" lon="5.7059">
        <ele>876.43310546875</ele>
        <time>2020-10-22T17:00:13.328Z</time>
      </trkpt>
      <trkpt lat="43.97654" lon="5.70576">
        <ele>877.31469726562</ele>
        <time>2020-10-22T17:00:16.236Z</time>
      </trkpt>
      <trkpt lat="43.9766" lon="5.7056">
        <ele>877.74664306641</ele>
        <time>2020-10-22T17:00:19.148Z</time>
      </trkpt>
      <trkpt lat="43.97664" lon="5.70538">
        <ele>876.18121337891</ele>
        <time>2020-10-22T17:00:22.065Z</time>
      </trkpt>
      <trkpt lat="43.9767" lon="5.70529">
        <ele>875.64654541016</ele>
        <time>2020-10-22T17:00:24.985Z</time>
      </trkpt>
      <trkpt lat="43.97674" lon="5.70526">
        <ele>875.82647705078</ele>
        <time>2020-10-22T17:00:27.907Z</time>
      </trkpt>
      <trkpt lat="43.97703" lon="5.70521">
        <ele>877.83630371094</ele>
        <time>2020-10-22T17:00:30.839Z</time>
      </trkpt>
      <trkpt lat="43.9774" lon="5.70518">
        <ele>879.39831542969</ele>
        <time>2020-10-22T17:00:33.783Z</time>
      </trkpt>
      <trkpt lat="43.97748" lon="5.7052">
        <ele>880.23822021484</ele>
        <time>2020-10-22T17:00:36.730Z</time>
      </trkpt>
      <trkpt lat="43.97766" lon="5.7053">
        <ele>882.32586669922</ele>
        <time>2020-10-22T17:00:39.683Z</time>
      </trkpt>
      <trkpt lat="43.97777" lon="5.70531">
        <ele>883.16381835938</ele>
        <time>2020-10-22T17:00:42.640Z</time>
      </trkpt>
      <trkpt lat="43.97782" lon="5.70529">
        <ele>883.03186035156</ele>
        <time>2020-10-22T17:00:45.599Z</time>
      </trkpt>
      <trkpt lat="43.97795" lon="5.70529">
        <ele>882.87585449219</ele>
        <time>2020-10-22T17:00:48.562Z</time>
      </trkpt>
      <trkpt lat="43.97818" lon="5.70534">
        <ele>882.77990722656</ele>
        <time>2020-10-22T17:00:51.533Z</time>
      </trkpt>
      <trkpt lat="43.97821" lon="5.70533">
        <ele>882.70788574219</ele>
        <time>2020-10-22T17:00:54.505Z</time>
      </trkpt>
      <trkpt lat="43.97841" lon="5.70508">
        <ele>883.95758056641</ele>
        <time>2020-10-22T17:00:57.486Z</time>
      </trkpt>
      <trkpt lat="43.97855" lon="5.70499">
        <ele>885.39733886719</ele>
        <time>2020-10-22T17:01:00.472Z</time>
      </trkpt>
      <trkpt lat="43.97859" lon="5.70492">
        <ele>885.97308349609</ele>
        <time>2020-10-22T17:01:03.460Z</time>
      </trkpt>
      <trkpt lat="43.9786" lon="5.70445">
        <ele>885.86749267578</ele>
        <time>2020-10-22T17:01:06.459Z</time>
      </trkpt>
      <trkpt lat="43.97861" lon="5.70441">
        <ele>885.71154785156</ele>
        <time>2020-10-22T17:01:09.459Z</time>
      </trkpt>
      <trkpt lat="43.97864" lon="5.70438">
        <ele>885.67553710938</ele>
        <time>2020-10-22T17:01:12.461Z</time>
      </trkpt>
      <trkpt lat="43.97867" lon="5.70436">
        <ele>885.68756103516</ele>
        <time>2020-10-22T17:01:15.464Z</time>
      </trkpt>
      <trkpt lat="43.97888" lon="5.70432">
        <ele>886.25146484375</ele>
        <time>2020-10-22T17:01:18.474Z</time>
      </trkpt>
      <trkpt lat="43.97898" lon="5.70428">
        <ele>886.41943359375</ele>
        <time>2020-10-22T17:01:21.487Z</time>
      </trkpt>
      <trkpt lat="43.97912" lon="5.7042">
        <ele>886.78845214844</ele>
        <time>2020-10-22T17:01:24.505Z</time>
      </trkpt>
      <trkpt lat="43.97937" lon="5.70399">
        <ele>887.23236083984</ele>
        <time>2020-10-22T17:01:27.533Z</time>
      </trkpt>
      <trkpt lat="43.97986" lon="5.70373">
        <ele>884.35986328125</ele>
        <time>2020-10-22T17:01:30.578Z</time>
      </trkpt>
      <trkpt lat="43.9799" lon="5.70369">
        <ele>883.59197998047</ele>
        <time>2020-10-22T17:01:33.625Z</time>
      </trkpt>
      <trkpt lat="43.97994" lon="5.70359">
        <ele>881.67230224609</ele>
        <time>2020-10-22T17:01:36.675Z</time>
      </trkpt>
      <trkpt lat="43.98006" lon="5.70344">
        <ele>878.50408935547</ele>
        <time>2020-10-22T17:01:39.730Z</time>
      </trkpt>
      <trkpt lat="43.98055" lon="5.70293">
        <ele>864.57202148438</ele>
        <time>2020-10-22T17:01:42.806Z</time>
      </trkpt>
      <trkpt lat="43.98094" lon="5.70257">
        <ele>851.31103515625</ele>
        <time>2020-10-22T17:01:45.897Z</time>
      </trkpt>
      <trkpt lat="43.9814" lon="5.70245">
        <ele>842.40283203125</ele>
        <time>2020-10-22T17:01:49.004Z</time>
      </trkpt>
      <trkpt lat="43.98157" lon="5.70252">
        <ele>842.40283203125</ele>
        <time>2020-10-22T17:01:52.117Z</time>
      </trkpt>
      <trkpt lat="43.98168" lon="5.70254">
        <ele>841.88690185547</ele>
        <time>2020-10-22T17:01:55.234Z</time>
      </trkpt>
      <trkpt lat="43.98173" lon="5.70253">
        <ele>841.26306152344</ele>
        <time>2020-10-22T17:01:58.352Z</time>
      </trkpt>
      <trkpt lat="43.9818" lon="5.70249">
        <ele>839.85925292969</ele>
        <time>2020-10-22T17:02:01.473Z</time>
      </trkpt>
      <trkpt lat="43.98198" lon="5.70234">
        <ele>835.20867919922</ele>
        <time>2020-10-22T17:02:04.601Z</time>
      </trkpt>
      <trkpt lat="43.98216" lon="5.70193">
        <ele>825.97497558594</ele>
        <time>2020-10-22T17:02:07.740Z</time>
      </trkpt>
      <trkpt lat="43.98239" lon="5.70173">
        <ele>820.82366943359</ele>
        <time>2020-10-22T17:02:10.888Z</time>
      </trkpt>
      <trkpt lat="43.98243" lon="5.70172">
        <ele>820.53576660156</ele>
        <time>2020-10-22T17:02:14.038Z</time>
      </trkpt>
      <trkpt lat="43.98254" lon="5.70178">
        <ele>821.42358398438</ele>
        <time>2020-10-22T17:02:17.192Z</time>
      </trkpt>
      <trkpt lat="43.98273" lon="5.70202">
        <ele>825.57489013672</ele>
        <time>2020-10-22T17:02:20.354Z</time>
      </trkpt>
      <trkpt lat="43.98292" lon="5.70207">
        <ele>826.4931640625</ele>
        <time>2020-10-22T17:02:23.523Z</time>
      </trkpt>
      <trkpt lat="43.98295" lon="5.70224">
        <ele>829.56744384766</ele>
        <time>2020-10-22T17:02:26.696Z</time>
      </trkpt>
      <trkpt lat="43.98299" lon="5.70229">
        <ele>830.28735351562</ele>
        <time>2020-10-22T17:02:29.871Z</time>
      </trkpt>
      <trkpt lat="43.98316" lon="5.7023">
        <ele>830.43133544922</ele>
        <time>2020-10-22T17:02:33.051Z</time>
      </trkpt>
      <trkpt lat="43.9834" lon="5.70241">
        <ele>832.01507568359</ele>
        <time>2020-10-22T17:02:36.240Z</time>
      </trkpt>
      <trkpt lat="43.9835" lon="5.70252">
        <ele>833.59881591797</ele>
        <time>2020-10-22T17:02:39.433Z</time>
      </trkpt>
      <trkpt lat="43.98362" lon="5.70279">
        <ele>837.29803466797</ele>
        <time>2020-10-22T17:02:42.634Z</time>
      </trkpt>
      <trkpt lat="43.98366" lon="5.70292">
        <ele>838.97772216797</ele>
        <time>2020-10-22T17:02:45.838Z</time>
      </trkpt>
      <trkpt lat="43.98367" lon="5.70311">
        <ele>841.93859863281</ele>
        <time>2020-10-22T17:02:49.047Z</time>
      </trkpt>
      <trkpt lat="43.98369" lon="5.70319">
        <ele>843.39453125</ele>
        <time>2020-10-22T17:02:52.258Z</time>
      </trkpt>
      <trkpt lat="43.98378" lon="5.70327">
        <ele>844.37841796875</ele>
        <time>2020-10-22T17:02:55.472Z</time>
      </trkpt>
      <trkpt lat="43.98391" lon="5.70331">
        <ele>844.38623046875</ele>
        <time>2020-10-22T17:02:58.691Z</time>
      </trkpt>
      <trkpt lat="43.98397" lon="5.70336">
        <ele>844.99810791016</ele>
        <time>2020-10-22T17:03:01.912Z</time>
      </trkpt>
      <trkpt lat="43.98396" lon="5.70371">
        <ele>852.05712890625</ele>
        <time>2020-10-22T17:03:05.141Z</time>
      </trkpt>
      <trkpt lat="43.98393" lon="5.70384">
        <ele>854.92462158203</ele>
        <time>2020-10-22T17:03:08.374Z</time>
      </trkpt>
      <trkpt lat="43.98389" lon="5.70393">
        <ele>857.12322998047</ele>
        <time>2020-10-22T17:03:11.609Z</time>
      </trkpt>
      <trkpt lat="43.9839" lon="5.70397">
        <ele>857.91510009766</ele>
        <time>2020-10-22T17:03:14.845Z</time>
      </trkpt>
      <trkpt lat="43.98412" lon="5.70407">
        <ele>858.49102783203</ele>
        <time>2020-10-22T17:03:18.089Z</time>
      </trkpt>
      <trkpt lat="43.98417" lon="5.70415">
        <ele>859.85876464844</ele>
        <time>2020-10-22T17:03:21.336Z</time>
      </trkpt>
      <trkpt lat="43.98417" lon="5.70418">
        <ele>860.50665283203</ele>
        <time>2020-10-22T17:03:24.583Z</time>
      </trkpt>
      <trkpt lat="43.98413" lon="5.70423">
        <ele>861.87445068359</ele>
        <time>2020-10-22T17:03:27.832Z</time>
      </trkpt>
      <trkpt lat="43.98409" lon="5.70459">
        <ele>871.72821044922</ele>
        <time>2020-10-22T17:03:31.090Z</time>
      </trkpt>
      <trkpt lat="43.98416" lon="5.70469">
        <ele>873.63592529297</ele>
        <time>2020-10-22T17:03:34.351Z</time>
      </trkpt>
      <trkpt lat="43.98442" lon="5.7048">
        <ele>872.95947265625</ele>
        <time>2020-10-22T17:03:37.621Z</time>
      </trkpt>
      <trkpt lat="43.98458" lon="5.70483">
        <ele>867.72564697266</ele>
        <time>2020-10-22T17:03:40.897Z</time>
      </trkpt>
      <trkpt lat="43.98472" lon="5.7049">
        <ele>865.2900390625</ele>
        <time>2020-10-22T17:03:44.178Z</time>
      </trkpt>
      <trkpt lat="43.98481" lon="5.70506">
        <ele>865.24200439453</ele>
        <time>2020-10-22T17:03:47.463Z</time>
      </trkpt>
      <trkpt lat="43.98488" lon="5.70534">
        <ele>870.58386230469</ele>
        <time>2020-10-22T17:03:50.756Z</time>
      </trkpt>
      <trkpt lat="43.98494" lon="5.7055">
        <ele>873.17541503906</ele>
        <time>2020-10-22T17:03:54.053Z</time>
      </trkpt>
      <trkpt lat="43.98504" lon="5.70561">
        <ele>871.24157714844</ele>
        <time>2020-10-22T17:03:57.354Z</time>
      </trkpt>
      <trkpt lat="43.98521" lon="5.70568">
        <ele>865.07458496094</ele>
        <time>2020-10-22T17:04:00.661Z</time>
      </trkpt>
      <trkpt lat="43.98535" lon="5.70592">
        <ele>863.30432128906</ele>
        <time>2020-10-22T17:04:03.976Z</time>
      </trkpt>
      <trkpt lat="43.98536" lon="5.70597">
        <ele>863.73626708984</ele>
        <time>2020-10-22T17:04:07.292Z</time>
      </trkpt>
      <trkpt lat="43.98535" lon="5.70602">
        <ele>864.98400878906</ele>
        <time>2020-10-22T17:04:10.609Z</time>
      </trkpt>
      <trkpt lat="43.98537" lon="5.70609">
        <ele>865.34399414062</ele>
        <time>2020-10-22T17:04:13.928Z</time>
      </trkpt>
      <trkpt lat="43.98552" lon="5.70632">
        <ele>863.08837890625</ele>
        <time>2020-10-22T17:04:17.254Z</time>
      </trkpt>
      <trkpt lat="43.98562" lon="5.70657">
        <ele>858.8447265625</ele>
        <time>2020-10-22T17:04:20.587Z</time>
      </trkpt>
      <trkpt lat="43.98566" lon="5.70673">
        <ele>856.44512939453</ele>
        <time>2020-10-22T17:04:23.924Z</time>
      </trkpt>
      <trkpt lat="43.98566" lon="5.70712">
        <ele>856.20416259766</ele>
        <time>2020-10-22T17:04:27.271Z</time>
      </trkpt>
      <trkpt lat="43.98568" lon="5.70742">
        <ele>854.50555419922</ele>
        <time>2020-10-22T17:04:30.625Z</time>
      </trkpt>
      <trkpt lat="43.98585" lon="5.70828">
        <ele>839.41485595703</ele>
        <time>2020-10-22T17:04:34.000Z</time>
      </trkpt>
      <trkpt lat="43.98589" lon="5.70837">
        <ele>837.20721435547</ele>
        <time>2020-10-22T17:04:37.378Z</time>
      </trkpt>
      <trkpt lat="43.98594" lon="5.7084">
        <ele>835.23956298828</ele>
        <time>2020-10-22T17:04:40.758Z</time>
      </trkpt>
      <trkpt lat="43.98596" lon="5.7084">
        <ele>834.56768798828</ele>
        <time>2020-10-22T17:04:44.138Z</time>
      </trkpt>
      <trkpt lat="43.98603" lon="5.70832">
        <ele>832.98394775391</ele>
        <time>2020-10-22T17:04:47.521Z</time>
      </trkpt>
      <trkpt lat="43.98604" lon="5.70826">
        <ele>833.22387695312</ele>
        <time>2020-10-22T17:04:50.906Z</time>
      </trkpt>
      <trkpt lat="43.98607" lon="5.70822">
        <ele>832.59997558594</ele>
        <time>2020-10-22T17:04:54.292Z</time>
      </trkpt>
      <trkpt lat="43.98632" lon="5.70806">
        <ele>828.97894287109</ele>
        <time>2020-10-22T17:04:57.687Z</time>
      </trkpt>
      <trkpt lat="43.98643" lon="5.70804">
        <ele>826.85528564453</ele>
        <time>2020-10-22T17:05:01.086Z</time>
      </trkpt>
      <trkpt lat="43.98652" lon="5.70809">
        <ele>824.71966552734</ele>
        <time>2020-10-22T17:05:04.488Z</time>
      </trkpt>
      <trkpt lat="43.98673" lon="5.70833">
        <ele>818.99664306641</ele>
        <time>2020-10-22T17:05:07.899Z</time>
      </trkpt>
      <trkpt lat="43.98681" lon="5.70835">
        <ele>817.24493408203</ele>
        <time>2020-10-22T17:05:11.313Z</time>
      </trkpt>
      <trkpt lat="43.9869" lon="5.70831">
        <ele>815.64916992188</ele>
        <time>2020-10-22T17:05:14.730Z</time>
      </trkpt>
      <trkpt lat="43.9873" lon="5.708">
        <ele>810.65338134766</ele>
        <time>2020-10-22T17:05:18.163Z</time>
      </trkpt>
      <trkpt lat="43.98744" lon="5.70792">
        <ele>808.58972167969</ele>
        <time>2020-10-22T17:05:21.601Z</time>
      </trkpt>
      <trkpt lat="43.98748" lon="5.70779">
        <ele>808.38580322266</ele>
        <time>2020-10-22T17:05:25.042Z</time>
      </trkpt>
      <trkpt lat="43.98743" lon="5.70752">
        <ele>809.25329589844</ele>
        <time>2020-10-22T17:05:28.490Z</time>
      </trkpt>
      <trkpt lat="43.98748" lon="5.70744">
        <ele>808.07751464844</ele>
        <time>2020-10-22T17:05:31.940Z</time>
      </trkpt>
      <trkpt lat="43.98772" lon="5.70742">
        <ele>802.87036132812</ele>
        <time>2020-10-22T17:05:35.398Z</time>
      </trkpt>
      <trkpt lat="43.98782" lon="5.70746">
        <ele>800.67254638672</ele>
        <time>2020-10-22T17:05:38.860Z</time>
      </trkpt>
      <trkpt lat="43.98788" lon="5.70751">
        <ele>799.36474609375</ele>
        <time>2020-10-22T17:05:42.324Z</time>
      </trkpt>
      <trkpt lat="43.98796" lon="5.70762">
        <ele>797.67303466797</ele>
        <time>2020-10-22T17:05:45.792Z</time>
      </trkpt>
      <trkpt lat="43.9881" lon="5.70771">
        <ele>794.58953857422</ele>
        <time>2020-10-22T17:05:49.265Z</time>
      </trkpt>
      <trkpt lat="43.98853" lon="5.7079">
        <ele>785.41473388672</ele>
        <time>2020-10-22T17:05:52.753Z</time>
      </trkpt>
      <trkpt lat="43.98867" lon="5.70797">
        <ele>783.27935791016</ele>
        <time>2020-10-22T17:05:56.246Z</time>
      </trkpt>
      <trkpt lat="43.98875" lon="5.70803">
        <ele>782.19952392578</ele>
        <time>2020-10-22T17:05:59.742Z</time>
      </trkpt>
      <trkpt lat="43.98895" lon="5.70811">
        <ele>779.66180419922</ele>
        <time>2020-10-22T17:06:03.245Z</time>
      </trkpt>
      <trkpt lat="43.98906" lon="5.70808">
        <ele>778.61798095703</ele>
        <time>2020-10-22T17:06:06.752Z</time>
      </trkpt>
      <trkpt lat="43.98992" lon="5.70759">
        <ele>767.98980712891</ele>
        <time>2020-10-22T17:06:10.290Z</time>
      </trkpt>
      <trkpt lat="43.99007" lon="5.70759">
        <ele>765.65020751953</ele>
        <time>2020-10-22T17:06:13.833Z</time>
      </trkpt>
      <trkpt lat="43.99023" lon="5.70769">
        <ele>763.63452148438</ele>
        <time>2020-10-22T17:06:17.382Z</time>
      </trkpt>
      <trkpt lat="43.99029" lon="5.70771">
        <ele>763.09289550781</ele>
        <time>2020-10-22T17:06:20.933Z</time>
      </trkpt>
      <trkpt lat="43.99037" lon="5.70766">
        <ele>762.18103027344</ele>
        <time>2020-10-22T17:06:24.487Z</time>
      </trkpt>
      <trkpt lat="43.99068" lon="5.70769">
        <ele>759.72143554688</ele>
        <time>2020-10-22T17:06:28.051Z</time>
      </trkpt>
      <trkpt lat="43.99089" lon="5.70774">
        <ele>758.07427978516</ele>
        <time>2020-10-22T17:06:31.622Z</time>
      </trkpt>
      <trkpt lat="43.99096" lon="5.70774">
        <ele>757.40240478516</ele>
        <time>2020-10-22T17:06:35.195Z</time>
      </trkpt>
      <trkpt lat="43.99105" lon="5.70771">
        <ele>756.35858154297</ele>
        <time>2020-10-22T17:06:38.771Z</time>
      </trkpt>
      <trkpt lat="43.99123" lon="5.70759">
        <ele>754.44354248047</ele>
        <time>2020-10-22T17:06:42.354Z</time>
      </trkpt>
      <trkpt lat="43.99124" lon="5.70725">
        <ele>753</ele>
        <time>2020-10-22T17:06:45.945Z</time>
      </trkpt>
      <trkpt lat="43.99133" lon="5.70698">
        <ele>750.07775878906</ele>
        <time>2020-10-22T17:06:49.543Z</time>
      </trkpt>
      <trkpt lat="43.99159" lon="5.70686">
        <ele>748.45587158203</ele>
        <time>2020-10-22T17:06:53.151Z</time>
      </trkpt>
      <trkpt lat="43.99206" lon="5.70691">
        <ele>749.32135009766</ele>
        <time>2020-10-22T17:06:56.774Z</time>
      </trkpt>
      <trkpt lat="43.99301" lon="5.70727">
        <ele>760.2744140625</ele>
        <time>2020-10-22T17:07:00.430Z</time>
      </trkpt>
      <trkpt lat="43.99349" lon="5.70729">
        <ele>764.32971191406</ele>
        <time>2020-10-22T17:07:04.102Z</time>
      </trkpt>
      <trkpt lat="43.99365" lon="5.70734">
        <ele>765.8955078125</ele>
        <time>2020-10-22T17:07:07.780Z</time>
      </trkpt>
      <trkpt lat="43.99374" lon="5.70735">
        <ele>766.83636474609</ele>
        <time>2020-10-22T17:07:11.461Z</time>
      </trkpt>
      <trkpt lat="43.99381" lon="5.70732">
        <ele>767.07635498047</ele>
        <time>2020-10-22T17:07:15.144Z</time>
      </trkpt>
      <trkpt lat="43.99404" lon="5.70717">
        <ele>767.02850341797</ele>
        <time>2020-10-22T17:07:18.836Z</time>
      </trkpt>
      <trkpt lat="43.99434" lon="5.70711">
        <ele>767.34899902344</ele>
        <time>2020-10-22T17:07:22.538Z</time>
      </trkpt>
      <trkpt lat="43.9952" lon="5.70708">
        <ele>760.54089355469</ele>
        <time>2020-10-22T17:07:26.268Z</time>
      </trkpt>
      <trkpt lat="43.99553" lon="5.70716">
        <ele>755.58850097656</ele>
        <time>2020-10-22T17:07:30.010Z</time>
      </trkpt>
      <trkpt lat="43.99595" lon="5.70746">
        <ele>752.24267578125</ele>
        <time>2020-10-22T17:07:33.767Z</time>
      </trkpt>
      <trkpt lat="43.99619" lon="5.7077">
        <ele>751.02416992188</ele>
        <time>2020-10-22T17:07:37.534Z</time>
      </trkpt>
      <trkpt lat="43.99629" lon="5.70778">
        <ele>749.72839355469</ele>
        <time>2020-10-22T17:07:41.305Z</time>
      </trkpt>
      <trkpt lat="43.99687" lon="5.70812">
        <ele>739.18188476562</ele>
        <time>2020-10-22T17:07:45.097Z</time>
      </trkpt>
      <trkpt lat="43.99689" lon="5.70816">
        <ele>739.37384033203</ele>
        <time>2020-10-22T17:07:48.890Z</time>
      </trkpt>
      <trkpt lat="43.9969" lon="5.70826">
        <ele>741.1015625</ele>
        <time>2020-10-22T17:07:52.686Z</time>
      </trkpt>
      <trkpt lat="43.99695" lon="5.70831">
        <ele>740.76348876953</ele>
        <time>2020-10-22T17:07:56.484Z</time>
      </trkpt>
      <trkpt lat="43.99696" lon="5.70836">
        <ele>741.53137207031</ele>
        <time>2020-10-22T17:08:00.283Z</time>
      </trkpt>
      <trkpt lat="43.99714" lon="5.70858">
        <ele>741.4833984375</ele>
        <time>2020-10-22T17:08:04.090Z</time>
      </trkpt>
      <trkpt lat="43.99719" lon="5.70869">
        <ele>742.46722412109</ele>
        <time>2020-10-22T17:08:07.900Z</time>
      </trkpt>
      <trkpt lat="43.99721" lon="5.70879">
        <ele>744.00299072266</ele>
        <time>2020-10-22T17:08:11.713Z</time>
      </trkpt>
      <trkpt lat="43.99731" lon="5.70907">
        <ele>746.46868896484</ele>
        <time>2020-10-22T17:08:15.533Z</time>
      </trkpt>
      <trkpt lat="43.99742" lon="5.70922">
        <ele>746.21673583984</ele>
        <time>2020-10-22T17:08:19.358Z</time>
      </trkpt>
      <trkpt lat="43.99755" lon="5.70923">
        <ele>743.10925292969</ele>
        <time>2020-10-22T17:08:23.188Z</time>
      </trkpt>
      <trkpt lat="43.99772" lon="5.70906">
        <ele>735.97039794922</ele>
        <time>2020-10-22T17:08:27.025Z</time>
      </trkpt>
      <trkpt lat="43.99783" lon="5.70898">
        <ele>729.73883056641</ele>
        <time>2020-10-22T17:08:30.866Z</time>
      </trkpt>
      <trkpt lat="43.99794" lon="5.70893">
        <ele>726.77099609375</ele>
        <time>2020-10-22T17:08:34.711Z</time>
      </trkpt>
      <trkpt lat="43.99815" lon="5.70893">
        <ele>721.73187255859</ele>
        <time>2020-10-22T17:08:38.563Z</time>
      </trkpt>
      <trkpt lat="43.99826" lon="5.70889">
        <ele>719.52423095703</ele>
        <time>2020-10-22T17:08:42.418Z</time>
      </trkpt>
      <trkpt lat="43.99839" lon="5.70888">
        <ele>716.5126953125</ele>
        <time>2020-10-22T17:08:46.278Z</time>
      </trkpt>
      <trkpt lat="43.99904" lon="5.70894">
        <ele>699.54760742188</ele>
        <time>2020-10-22T17:08:50.159Z</time>
      </trkpt>
      <trkpt lat="43.99933" lon="5.70887">
        <ele>693.16467285156</ele>
        <time>2020-10-22T17:08:54.050Z</time>
      </trkpt>
      <trkpt lat="43.9995" lon="5.70878">
        <ele>690.53765869141</ele>
        <time>2020-10-22T17:08:57.947Z</time>
      </trkpt>
      <trkpt lat="43.99962" lon="5.70875">
        <ele>689.16986083984</ele>
        <time>2020-10-22T17:09:01.848Z</time>
      </trkpt>
      <trkpt lat="43.99964" lon="5.70873">
        <ele>689.04992675781</ele>
        <time>2020-10-22T17:09:05.750Z</time>
      </trkpt>
      <trkpt lat="43.99979" lon="5.70874">
        <ele>686.99822998047</ele>
        <time>2020-10-22T17:09:09.657Z</time>
      </trkpt>
      <trkpt lat="43.99992" lon="5.7087">
        <ele>685.57049560547</ele>
        <time>2020-10-22T17:09:13.569Z</time>
      </trkpt>
      <trkpt lat="44.00002" lon="5.70863">
        <ele>684.76434326172</ele>
        <time>2020-10-22T17:09:17.484Z</time>
      </trkpt>
      <trkpt lat="44.00004" lon="5.7086">
        <ele>684.7763671875</ele>
        <time>2020-10-22T17:09:21.400Z</time>
      </trkpt>
      <trkpt lat="44.00008" lon="5.70843">
        <ele>685.72418212891</ele>
        <time>2020-10-22T17:09:25.321Z</time>
      </trkpt>
      <trkpt lat="44.0001" lon="5.7084">
        <ele>685.73620605469</ele>
        <time>2020-10-22T17:09:29.243Z</time>
      </trkpt>
      <trkpt lat="44.00013" lon="5.70837">
        <ele>685.62823486328</ele>
        <time>2020-10-22T17:09:33.166Z</time>
      </trkpt>
      <trkpt lat="44.00028" lon="5.70832">
        <ele>684.31988525391</ele>
        <time>2020-10-22T17:09:37.094Z</time>
      </trkpt>
      <trkpt lat="44.00044" lon="5.70814">
        <ele>684.49896240234</ele>
        <time>2020-10-22T17:09:41.029Z</time>
      </trkpt>
      <trkpt lat="44.0005" lon="5.70811">
        <ele>684.39099121094</ele>
        <time>2020-10-22T17:09:44.966Z</time>
      </trkpt>
      <trkpt lat="44.00057" lon="5.70816">
        <ele>683.34716796875</ele>
        <time>2020-10-22T17:09:48.906Z</time>
      </trkpt>
      <trkpt lat="44.00073" lon="5.70845">
        <ele>679.06390380859</ele>
        <time>2020-10-22T17:09:52.854Z</time>
      </trkpt>
      <trkpt lat="44.00079" lon="5.70849">
        <ele>678.20001220703</ele>
        <time>2020-10-22T17:09:56.805Z</time>
      </trkpt>
      <trkpt lat="44.00094" lon="5.70854">
        <ele>676.58032226562</ele>
        <time>2020-10-22T17:10:00.761Z</time>
      </trkpt>
      <trkpt lat="44.001" lon="5.70853">
        <ele>676.25634765625</ele>
        <time>2020-10-22T17:10:04.719Z</time>
      </trkpt>
      <trkpt lat="44.00127" lon="5.70871">
        <ele>672.1455078125</ele>
        <time>2020-10-22T17:10:08.687Z</time>
      </trkpt>
      <trkpt lat="44.00157" lon="5.70886">
        <ele>668.00622558594</ele>
        <time>2020-10-22T17:10:12.665Z</time>
      </trkpt>
      <trkpt lat="44.0017" lon="5.70864">
        <ele>669.28997802734</ele>
        <time>2020-10-22T17:10:16.650Z</time>
      </trkpt>
      <trkpt lat="44.00183" lon="5.70823">
        <ele>672.62542724609</ele>
        <time>2020-10-22T17:10:20.646Z</time>
      </trkpt>
      <trkpt lat="44.00193" lon="5.70772">
        <ele>674.96429443359</ele>
        <time>2020-10-22T17:10:24.655Z</time>
      </trkpt>
      <trkpt lat="44.00218" lon="5.70712">
        <ele>675.13031005859</ele>
        <time>2020-10-22T17:10:28.680Z</time>
      </trkpt>
      <trkpt lat="44.00223" lon="5.70701">
        <ele>674.43444824219</ele>
        <time>2020-10-22T17:10:32.708Z</time>
      </trkpt>
      <trkpt lat="44.00277" lon="5.70625">
        <ele>675.60095214844</ele>
        <time>2020-10-22T17:10:36.762Z</time>
      </trkpt>
      <trkpt lat="44.00281" lon="5.70618">
        <ele>675.19299316406</ele>
        <time>2020-10-22T17:10:40.818Z</time>
      </trkpt>
      <trkpt lat="44.00286" lon="5.70602">
        <ele>674.50915527344</ele>
        <time>2020-10-22T17:10:44.878Z</time>
      </trkpt>
      <trkpt lat="44.00288" lon="5.70589">
        <ele>674.07720947266</ele>
        <time>2020-10-22T17:10:48.942Z</time>
      </trkpt>
      <trkpt lat="44.00277" lon="5.70538">
        <ele>673.88427734375</ele>
        <time>2020-10-22T17:10:53.018Z</time>
      </trkpt>
      <trkpt lat="44.00273" lon="5.7048">
        <ele>672.94525146484</ele>
        <time>2020-10-22T17:10:57.108Z</time>
      </trkpt>
      <trkpt lat="44.00274" lon="5.70471">
        <ele>672.92126464844</ele>
        <time>2020-10-22T17:11:01.201Z</time>
      </trkpt>
      <trkpt lat="44.00276" lon="5.70467">
        <ele>672.81042480469</ele>
        <time>2020-10-22T17:11:05.295Z</time>
      </trkpt>
      <trkpt lat="44.00285" lon="5.70458">
        <ele>672.48651123047</ele>
        <time>2020-10-22T17:11:09.393Z</time>
      </trkpt>
      <trkpt lat="44.00308" lon="5.70409">
        <ele>669.91516113281</ele>
        <time>2020-10-22T17:11:13.505Z</time>
      </trkpt>
      <trkpt lat="44.00349" lon="5.70342">
        <ele>669.89837646484</ele>
        <time>2020-10-22T17:11:17.638Z</time>
      </trkpt>
      <trkpt lat="44.00412" lon="5.70233">
        <ele>670.39459228516</ele>
        <time>2020-10-22T17:11:21.804Z</time>
      </trkpt>
      <trkpt lat="44.00443" lon="5.70185">
        <ele>670.14385986328</ele>
        <time>2020-10-22T17:11:25.986Z</time>
      </trkpt>
      <trkpt lat="44.00446" lon="5.70173">
        <ele>669.81988525391</ele>
        <time>2020-10-22T17:11:30.171Z</time>
      </trkpt>
      <trkpt lat="44.00474" lon="5.701">
        <ele>668.89270019531</ele>
        <time>2020-10-22T17:11:34.376Z</time>
      </trkpt>
      <trkpt lat="44.00488" lon="5.70058">
        <ele>669.21911621094</ele>
        <time>2020-10-22T17:11:38.592Z</time>
      </trkpt>
      <trkpt lat="44.00508" lon="5.69987">
        <ele>669.79327392578</ele>
        <time>2020-10-22T17:11:42.826Z</time>
      </trkpt>
      <trkpt lat="44.00513" lon="5.69983">
        <ele>669.865234375</ele>
        <time>2020-10-22T17:11:47.062Z</time>
      </trkpt>
      <trkpt lat="44.00537" lon="5.69989">
        <ele>670.51312255859</ele>
        <time>2020-10-22T17:11:51.306Z</time>
      </trkpt>
      <trkpt lat="44.00675" lon="5.70001">
        <ele>675.37176513672</ele>
        <time>2020-10-22T17:11:55.596Z</time>
      </trkpt>
      <trkpt lat="44.00739" lon="5.70009">
        <ele>674.80285644531</ele>
        <time>2020-10-22T17:11:59.908Z</time>
      </trkpt>
      <trkpt lat="44.00765" lon="5.70009">
        <ele>674.17895507812</ele>
        <time>2020-10-22T17:12:04.228Z</time>
      </trkpt>
      <trkpt lat="44.00814" lon="5.69997">
        <ele>672.06774902344</ele>
        <time>2020-10-22T17:12:08.565Z</time>
      </trkpt>
      <trkpt lat="44.00885" lon="5.69987">
        <ele>669.11676025391</ele>
        <time>2020-10-22T17:12:12.926Z</time>
      </trkpt>
      <trkpt lat="44.00985" lon="5.6997">
        <ele>664.41186523438</ele>
        <time>2020-10-22T17:12:17.320Z</time>
      </trkpt>
      <trkpt lat="44.01034" lon="5.69956">
        <ele>663.28289794922</ele>
        <time>2020-10-22T17:12:21.731Z</time>
      </trkpt>
      <trkpt lat="44.01065" lon="5.69945">
        <ele>664.57867431641</ele>
        <time>2020-10-22T17:12:26.153Z</time>
      </trkpt>
      <trkpt lat="44.01073" lon="5.69944">
        <ele>664.75866699219</ele>
        <time>2020-10-22T17:12:30.577Z</time>
      </trkpt>
      <trkpt lat="44.01085" lon="5.69946">
        <ele>664.70593261719</ele>
        <time>2020-10-22T17:12:35.006Z</time>
      </trkpt>
      <trkpt lat="44.01103" lon="5.69952">
        <ele>663.69812011719</ele>
        <time>2020-10-22T17:12:39.441Z</time>
      </trkpt>
      <trkpt lat="44.01125" lon="5.69947">
        <ele>663.55230712891</ele>
        <time>2020-10-22T17:12:43.883Z</time>
      </trkpt>
      <trkpt lat="44.0113" lon="5.69944">
        <ele>663.62432861328</ele>
        <time>2020-10-22T17:12:48.327Z</time>
      </trkpt>
      <trkpt lat="44.01139" lon="5.69934">
        <ele>663.8642578125</ele>
        <time>2020-10-22T17:12:52.775Z</time>
      </trkpt>
      <trkpt lat="44.01144" lon="5.69933">
        <ele>663.88824462891</ele>
        <time>2020-10-22T17:12:57.224Z</time>
      </trkpt>
      <trkpt lat="44.01171" lon="5.69941">
        <ele>663.59875488281</ele>
        <time>2020-10-22T17:13:01.683Z</time>
      </trkpt>
      <trkpt lat="44.01189" lon="5.69932">
        <ele>663.49072265625</ele>
        <time>2020-10-22T17:13:06.148Z</time>
      </trkpt>
      <trkpt lat="44.01246" lon="5.69909">
        <ele>665.525390625</ele>
        <time>2020-10-22T17:13:10.633Z</time>
      </trkpt>
      <trkpt lat="44.01268" lon="5.69903">
        <ele>666.86920166016</ele>
        <time>2020-10-22T17:13:15.125Z</time>
      </trkpt>
      <trkpt lat="44.01298" lon="5.69909">
        <ele>666.66564941406</ele>
        <time>2020-10-22T17:13:19.627Z</time>
      </trkpt>
      <trkpt lat="44.01322" lon="5.69907">
        <ele>667.09759521484</ele>
        <time>2020-10-22T17:13:24.137Z</time>
      </trkpt>
      <trkpt lat="44.01345" lon="5.69896">
        <ele>668.16540527344</ele>
        <time>2020-10-22T17:13:28.656Z</time>
      </trkpt>
      <trkpt lat="44.01396" lon="5.69877">
        <ele>667.53704833984</ele>
        <time>2020-10-22T17:13:33.192Z</time>
      </trkpt>
      <trkpt lat="44.01413" lon="5.69869">
        <ele>666.82922363281</ele>
        <time>2020-10-22T17:13:37.734Z</time>
      </trkpt>
      <trkpt lat="44.01421" lon="5.69862">
        <ele>666.63690185547</ele>
        <time>2020-10-22T17:13:42.279Z</time>
      </trkpt>
      <trkpt lat="44.01425" lon="5.69856">
        <ele>666.90081787109</ele>
        <time>2020-10-22T17:13:46.826Z</time>
      </trkpt>
      <trkpt lat="44.01429" lon="5.69845">
        <ele>667.34478759766</ele>
        <time>2020-10-22T17:13:51.376Z</time>
      </trkpt>
      <trkpt lat="44.0143" lon="5.69829">
        <ele>667.93267822266</ele>
        <time>2020-10-22T17:13:55.930Z</time>
      </trkpt>
      <trkpt lat="44.01427" lon="5.69803">
        <ele>668.81701660156</ele>
        <time>2020-10-22T17:14:00.490Z</time>
      </trkpt>
      <trkpt lat="44.01446" lon="5.69725">
        <ele>672.80773925781</ele>
        <time>2020-10-22T17:14:05.070Z</time>
      </trkpt>
      <trkpt lat="44.01449" lon="5.69718">
        <ele>673.54278564453</ele>
        <time>2020-10-22T17:14:09.652Z</time>
      </trkpt>
      <trkpt lat="44.01473" lon="5.6968">
        <ele>677.26220703125</ele>
        <time>2020-10-22T17:14:14.246Z</time>
      </trkpt>
      <trkpt lat="44.0148" lon="5.69663">
        <ele>679.12310791016</ele>
        <time>2020-10-22T17:14:18.845Z</time>
      </trkpt>
      <trkpt lat="44.01481" lon="5.69651">
        <ele>680.37091064453</ele>
        <time>2020-10-22T17:14:23.447Z</time>
      </trkpt>
      <trkpt lat="44.01474" lon="5.69628">
        <ele>682.32073974609</ele>
        <time>2020-10-22T17:14:28.055Z</time>
      </trkpt>
      <trkpt lat="44.01474" lon="5.69624">
        <ele>682.89660644531</ele>
        <time>2020-10-22T17:14:32.664Z</time>
      </trkpt>
      <trkpt lat="44.01484" lon="5.69578">
        <ele>689.64654541016</ele>
        <time>2020-10-22T17:14:37.284Z</time>
      </trkpt>
      <trkpt lat="44.01475" lon="5.69467">
        <ele>700.67840576172</ele>
        <time>2020-10-22T17:14:41.931Z</time>
      </trkpt>
      <trkpt lat="44.01471" lon="5.69458">
        <ele>701.49426269531</ele>
        <time>2020-10-22T17:14:46.581Z</time>
      </trkpt>
      <trkpt lat="44.01452" lon="5.69438">
        <ele>703.18597412109</ele>
        <time>2020-10-22T17:14:51.239Z</time>
      </trkpt>
      <trkpt lat="44.01439" lon="5.6943">
        <ele>703.51690673828</ele>
        <time>2020-10-22T17:14:55.902Z</time>
      </trkpt>
      <trkpt lat="44.0143" lon="5.69428">
        <ele>702.73706054688</ele>
        <time>2020-10-22T17:15:00.568Z</time>
      </trkpt>
      <trkpt lat="44.01421" lon="5.69423">
        <ele>702.2451171875</ele>
        <time>2020-10-22T17:15:05.237Z</time>
      </trkpt>
      <trkpt lat="44.01401" lon="5.69402">
        <ele>702.10113525391</ele>
        <time>2020-10-22T17:15:09.914Z</time>
      </trkpt>
      <trkpt lat="44.01398" lon="5.69397">
        <ele>702.25714111328</ele>
        <time>2020-10-22T17:15:14.593Z</time>
      </trkpt>
      <trkpt lat="44.01393" lon="5.69371">
        <ele>704.21282958984</ele>
        <time>2020-10-22T17:15:19.278Z</time>
      </trkpt>
      <trkpt lat="44.01388" lon="5.69354">
        <ele>705.30462646484</ele>
        <time>2020-10-22T17:15:23.968Z</time>
      </trkpt>
      <trkpt lat="44.01379" lon="5.69337">
        <ele>705.96453857422</ele>
        <time>2020-10-22T17:15:28.663Z</time>
      </trkpt>
      <trkpt lat="44.01329" lon="5.69275">
        <ele>706.40380859375</ele>
        <time>2020-10-22T17:15:33.380Z</time>
      </trkpt>
      <trkpt lat="44.01314" lon="5.69251">
        <ele>707.75170898438</ele>
        <time>2020-10-22T17:15:38.105Z</time>
      </trkpt>
      <trkpt lat="44.01297" lon="5.69215">
        <ele>710.79791259766</ele>
        <time>2020-10-22T17:15:42.840Z</time>
      </trkpt>
      <trkpt lat="44.01272" lon="5.69169">
        <ele>714.42211914062</ele>
        <time>2020-10-22T17:15:47.589Z</time>
      </trkpt>
      <trkpt lat="44.01259" lon="5.6915">
        <ele>714.87805175781</ele>
        <time>2020-10-22T17:15:52.344Z</time>
      </trkpt>
      <trkpt lat="44.01256" lon="5.69141">
        <ele>715.81390380859</ele>
        <time>2020-10-22T17:15:57.102Z</time>
      </trkpt>
      <trkpt lat="44.01257" lon="5.691">
        <ele>725.39038085938</ele>
        <time>2020-10-22T17:16:01.869Z</time>
      </trkpt>
      <trkpt lat="44.01252" lon="5.6904">
        <ele>736.03021240234</ele>
        <time>2020-10-22T17:16:06.651Z</time>
      </trkpt>
      <trkpt lat="44.01256" lon="5.69013">
        <ele>740.20764160156</ele>
        <time>2020-10-22T17:16:11.440Z</time>
      </trkpt>
      <trkpt lat="44.01257" lon="5.69009">
        <ele>740.77154541016</ele>
        <time>2020-10-22T17:16:16.230Z</time>
      </trkpt>
      <trkpt lat="44.01264" lon="5.69">
        <ele>742.43927001953</ele>
        <time>2020-10-22T17:16:21.023Z</time>
      </trkpt>
      <trkpt lat="44.01281" lon="5.68985">
        <ele>746.15112304688</ele>
        <time>2020-10-22T17:16:25.823Z</time>
      </trkpt>
      <trkpt lat="44.01296" lon="5.68966">
        <ele>749.81506347656</ele>
        <time>2020-10-22T17:16:30.629Z</time>
      </trkpt>
      <trkpt lat="44.01303" lon="5.68962">
        <ele>750.99084472656</ele>
        <time>2020-10-22T17:16:35.438Z</time>
      </trkpt>
      <trkpt lat="44.01328" lon="5.68962">
        <ele>753.99035644531</ele>
        <time>2020-10-22T17:16:40.255Z</time>
      </trkpt>
      <trkpt lat="44.01344" lon="5.68964">
        <ele>755.74206542969</ele>
        <time>2020-10-22T17:16:45.078Z</time>
      </trkpt>
      <trkpt lat="44.01357" lon="5.68963">
        <ele>757.06958007812</ele>
        <time>2020-10-22T17:16:49.905Z</time>
      </trkpt>
      <trkpt lat="44.01379" lon="5.68959">
        <ele>760.20037841797</ele>
        <time>2020-10-22T17:16:54.739Z</time>
      </trkpt>
      <trkpt lat="44.01426" lon="5.68944">
        <ele>766.73187255859</ele>
        <time>2020-10-22T17:16:59.589Z</time>
      </trkpt>
      <trkpt lat="44.01441" lon="5.68937">
        <ele>767.73974609375</ele>
        <time>2020-10-22T17:17:04.445Z</time>
      </trkpt>
      <trkpt lat="44.0145" lon="5.68941">
        <ele>769.22076416016</ele>
        <time>2020-10-22T17:17:09.304Z</time>
      </trkpt>
      <trkpt lat="44.01478" lon="5.6897">
        <ele>774.62286376953</ele>
        <time>2020-10-22T17:17:14.174Z</time>
      </trkpt>
      <trkpt lat="44.01503" lon="5.69016">
        <ele>777.41839599609</ele>
        <time>2020-10-22T17:17:19.058Z</time>
      </trkpt>
      <trkpt lat="44.01518" lon="5.69034">
        <ele>779.32604980469</ele>
        <time>2020-10-22T17:17:23.949Z</time>
      </trkpt>
      <trkpt lat="44.01541" lon="5.69055">
        <ele>781.31475830078</ele>
        <time>2020-10-22T17:17:28.849Z</time>
      </trkpt>
      <trkpt lat="44.01559" lon="5.69063">
        <ele>782.17864990234</ele>
        <time>2020-10-22T17:17:33.755Z</time>
      </trkpt>
      <trkpt lat="44.0159" lon="5.69102">
        <ele>780.94287109375</ele>
        <time>2020-10-22T17:17:38.675Z</time>
      </trkpt>
      <trkpt lat="44.0161" lon="5.69111">
        <ele>781.80798339844</ele>
        <time>2020-10-22T17:17:43.602Z</time>
      </trkpt>
      <trkpt lat="44.01622" lon="5.69114">
        <ele>781.91595458984</ele>
        <time>2020-10-22T17:17:48.533Z</time>
      </trkpt>
      <trkpt lat="44.01642" lon="5.69122">
        <ele>781.77197265625</ele>
        <time>2020-10-22T17:17:53.471Z</time>
      </trkpt>
      <trkpt lat="44.01672" lon="5.69119">
        <ele>783.17578125</ele>
        <time>2020-10-22T17:17:58.419Z</time>
      </trkpt>
      <trkpt lat="44.01679" lon="5.69127">
        <ele>782.56384277344</ele>
        <time>2020-10-22T17:18:03.370Z</time>
      </trkpt>
      <trkpt lat="44.01686" lon="5.6913">
        <ele>782.44348144531</ele>
        <time>2020-10-22T17:18:08.324Z</time>
      </trkpt>
      <trkpt lat="44.01692" lon="5.69128">
        <ele>782.20275878906</ele>
        <time>2020-10-22T17:18:13.280Z</time>
      </trkpt>
      <trkpt lat="44.01697" lon="5.69123">
        <ele>781.96282958984</ele>
        <time>2020-10-22T17:18:18.238Z</time>
      </trkpt>
      <trkpt lat="44.01705" lon="5.69119">
        <ele>781.48291015625</ele>
        <time>2020-10-22T17:18:23.199Z</time>
      </trkpt>
      <trkpt lat="44.0173" lon="5.6912">
        <ele>779.6591796875</ele>
        <time>2020-10-22T17:18:28.168Z</time>
      </trkpt>
      <trkpt lat="44.01735" lon="5.69124">
        <ele>779.20330810547</ele>
        <time>2020-10-22T17:18:33.139Z</time>
      </trkpt>
      <trkpt lat="44.0175" lon="5.69146">
        <ele>776.80145263672</ele>
        <time>2020-10-22T17:18:38.117Z</time>
      </trkpt>
      <trkpt lat="44.01756" lon="5.6915">
        <ele>775.93756103516</ele>
        <time>2020-10-22T17:18:43.098Z</time>
      </trkpt>
      <trkpt lat="44.01769" lon="5.69153">
        <ele>774.67779541016</ele>
        <time>2020-10-22T17:18:48.083Z</time>
      </trkpt>
      <trkpt lat="44.01814" lon="5.69176">
        <ele>772.66778564453</ele>
        <time>2020-10-22T17:18:53.084Z</time>
      </trkpt>
      <trkpt lat="44.01897" lon="5.69228">
        <ele>769.99078369141</ele>
        <time>2020-10-22T17:18:58.115Z</time>
      </trkpt>
      <trkpt lat="44.01931" lon="5.6925">
        <ele>770.15875244141</ele>
        <time>2020-10-22T17:19:03.159Z</time>
      </trkpt>
      <trkpt lat="44.01938" lon="5.69256">
        <ele>770.12274169922</ele>
        <time>2020-10-22T17:19:08.206Z</time>
      </trkpt>
      <trkpt lat="44.02069" lon="5.6933">
        <ele>767.43139648438</ele>
        <time>2020-10-22T17:19:13.300Z</time>
      </trkpt>
      <trkpt lat="44.02109" lon="5.69337">
        <ele>766.77014160156</ele>
        <time>2020-10-22T17:19:18.407Z</time>
      </trkpt>
      <trkpt lat="44.02142" lon="5.6934">
        <ele>767.66998291016</ele>
        <time>2020-10-22T17:19:23.525Z</time>
      </trkpt>
      <trkpt lat="44.02186" lon="5.69351">
        <ele>766.07177734375</ele>
        <time>2020-10-22T17:19:28.658Z</time>
      </trkpt>
      <trkpt lat="44.02258" lon="5.69382">
        <ele>764.31878662109</ele>
        <time>2020-10-22T17:19:33.816Z</time>
      </trkpt>
      <trkpt lat="44.02281" lon="5.69396">
        <ele>763.41381835938</ele>
        <time>2020-10-22T17:19:38.983Z</time>
      </trkpt>
      <trkpt lat="44.02354" lon="5.69463">
        <ele>758.49914550781</ele>
        <time>2020-10-22T17:19:44.179Z</time>
      </trkpt>
      <trkpt lat="44.02373" lon="5.69468">
        <ele>758.65222167969</ele>
        <time>2020-10-22T17:19:49.381Z</time>
      </trkpt>
      <trkpt lat="44.02379" lon="5.69471">
        <ele>758.54986572266</ele>
        <time>2020-10-22T17:19:54.585Z</time>
      </trkpt>
      <trkpt lat="44.02417" lon="5.6951">
        <ele>753.36676025391</ele>
        <time>2020-10-22T17:19:59.805Z</time>
      </trkpt>
      <trkpt lat="44.02451" lon="5.69553">
        <ele>748.22259521484</ele>
        <time>2020-10-22T17:20:05.040Z</time>
      </trkpt>
      <trkpt lat="44.02473" lon="5.69603">
        <ele>742.42120361328</ele>
        <time>2020-10-22T17:20:10.290Z</time>
      </trkpt>
      <trkpt lat="44.02484" lon="5.69632">
        <ele>738.48583984375</ele>
        <time>2020-10-22T17:20:15.547Z</time>
      </trkpt>
      <trkpt lat="44.02493" lon="5.69649">
        <ele>736.93505859375</ele>
        <time>2020-10-22T17:20:20.809Z</time>
      </trkpt>
      <trkpt lat="44.02506" lon="5.69663">
        <ele>736.75506591797</ele>
        <time>2020-10-22T17:20:26.077Z</time>
      </trkpt>
      <trkpt lat="44.02518" lon="5.69672">
        <ele>737.29498291016</ele>
        <time>2020-10-22T17:20:31.350Z</time>
      </trkpt>
      <trkpt lat="44.02542" lon="5.69679">
        <ele>739.55975341797</ele>
        <time>2020-10-22T17:20:36.631Z</time>
      </trkpt>
      <trkpt lat="44.02592" lon="5.69678">
        <ele>745.73425292969</ele>
        <time>2020-10-22T17:20:41.928Z</time>
      </trkpt>
      <trkpt lat="44.02627" lon="5.69673">
        <ele>750.07495117188</ele>
        <time>2020-10-22T17:20:47.237Z</time>
      </trkpt>
      <trkpt lat="44.02659" lon="5.69663">
        <ele>755.56427001953</ele>
        <time>2020-10-22T17:20:52.557Z</time>
      </trkpt>
      <trkpt lat="44.02753" lon="5.69639">
        <ele>765.24645996094</ele>
        <time>2020-10-22T17:20:57.909Z</time>
      </trkpt>
      <trkpt lat="44.02879" lon="5.69603">
        <ele>776.970703125</ele>
        <time>2020-10-22T17:21:03.304Z</time>
      </trkpt>
      <trkpt lat="44.02903" lon="5.69601">
        <ele>779.51428222656</ele>
        <time>2020-10-22T17:21:08.707Z</time>
      </trkpt>
      <trkpt lat="44.02908" lon="5.69602">
        <ele>779.84173583984</ele>
        <time>2020-10-22T17:21:14.111Z</time>
      </trkpt>
      <trkpt lat="44.02943" lon="5.69624">
        <ele>779.62579345703</ele>
        <time>2020-10-22T17:21:19.528Z</time>
      </trkpt>
      <trkpt lat="44.02971" lon="5.69638">
        <ele>779.65869140625</ele>
        <time>2020-10-22T17:21:24.955Z</time>
      </trkpt>
      <trkpt lat="44.02991" lon="5.69646">
        <ele>779.94665527344</ele>
        <time>2020-10-22T17:21:30.389Z</time>
      </trkpt>
      <trkpt lat="44.03044" lon="5.69657">
        <ele>779.62445068359</ele>
        <time>2020-10-22T17:21:35.841Z</time>
      </trkpt>
      <trkpt lat="44.03089" lon="5.6968">
        <ele>777.39532470703</ele>
        <time>2020-10-22T17:21:41.309Z</time>
      </trkpt>
      <trkpt lat="44.0314" lon="5.69712">
        <ele>773.51531982422</ele>
        <time>2020-10-22T17:21:46.796Z</time>
      </trkpt>
      <trkpt lat="44.03201" lon="5.69759">
        <ele>769.52001953125</ele>
        <time>2020-10-22T17:21:52.306Z</time>
      </trkpt>
      <trkpt lat="44.03202" lon="5.69758">
        <ele>769.40002441406</ele>
        <time>2020-10-22T17:21:57.816Z</time>
      </trkpt>
      <trkpt lat="44.03198" lon="5.69754">
        <ele>769.78393554688</ele>
        <time>2020-10-22T17:22:03.328Z</time>
      </trkpt>
      <trkpt lat="44.03202" lon="5.69731">
        <ele>769.07604980469</ele>
        <time>2020-10-22T17:22:08.846Z</time>
      </trkpt>
      <trkpt lat="44.03198" lon="5.69714">
        <ele>769.73187255859</ele>
        <time>2020-10-22T17:22:14.368Z</time>
      </trkpt>
      <trkpt lat="44.03201" lon="5.69705">
        <ele>769.87585449219</ele>
        <time>2020-10-22T17:22:19.892Z</time>
      </trkpt>
      <trkpt lat="44.03225" lon="5.69689">
        <ele>768.34008789062</ele>
        <time>2020-10-22T17:22:25.425Z</time>
      </trkpt>
      <trkpt lat="44.03228" lon="5.69684">
        <ele>768.29211425781</ele>
        <time>2020-10-22T17:22:30.960Z</time>
      </trkpt>
      <trkpt lat="44.0324" lon="5.69676">
        <ele>768.12957763672</ele>
        <time>2020-10-22T17:22:36.499Z</time>
      </trkpt>
      <trkpt lat="44.03301" lon="5.69644">
        <ele>770.85015869141</ele>
        <time>2020-10-22T17:22:42.060Z</time>
      </trkpt>
      <trkpt lat="44.034" lon="5.69599">
        <ele>776.55609130859</ele>
        <time>2020-10-22T17:22:47.656Z</time>
      </trkpt>
      <trkpt lat="44.03412" lon="5.6959">
        <ele>777.86828613281</ele>
        <time>2020-10-22T17:22:53.256Z</time>
      </trkpt>
      <trkpt lat="44.03413" lon="5.69587">
        <ele>778.25225830078</ele>
        <time>2020-10-22T17:22:58.857Z</time>
      </trkpt>
      <trkpt lat="44.03433" lon="5.69566">
        <ele>781.25177001953</ele>
        <time>2020-10-22T17:23:04.466Z</time>
      </trkpt>
      <trkpt lat="44.03447" lon="5.69556">
        <ele>782.74645996094</ele>
        <time>2020-10-22T17:23:10.081Z</time>
      </trkpt>
      <trkpt lat="44.03485" lon="5.69541">
        <ele>784.83306884766</ele>
        <time>2020-10-22T17:23:15.709Z</time>
      </trkpt>
      <trkpt lat="44.03513" lon="5.69528">
        <ele>786.15283203125</ele>
        <time>2020-10-22T17:23:21.347Z</time>
      </trkpt>
      <trkpt lat="44.03601" lon="5.69484">
        <ele>794.56140136719</ele>
        <time>2020-10-22T17:23:27.016Z</time>
      </trkpt>
      <trkpt lat="44.03647" lon="5.69468">
        <ele>799.17205810547</ele>
        <time>2020-10-22T17:23:32.701Z</time>
      </trkpt>
      <trkpt lat="44.03658" lon="5.69471">
        <ele>800.02954101562</ele>
        <time>2020-10-22T17:23:38.389Z</time>
      </trkpt>
      <trkpt lat="44.03668" lon="5.69477">
        <ele>800.36547851562</ele>
        <time>2020-10-22T17:23:44.081Z</time>
      </trkpt>
      <trkpt lat="44.03679" lon="5.69475">
        <ele>801.45733642578</ele>
        <time>2020-10-22T17:23:49.777Z</time>
      </trkpt>
      <trkpt lat="44.03684" lon="5.69472">
        <ele>802.12921142578</ele>
        <time>2020-10-22T17:23:55.475Z</time>
      </trkpt>
      <trkpt lat="44.03684" lon="5.69474">
        <ele>801.96124267578</ele>
        <time>2020-10-22T17:24:01.173Z</time>
      </trkpt>
      <trkpt lat="44.03732" lon="5.69484">
        <ele>805.76776123047</ele>
        <time>2020-10-22T17:24:06.887Z</time>
      </trkpt>
      <trkpt lat="44.03772" lon="5.6949">
        <ele>809.43914794922</ele>
        <time>2020-10-22T17:24:12.615Z</time>
      </trkpt>
      <trkpt lat="44.03807" lon="5.69493">
        <ele>811.03527832031</ele>
        <time>2020-10-22T17:24:18.354Z</time>
      </trkpt>
      <trkpt lat="44.0383" lon="5.69498">
        <ele>812.18707275391</ele>
        <time>2020-10-22T17:24:24.101Z</time>
      </trkpt>
      <trkpt lat="44.03855" lon="5.69508">
        <ele>812.72698974609</ele>
        <time>2020-10-22T17:24:29.857Z</time>
      </trkpt>
      <trkpt lat="44.03997" lon="5.69557">
        <ele>814.70983886719</ele>
        <time>2020-10-22T17:24:35.662Z</time>
      </trkpt>
      <trkpt lat="44.04019" lon="5.69567">
        <ele>815.06976318359</ele>
        <time>2020-10-22T17:24:41.474Z</time>
      </trkpt>
      <trkpt lat="44.04049" lon="5.69578">
        <ele>818.11926269531</ele>
        <time>2020-10-22T17:24:47.297Z</time>
      </trkpt>
      <trkpt lat="44.04173" lon="5.69591">
        <ele>836.68341064453</ele>
        <time>2020-10-22T17:24:53.161Z</time>
      </trkpt>
      <trkpt lat="44.04209" lon="5.69591">
        <ele>841.2685546875</ele>
        <time>2020-10-22T17:24:59.037Z</time>
      </trkpt>
      <trkpt lat="44.04245" lon="5.69588">
        <ele>845.30114746094</ele>
        <time>2020-10-22T17:25:04.925Z</time>
      </trkpt>
      <trkpt lat="44.04263" lon="5.69583">
        <ele>847.56872558594</ele>
        <time>2020-10-22T17:25:10.819Z</time>
      </trkpt>
      <trkpt lat="44.04289" lon="5.69573">
        <ele>850.34820556641</ele>
        <time>2020-10-22T17:25:16.722Z</time>
      </trkpt>
      <trkpt lat="44.04361" lon="5.69525">
        <ele>854.56854248047</ele>
        <time>2020-10-22T17:25:22.652Z</time>
      </trkpt>
      <trkpt lat="44.04377" lon="5.69501">
        <ele>853.5126953125</ele>
        <time>2020-10-22T17:25:28.590Z</time>
      </trkpt>
      <trkpt lat="44.04454" lon="5.69422">
        <ele>857.01971435547</ele>
        <time>2020-10-22T17:25:34.560Z</time>
      </trkpt>
      <trkpt lat="44.04509" lon="5.69355">
        <ele>861.56768798828</ele>
        <time>2020-10-22T17:25:40.554Z</time>
      </trkpt>
      <trkpt lat="44.04543" lon="5.69322">
        <ele>862.94818115234</ele>
        <time>2020-10-22T17:25:46.562Z</time>
      </trkpt>
      <trkpt lat="44.04576" lon="5.69295">
        <ele>864.61212158203</ele>
        <time>2020-10-22T17:25:52.583Z</time>
      </trkpt>
      <trkpt lat="44.04598" lon="5.6928">
        <ele>865.07788085938</ele>
        <time>2020-10-22T17:25:58.612Z</time>
      </trkpt>
      <trkpt lat="44.04682" lon="5.69241">
        <ele>869.85247802734</ele>
        <time>2020-10-22T17:26:04.670Z</time>
      </trkpt>
      <trkpt lat="44.04749" lon="5.69202">
        <ele>873.63970947266</ele>
        <time>2020-10-22T17:26:10.753Z</time>
      </trkpt>
      <trkpt lat="44.04795" lon="5.69181">
        <ele>879.23498535156</ele>
        <time>2020-10-22T17:26:16.852Z</time>
      </trkpt>
      <trkpt lat="44.04814" lon="5.69175">
        <ele>881.65856933594</ele>
        <time>2020-10-22T17:26:22.957Z</time>
      </trkpt>
      <trkpt lat="44.04849" lon="5.69168">
        <ele>886.02581787109</ele>
        <time>2020-10-22T17:26:29.074Z</time>
      </trkpt>
      <trkpt lat="44.04872" lon="5.69168">
        <ele>888.32330322266</ele>
        <time>2020-10-22T17:26:35.199Z</time>
      </trkpt>
      <trkpt lat="44.04897" lon="5.69175">
        <ele>890.25500488281</ele>
        <time>2020-10-22T17:26:41.332Z</time>
      </trkpt>
      <trkpt lat="44.04963" lon="5.69202">
        <ele>894.01452636719</ele>
        <time>2020-10-22T17:26:47.488Z</time>
      </trkpt>
      <trkpt lat="44.05018" lon="5.69218">
        <ele>897.50592041016</ele>
        <time>2020-10-22T17:26:53.663Z</time>
      </trkpt>
      <trkpt lat="44.05068" lon="5.69229">
        <ele>898.72418212891</ele>
        <time>2020-10-22T17:26:59.855Z</time>
      </trkpt>
      <trkpt lat="44.05076" lon="5.69238">
        <ele>899.0361328125</ele>
        <time>2020-10-22T17:27:06.050Z</time>
      </trkpt>
      <trkpt lat="44.05081" lon="5.6925">
        <ele>899.38409423828</ele>
        <time>2020-10-22T17:27:12.248Z</time>
      </trkpt>
      <trkpt lat="44.05106" lon="5.69346">
        <ele>899.30706787109</ele>
        <time>2020-10-22T17:27:18.471Z</time>
      </trkpt>
      <trkpt lat="44.05115" lon="5.69387">
        <ele>898.47680664062</ele>
        <time>2020-10-22T17:27:24.704Z</time>
      </trkpt>
      <trkpt lat="44.05119" lon="5.69395">
        <ele>898.62078857422</ele>
        <time>2020-10-22T17:27:30.940Z</time>
      </trkpt>
      <trkpt lat="44.05141" lon="5.69412">
        <ele>900.060546875</ele>
        <time>2020-10-22T17:27:37.184Z</time>
      </trkpt>
      <trkpt lat="44.0515" lon="5.69423">
        <ele>900.55242919922</ele>
        <time>2020-10-22T17:27:43.432Z</time>
      </trkpt>
      <trkpt lat="44.05168" lon="5.6944">
        <ele>901.65625</ele>
        <time>2020-10-22T17:27:49.687Z</time>
      </trkpt>
      <trkpt lat="44.05212" lon="5.69477">
        <ele>903.59423828125</ele>
        <time>2020-10-22T17:27:55.959Z</time>
      </trkpt>
      <trkpt lat="44.05252" lon="5.69509">
        <ele>903.97814941406</ele>
        <time>2020-10-22T17:28:02.247Z</time>
      </trkpt>
      <trkpt lat="44.05301" lon="5.69544">
        <ele>904.04772949219</ele>
        <time>2020-10-22T17:28:08.553Z</time>
      </trkpt>
      <trkpt lat="44.05309" lon="5.69545">
        <ele>904.19171142578</ele>
        <time>2020-10-22T17:28:14.862Z</time>
      </trkpt>
      <trkpt lat="44.05333" lon="5.69543">
        <ele>904.86358642578</ele>
        <time>2020-10-22T17:28:21.179Z</time>
      </trkpt>
      <trkpt lat="44.0535" lon="5.69548">
        <ele>905.03155517578</ele>
        <time>2020-10-22T17:28:27.502Z</time>
      </trkpt>
      <trkpt lat="44.05383" lon="5.69566">
        <ele>903.83978271484</ele>
        <time>2020-10-22T17:28:33.837Z</time>
      </trkpt>
      <trkpt lat="44.05398" lon="5.6958">
        <ele>902.96392822266</ele>
        <time>2020-10-22T17:28:40.178Z</time>
      </trkpt>
      <trkpt lat="44.05409" lon="5.69594">
        <ele>902.23205566406</ele>
        <time>2020-10-22T17:28:46.524Z</time>
      </trkpt>
      <trkpt lat="44.0542" lon="5.69622">
        <ele>900.97308349609</ele>
        <time>2020-10-22T17:28:52.877Z</time>
      </trkpt>
      <trkpt lat="44.05425" lon="5.69631">
        <ele>900.48120117188</ele>
        <time>2020-10-22T17:28:59.233Z</time>
      </trkpt>
      <trkpt lat="44.05443" lon="5.69649">
        <ele>899.37701416016</ele>
        <time>2020-10-22T17:29:05.596Z</time>
      </trkpt>
      <trkpt lat="44.05454" lon="5.69652">
        <ele>898.44116210938</ele>
        <time>2020-10-22T17:29:11.963Z</time>
      </trkpt>
      <trkpt lat="44.0546" lon="5.69651">
        <ele>898.16644287109</ele>
        <time>2020-10-22T17:29:18.332Z</time>
      </trkpt>
      <trkpt lat="44.0548" lon="5.69641">
        <ele>898.28643798828</ele>
        <time>2020-10-22T17:29:24.708Z</time>
      </trkpt>
      <trkpt lat="44.05509" lon="5.69621">
        <ele>897.98480224609</ele>
        <time>2020-10-22T17:29:31.095Z</time>
      </trkpt>
      <trkpt lat="44.05518" lon="5.69609">
        <ele>897.71258544922</ele>
        <time>2020-10-22T17:29:37.486Z</time>
      </trkpt>
      <trkpt lat="44.05538" lon="5.6956">
        <ele>896.79498291016</ele>
        <time>2020-10-22T17:29:43.891Z</time>
      </trkpt>
      <trkpt lat="44.05544" lon="5.69569">
        <ele>896.39904785156</ele>
        <time>2020-10-22T17:29:50.299Z</time>
      </trkpt>
      <trkpt lat="44.05551" lon="5.6961">
        <ele>895.51550292969</ele>
        <time>2020-10-22T17:29:56.717Z</time>
      </trkpt>
      <trkpt lat="44.05556" lon="5.6968">
        <ele>891.19348144531</ele>
        <time>2020-10-22T17:30:03.152Z</time>
      </trkpt>
      <trkpt lat="44.0556" lon="5.69698">
        <ele>889.39373779297</ele>
        <time>2020-10-22T17:30:09.591Z</time>
      </trkpt>
      <trkpt lat="44.05561" lon="5.697">
        <ele>889.15380859375</ele>
        <time>2020-10-22T17:30:16.031Z</time>
      </trkpt>
      <trkpt lat="44.05569" lon="5.69701">
        <ele>888.49389648438</ele>
        <time>2020-10-22T17:30:22.473Z</time>
      </trkpt>
      <trkpt lat="44.05575" lon="5.69704">
        <ele>887.81005859375</ele>
        <time>2020-10-22T17:30:28.918Z</time>
      </trkpt>
      <trkpt lat="44.05577" lon="5.69709">
        <ele>887.24615478516</ele>
        <time>2020-10-22T17:30:35.364Z</time>
      </trkpt>
      <trkpt lat="44.05583" lon="5.69734">
        <ele>882.52703857422</ele>
        <time>2020-10-22T17:30:41.816Z</time>
      </trkpt>
      <trkpt lat="44.05606" lon="5.69786">
        <ele>868.39343261719</ele>
        <time>2020-10-22T17:30:48.283Z</time>
      </trkpt>
      <trkpt lat="44.05616" lon="5.69814">
        <ele>858.86456298828</ele>
        <time>2020-10-22T17:30:54.757Z</time>
      </trkpt>
      <trkpt lat="44.05653" lon="5.69938">
        <ele>811.65637207031</ele>
        <time>2020-10-22T17:31:01.264Z</time>
      </trkpt>
      <trkpt lat="44.05664" lon="5.69965">
        <ele>801.73406982422</ele>
        <time>2020-10-22T17:31:07.778Z</time>
      </trkpt>
      <trkpt lat="44.05676" lon="5.69987">
        <ele>792.31579589844</ele>
        <time>2020-10-22T17:31:14.299Z</time>
      </trkpt>
      <trkpt lat="44.05686" lon="5.69995">
        <ele>786.77276611328</ele>
        <time>2020-10-22T17:31:20.824Z</time>
      </trkpt>
      <trkpt lat="44.05707" lon="5.70001">
        <ele>778.97302246094</ele>
        <time>2020-10-22T17:31:27.356Z</time>
      </trkpt>
      <trkpt lat="44.05728" lon="5.70013">
        <ele>770.44244384766</ele>
        <time>2020-10-22T17:31:33.895Z</time>
      </trkpt>
      <trkpt lat="44.05742" lon="5.70018">
        <ele>765.19067382812</ele>
        <time>2020-10-22T17:31:40.439Z</time>
      </trkpt>
      <trkpt lat="44.05766" lon="5.70021">
        <ele>754.1044921875</ele>
        <time>2020-10-22T17:31:46.991Z</time>
      </trkpt>
      <trkpt lat="44.05779" lon="5.70025">
        <ele>749.94049072266</ele>
        <time>2020-10-22T17:31:53.548Z</time>
      </trkpt>
      <trkpt lat="44.0578" lon="5.70027">
        <ele>750.03649902344</ele>
        <time>2020-10-22T17:32:00.105Z</time>
      </trkpt>
      <trkpt lat="44.05779" lon="5.70031">
        <ele>749.65252685547</ele>
        <time>2020-10-22T17:32:06.663Z</time>
      </trkpt>
      <trkpt lat="44.05765" lon="5.70051">
        <ele>751.56964111328</ele>
        <time>2020-10-22T17:32:13.228Z</time>
      </trkpt>
      <trkpt lat="44.05724" lon="5.70146">
        <ele>752.98553466797</ele>
        <time>2020-10-22T17:32:19.820Z</time>
      </trkpt>
      <trkpt lat="44.05698" lon="5.702">
        <ele>746.50085449219</ele>
        <time>2020-10-22T17:32:26.427Z</time>
      </trkpt>
      <trkpt lat="44.05681" lon="5.70227">
        <ele>746.04425048828</ele>
        <time>2020-10-22T17:32:33.043Z</time>
      </trkpt>
      <trkpt lat="44.05677" lon="5.70238">
        <ele>746.88409423828</ele>
        <time>2020-10-22T17:32:39.662Z</time>
      </trkpt>
      <trkpt lat="44.05676" lon="5.70246">
        <ele>746.96807861328</ele>
        <time>2020-10-22T17:32:46.283Z</time>
      </trkpt>
      <trkpt lat="44.05682" lon="5.70294">
        <ele>743.86553955078</ele>
        <time>2020-10-22T17:32:52.915Z</time>
      </trkpt>
      <trkpt lat="44.05681" lon="5.70348">
        <ele>743.02392578125</ele>
        <time>2020-10-22T17:32:59.560Z</time>
      </trkpt>
      <trkpt lat="44.05678" lon="5.70367">
        <ele>743.81579589844</ele>
        <time>2020-10-22T17:33:06.210Z</time>
      </trkpt>
      <trkpt lat="44.0566" lon="5.70436">
        <ele>742.04925537109</ele>
        <time>2020-10-22T17:33:12.878Z</time>
      </trkpt>
      <trkpt lat="44.05657" lon="5.70455">
        <ele>742.21722412109</ele>
        <time>2020-10-22T17:33:19.550Z</time>
      </trkpt>
      <trkpt lat="44.05654" lon="5.7048">
        <ele>742.05407714844</ele>
        <time>2020-10-22T17:33:26.228Z</time>
      </trkpt>
      <trkpt lat="44.05652" lon="5.70535">
        <ele>741.87335205078</ele>
        <time>2020-10-22T17:33:32.920Z</time>
      </trkpt>
      <trkpt lat="44.05646" lon="5.70597">
        <ele>743.61273193359</ele>
        <time>2020-10-22T17:33:39.627Z</time>
      </trkpt>
      <trkpt lat="44.05648" lon="5.70617">
        <ele>744.8125</ele>
        <time>2020-10-22T17:33:46.339Z</time>
      </trkpt>
      <trkpt lat="44.05658" lon="5.70636">
        <ele>745.95233154297</ele>
        <time>2020-10-22T17:33:53.056Z</time>
      </trkpt>
      <trkpt lat="44.0569" lon="5.70669">
        <ele>748.31842041016</ele>
        <time>2020-10-22T17:33:59.787Z</time>
      </trkpt>
      <trkpt lat="44.05695" lon="5.70676">
        <ele>748.82232666016</ele>
        <time>2020-10-22T17:34:06.520Z</time>
      </trkpt>
      <trkpt lat="44.05708" lon="5.70705">
        <ele>750.90997314453</ele>
        <time>2020-10-22T17:34:13.261Z</time>
      </trkpt>
      <trkpt lat="44.05725" lon="5.7075">
        <ele>754.1494140625</ele>
        <time>2020-10-22T17:34:20.014Z</time>
      </trkpt>
      <trkpt lat="44.05733" lon="5.70766">
        <ele>755.30120849609</ele>
        <time>2020-10-22T17:34:26.772Z</time>
      </trkpt>
      <trkpt lat="44.05739" lon="5.70787">
        <ele>756.81298828125</ele>
        <time>2020-10-22T17:34:33.535Z</time>
      </trkpt>
      <trkpt lat="44.05743" lon="5.70937">
        <ele>765.82214355469</ele>
        <time>2020-10-22T17:34:40.335Z</time>
      </trkpt>
      <trkpt lat="44.05745" lon="5.70962">
        <ele>766.84680175781</ele>
        <time>2020-10-22T17:34:47.141Z</time>
      </trkpt>
      <trkpt lat="44.05748" lon="5.7099">
        <ele>768.27233886719</ele>
        <time>2020-10-22T17:34:53.953Z</time>
      </trkpt>
      <trkpt lat="44.0576" lon="5.71051">
        <ele>772.24255371094</ele>
        <time>2020-10-22T17:35:00.781Z</time>
      </trkpt>
      <trkpt lat="44.05776" lon="5.71155">
        <ele>777.43566894531</ele>
        <time>2020-10-22T17:35:07.634Z</time>
      </trkpt>
      <trkpt lat="44.05775" lon="5.71165">
        <ele>777.65124511719</ele>
        <time>2020-10-22T17:35:14.490Z</time>
      </trkpt>
      <trkpt lat="44.05772" lon="5.71172">
        <ele>777.74719238281</ele>
        <time>2020-10-22T17:35:21.348Z</time>
      </trkpt>
      <trkpt lat="44.05733" lon="5.7123">
        <ele>777.57019042969</ele>
        <time>2020-10-22T17:35:28.225Z</time>
      </trkpt>
      <trkpt lat="44.05731" lon="5.71241">
        <ele>777.63012695312</ele>
        <time>2020-10-22T17:35:35.104Z</time>
      </trkpt>
      <trkpt lat="44.05736" lon="5.71257">
        <ele>778.00207519531</ele>
        <time>2020-10-22T17:35:41.988Z</time>
      </trkpt>
      <trkpt lat="44.05743" lon="5.71269">
        <ele>778.39801025391</ele>
        <time>2020-10-22T17:35:48.875Z</time>
      </trkpt>
      <trkpt lat="44.05747" lon="5.71274">
        <ele>778.60198974609</ele>
        <time>2020-10-22T17:35:55.764Z</time>
      </trkpt>
      <trkpt lat="44.05795" lon="5.713">
        <ele>781.09802246094</ele>
        <time>2020-10-22T17:36:02.670Z</time>
      </trkpt>
      <trkpt lat="44.05879" lon="5.71349">
        <ele>786.72503662109</ele>
        <time>2020-10-22T17:36:09.607Z</time>
      </trkpt>
      <trkpt lat="44.05887" lon="5.7135">
        <ele>787.21697998047</ele>
        <time>2020-10-22T17:36:16.546Z</time>
      </trkpt>
      <trkpt lat="44.05889" lon="5.71347">
        <ele>787.30096435547</ele>
        <time>2020-10-22T17:36:23.486Z</time>
      </trkpt>
      <trkpt lat="44.05902" lon="5.71359">
        <ele>788.22479248047</ele>
        <time>2020-10-22T17:36:30.431Z</time>
      </trkpt>
      <trkpt lat="44.05928" lon="5.71371">
        <ele>789.94342041016</ele>
        <time>2020-10-22T17:36:37.386Z</time>
      </trkpt>
      <trkpt lat="44.05958" lon="5.7138">
        <ele>791.91925048828</ele>
        <time>2020-10-22T17:36:44.351Z</time>
      </trkpt>
      <trkpt lat="44.05992" lon="5.71381">
        <ele>793.95886230469</ele>
        <time>2020-10-22T17:36:51.327Z</time>
      </trkpt>
      <trkpt lat="44.06043" lon="5.71393">
        <ele>797.09130859375</ele>
        <time>2020-10-22T17:36:58.320Z</time>
      </trkpt>
      <trkpt lat="44.06049" lon="5.71397">
        <ele>797.49926757812</ele>
        <time>2020-10-22T17:37:05.316Z</time>
      </trkpt>
      <trkpt lat="44.06073" lon="5.71426">
        <ele>799.28698730469</ele>
        <time>2020-10-22T17:37:12.322Z</time>
      </trkpt>
      <trkpt lat="44.06104" lon="5.71448">
        <ele>801.41058349609</ele>
        <time>2020-10-22T17:37:19.340Z</time>
      </trkpt>
      <trkpt lat="44.0616" lon="5.71474">
        <ele>805.51025390625</ele>
        <time>2020-10-22T17:37:26.378Z</time>
      </trkpt>
      <trkpt lat="44.06227" lon="5.71517">
        <ele>808.78570556641</ele>
        <time>2020-10-22T17:37:33.440Z</time>
      </trkpt>
      <trkpt lat="44.06244" lon="5.71531">
        <ele>809.50561523438</ele>
        <time>2020-10-22T17:37:40.509Z</time>
      </trkpt>
      <trkpt lat="44.06291" lon="5.71578">
        <ele>811.5556640625</ele>
        <time>2020-10-22T17:37:47.597Z</time>
      </trkpt>
      <trkpt lat="44.06323" lon="5.71615">
        <ele>813.29541015625</ele>
        <time>2020-10-22T17:37:54.699Z</time>
      </trkpt>
      <trkpt lat="44.06335" lon="5.71622">
        <ele>814.19525146484</ele>
        <time>2020-10-22T17:38:01.805Z</time>
      </trkpt>
      <trkpt lat="44.06372" lon="5.71635">
        <ele>817.18463134766</ele>
        <time>2020-10-22T17:38:08.924Z</time>
      </trkpt>
      <trkpt lat="44.06403" lon="5.71652">
        <ele>819.4619140625</ele>
        <time>2020-10-22T17:38:16.054Z</time>
      </trkpt>
      <trkpt lat="44.06437" lon="5.71664">
        <ele>822.14947509766</ele>
        <time>2020-10-22T17:38:23.196Z</time>
      </trkpt>
      <trkpt lat="44.06446" lon="5.7167">
        <ele>822.6865234375</ele>
        <time>2020-10-22T17:38:30.341Z</time>
      </trkpt>
      <trkpt lat="44.06491" lon="5.71691">
        <ele>825.4580078125</ele>
        <time>2020-10-22T17:38:37.502Z</time>
      </trkpt>
      <trkpt lat="44.06548" lon="5.71708">
        <ele>829.16668701172</ele>
        <time>2020-10-22T17:38:44.682Z</time>
      </trkpt>
      <trkpt lat="44.06608" lon="5.71734">
        <ele>831.90966796875</ele>
        <time>2020-10-22T17:38:51.883Z</time>
      </trkpt>
      <trkpt lat="44.06637" lon="5.71769">
        <ele>832.79968261719</ele>
        <time>2020-10-22T17:38:59.097Z</time>
      </trkpt>
      <trkpt lat="44.06667" lon="5.71799">
        <ele>834.23944091797</ele>
        <time>2020-10-22T17:39:06.323Z</time>
      </trkpt>
      <trkpt lat="44.06703" lon="5.71833">
        <ele>837.36706542969</ele>
        <time>2020-10-22T17:39:13.564Z</time>
      </trkpt>
      <trkpt lat="44.06732" lon="5.71854">
        <ele>838.41088867188</ele>
        <time>2020-10-22T17:39:20.816Z</time>
      </trkpt>
      <trkpt lat="44.06782" lon="5.71868">
        <ele>840.96478271484</ele>
        <time>2020-10-22T17:39:28.085Z</time>
      </trkpt>
      <trkpt lat="44.06808" lon="5.71882">
        <ele>841.70867919922</ele>
        <time>2020-10-22T17:39:35.363Z</time>
      </trkpt>
      <trkpt lat="44.06832" lon="5.71891">
        <ele>842.68041992188</ele>
        <time>2020-10-22T17:39:42.649Z</time>
      </trkpt>
      <trkpt lat="44.06864" lon="5.71894">
        <ele>844.32421875</ele>
        <time>2020-10-22T17:39:49.946Z</time>
      </trkpt>
      <trkpt lat="44.06893" lon="5.71893">
        <ele>846.08184814453</ele>
        <time>2020-10-22T17:39:57.253Z</time>
      </trkpt>
      <trkpt lat="44.06909" lon="5.71906">
        <ele>847.19763183594</ele>
        <time>2020-10-22T17:40:04.566Z</time>
      </trkpt>
      <trkpt lat="44.06952" lon="5.71924">
        <ele>850.32275390625</ele>
        <time>2020-10-22T17:40:11.894Z</time>
      </trkpt>
      <trkpt lat="44.06983" lon="5.71933">
        <ele>853.40625</ele>
        <time>2020-10-22T17:40:19.233Z</time>
      </trkpt>
      <trkpt lat="44.07009" lon="5.71935">
        <ele>855.92584228516</ele>
        <time>2020-10-22T17:40:26.580Z</time>
      </trkpt>
      <trkpt lat="44.07014" lon="5.71934">
        <ele>856.39373779297</ele>
        <time>2020-10-22T17:40:33.929Z</time>
      </trkpt>
      <trkpt lat="44.07027" lon="5.71964">
        <ele>858.00146484375</ele>
        <time>2020-10-22T17:40:41.286Z</time>
      </trkpt>
      <trkpt lat="44.07036" lon="5.71976">
        <ele>859.00927734375</ele>
        <time>2020-10-22T17:40:48.647Z</time>
      </trkpt>
      <trkpt lat="44.07041" lon="5.7198">
        <ele>859.53723144531</ele>
        <time>2020-10-22T17:40:56.010Z</time>
      </trkpt>
      <trkpt lat="44.07079" lon="5.72">
        <ele>863.42456054688</ele>
        <time>2020-10-22T17:41:03.387Z</time>
      </trkpt>
      <trkpt lat="44.07096" lon="5.72006">
        <ele>865.12829589844</ele>
        <time>2020-10-22T17:41:10.770Z</time>
      </trkpt>
      <trkpt lat="44.0711" lon="5.72008">
        <ele>866.47943115234</ele>
        <time>2020-10-22T17:41:18.157Z</time>
      </trkpt>
      <trkpt lat="44.07139" lon="5.72028">
        <ele>868.45910644531</ele>
        <time>2020-10-22T17:41:25.555Z</time>
      </trkpt>
      <trkpt lat="44.07152" lon="5.72034">
        <ele>869.31097412109</ele>
        <time>2020-10-22T17:41:32.958Z</time>
      </trkpt>
      <trkpt lat="44.07174" lon="5.72036">
        <ele>870.65472412109</ele>
        <time>2020-10-22T17:41:40.368Z</time>
      </trkpt>
      <trkpt lat="44.07193" lon="5.72042">
        <ele>872.29034423828</ele>
        <time>2020-10-22T17:41:47.785Z</time>
      </trkpt>
      <trkpt lat="44.07208" lon="5.7205">
        <ele>873.35815429688</ele>
        <time>2020-10-22T17:41:55.207Z</time>
      </trkpt>
      <trkpt lat="44.07235" lon="5.72059">
        <ele>875.34619140625</ele>
        <time>2020-10-22T17:42:02.638Z</time>
      </trkpt>
      <trkpt lat="44.07298" lon="5.72073">
        <ele>879.34991455078</ele>
        <time>2020-10-22T17:42:10.091Z</time>
      </trkpt>
      <trkpt lat="44.07316" lon="5.7208">
        <ele>879.96179199219</ele>
        <time>2020-10-22T17:42:17.550Z</time>
      </trkpt>
      <trkpt lat="44.07347" lon="5.72087">
        <ele>881.19757080078</ele>
        <time>2020-10-22T17:42:25.019Z</time>
      </trkpt>
      <trkpt lat="44.07377" lon="5.72088">
        <ele>883.01934814453</ele>
        <time>2020-10-22T17:42:32.498Z</time>
      </trkpt>
      <trkpt lat="44.074" lon="5.72085">
        <ele>884.89245605469</ele>
        <time>2020-10-22T17:42:39.985Z</time>
      </trkpt>
      <trkpt lat="44.07426" lon="5.72093">
        <ele>886.69213867188</ele>
        <time>2020-10-22T17:42:47.481Z</time>
      </trkpt>
      <trkpt lat="44.07496" lon="5.7211">
        <ele>890.48175048828</ele>
        <time>2020-10-22T17:42:55.001Z</time>
      </trkpt>
      <trkpt lat="44.07536" lon="5.72129">
        <ele>892.51263427734</ele>
        <time>2020-10-22T17:43:02.535Z</time>
      </trkpt>
      <trkpt lat="44.0757" lon="5.72139">
        <ele>895.24389648438</ele>
        <time>2020-10-22T17:43:10.080Z</time>
      </trkpt>
      <trkpt lat="44.07626" lon="5.72153">
        <ele>900.94989013672</ele>
        <time>2020-10-22T17:43:17.644Z</time>
      </trkpt>
      <trkpt lat="44.07666" lon="5.7216">
        <ele>904.56127929688</ele>
        <time>2020-10-22T17:43:25.222Z</time>
      </trkpt>
      <trkpt lat="44.07714" lon="5.72163">
        <ele>908.95288085938</ele>
        <time>2020-10-22T17:43:32.816Z</time>
      </trkpt>
      <trkpt lat="44.07723" lon="5.72162">
        <ele>909.53717041016</ele>
        <time>2020-10-22T17:43:40.413Z</time>
      </trkpt>
      <trkpt lat="44.07772" lon="5.72147">
        <ele>910.62896728516</ele>
        <time>2020-10-22T17:43:48.026Z</time>
      </trkpt>
      <trkpt lat="44.07827" lon="5.72118">
        <ele>916.390625</ele>
        <time>2020-10-22T17:43:55.659Z</time>
      </trkpt>
      <trkpt lat="44.07866" lon="5.72111">
        <ele>917.85815429688</ele>
        <time>2020-10-22T17:44:03.305Z</time>
      </trkpt>
      <trkpt lat="44.07891" lon="5.72102">
        <ele>920.68969726562</ele>
        <time>2020-10-22T17:44:10.960Z</time>
      </trkpt>
      <trkpt lat="44.07912" lon="5.7209">
        <ele>921.93463134766</ele>
        <time>2020-10-22T17:44:18.622Z</time>
      </trkpt>
      <trkpt lat="44.07951" lon="5.72063">
        <ele>922.29345703125</ele>
        <time>2020-10-22T17:44:26.299Z</time>
      </trkpt>
      <trkpt lat="44.07975" lon="5.7205">
        <ele>923.40704345703</ele>
        <time>2020-10-22T17:44:33.984Z</time>
      </trkpt>
      <trkpt lat="44.07992" lon="5.72044">
        <ele>925.21875</ele>
        <time>2020-10-22T17:44:41.675Z</time>
      </trkpt>
      <trkpt lat="44.08007" lon="5.72035">
        <ele>927.30639648438</ele>
        <time>2020-10-22T17:44:49.372Z</time>
      </trkpt>
      <trkpt lat="44.08053" lon="5.71994">
        <ele>932.91790771484</ele>
        <time>2020-10-22T17:44:57.087Z</time>
      </trkpt>
      <trkpt lat="44.08059" lon="5.71991">
        <ele>933.34985351562</ele>
        <time>2020-10-22T17:45:04.804Z</time>
      </trkpt>
      <trkpt lat="44.08081" lon="5.71985">
        <ele>934.93359375</ele>
        <time>2020-10-22T17:45:12.529Z</time>
      </trkpt>
      <trkpt lat="44.08089" lon="5.71981">
        <ele>935.50952148438</ele>
        <time>2020-10-22T17:45:20.256Z</time>
      </trkpt>
      <trkpt lat="44.08129" lon="5.71954">
        <ele>941.66906738281</ele>
        <time>2020-10-22T17:45:27.998Z</time>
      </trkpt>
      <trkpt lat="44.08148" lon="5.71944">
        <ele>945.38848876953</ele>
        <time>2020-10-22T17:45:35.747Z</time>
      </trkpt>
      <trkpt lat="44.08163" lon="5.71933">
        <ele>947.80871582031</ele>
        <time>2020-10-22T17:45:43.502Z</time>
      </trkpt>
      <trkpt lat="44.08166" lon="5.71926">
        <ele>947.85668945312</ele>
        <time>2020-10-22T17:45:51.259Z</time>
      </trkpt>
      <trkpt lat="44.08169" lon="5.71892">
        <ele>948.22863769531</ele>
        <time>2020-10-22T17:45:59.024Z</time>
      </trkpt>
      <trkpt lat="44.08172" lon="5.71884">
        <ele>948.8291015625</ele>
        <time>2020-10-22T17:46:06.791Z</time>
      </trkpt>
      <trkpt lat="44.08195" lon="5.71849">
        <ele>953.61175537109</ele>
        <time>2020-10-22T17:46:14.569Z</time>
      </trkpt>
      <trkpt lat="44.0821" lon="5.71823">
        <ele>958.43493652344</ele>
        <time>2020-10-22T17:46:22.355Z</time>
      </trkpt>
      <trkpt lat="44.08235" lon="5.71764">
        <ele>966.04779052734</ele>
        <time>2020-10-22T17:46:30.158Z</time>
      </trkpt>
      <trkpt lat="44.08265" lon="5.71705">
        <ele>966.16998291016</ele>
        <time>2020-10-22T17:46:37.978Z</time>
      </trkpt>
      <trkpt lat="44.08297" lon="5.71655">
        <ele>972.77551269531</ele>
        <time>2020-10-22T17:46:45.814Z</time>
      </trkpt>
      <trkpt lat="44.08316" lon="5.71629">
        <ele>972.53869628906</ele>
        <time>2020-10-22T17:46:53.659Z</time>
      </trkpt>
      <trkpt lat="44.08334" lon="5.71598">
        <ele>976.07635498047</ele>
        <time>2020-10-22T17:47:01.514Z</time>
      </trkpt>
      <trkpt lat="44.08352" lon="5.71562">
        <ele>975.8603515625</ele>
        <time>2020-10-22T17:47:09.379Z</time>
      </trkpt>
      <trkpt lat="44.08356" lon="5.71557">
        <ele>975.48846435547</ele>
        <time>2020-10-22T17:47:17.246Z</time>
      </trkpt>
      <trkpt lat="44.08365" lon="5.71552">
        <ele>974.88836669922</ele>
        <time>2020-10-22T17:47:25.116Z</time>
      </trkpt>
      <trkpt lat="44.08372" lon="5.71544">
        <ele>975.02032470703</ele>
        <time>2020-10-22T17:47:32.989Z</time>
      </trkpt>
      <trkpt lat="44.08375" lon="5.71535">
        <ele>975.34429931641</ele>
        <time>2020-10-22T17:47:40.865Z</time>
      </trkpt>
      <trkpt lat="44.08381" lon="5.71496">
        <ele>977</ele>
        <time>2020-10-22T17:47:48.750Z</time>
      </trkpt>
      <trkpt lat="44.08401" lon="5.71533">
        <ele>974.50445556641</ele>
        <time>2020-10-22T17:47:56.646Z</time>
      </trkpt>
      <trkpt lat="44.0841" lon="5.71545">
        <ele>973.60461425781</ele>
        <time>2020-10-22T17:48:04.547Z</time>
      </trkpt>
      <trkpt lat="44.08487" lon="5.71623">
        <ele>977.87927246094</ele>
        <time>2020-10-22T17:48:12.479Z</time>
      </trkpt>
      <trkpt lat="44.08509" lon="5.71642">
        <ele>980.87005615234</ele>
        <time>2020-10-22T17:48:20.420Z</time>
      </trkpt>
      <trkpt lat="44.08545" lon="5.71663">
        <ele>987.26110839844</ele>
        <time>2020-10-22T17:48:28.374Z</time>
      </trkpt>
      <trkpt lat="44.08565" lon="5.71678">
        <ele>991.52038574219</ele>
        <time>2020-10-22T17:48:36.336Z</time>
      </trkpt>
      <trkpt lat="44.08573" lon="5.71687">
        <ele>993.54803466797</ele>
        <time>2020-10-22T17:48:44.301Z</time>
      </trkpt>
      <trkpt lat="44.08594" lon="5.71702">
        <ele>998.06030273438</ele>
        <time>2020-10-22T17:48:52.274Z</time>
      </trkpt>
      <trkpt lat="44.08627" lon="5.71722">
        <ele>1003.2760620117</ele>
        <time>2020-10-22T17:49:00.259Z</time>
      </trkpt>
      <trkpt lat="44.08654" lon="5.71747">
        <ele>1008.4951782227</ele>
        <time>2020-10-22T17:49:08.255Z</time>
      </trkpt>
      <trkpt lat="44.08674" lon="5.71772">
        <ele>1013.2943725586</ele>
        <time>2020-10-22T17:49:16.260Z</time>
      </trkpt>
      <trkpt lat="44.08683" lon="5.7179">
        <ele>1016.4258422852</ele>
        <time>2020-10-22T17:49:24.270Z</time>
      </trkpt>
      <trkpt lat="44.08685" lon="5.718">
        <ele>1018.0393676758</ele>
        <time>2020-10-22T17:49:32.282Z</time>
      </trkpt>
      <trkpt lat="44.08685" lon="5.71807">
        <ele>1019.1713256836</ele>
        <time>2020-10-22T17:49:40.296Z</time>
      </trkpt>
      <trkpt lat="44.08683" lon="5.71813">
        <ele>1020.0831298828</ele>
        <time>2020-10-22T17:49:48.312Z</time>
      </trkpt>
      <trkpt lat="44.08674" lon="5.71824">
        <ele>1021.4989013672</ele>
        <time>2020-10-22T17:49:56.332Z</time>
      </trkpt>
      <trkpt lat="44.08637" lon="5.71844">
        <ele>1022.2948608398</ele>
        <time>2020-10-22T17:50:04.365Z</time>
      </trkpt>
      <trkpt lat="44.08628" lon="5.71851">
        <ele>1022.0788574219</ele>
        <time>2020-10-22T17:50:12.401Z</time>
      </trkpt>
      <trkpt lat="44.08623" lon="5.71857">
        <ele>1022.1868286133</ele>
        <time>2020-10-22T17:50:20.440Z</time>
      </trkpt>
      <trkpt lat="44.08619" lon="5.71873">
        <ele>1023.4826660156</ele>
        <time>2020-10-22T17:50:28.483Z</time>
      </trkpt>
      <trkpt lat="44.08623" lon="5.7188">
        <ele>1024.6704101562</ele>
        <time>2020-10-22T17:50:36.528Z</time>
      </trkpt>
      <trkpt lat="44.08643" lon="5.71897">
        <ele>1028.5457763672</ele>
        <time>2020-10-22T17:50:44.581Z</time>
      </trkpt>
      <trkpt lat="44.08667" lon="5.71923">
        <ele>1033.6329345703</ele>
        <time>2020-10-22T17:50:52.644Z</time>
      </trkpt>
      <trkpt lat="44.08705" lon="5.71994">
        <ele>1042.9938964844</ele>
        <time>2020-10-22T17:51:00.728Z</time>
      </trkpt>
      <trkpt lat="44.08726" lon="5.72025">
        <ele>1046.6533203125</ele>
        <time>2020-10-22T17:51:08.822Z</time>
      </trkpt>
      <trkpt lat="44.08753" lon="5.72059">
        <ele>1051.4284667969</ele>
        <time>2020-10-22T17:51:16.928Z</time>
      </trkpt>
      <trkpt lat="44.08787" lon="5.72098">
        <ele>1056.9826660156</ele>
        <time>2020-10-22T17:51:25.049Z</time>
      </trkpt>
      <trkpt lat="44.08806" lon="5.72123">
        <ele>1059.4183349609</ele>
        <time>2020-10-22T17:51:33.179Z</time>
      </trkpt>
      <trkpt lat="44.08832" lon="5.72148">
        <ele>1062.5988769531</ele>
        <time>2020-10-22T17:51:41.319Z</time>
      </trkpt>
      <trkpt lat="44.08868" lon="5.7219">
        <ele>1066.9564208984</ele>
        <time>2020-10-22T17:51:49.475Z</time>
      </trkpt>
      <trkpt lat="44.08902" lon="5.7222">
        <ele>1073.6273193359</ele>
        <time>2020-10-22T17:51:57.644Z</time>
      </trkpt>
      <trkpt lat="44.08942" lon="5.72249">
        <ele>1080.3289794922</ele>
        <time>2020-10-22T17:52:05.828Z</time>
      </trkpt>
      <trkpt lat="44.08962" lon="5.72261">
        <ele>1084.5579833984</ele>
        <time>2020-10-22T17:52:14.020Z</time>
      </trkpt>
      <trkpt lat="44.09016" lon="5.72285">
        <ele>1095.9088134766</ele>
        <time>2020-10-22T17:52:22.231Z</time>
      </trkpt>
      <trkpt lat="44.09033" lon="5.7229">
        <ele>1098.9134521484</ele>
        <time>2020-10-22T17:52:30.447Z</time>
      </trkpt>
      <trkpt lat="44.09073" lon="5.72295">
        <ele>1106.7121582031</ele>
        <time>2020-10-22T17:52:38.677Z</time>
      </trkpt>
      <trkpt lat="44.09115" lon="5.72304">
        <ele>1114.9135742188</ele>
        <time>2020-10-22T17:52:46.921Z</time>
      </trkpt>
      <trkpt lat="44.09145" lon="5.72312">
        <ele>1120.0247802734</ele>
        <time>2020-10-22T17:52:55.175Z</time>
      </trkpt>
      <trkpt lat="44.09202" lon="5.72324">
        <ele>1129.7457275391</ele>
        <time>2020-10-22T17:53:03.448Z</time>
      </trkpt>
      <trkpt lat="44.09237" lon="5.72335">
        <ele>1134.9283447266</ele>
        <time>2020-10-22T17:53:11.733Z</time>
      </trkpt>
      <trkpt lat="44.09261" lon="5.72347">
        <ele>1138.2398681641</ele>
        <time>2020-10-22T17:53:20.027Z</time>
      </trkpt>
      <trkpt lat="44.0928" lon="5.72359">
        <ele>1140.955078125</ele>
        <time>2020-10-22T17:53:28.328Z</time>
      </trkpt>
      <trkpt lat="44.09307" lon="5.72384">
        <ele>1145.5142822266</ele>
        <time>2020-10-22T17:53:36.640Z</time>
      </trkpt>
      <trkpt lat="44.09327" lon="5.72405">
        <ele>1151.0109863281</ele>
        <time>2020-10-22T17:53:44.960Z</time>
      </trkpt>
      <trkpt lat="44.09332" lon="5.72413">
        <ele>1152.7746582031</ele>
        <time>2020-10-22T17:53:53.283Z</time>
      </trkpt>
      <trkpt lat="44.09338" lon="5.72432">
        <ele>1155.9061279297</ele>
        <time>2020-10-22T17:54:01.611Z</time>
      </trkpt>
      <trkpt lat="44.09342" lon="5.72468">
        <ele>1159.2133789062</ele>
        <time>2020-10-22T17:54:09.947Z</time>
      </trkpt>
      <trkpt lat="44.09343" lon="5.725">
        <ele>1163.0830078125</ele>
        <time>2020-10-22T17:54:18.291Z</time>
      </trkpt>
      <trkpt lat="44.09338" lon="5.72549">
        <ele>1167.6423339844</ele>
        <time>2020-10-22T17:54:26.647Z</time>
      </trkpt>
      <trkpt lat="44.09339" lon="5.7258">
        <ele>1168.4798583984</ele>
        <time>2020-10-22T17:54:35.010Z</time>
      </trkpt>
      <trkpt lat="44.09347" lon="5.72612">
        <ele>1170.5915527344</ele>
        <time>2020-10-22T17:54:43.381Z</time>
      </trkpt>
      <trkpt lat="44.09353" lon="5.72621">
        <ele>1172.1752929688</ele>
        <time>2020-10-22T17:54:51.755Z</time>
      </trkpt>
      <trkpt lat="44.09364" lon="5.72628">
        <ele>1174.7354736328</ele>
        <time>2020-10-22T17:55:00.133Z</time>
      </trkpt>
      <trkpt lat="44.09378" lon="5.7263">
        <ele>1177.2551269531</ele>
        <time>2020-10-22T17:55:08.516Z</time>
      </trkpt>
      <trkpt lat="44.09409" lon="5.72631">
        <ele>1182.8342285156</ele>
        <time>2020-10-22T17:55:16.909Z</time>
      </trkpt>
      <trkpt lat="44.09415" lon="5.72614">
        <ele>1183.9139404297</ele>
        <time>2020-10-22T17:55:25.307Z</time>
      </trkpt>
      <trkpt lat="44.09419" lon="5.7261">
        <ele>1184.6339111328</ele>
        <time>2020-10-22T17:55:33.707Z</time>
      </trkpt>
      <trkpt lat="44.09432" lon="5.72612">
        <ele>1186.9735107422</ele>
        <time>2020-10-22T17:55:42.111Z</time>
      </trkpt>
      <trkpt lat="44.09491" lon="5.72612">
        <ele>1200.4555664062</ele>
        <time>2020-10-22T17:55:50.535Z</time>
      </trkpt>
      <trkpt lat="44.09545" lon="5.72604">
        <ele>1210.9409179688</ele>
        <time>2020-10-22T17:55:58.977Z</time>
      </trkpt>
      <trkpt lat="44.0959" lon="5.7261">
        <ele>1220.0395507812</ele>
        <time>2020-10-22T17:56:07.434Z</time>
      </trkpt>
      <trkpt lat="44.09645" lon="5.72615">
        <ele>1232.4580078125</ele>
        <time>2020-10-22T17:56:15.909Z</time>
      </trkpt>
      <trkpt lat="44.09668" lon="5.72609">
        <ele>1237.5910644531</ele>
        <time>2020-10-22T17:56:24.392Z</time>
      </trkpt>
      <trkpt lat="44.09693" lon="5.72583">
        <ele>1243.2780761719</ele>
        <time>2020-10-22T17:56:32.885Z</time>
      </trkpt>
      <trkpt lat="44.09706" lon="5.72564">
        <ele>1244.8542480469</ele>
        <time>2020-10-22T17:56:41.385Z</time>
      </trkpt>
      <trkpt lat="44.09729" lon="5.72508">
        <ele>1249.7319335938</ele>
        <time>2020-10-22T17:56:49.900Z</time>
      </trkpt>
      <trkpt lat="44.09739" lon="5.72469">
        <ele>1254.5245361328</ele>
        <time>2020-10-22T17:56:58.425Z</time>
      </trkpt>
      <trkpt lat="44.09747" lon="5.72463">
        <ele>1256.3721923828</ele>
        <time>2020-10-22T17:57:06.953Z</time>
      </trkpt>
      <trkpt lat="44.09755" lon="5.72464">
        <ele>1258.6398925781</ele>
        <time>2020-10-22T17:57:15.484Z</time>
      </trkpt>
      <trkpt lat="44.09775" lon="5.72487">
        <ele>1263.5510253906</ele>
        <time>2020-10-22T17:57:24.024Z</time>
      </trkpt>
      <trkpt lat="44.0979" lon="5.725">
        <ele>1264.66796875</ele>
        <time>2020-10-22T17:57:32.569Z</time>
      </trkpt>
      <trkpt lat="44.09805" lon="5.72508">
        <ele>1265.8077392578</ele>
        <time>2020-10-22T17:57:41.120Z</time>
      </trkpt>
      <trkpt lat="44.09812" lon="5.72509">
        <ele>1266.5036621094</ele>
        <time>2020-10-22T17:57:49.673Z</time>
      </trkpt>
      <trkpt lat="44.09822" lon="5.7251">
        <ele>1267.6622314453</ele>
        <time>2020-10-22T17:57:58.229Z</time>
      </trkpt>
      <trkpt lat="44.0984" lon="5.72509">
        <ele>1270.1218261719</ele>
        <time>2020-10-22T17:58:06.791Z</time>
      </trkpt>
      <trkpt lat="44.09862" lon="5.72501">
        <ele>1273.8415527344</ele>
        <time>2020-10-22T17:58:15.361Z</time>
      </trkpt>
      <trkpt lat="44.09895" lon="5.72485">
        <ele>1281.1805419922</ele>
        <time>2020-10-22T17:58:23.943Z</time>
      </trkpt>
      <trkpt lat="44.09909" lon="5.7248">
        <ele>1283.7720947266</ele>
        <time>2020-10-22T17:58:32.530Z</time>
      </trkpt>
      <trkpt lat="44.09922" lon="5.72479">
        <ele>1286.0037841797</ele>
        <time>2020-10-22T17:58:41.121Z</time>
      </trkpt>
      <trkpt lat="44.09951" lon="5.72485">
        <ele>1291.1381835938</ele>
        <time>2020-10-22T17:58:49.722Z</time>
      </trkpt>
      <trkpt lat="44.09976" lon="5.72498">
        <ele>1296.1468505859</ele>
        <time>2020-10-22T17:58:58.332Z</time>
      </trkpt>
      <trkpt lat="44.1" lon="5.72519">
        <ele>1300.6821289062</ele>
        <time>2020-10-22T17:59:06.951Z</time>
      </trkpt>
      <trkpt lat="44.10036" lon="5.72583">
        <ele>1304.7591552734</ele>
        <time>2020-10-22T17:59:15.590Z</time>
      </trkpt>
      <trkpt lat="44.10043" lon="5.72591">
        <ele>1305.1669921875</ele>
        <time>2020-10-22T17:59:24.232Z</time>
      </trkpt>
      <trkpt lat="44.10051" lon="5.72597">
        <ele>1305.9349365234</ele>
        <time>2020-10-22T17:59:32.877Z</time>
      </trkpt>
      <trkpt lat="44.10064" lon="5.726">
        <ele>1307.8305664062</ele>
        <time>2020-10-22T17:59:41.526Z</time>
      </trkpt>
      <trkpt lat="44.10099" lon="5.72598">
        <ele>1314.5755615234</ele>
        <time>2020-10-22T17:59:50.187Z</time>
      </trkpt>
      <trkpt lat="44.10166" lon="5.72608">
        <ele>1325.5662841797</ele>
        <time>2020-10-22T17:59:58.870Z</time>
      </trkpt>
      <trkpt lat="44.1024" lon="5.72616">
        <ele>1337.3648681641</ele>
        <time>2020-10-22T18:00:07.578Z</time>
      </trkpt>
      <trkpt lat="44.10286" lon="5.72625">
        <ele>1344.4908447266</ele>
        <time>2020-10-22T18:00:16.301Z</time>
      </trkpt>
      <trkpt lat="44.10305" lon="5.72632">
        <ele>1347.4423828125</ele>
        <time>2020-10-22T18:00:25.031Z</time>
      </trkpt>
      <trkpt lat="44.10313" lon="5.72629">
        <ele>1349.4700927734</ele>
        <time>2020-10-22T18:00:33.764Z</time>
      </trkpt>
      <trkpt lat="44.10316" lon="5.72624">
        <ele>1350.7418212891</ele>
        <time>2020-10-22T18:00:42.498Z</time>
      </trkpt>
      <trkpt lat="44.10304" lon="5.72586">
        <ele>1353.3094482422</ele>
        <time>2020-10-22T18:00:51.242Z</time>
      </trkpt>
      <trkpt lat="44.10306" lon="5.72575">
        <ele>1354.8793945312</ele>
        <time>2020-10-22T18:00:59.989Z</time>
      </trkpt>
      <trkpt lat="44.10315" lon="5.72557">
        <ele>1358.1188964844</ele>
        <time>2020-10-22T18:01:08.741Z</time>
      </trkpt>
      <trkpt lat="44.10342" lon="5.72527">
        <ele>1360.2719726562</ele>
        <time>2020-10-22T18:01:17.505Z</time>
      </trkpt>
      <trkpt lat="44.10347" lon="5.72525">
        <ele>1361.2917480469</ele>
        <time>2020-10-22T18:01:26.270Z</time>
      </trkpt>
      <trkpt lat="44.10352" lon="5.72527">
        <ele>1362.5515136719</ele>
        <time>2020-10-22T18:01:35.037Z</time>
      </trkpt>
      <trkpt lat="44.1036" lon="5.72534">
        <ele>1364.7951660156</ele>
        <time>2020-10-22T18:01:43.807Z</time>
      </trkpt>
      <trkpt lat="44.10373" lon="5.72551">
        <ele>1368.0034179688</ele>
        <time>2020-10-22T18:01:52.583Z</time>
      </trkpt>
      <trkpt lat="44.10378" lon="5.72555">
        <ele>1368.8345947266</ele>
        <time>2020-10-22T18:02:01.361Z</time>
      </trkpt>
      <trkpt lat="44.10385" lon="5.72557">
        <ele>1369.7224121094</ele>
        <time>2020-10-22T18:02:10.142Z</time>
      </trkpt>
      <trkpt lat="44.10398" lon="5.72558">
        <ele>1371.7620849609</ele>
        <time>2020-10-22T18:02:18.927Z</time>
      </trkpt>
      <trkpt lat="44.10426" lon="5.72556">
        <ele>1376.7532958984</ele>
        <time>2020-10-22T18:02:27.721Z</time>
      </trkpt>
      <trkpt lat="44.10474" lon="5.72548">
        <ele>1386.8107910156</ele>
        <time>2020-10-22T18:02:36.531Z</time>
      </trkpt>
      <trkpt lat="44.10493" lon="5.72549">
        <ele>1390.8780517578</ele>
        <time>2020-10-22T18:02:45.348Z</time>
      </trkpt>
      <trkpt lat="44.10513" lon="5.72547">
        <ele>1395.2692871094</ele>
        <time>2020-10-22T18:02:54.171Z</time>
      </trkpt>
      <trkpt lat="44.10522" lon="5.72542">
        <ele>1397.7292480469</ele>
        <time>2020-10-22T18:03:02.998Z</time>
      </trkpt>
      <trkpt lat="44.10527" lon="5.72534">
        <ele>1399.7047119141</ele>
        <time>2020-10-22T18:03:11.827Z</time>
      </trkpt>
      <trkpt lat="44.1053" lon="5.72504">
        <ele>1402.8001708984</ele>
        <time>2020-10-22T18:03:20.663Z</time>
      </trkpt>
      <trkpt lat="44.10536" lon="5.72484">
        <ele>1405.6317138672</ele>
        <time>2020-10-22T18:03:29.505Z</time>
      </trkpt>
      <trkpt lat="44.10554" lon="5.7246">
        <ele>1409.2249755859</ele>
        <time>2020-10-22T18:03:38.355Z</time>
      </trkpt>
      <trkpt lat="44.10563" lon="5.72454">
        <ele>1410.3768310547</ele>
        <time>2020-10-22T18:03:47.208Z</time>
      </trkpt>
      <trkpt lat="44.10571" lon="5.72454">
        <ele>1411.9125976562</ele>
        <time>2020-10-22T18:03:56.064Z</time>
      </trkpt>
      <trkpt lat="44.10575" lon="5.72457">
        <ele>1412.9683837891</ele>
        <time>2020-10-22T18:04:04.921Z</time>
      </trkpt>
      <trkpt lat="44.10597" lon="5.72487">
        <ele>1417.0897216797</ele>
        <time>2020-10-22T18:04:13.789Z</time>
      </trkpt>
      <trkpt lat="44.1062" lon="5.72509">
        <ele>1419.5388183594</ele>
        <time>2020-10-22T18:04:22.666Z</time>
      </trkpt>
      <trkpt lat="44.1067" lon="5.72549">
        <ele>1425.1778564453</ele>
        <time>2020-10-22T18:04:31.562Z</time>
      </trkpt>
      <trkpt lat="44.10674" lon="5.7255">
        <ele>1425.8137207031</ele>
        <time>2020-10-22T18:04:40.460Z</time>
      </trkpt>
      <trkpt lat="44.10679" lon="5.72549">
        <ele>1426.7976074219</ele>
        <time>2020-10-22T18:04:49.359Z</time>
      </trkpt>
      <trkpt lat="44.10685" lon="5.72544">
        <ele>1428.3760986328</ele>
        <time>2020-10-22T18:04:58.261Z</time>
      </trkpt>
      <trkpt lat="44.10686" lon="5.72535">
        <ele>1429.9118652344</ele>
        <time>2020-10-22T18:05:07.165Z</time>
      </trkpt>
      <trkpt lat="44.10677" lon="5.72511">
        <ele>1431.2076416016</ele>
        <time>2020-10-22T18:05:16.075Z</time>
      </trkpt>
      <trkpt lat="44.10673" lon="5.72492">
        <ele>1432.9832763672</ele>
        <time>2020-10-22T18:05:24.990Z</time>
      </trkpt>
      <trkpt lat="44.10676" lon="5.72476">
        <ele>1436.0068359375</ele>
        <time>2020-10-22T18:05:33.909Z</time>
      </trkpt>
      <trkpt lat="44.10684" lon="5.72453">
        <ele>1438.9010009766</ele>
        <time>2020-10-22T18:05:42.834Z</time>
      </trkpt>
      <trkpt lat="44.10723" lon="5.7237">
        <ele>1449.0540771484</ele>
        <time>2020-10-22T18:05:51.783Z</time>
      </trkpt>
      <trkpt lat="44.10758" lon="5.72267">
        <ele>1459.7103271484</ele>
        <time>2020-10-22T18:06:00.759Z</time>
      </trkpt>
      <trkpt lat="44.10767" lon="5.72233">
        <ele>1462.6618652344</ele>
        <time>2020-10-22T18:06:09.744Z</time>
      </trkpt>
      <trkpt lat="44.10771" lon="5.7221">
        <ele>1465.2047119141</ele>
        <time>2020-10-22T18:06:18.735Z</time>
      </trkpt>
      <trkpt lat="44.10772" lon="5.72183">
        <ele>1466.896484375</ele>
        <time>2020-10-22T18:06:27.732Z</time>
      </trkpt>
      <trkpt lat="44.10766" lon="5.72157">
        <ele>1468.0242919922</ele>
        <time>2020-10-22T18:06:36.736Z</time>
      </trkpt>
      <trkpt lat="44.10757" lon="5.72135">
        <ele>1468.8679199219</ele>
        <time>2020-10-22T18:06:45.746Z</time>
      </trkpt>
      <trkpt lat="44.10771" lon="5.72123">
        <ele>1471.2084960938</ele>
        <time>2020-10-22T18:06:54.761Z</time>
      </trkpt>
      <trkpt lat="44.10787" lon="5.72117">
        <ele>1473.2680664062</ele>
        <time>2020-10-22T18:07:03.782Z</time>
      </trkpt>
      <trkpt lat="44.10803" lon="5.72121">
        <ele>1474.9957275391</ele>
        <time>2020-10-22T18:07:12.808Z</time>
      </trkpt>
      <trkpt lat="44.10814" lon="5.7213">
        <ele>1475.5836181641</ele>
        <time>2020-10-22T18:07:21.839Z</time>
      </trkpt>
      <trkpt lat="44.10821" lon="5.72152">
        <ele>1476.0107421875</ele>
        <time>2020-10-22T18:07:30.875Z</time>
      </trkpt>
      <trkpt lat="44.10879" lon="5.72198">
        <ele>1486.025390625</ele>
        <time>2020-10-22T18:07:39.934Z</time>
      </trkpt>
      <trkpt lat="44.10898" lon="5.72211">
        <ele>1490.5126953125</ele>
        <time>2020-10-22T18:07:49.000Z</time>
      </trkpt>
      <trkpt lat="44.1093" lon="5.72225">
        <ele>1497.8648681641</ele>
        <time>2020-10-22T18:07:58.077Z</time>
      </trkpt>
      <trkpt lat="44.10951" lon="5.72242">
        <ele>1502.1784667969</ele>
        <time>2020-10-22T18:08:07.162Z</time>
      </trkpt>
      <trkpt lat="44.10961" lon="5.72248">
        <ele>1504.0262451172</ele>
        <time>2020-10-22T18:08:16.251Z</time>
      </trkpt>
      <trkpt lat="44.11006" lon="5.72269">
        <ele>1511.9132080078</ele>
        <time>2020-10-22T18:08:25.355Z</time>
      </trkpt>
      <trkpt lat="44.11024" lon="5.72275">
        <ele>1514.8646240234</ele>
        <time>2020-10-22T18:08:34.466Z</time>
      </trkpt>
      <trkpt lat="44.11063" lon="5.72282">
        <ele>1521.5493164062</ele>
        <time>2020-10-22T18:08:43.590Z</time>
      </trkpt>
      <trkpt lat="44.11103" lon="5.72284">
        <ele>1528.1657714844</ele>
        <time>2020-10-22T18:08:52.727Z</time>
      </trkpt>
      <trkpt lat="44.11135" lon="5.72279">
        <ele>1531.7869873047</ele>
        <time>2020-10-22T18:09:01.875Z</time>
      </trkpt>
      <trkpt lat="44.11143" lon="5.72283">
        <ele>1532.7947998047</ele>
        <time>2020-10-22T18:09:11.026Z</time>
      </trkpt>
      <trkpt lat="44.11152" lon="5.72285">
        <ele>1533.8386230469</ele>
        <time>2020-10-22T18:09:20.180Z</time>
      </trkpt>
      <trkpt lat="44.1116" lon="5.72284">
        <ele>1534.6665039062</ele>
        <time>2020-10-22T18:09:29.336Z</time>
      </trkpt>
      <trkpt lat="44.11225" lon="5.72285">
        <ele>1542.5483398438</ele>
        <time>2020-10-22T18:09:38.514Z</time>
      </trkpt>
      <trkpt lat="44.11257" lon="5.72288">
        <ele>1546.4237060547</ele>
        <time>2020-10-22T18:09:47.703Z</time>
      </trkpt>
      <trkpt lat="44.11277" lon="5.72292">
        <ele>1548.1743164062</ele>
        <time>2020-10-22T18:09:56.898Z</time>
      </trkpt>
      <trkpt lat="44.11284" lon="5.72295">
        <ele>1549.7340087891</ele>
        <time>2020-10-22T18:10:06.096Z</time>
      </trkpt>
      <trkpt lat="44.11292" lon="5.72301">
        <ele>1551.7016601562</ele>
        <time>2020-10-22T18:10:15.297Z</time>
      </trkpt>
      <trkpt lat="44.11306" lon="5.72315">
        <ele>1554.3161621094</ele>
        <time>2020-10-22T18:10:24.504Z</time>
      </trkpt>
      <trkpt lat="44.11317" lon="5.72323">
        <ele>1556.2358398438</ele>
        <time>2020-10-22T18:10:33.715Z</time>
      </trkpt>
      <trkpt lat="44.11362" lon="5.72336">
        <ele>1564.6046142578</ele>
        <time>2020-10-22T18:10:42.941Z</time>
      </trkpt>
      <trkpt lat="44.1141" lon="5.72356">
        <ele>1574.4909667969</ele>
        <time>2020-10-22T18:10:52.184Z</time>
      </trkpt>
      <trkpt lat="44.11442" lon="5.72367">
        <ele>1579.5847167969</ele>
        <time>2020-10-22T18:11:01.438Z</time>
      </trkpt>
      <trkpt lat="44.11504" lon="5.72394">
        <ele>1589.9852294922</ele>
        <time>2020-10-22T18:11:10.713Z</time>
      </trkpt>
      <trkpt lat="44.11518" lon="5.72398">
        <ele>1591.6650390625</ele>
        <time>2020-10-22T18:11:19.993Z</time>
      </trkpt>
      <trkpt lat="44.11602" lon="5.72397">
        <ele>1599.4008789062</ele>
        <time>2020-10-22T18:11:29.301Z</time>
      </trkpt>
      <trkpt lat="44.11728" lon="5.72426">
        <ele>1606.0223388672</ele>
        <time>2020-10-22T18:11:38.652Z</time>
      </trkpt>
      <trkpt lat="44.11736" lon="5.72429">
        <ele>1606.4636230469</ele>
        <time>2020-10-22T18:11:48.006Z</time>
      </trkpt>
      <trkpt lat="44.11776" lon="5.72448">
        <ele>1604.1120605469</ele>
        <time>2020-10-22T18:11:57.374Z</time>
      </trkpt>
      <trkpt lat="44.11809" lon="5.72466">
        <ele>1608.9749755859</ele>
        <time>2020-10-22T18:12:06.753Z</time>
      </trkpt>
      <trkpt lat="44.11835" lon="5.72477">
        <ele>1612.6535644531</ele>
        <time>2020-10-22T18:12:16.142Z</time>
      </trkpt>
      <trkpt lat="44.11849" lon="5.72487">
        <ele>1613.9733886719</ele>
        <time>2020-10-22T18:12:25.536Z</time>
      </trkpt>
      <trkpt lat="44.11864" lon="5.72502">
        <ele>1614.8731689453</ele>
        <time>2020-10-22T18:12:34.936Z</time>
      </trkpt>
      <trkpt lat="44.1189" lon="5.72535">
        <ele>1615.5930175781</ele>
        <time>2020-10-22T18:12:44.348Z</time>
      </trkpt>
      <trkpt lat="44.11898" lon="5.72542">
        <ele>1616.1929931641</ele>
        <time>2020-10-22T18:12:53.763Z</time>
      </trkpt>
      <trkpt lat="44.11906" lon="5.72546">
        <ele>1617.1528320312</ele>
        <time>2020-10-22T18:13:03.181Z</time>
      </trkpt>
      <trkpt lat="44.1194" lon="5.72555">
        <ele>1622.0895996094</ele>
        <time>2020-10-22T18:13:12.610Z</time>
      </trkpt>
      <trkpt lat="44.11947" lon="5.72567">
        <ele>1620.1442871094</ele>
        <time>2020-10-22T18:13:22.043Z</time>
      </trkpt>
      <trkpt lat="44.1195" lon="5.72567">
        <ele>1620.0002441406</ele>
        <time>2020-10-22T18:13:31.477Z</time>
      </trkpt>
      <trkpt lat="44.11966" lon="5.72558">
        <ele>1619.9820556641</ele>
        <time>2020-10-22T18:13:40.917Z</time>
      </trkpt>
      <trkpt lat="44.11973" lon="5.72556">
        <ele>1619.5141601562</ele>
        <time>2020-10-22T18:13:50.359Z</time>
      </trkpt>
      <trkpt lat="44.11997" lon="5.72554">
        <ele>1617.2105712891</ele>
        <time>2020-10-22T18:13:59.809Z</time>
      </trkpt>
      <trkpt lat="44.12049" lon="5.72568">
        <ele>1608.7733154297</ele>
        <time>2020-10-22T18:14:09.277Z</time>
      </trkpt>
      <trkpt lat="44.12145" lon="5.72574">
        <ele>1593.8013916016</ele>
        <time>2020-10-22T18:14:18.777Z</time>
      </trkpt>
      <trkpt lat="44.12172" lon="5.72579">
        <ele>1589.6140136719</ele>
        <time>2020-10-22T18:14:28.286Z</time>
      </trkpt>
      <trkpt lat="44.12215" lon="5.72607">
        <ele>1585.3179931641</ele>
        <time>2020-10-22T18:14:37.811Z</time>
      </trkpt>
      <trkpt lat="44.12273" lon="5.72655">
        <ele>1583.6158447266</ele>
        <time>2020-10-22T18:14:47.358Z</time>
      </trkpt>
      <trkpt lat="44.12305" lon="5.72684">
        <ele>1584.9772949219</ele>
        <time>2020-10-22T18:14:56.918Z</time>
      </trkpt>
      <trkpt lat="44.12349" lon="5.72708">
        <ele>1588.4904785156</ele>
        <time>2020-10-22T18:15:06.494Z</time>
      </trkpt>
      <trkpt lat="44.12435" lon="5.72746">
        <ele>1594.0869140625</ele>
        <time>2020-10-22T18:15:16.100Z</time>
      </trkpt>
      <trkpt lat="44.12465" lon="5.72766">
        <ele>1594.8375244141</ele>
        <time>2020-10-22T18:15:25.717Z</time>
      </trkpt>
      <trkpt lat="44.12541" lon="5.72844">
        <ele>1594.9820556641</ele>
        <time>2020-10-22T18:15:35.365Z</time>
      </trkpt>
      <trkpt lat="44.12557" lon="5.72866">
        <ele>1594.6700439453</ele>
        <time>2020-10-22T18:15:45.021Z</time>
      </trkpt>
      <trkpt lat="44.12609" lon="5.72975">
        <ele>1588.1193847656</ele>
        <time>2020-10-22T18:15:54.708Z</time>
      </trkpt>
      <trkpt lat="44.12621" lon="5.73011">
        <ele>1585.8898925781</ele>
        <time>2020-10-22T18:16:04.405Z</time>
      </trkpt>
      <trkpt lat="44.12643" lon="5.73064">
        <ele>1580.6614990234</ele>
        <time>2020-10-22T18:16:14.116Z</time>
      </trkpt>
      <trkpt lat="44.12647" lon="5.73094">
        <ele>1575.5197753906</ele>
        <time>2020-10-22T18:16:23.835Z</time>
      </trkpt>
      <trkpt lat="44.12667" lon="5.73165">
        <ele>1566.7052001953</ele>
        <time>2020-10-22T18:16:33.572Z</time>
      </trkpt>
      <trkpt lat="44.12684" lon="5.73213">
        <ele>1555.9547119141</ele>
        <time>2020-10-22T18:16:43.322Z</time>
      </trkpt>
      <trkpt lat="44.12718" lon="5.73298">
        <ele>1538.9924316406</ele>
        <time>2020-10-22T18:16:53.095Z</time>
      </trkpt>
      <trkpt lat="44.12765" lon="5.73394">
        <ele>1507.4582519531</ele>
        <time>2020-10-22T18:17:02.896Z</time>
      </trkpt>
      <trkpt lat="44.12775" lon="5.73424">
        <ele>1498.5797119141</ele>
        <time>2020-10-22T18:17:12.705Z</time>
      </trkpt>
      <trkpt lat="44.12793" lon="5.73507">
        <ele>1476.6594238281</ele>
        <time>2020-10-22T18:17:22.535Z</time>
      </trkpt>
      <trkpt lat="44.128" lon="5.73522">
        <ele>1471.8962402344</ele>
        <time>2020-10-22T18:17:32.369Z</time>
      </trkpt>
      <trkpt lat="44.12804" lon="5.73538">
        <ele>1467.4809570312</ele>
        <time>2020-10-22T18:17:42.207Z</time>
      </trkpt>
      <trkpt lat="44.12814" lon="5.73602">
        <ele>1450.2607421875</ele>
        <time>2020-10-22T18:17:52.061Z</time>
      </trkpt>
      <trkpt lat="44.12805" lon="5.7365">
        <ele>1439.7864990234</ele>
        <time>2020-10-22T18:18:01.927Z</time>
      </trkpt>
      <trkpt lat="44.12811" lon="5.73676">
        <ele>1431.8062744141</ele>
        <time>2020-10-22T18:18:11.799Z</time>
      </trkpt>
      <trkpt lat="44.12823" lon="5.73691">
        <ele>1425.6513671875</ele>
        <time>2020-10-22T18:18:21.677Z</time>
      </trkpt>
      <trkpt lat="44.12842" lon="5.73709">
        <ele>1417.7686767578</ele>
        <time>2020-10-22T18:18:31.563Z</time>
      </trkpt>
      <trkpt lat="44.12852" lon="5.73727">
        <ele>1411.3917236328</ele>
        <time>2020-10-22T18:18:41.454Z</time>
      </trkpt>
      <trkpt lat="44.12869" lon="5.73779">
        <ele>1396.2619628906</ele>
        <time>2020-10-22T18:18:51.359Z</time>
      </trkpt>
      <trkpt lat="44.12892" lon="5.73821">
        <ele>1384.3497314453</ele>
        <time>2020-10-22T18:19:01.276Z</time>
      </trkpt>
      <trkpt lat="44.12899" lon="5.73833">
        <ele>1382.0581054688</ele>
        <time>2020-10-22T18:19:11.197Z</time>
      </trkpt>
      <trkpt lat="44.12921" lon="5.73855">
        <ele>1375.9871826172</ele>
        <time>2020-10-22T18:19:21.127Z</time>
      </trkpt>
      <trkpt lat="44.12945" lon="5.73887">
        <ele>1368.6912841797</ele>
        <time>2020-10-22T18:19:31.068Z</time>
      </trkpt>
      <trkpt lat="44.12949" lon="5.739">
        <ele>1369.5067138672</ele>
        <time>2020-10-22T18:19:41.013Z</time>
      </trkpt>
      <trkpt lat="44.12946" lon="5.7393">
        <ele>1372.3503417969</ele>
        <time>2020-10-22T18:19:50.965Z</time>
      </trkpt>
      <trkpt lat="44.12946" lon="5.73953">
        <ele>1374.2819824219</ele>
        <time>2020-10-22T18:20:00.922Z</time>
      </trkpt>
      <trkpt lat="44.12941" lon="5.73965">
        <ele>1375.5909423828</ele>
        <time>2020-10-22T18:20:10.883Z</time>
      </trkpt>
      <trkpt lat="44.12949" lon="5.73974">
        <ele>1376.5573730469</ele>
        <time>2020-10-22T18:20:20.847Z</time>
      </trkpt>
      <trkpt lat="44.12943" lon="5.73983">
        <ele>1378.6356201172</ele>
        <time>2020-10-22T18:20:30.814Z</time>
      </trkpt>
      <trkpt lat="44.1294" lon="5.74005">
        <ele>1383.0388183594</ele>
        <time>2020-10-22T18:20:40.786Z</time>
      </trkpt>
      <trkpt lat="44.12938" lon="5.74038">
        <ele>1390.1536865234</ele>
        <time>2020-10-22T18:20:50.766Z</time>
      </trkpt>
      <trkpt lat="44.12939" lon="5.74064">
        <ele>1396.8861083984</ele>
        <time>2020-10-22T18:21:00.753Z</time>
      </trkpt>
      <trkpt lat="44.12957" lon="5.74125">
        <ele>1416.7607421875</ele>
        <time>2020-10-22T18:21:10.756Z</time>
      </trkpt>
      <trkpt lat="44.1296" lon="5.74141">
        <ele>1421.7114257812</ele>
        <time>2020-10-22T18:21:20.762Z</time>
      </trkpt>
      <trkpt lat="44.12961" lon="5.74153">
        <ele>1425.4907226562</ele>
        <time>2020-10-22T18:21:30.771Z</time>
      </trkpt>
      <trkpt lat="44.12959" lon="5.74172">
        <ele>1431.1121826172</ele>
        <time>2020-10-22T18:21:40.785Z</time>
      </trkpt>
      <trkpt lat="44.12969" lon="5.74278">
        <ele>1465.5831298828</ele>
        <time>2020-10-22T18:21:50.825Z</time>
      </trkpt>
      <trkpt lat="44.12978" lon="5.74329">
        <ele>1482.7634277344</ele>
        <time>2020-10-22T18:22:00.877Z</time>
      </trkpt>
      <trkpt lat="44.12983" lon="5.74392">
        <ele>1502.0114746094</ele>
        <time>2020-10-22T18:22:10.944Z</time>
      </trkpt>
      <trkpt lat="44.12996" lon="5.74465">
        <ele>1524.2542724609</ele>
        <time>2020-10-22T18:22:21.030Z</time>
      </trkpt>
      <trkpt lat="44.13024" lon="5.74572">
        <ele>1552.0891113281</ele>
        <time>2020-10-22T18:22:31.143Z</time>
      </trkpt>
      <trkpt lat="44.13059" lon="5.74693">
        <ele>1569.1595458984</ele>
        <time>2020-10-22T18:22:41.287Z</time>
      </trkpt>
      <trkpt lat="44.13074" lon="5.74722">
        <ele>1573.5360107422</ele>
        <time>2020-10-22T18:22:51.440Z</time>
      </trkpt>
      <trkpt lat="44.13117" lon="5.74784">
        <ele>1588.2731933594</ele>
        <time>2020-10-22T18:23:01.613Z</time>
      </trkpt>
      <trkpt lat="44.13139" lon="5.7482">
        <ele>1595.1746826172</ele>
        <time>2020-10-22T18:23:11.798Z</time>
      </trkpt>
      <trkpt lat="44.13157" lon="5.74836">
        <ele>1600.3577880859</ele>
        <time>2020-10-22T18:23:21.990Z</time>
      </trkpt>
      <trkpt lat="44.13162" lon="5.74847">
        <ele>1602.5054931641</ele>
        <time>2020-10-22T18:23:32.185Z</time>
      </trkpt>
      <trkpt lat="44.13165" lon="5.74862">
        <ele>1604.5386962891</ele>
        <time>2020-10-22T18:23:42.384Z</time>
      </trkpt>
      <trkpt lat="44.13179" lon="5.74985">
        <ele>1618.7774658203</ele>
        <time>2020-10-22T18:23:52.613Z</time>
      </trkpt>
      <trkpt lat="44.132" lon="5.75097">
        <ele>1625.9649658203</ele>
        <time>2020-10-22T18:24:02.869Z</time>
      </trkpt>
      <trkpt lat="44.13194" lon="5.75126">
        <ele>1626.5168457031</ele>
        <time>2020-10-22T18:24:13.133Z</time>
      </trkpt>
      <trkpt lat="44.1319" lon="5.75131">
        <ele>1625.5216064453</ele>
        <time>2020-10-22T18:24:23.398Z</time>
      </trkpt>
      <trkpt lat="44.13185" lon="5.75132">
        <ele>1625.0148925781</ele>
        <time>2020-10-22T18:24:33.665Z</time>
      </trkpt>
      <trkpt lat="44.13178" lon="5.75136">
        <ele>1625.2429199219</ele>
        <time>2020-10-22T18:24:43.935Z</time>
      </trkpt>
      <trkpt lat="44.13162" lon="5.75151">
        <ele>1620.81640625</ele>
        <time>2020-10-22T18:24:54.211Z</time>
      </trkpt>
      <trkpt lat="44.13111" lon="5.75203">
        <ele>1622.0982666016</ele>
        <time>2020-10-22T18:25:04.508Z</time>
      </trkpt>
      <trkpt lat="44.13084" lon="5.75235">
        <ele>1615.5797119141</ele>
        <time>2020-10-22T18:25:14.817Z</time>
      </trkpt>
      <trkpt lat="44.13064" lon="5.75261">
        <ele>1607.7399902344</ele>
        <time>2020-10-22T18:25:25.135Z</time>
      </trkpt>
      <trkpt lat="44.13034" lon="5.75308">
        <ele>1611.5391845703</ele>
        <time>2020-10-22T18:25:35.468Z</time>
      </trkpt>
      <trkpt lat="44.13009" lon="5.75354">
        <ele>1602.8043212891</ele>
        <time>2020-10-22T18:25:45.815Z</time>
      </trkpt>
      <trkpt lat="44.12997" lon="5.75396">
        <ele>1596.3123779297</ele>
        <time>2020-10-22T18:25:56.173Z</time>
      </trkpt>
      <trkpt lat="44.1299" lon="5.75412">
        <ele>1592.9289550781</ele>
        <time>2020-10-22T18:26:06.535Z</time>
      </trkpt>
      <trkpt lat="44.12986" lon="5.75449">
        <ele>1586.2131347656</ele>
        <time>2020-10-22T18:26:16.906Z</time>
      </trkpt>
      <trkpt lat="44.12982" lon="5.75554">
        <ele>1566.3713378906</ele>
        <time>2020-10-22T18:26:27.303Z</time>
      </trkpt>
      <trkpt lat="44.1298" lon="5.75564">
        <ele>1564.4305419922</ele>
        <time>2020-10-22T18:26:37.702Z</time>
      </trkpt>
      <trkpt lat="44.12963" lon="5.7561">
        <ele>1563.5855712891</ele>
        <time>2020-10-22T18:26:48.114Z</time>
      </trkpt>
      <trkpt lat="44.12952" lon="5.75666">
        <ele>1566.4940185547</ele>
        <time>2020-10-22T18:26:58.539Z</time>
      </trkpt>
      <trkpt lat="44.12943" lon="5.75672">
        <ele>1570.9304199219</ele>
        <time>2020-10-22T18:27:08.968Z</time>
      </trkpt>
      <trkpt lat="44.12931" lon="5.7569">
        <ele>1570.1385498047</ele>
        <time>2020-10-22T18:27:19.403Z</time>
      </trkpt>
      <trkpt lat="44.129" lon="5.75759">
        <ele>1576.0343017578</ele>
        <time>2020-10-22T18:27:29.857Z</time>
      </trkpt>
      <trkpt lat="44.12887" lon="5.75782">
        <ele>1585.0618896484</ele>
        <time>2020-10-22T18:27:40.318Z</time>
      </trkpt>
      <trkpt lat="44.12842" lon="5.7585">
        <ele>1602.1623535156</ele>
        <time>2020-10-22T18:27:50.801Z</time>
      </trkpt>
      <trkpt lat="44.12805" lon="5.7591">
        <ele>1612.5126953125</ele>
        <time>2020-10-22T18:28:01.303Z</time>
      </trkpt>
      <trkpt lat="44.12775" lon="5.7595">
        <ele>1625.5500488281</ele>
        <time>2020-10-22T18:28:11.819Z</time>
      </trkpt>
      <trkpt lat="44.12761" lon="5.75964">
        <ele>1627.3104248047</ele>
        <time>2020-10-22T18:28:22.341Z</time>
      </trkpt>
      <trkpt lat="44.12721" lon="5.76017">
        <ele>1628.9033203125</ele>
        <time>2020-10-22T18:28:32.881Z</time>
      </trkpt>
      <trkpt lat="44.12704" lon="5.76049">
        <ele>1633.5465087891</ele>
        <time>2020-10-22T18:28:43.431Z</time>
      </trkpt>
      <trkpt lat="44.12684" lon="5.76105">
        <ele>1634.4516601562</ele>
        <time>2020-10-22T18:28:53.996Z</time>
      </trkpt>
      <trkpt lat="44.12675" lon="5.76144">
        <ele>1633.1198730469</ele>
        <time>2020-10-22T18:29:04.571Z</time>
      </trkpt>
      <trkpt lat="44.12674" lon="5.76218">
        <ele>1632.9395751953</ele>
        <time>2020-10-22T18:29:15.164Z</time>
      </trkpt>
      <trkpt lat="44.12672" lon="5.76236">
        <ele>1633.1329345703</ele>
        <time>2020-10-22T18:29:25.761Z</time>
      </trkpt>
      <trkpt lat="44.12649" lon="5.76309">
        <ele>1639.3968505859</ele>
        <time>2020-10-22T18:29:36.377Z</time>
      </trkpt>
      <trkpt lat="44.12646" lon="5.76329">
        <ele>1637.8011474609</ele>
        <time>2020-10-22T18:29:46.998Z</time>
      </trkpt>
      <trkpt lat="44.12642" lon="5.76343">
        <ele>1638.8344726562</ele>
        <time>2020-10-22T18:29:57.623Z</time>
      </trkpt>
      <trkpt lat="44.12631" lon="5.7637">
        <ele>1647.9168701172</ele>
        <time>2020-10-22T18:30:08.255Z</time>
      </trkpt>
      <trkpt lat="44.12599" lon="5.76435">
        <ele>1659.0343017578</ele>
        <time>2020-10-22T18:30:18.906Z</time>
      </trkpt>
      <trkpt lat="44.12586" lon="5.76454">
        <ele>1659.9189453125</ele>
        <time>2020-10-22T18:30:29.563Z</time>
      </trkpt>
      <trkpt lat="44.12576" lon="5.76462">
        <ele>1663.2543945312</ele>
        <time>2020-10-22T18:30:40.224Z</time>
      </trkpt>
      <trkpt lat="44.12541" lon="5.76503">
        <ele>1669.3946533203</ele>
        <time>2020-10-22T18:30:50.900Z</time>
      </trkpt>
      <trkpt lat="44.12519" lon="5.76532">
        <ele>1676.5808105469</ele>
        <time>2020-10-22T18:31:01.586Z</time>
      </trkpt>
      <trkpt lat="44.12501" lon="5.7656">
        <ele>1678.52734375</ele>
        <time>2020-10-22T18:31:12.281Z</time>
      </trkpt>
      <trkpt lat="44.12477" lon="5.76607">
        <ele>1677.0914306641</ele>
        <time>2020-10-22T18:31:22.990Z</time>
      </trkpt>
      <trkpt lat="44.12448" lon="5.76671">
        <ele>1685.1181640625</ele>
        <time>2020-10-22T18:31:33.717Z</time>
      </trkpt>
      <trkpt lat="44.12424" lon="5.76746">
        <ele>1685.1474609375</ele>
        <time>2020-10-22T18:31:44.464Z</time>
      </trkpt>
      <trkpt lat="44.1242" lon="5.7678">
        <ele>1683.1798095703</ele>
        <time>2020-10-22T18:31:55.219Z</time>
      </trkpt>
      <trkpt lat="44.12428" lon="5.76836">
        <ele>1678.3286132812</ele>
        <time>2020-10-22T18:32:05.988Z</time>
      </trkpt>
      <trkpt lat="44.12434" lon="5.76898">
        <ele>1670.6828613281</ele>
        <time>2020-10-22T18:32:16.772Z</time>
      </trkpt>
      <trkpt lat="44.1244" lon="5.76935">
        <ele>1668.3791503906</ele>
        <time>2020-10-22T18:32:27.565Z</time>
      </trkpt>
      <trkpt lat="44.1244" lon="5.76953">
        <ele>1667.0833740234</ele>
        <time>2020-10-22T18:32:38.363Z</time>
      </trkpt>
      <trkpt lat="44.12435" lon="5.77018">
        <ele>1666.8803710938</ele>
        <time>2020-10-22T18:32:49.176Z</time>
      </trkpt>
      <trkpt lat="44.1239" lon="5.77219">
        <ele>1672.9927978516</ele>
        <time>2020-10-22T18:33:00.040Z</time>
      </trkpt>
      <trkpt lat="44.12388" lon="5.77261">
        <ele>1672.6408691406</ele>
        <time>2020-10-22T18:33:10.914Z</time>
      </trkpt>
      <trkpt lat="44.1239" lon="5.77284">
        <ele>1672.9047851562</ele>
        <time>2020-10-22T18:33:21.794Z</time>
      </trkpt>
      <trkpt lat="44.12397" lon="5.77311">
        <ele>1673.1346435547</ele>
        <time>2020-10-22T18:33:32.680Z</time>
      </trkpt>
      <trkpt lat="44.12396" lon="5.77325">
        <ele>1671.4908447266</ele>
        <time>2020-10-22T18:33:43.570Z</time>
      </trkpt>
      <trkpt lat="44.12404" lon="5.77349">
        <ele>1669.9249267578</ele>
        <time>2020-10-22T18:33:54.466Z</time>
      </trkpt>
      <trkpt lat="44.12414" lon="5.77423">
        <ele>1657.5832519531</ele>
        <time>2020-10-22T18:34:05.380Z</time>
      </trkpt>
      <trkpt lat="44.12418" lon="5.77431">
        <ele>1656.3354492188</ele>
        <time>2020-10-22T18:34:16.297Z</time>
      </trkpt>
      <trkpt lat="44.1242" lon="5.77444">
        <ele>1653.5518798828</ele>
        <time>2020-10-22T18:34:27.217Z</time>
      </trkpt>
      <trkpt lat="44.12419" lon="5.77448">
        <ele>1652.3883056641</ele>
        <time>2020-10-22T18:34:38.138Z</time>
      </trkpt>
      <trkpt lat="44.12421" lon="5.77467">
        <ele>1647.7570800781</ele>
        <time>2020-10-22T18:34:49.063Z</time>
      </trkpt>
      <trkpt lat="44.12417" lon="5.77478">
        <ele>1644.2471923828</ele>
        <time>2020-10-22T18:34:59.991Z</time>
      </trkpt>
      <trkpt lat="44.12417" lon="5.77483">
        <ele>1643.0473632812</ele>
        <time>2020-10-22T18:35:10.921Z</time>
      </trkpt>
      <trkpt lat="44.12425" lon="5.77529">
        <ele>1633.5450439453</ele>
        <time>2020-10-22T18:35:21.862Z</time>
      </trkpt>
      <trkpt lat="44.1243" lon="5.77547">
        <ele>1629.9643554688</ele>
        <time>2020-10-22T18:35:32.808Z</time>
      </trkpt>
      <trkpt lat="44.12427" lon="5.77554">
        <ele>1627.3487548828</ele>
        <time>2020-10-22T18:35:43.755Z</time>
      </trkpt>
      <trkpt lat="44.1243" lon="5.77579">
        <ele>1622.3040771484</ele>
        <time>2020-10-22T18:35:54.709Z</time>
      </trkpt>
      <trkpt lat="44.12427" lon="5.7759">
        <ele>1619.1126708984</ele>
        <time>2020-10-22T18:36:05.665Z</time>
      </trkpt>
      <trkpt lat="44.1244" lon="5.77615">
        <ele>1616.3770751953</ele>
        <time>2020-10-22T18:36:16.629Z</time>
      </trkpt>
      <trkpt lat="44.12449" lon="5.77644">
        <ele>1609.1912841797</ele>
        <time>2020-10-22T18:36:27.600Z</time>
      </trkpt>
      <trkpt lat="44.1245" lon="5.77663">
        <ele>1606.2998046875</ele>
        <time>2020-10-22T18:36:38.576Z</time>
      </trkpt>
      <trkpt lat="44.12455" lon="5.77688">
        <ele>1601.0806884766</ele>
        <time>2020-10-22T18:36:49.558Z</time>
      </trkpt>
      <trkpt lat="44.12455" lon="5.77696">
        <ele>1600.0249023438</ele>
        <time>2020-10-22T18:37:00.542Z</time>
      </trkpt>
      <trkpt lat="44.12448" lon="5.77729">
        <ele>1597.8934326172</ele>
        <time>2020-10-22T18:37:11.534Z</time>
      </trkpt>
      <trkpt lat="44.12436" lon="5.77731">
        <ele>1600.3255615234</ele>
        <time>2020-10-22T18:37:22.530Z</time>
      </trkpt>
      <trkpt lat="44.12438" lon="5.77746">
        <ele>1599.4497070312</ele>
        <time>2020-10-22T18:37:33.530Z</time>
      </trkpt>
      <trkpt lat="44.12435" lon="5.77756">
        <ele>1598.8137207031</ele>
        <time>2020-10-22T18:37:44.533Z</time>
      </trkpt>
      <trkpt lat="44.12407" lon="5.77789">
        <ele>1602.8284912109</ele>
        <time>2020-10-22T18:37:55.548Z</time>
      </trkpt>
      <trkpt lat="44.12385" lon="5.7782">
        <ele>1611.9996337891</ele>
        <time>2020-10-22T18:38:06.573Z</time>
      </trkpt>
      <trkpt lat="44.12369" lon="5.77857">
        <ele>1625.4122314453</ele>
        <time>2020-10-22T18:38:17.609Z</time>
      </trkpt>
      <trkpt lat="44.12349" lon="5.7791">
        <ele>1637.6905517578</ele>
        <time>2020-10-22T18:38:28.659Z</time>
      </trkpt>
      <trkpt lat="44.12334" lon="5.7796">
        <ele>1641.2862548828</ele>
        <time>2020-10-22T18:38:39.722Z</time>
      </trkpt>
      <trkpt lat="44.1233" lon="5.77999">
        <ele>1643.3414306641</ele>
        <time>2020-10-22T18:38:50.795Z</time>
      </trkpt>
      <trkpt lat="44.12343" lon="5.78036">
        <ele>1647.5648193359</ele>
        <time>2020-10-22T18:39:01.877Z</time>
      </trkpt>
      <trkpt lat="44.12353" lon="5.78093">
        <ele>1653.7869873047</ele>
        <time>2020-10-22T18:39:12.974Z</time>
      </trkpt>
      <trkpt lat="44.12354" lon="5.78115">
        <ele>1656.0186767578</ele>
        <time>2020-10-22T18:39:24.076Z</time>
      </trkpt>
      <trkpt lat="44.12351" lon="5.78137">
        <ele>1658.5736083984</ele>
        <time>2020-10-22T18:39:35.183Z</time>
      </trkpt>
      <trkpt lat="44.12339" lon="5.78187">
        <ele>1666.1219482422</ele>
        <time>2020-10-22T18:39:46.303Z</time>
      </trkpt>
      <trkpt lat="44.12333" lon="5.78248">
        <ele>1677.7850341797</ele>
        <time>2020-10-22T18:39:57.438Z</time>
      </trkpt>
      <trkpt lat="44.12332" lon="5.78296">
        <ele>1687.5479736328</ele>
        <time>2020-10-22T18:40:08.584Z</time>
      </trkpt>
      <trkpt lat="44.12329" lon="5.78318">
        <ele>1689.3503417969</ele>
        <time>2020-10-22T18:40:19.736Z</time>
      </trkpt>
      <trkpt lat="44.12318" lon="5.78347">
        <ele>1689.3648681641</ele>
        <time>2020-10-22T18:40:30.895Z</time>
      </trkpt>
      <trkpt lat="44.12311" lon="5.78358">
        <ele>1693.7320556641</ele>
        <time>2020-10-22T18:40:42.058Z</time>
      </trkpt>
      <trkpt lat="44.12303" lon="5.78366">
        <ele>1697.9553222656</ele>
        <time>2020-10-22T18:40:53.224Z</time>
      </trkpt>
      <trkpt lat="44.12265" lon="5.78426">
        <ele>1714.0394287109</ele>
        <time>2020-10-22T18:41:04.409Z</time>
      </trkpt>
      <trkpt lat="44.12243" lon="5.78469">
        <ele>1717.3868408203</ele>
        <time>2020-10-22T18:41:15.607Z</time>
      </trkpt>
      <trkpt lat="44.12238" lon="5.78487">
        <ele>1717.1577148438</ele>
        <time>2020-10-22T18:41:26.810Z</time>
      </trkpt>
      <trkpt lat="44.12239" lon="5.78519">
        <ele>1716.4018554688</ele>
        <time>2020-10-22T18:41:38.020Z</time>
      </trkpt>
      <trkpt lat="44.12248" lon="5.78546">
        <ele>1715.8619384766</ele>
        <time>2020-10-22T18:41:49.238Z</time>
      </trkpt>
      <trkpt lat="44.12249" lon="5.78555">
        <ele>1715.6606445312</ele>
        <time>2020-10-22T18:42:00.458Z</time>
      </trkpt>
      <trkpt lat="44.12239" lon="5.78593">
        <ele>1715.0847167969</ele>
        <time>2020-10-22T18:42:11.687Z</time>
      </trkpt>
      <trkpt lat="44.12233" lon="5.78677">
        <ele>1716.2121582031</ele>
        <time>2020-10-22T18:42:22.937Z</time>
      </trkpt>
      <trkpt lat="44.12232" lon="5.78719">
        <ele>1719.1997070312</ele>
        <time>2020-10-22T18:42:34.197Z</time>
      </trkpt>
      <trkpt lat="44.12234" lon="5.78741">
        <ele>1722.2609863281</ele>
        <time>2020-10-22T18:42:45.462Z</time>
      </trkpt>
      <trkpt lat="44.12251" lon="5.78798">
        <ele>1729.232421875</ele>
        <time>2020-10-22T18:42:56.742Z</time>
      </trkpt>
      <trkpt lat="44.12269" lon="5.78849">
        <ele>1731.4053955078</ele>
        <time>2020-10-22T18:43:08.036Z</time>
      </trkpt>
      <trkpt lat="44.1228" lon="5.78875">
        <ele>1731.8060302734</ele>
        <time>2020-10-22T18:43:19.337Z</time>
      </trkpt>
      <trkpt lat="44.12285" lon="5.78874">
        <ele>1731.2180175781</ele>
        <time>2020-10-22T18:43:30.639Z</time>
      </trkpt>
      <trkpt lat="44.1229" lon="5.78876">
        <ele>1730.5941162109</ele>
        <time>2020-10-22T18:43:41.943Z</time>
      </trkpt>
      <trkpt lat="44.12292" lon="5.78879">
        <ele>1730.3182373047</ele>
        <time>2020-10-22T18:43:53.248Z</time>
      </trkpt>
      <trkpt lat="44.12302" lon="5.78905">
        <ele>1727.5948486328</ele>
        <time>2020-10-22T18:44:04.560Z</time>
      </trkpt>
      <trkpt lat="44.12307" lon="5.7892">
        <ele>1725.5076904297</ele>
        <time>2020-10-22T18:44:15.876Z</time>
      </trkpt>
      <trkpt lat="44.12309" lon="5.78937">
        <ele>1722.0402832031</ele>
        <time>2020-10-22T18:44:27.196Z</time>
      </trkpt>
      <trkpt lat="44.12321" lon="5.78968">
        <ele>1715.7172851562</ele>
        <time>2020-10-22T18:44:38.525Z</time>
      </trkpt>
      <trkpt lat="44.12329" lon="5.79001">
        <ele>1711.4626464844</ele>
        <time>2020-10-22T18:44:49.862Z</time>
      </trkpt>
      <trkpt lat="44.12346" lon="5.79046">
        <ele>1705.1314697266</ele>
        <time>2020-10-22T18:45:01.211Z</time>
      </trkpt>
      <trkpt lat="44.12365" lon="5.79106">
        <ele>1703.4509277344</ele>
        <time>2020-10-22T18:45:12.576Z</time>
      </trkpt>
      <trkpt lat="44.12375" lon="5.79158">
        <ele>1704.2862548828</ele>
        <time>2020-10-22T18:45:23.954Z</time>
      </trkpt>
      <trkpt lat="44.12373" lon="5.79159">
        <ele>1704.826171875</ele>
        <time>2020-10-22T18:45:35.333Z</time>
      </trkpt>
      <trkpt lat="44.12368" lon="5.79175">
        <ele>1708.2816162109</ele>
        <time>2020-10-22T18:45:46.716Z</time>
      </trkpt>
      <trkpt lat="44.12363" lon="5.79208">
        <ele>1714.3885498047</ele>
        <time>2020-10-22T18:45:58.107Z</time>
      </trkpt>
      <trkpt lat="44.12357" lon="5.79234">
        <ele>1718.8942871094</ele>
        <time>2020-10-22T18:46:09.505Z</time>
      </trkpt>
      <trkpt lat="44.12352" lon="5.7928">
        <ele>1728.0007324219</ele>
        <time>2020-10-22T18:46:20.914Z</time>
      </trkpt>
      <trkpt lat="44.12349" lon="5.79353">
        <ele>1742.1123046875</ele>
        <time>2020-10-22T18:46:32.340Z</time>
      </trkpt>
      <trkpt lat="44.12344" lon="5.7941">
        <ele>1751.4638671875</ele>
        <time>2020-10-22T18:46:43.780Z</time>
      </trkpt>
      <trkpt lat="44.1234" lon="5.79434">
        <ele>1754.6793212891</ele>
        <time>2020-10-22T18:46:55.226Z</time>
      </trkpt>
      <trkpt lat="44.12337" lon="5.79495">
        <ele>1764.5035400391</ele>
        <time>2020-10-22T18:47:06.687Z</time>
      </trkpt>
      <trkpt lat="44.12338" lon="5.79498">
        <ele>1765.2713623047</ele>
        <time>2020-10-22T18:47:18.149Z</time>
      </trkpt>
      <trkpt lat="44.12333" lon="5.79552">
        <ele>1773.7147216797</ele>
        <time>2020-10-22T18:47:29.624Z</time>
      </trkpt>
      <trkpt lat="44.12333" lon="5.79582">
        <ele>1777.0185546875</ele>
        <time>2020-10-22T18:47:41.106Z</time>
      </trkpt>
      <trkpt lat="44.12339" lon="5.79638">
        <ele>1786.8740234375</ele>
        <time>2020-10-22T18:47:52.601Z</time>
      </trkpt>
      <trkpt lat="44.12335" lon="5.79676">
        <ele>1791.0845947266</ele>
        <time>2020-10-22T18:48:04.106Z</time>
      </trkpt>
      <trkpt lat="44.12335" lon="5.79692">
        <ele>1793.0042724609</ele>
        <time>2020-10-22T18:48:15.614Z</time>
      </trkpt>
      <trkpt lat="44.12338" lon="5.79707">
        <ele>1795.3717041016</ele>
        <time>2020-10-22T18:48:27.126Z</time>
      </trkpt>
      <trkpt lat="44.12338" lon="5.79716">
        <ele>1796.775390625</ele>
        <time>2020-10-22T18:48:38.640Z</time>
      </trkpt>
      <trkpt lat="44.12322" lon="5.79777">
        <ele>1798.5631103516</ele>
        <time>2020-10-22T18:48:50.170Z</time>
      </trkpt>
      <trkpt lat="44.1233" lon="5.79816">
        <ele>1799.2822265625</ele>
        <time>2020-10-22T18:49:01.710Z</time>
      </trkpt>
      <trkpt lat="44.12331" lon="5.79833">
        <ele>1798.5383300781</ele>
        <time>2020-10-22T18:49:13.254Z</time>
      </trkpt>
      <trkpt lat="44.12335" lon="5.79848">
        <ele>1798.1064453125</ele>
        <time>2020-10-22T18:49:24.802Z</time>
      </trkpt>
      <trkpt lat="44.12349" lon="5.79881">
        <ele>1797.2370605469</ele>
        <time>2020-10-22T18:49:36.359Z</time>
      </trkpt>
      <trkpt lat="44.12359" lon="5.79921">
        <ele>1796.6208496094</ele>
        <time>2020-10-22T18:49:47.926Z</time>
      </trkpt>
      <trkpt lat="44.12356" lon="5.79974">
        <ele>1794.1025390625</ele>
        <time>2020-10-22T18:49:59.506Z</time>
      </trkpt>
      <trkpt lat="44.12351" lon="5.79992">
        <ele>1793.4545898438</ele>
        <time>2020-10-22T18:50:11.090Z</time>
      </trkpt>
      <trkpt lat="44.12354" lon="5.79996">
        <ele>1794.1984863281</ele>
        <time>2020-10-22T18:50:22.676Z</time>
      </trkpt>
      <trkpt lat="44.12355" lon="5.80003">
        <ele>1794.5823974609</ele>
        <time>2020-10-22T18:50:34.263Z</time>
      </trkpt>
      <trkpt lat="44.12348" lon="5.80027">
        <ele>1793.6466064453</ele>
        <time>2020-10-22T18:50:45.857Z</time>
      </trkpt>
      <trkpt lat="44.12341" lon="5.80074">
        <ele>1794.8876953125</ele>
        <time>2020-10-22T18:50:57.462Z</time>
      </trkpt>
      <trkpt lat="44.12337" lon="5.80089">
        <ele>1794.8518066406</ele>
        <time>2020-10-22T18:51:09.071Z</time>
      </trkpt>
      <trkpt lat="44.1233" lon="5.80103">
        <ele>1794.3479003906</ele>
        <time>2020-10-22T18:51:20.684Z</time>
      </trkpt>
      <trkpt lat="44.12323" lon="5.80125">
        <ele>1798.4575195312</ele>
        <time>2020-10-22T18:51:32.303Z</time>
      </trkpt>
      <trkpt lat="44.12322" lon="5.80136">
        <ele>1800.8690185547</ele>
        <time>2020-10-22T18:51:43.925Z</time>
      </trkpt>
      <trkpt lat="44.12314" lon="5.80166">
        <ele>1801.6705322266</ele>
        <time>2020-10-22T18:51:55.554Z</time>
      </trkpt>
      <trkpt lat="44.12316" lon="5.80168">
        <ele>1801.5986328125</ele>
        <time>2020-10-22T18:52:07.184Z</time>
      </trkpt>
      <trkpt lat="44.12314" lon="5.80192">
        <ele>1804.6739501953</ele>
        <time>2020-10-22T18:52:18.820Z</time>
      </trkpt>
      <trkpt lat="44.12307" lon="5.80227">
        <ele>1810.5860595703</ele>
        <time>2020-10-22T18:52:30.465Z</time>
      </trkpt>
      <trkpt lat="44.12298" lon="5.80268">
        <ele>1808.7993164062</ele>
        <time>2020-10-22T18:52:42.120Z</time>
      </trkpt>
      <trkpt lat="44.12292" lon="5.80278">
        <ele>1810.5989990234</ele>
        <time>2020-10-22T18:52:53.778Z</time>
      </trkpt>
      <trkpt lat="44.12286" lon="5.80282">
        <ele>1812.6147460938</ele>
        <time>2020-10-22T18:53:05.438Z</time>
      </trkpt>
      <trkpt lat="44.12278" lon="5.80281">
        <ele>1815.5302734375</ele>
        <time>2020-10-22T18:53:17.101Z</time>
      </trkpt>
      <trkpt lat="44.12266" lon="5.80267">
        <ele>1813.8477783203</ele>
        <time>2020-10-22T18:53:28.769Z</time>
      </trkpt>
      <trkpt lat="44.12249" lon="5.80261">
        <ele>1810.1883544922</ele>
        <time>2020-10-22T18:53:40.443Z</time>
      </trkpt>
      <trkpt lat="44.12236" lon="5.80246">
        <ele>1807.7647705078</ele>
        <time>2020-10-22T18:53:52.123Z</time>
      </trkpt>
      <trkpt lat="44.12227" lon="5.80241">
        <ele>1805.8930664062</ele>
        <time>2020-10-22T18:54:03.806Z</time>
      </trkpt>
      <trkpt lat="44.122" lon="5.80246">
        <ele>1799.9899902344</ele>
        <time>2020-10-22T18:54:15.498Z</time>
      </trkpt>
      <trkpt lat="44.12094" lon="5.80229">
        <ele>1772.2025146484</ele>
        <time>2020-10-22T18:54:27.226Z</time>
      </trkpt>
      <trkpt lat="44.12004" lon="5.8022">
        <ele>1754.6643066406</ele>
        <time>2020-10-22T18:54:38.984Z</time>
      </trkpt>
      <trkpt lat="44.11983" lon="5.80216">
        <ele>1751.5928955078</ele>
        <time>2020-10-22T18:54:50.749Z</time>
      </trkpt>
      <trkpt lat="44.11968" lon="5.80211">
        <ele>1749.3732910156</ele>
        <time>2020-10-22T18:55:02.519Z</time>
      </trkpt>
      <trkpt lat="44.11922" lon="5.80208">
        <ele>1743.8070068359</ele>
        <time>2020-10-22T18:55:14.304Z</time>
      </trkpt>
      <trkpt lat="44.11904" lon="5.80212">
        <ele>1743.2790527344</ele>
        <time>2020-10-22T18:55:26.095Z</time>
      </trkpt>
      <trkpt lat="44.11899" lon="5.80215">
        <ele>1743.291015625</ele>
        <time>2020-10-22T18:55:37.888Z</time>
      </trkpt>
      <trkpt lat="44.11895" lon="5.80223">
        <ele>1743.5262451172</ele>
        <time>2020-10-22T18:55:49.683Z</time>
      </trkpt>
      <trkpt lat="44.11896" lon="5.80232">
        <ele>1742.6024169922</ele>
        <time>2020-10-22T18:56:01.481Z</time>
      </trkpt>
      <trkpt lat="44.11902" lon="5.8024">
        <ele>1742.0264892578</ele>
        <time>2020-10-22T18:56:13.281Z</time>
      </trkpt>
      <trkpt lat="44.11903" lon="5.80258">
        <ele>1740.130859375</ele>
        <time>2020-10-22T18:56:25.086Z</time>
      </trkpt>
      <trkpt lat="44.11901" lon="5.80273">
        <ele>1738.5423583984</ele>
        <time>2020-10-22T18:56:36.894Z</time>
      </trkpt>
      <trkpt lat="44.11888" lon="5.80297">
        <ele>1735.7707519531</ele>
        <time>2020-10-22T18:56:48.710Z</time>
      </trkpt>
      <trkpt lat="44.11867" lon="5.80313">
        <ele>1733.3342285156</ele>
        <time>2020-10-22T18:57:00.534Z</time>
      </trkpt>
      <trkpt lat="44.11864" lon="5.80321">
        <ele>1732.6623535156</ele>
        <time>2020-10-22T18:57:12.360Z</time>
      </trkpt>
      <trkpt lat="44.11862" lon="5.80334">
        <ele>1731.5704345703</ele>
        <time>2020-10-22T18:57:24.189Z</time>
      </trkpt>
      <trkpt lat="44.1185" lon="5.80363">
        <ele>1728.01953125</ele>
        <time>2020-10-22T18:57:36.026Z</time>
      </trkpt>
      <trkpt lat="44.11824" lon="5.80415">
        <ele>1717.8254394531</ele>
        <time>2020-10-22T18:57:47.878Z</time>
      </trkpt>
      <trkpt lat="44.11818" lon="5.80419">
        <ele>1716.3616943359</ele>
        <time>2020-10-22T18:57:59.732Z</time>
      </trkpt>
      <trkpt lat="44.11792" lon="5.8042">
        <ele>1711.9757080078</ele>
        <time>2020-10-22T18:58:11.595Z</time>
      </trkpt>
      <trkpt lat="44.11774" lon="5.80431">
        <ele>1707.5473632812</ele>
        <time>2020-10-22T18:58:23.465Z</time>
      </trkpt>
      <trkpt lat="44.11737" lon="5.80465">
        <ele>1697.4613037109</ele>
        <time>2020-10-22T18:58:35.349Z</time>
      </trkpt>
      <trkpt lat="44.11705" lon="5.805">
        <ele>1687.1005859375</ele>
        <time>2020-10-22T18:58:47.247Z</time>
      </trkpt>
      <trkpt lat="44.1167" lon="5.80527">
        <ele>1675.2388916016</ele>
        <time>2020-10-22T18:58:59.158Z</time>
      </trkpt>
      <trkpt lat="44.11649" lon="5.80536">
        <ele>1670.5606689453</ele>
        <time>2020-10-22T18:59:11.077Z</time>
      </trkpt>
      <trkpt lat="44.11626" lon="5.80554">
        <ele>1664.59765625</ele>
        <time>2020-10-22T18:59:23.004Z</time>
      </trkpt>
      <trkpt lat="44.11596" lon="5.8056">
        <ele>1658.603515625</ele>
        <time>2020-10-22T18:59:34.942Z</time>
      </trkpt>
      <trkpt lat="44.11575" lon="5.80569">
        <ele>1653.2403564453</ele>
        <time>2020-10-22T18:59:46.887Z</time>
      </trkpt>
      <trkpt lat="44.11572" lon="5.80569">
        <ele>1652.7364501953</ele>
        <time>2020-10-22T18:59:58.833Z</time>
      </trkpt>
      <trkpt lat="44.11554" lon="5.80555">
        <ele>1652.5588378906</ele>
        <time>2020-10-22T19:00:10.786Z</time>
      </trkpt>
      <trkpt lat="44.11544" lon="5.80551">
        <ele>1651.3591308594</ele>
        <time>2020-10-22T19:00:22.742Z</time>
      </trkpt>
      <trkpt lat="44.11481" lon="5.80555">
        <ele>1642.4920654297</ele>
        <time>2020-10-22T19:00:34.719Z</time>
      </trkpt>
      <trkpt lat="44.11478" lon="5.80532">
        <ele>1642.9600830078</ele>
        <time>2020-10-22T19:00:46.702Z</time>
      </trkpt>
      <trkpt lat="44.11474" lon="5.8052">
        <ele>1642.912109375</ele>
        <time>2020-10-22T19:00:58.688Z</time>
      </trkpt>
      <trkpt lat="44.11459" lon="5.80494">
        <ele>1642.0482177734</ele>
        <time>2020-10-22T19:01:10.682Z</time>
      </trkpt>
      <trkpt lat="44.11457" lon="5.80484">
        <ele>1642.2667236328</ele>
        <time>2020-10-22T19:01:22.679Z</time>
      </trkpt>
      <trkpt lat="44.11451" lon="5.80471">
        <ele>1642.556640625</ele>
        <time>2020-10-22T19:01:34.679Z</time>
      </trkpt>
      <trkpt lat="44.1145" lon="5.80458">
        <ele>1643.1325683594</ele>
        <time>2020-10-22T19:01:46.682Z</time>
      </trkpt>
      <trkpt lat="44.11444" lon="5.80446">
        <ele>1642.6286621094</ele>
        <time>2020-10-22T19:01:58.689Z</time>
      </trkpt>
      <trkpt lat="44.11441" lon="5.80418">
        <ele>1643.7275390625</ele>
        <time>2020-10-22T19:02:10.703Z</time>
      </trkpt>
      <trkpt lat="44.11434" lon="5.80396">
        <ele>1643.7036132812</ele>
        <time>2020-10-22T19:02:22.722Z</time>
      </trkpt>
      <trkpt lat="44.11432" lon="5.80368">
        <ele>1645.4956054688</ele>
        <time>2020-10-22T19:02:34.748Z</time>
      </trkpt>
      <trkpt lat="44.11389" lon="5.80323">
        <ele>1639.5686035156</ele>
        <time>2020-10-22T19:02:46.792Z</time>
      </trkpt>
      <trkpt lat="44.11379" lon="5.80295">
        <ele>1640.1419677734</ele>
        <time>2020-10-22T19:02:58.844Z</time>
      </trkpt>
      <trkpt lat="44.11371" lon="5.80283">
        <ele>1639.0860595703</ele>
        <time>2020-10-22T19:03:10.900Z</time>
      </trkpt>
      <trkpt lat="44.11354" lon="5.8027">
        <ele>1635.9425048828</ele>
        <time>2020-10-22T19:03:22.962Z</time>
      </trkpt>
      <trkpt lat="44.11321" lon="5.80262">
        <ele>1629.1876220703</ele>
        <time>2020-10-22T19:03:35.035Z</time>
      </trkpt>
      <trkpt lat="44.113" lon="5.80243">
        <ele>1626.2241210938</ele>
        <time>2020-10-22T19:03:47.117Z</time>
      </trkpt>
      <trkpt lat="44.11282" lon="5.8021">
        <ele>1624.4440917969</ele>
        <time>2020-10-22T19:03:59.209Z</time>
      </trkpt>
      <trkpt lat="44.11248" lon="5.8017">
        <ele>1620.7739257812</ele>
        <time>2020-10-22T19:04:11.315Z</time>
      </trkpt>
      <trkpt lat="44.11243" lon="5.80166">
        <ele>1620.2698974609</ele>
        <time>2020-10-22T19:04:23.423Z</time>
      </trkpt>
      <trkpt lat="44.11208" lon="5.80102">
        <ele>1615.8605957031</ele>
        <time>2020-10-22T19:04:35.551Z</time>
      </trkpt>
      <trkpt lat="44.11203" lon="5.80078">
        <ele>1614.6846923828</ele>
        <time>2020-10-22T19:04:47.685Z</time>
      </trkpt>
      <trkpt lat="44.11204" lon="5.80071">
        <ele>1614.63671875</ele>
        <time>2020-10-22T19:04:59.820Z</time>
      </trkpt>
      <trkpt lat="44.11202" lon="5.80025">
        <ele>1610.0953369141</ele>
        <time>2020-10-22T19:05:11.966Z</time>
      </trkpt>
      <trkpt lat="44.11204" lon="5.79952">
        <ele>1598.9091796875</ele>
        <time>2020-10-22T19:05:24.130Z</time>
      </trkpt>
      <trkpt lat="44.11208" lon="5.79942">
        <ele>1597.5174560547</ele>
        <time>2020-10-22T19:05:36.297Z</time>
      </trkpt>
      <trkpt lat="44.11223" lon="5.79917">
        <ele>1595.3166503906</ele>
        <time>2020-10-22T19:05:48.471Z</time>
      </trkpt>
      <trkpt lat="44.11244" lon="5.79893">
        <ele>1595.9284667969</ele>
        <time>2020-10-22T19:06:00.655Z</time>
      </trkpt>
      <trkpt lat="44.11252" lon="5.79874">
        <ele>1591.96875</ele>
        <time>2020-10-22T19:06:12.844Z</time>
      </trkpt>
      <trkpt lat="44.1132" lon="5.79779">
        <ele>1569.5656738281</ele>
        <time>2020-10-22T19:06:25.065Z</time>
      </trkpt>
      <trkpt lat="44.11349" lon="5.79733">
        <ele>1557.0695800781</ele>
        <time>2020-10-22T19:06:37.301Z</time>
      </trkpt>
      <trkpt lat="44.1137" lon="5.79704">
        <ele>1549.1352539062</ele>
        <time>2020-10-22T19:06:49.547Z</time>
      </trkpt>
      <trkpt lat="44.11378" lon="5.79697">
        <ele>1547.5515136719</ele>
        <time>2020-10-22T19:07:01.796Z</time>
      </trkpt>
      <trkpt lat="44.1142" lon="5.7967">
        <ele>1542.7751464844</ele>
        <time>2020-10-22T19:07:14.060Z</time>
      </trkpt>
      <trkpt lat="44.11468" lon="5.7965">
        <ele>1539.6105957031</ele>
        <time>2020-10-22T19:07:26.341Z</time>
      </trkpt>
      <trkpt lat="44.11472" lon="5.79634">
        <ele>1535.6378173828</ele>
        <time>2020-10-22T19:07:38.626Z</time>
      </trkpt>
      <trkpt lat="44.11462" lon="5.7961">
        <ele>1527.6231689453</ele>
        <time>2020-10-22T19:07:50.918Z</time>
      </trkpt>
      <trkpt lat="44.11461" lon="5.79596">
        <ele>1523.7598876953</ele>
        <time>2020-10-22T19:08:03.213Z</time>
      </trkpt>
      <trkpt lat="44.11476" lon="5.79558">
        <ele>1520.1231689453</ele>
        <time>2020-10-22T19:08:15.518Z</time>
      </trkpt>
      <trkpt lat="44.11484" lon="5.79532">
        <ele>1523.7718505859</ele>
        <time>2020-10-22T19:08:27.830Z</time>
      </trkpt>
      <trkpt lat="44.11489" lon="5.79494">
        <ele>1522.4864501953</ele>
        <time>2020-10-22T19:08:40.151Z</time>
      </trkpt>
      <trkpt lat="44.11485" lon="5.79482">
        <ele>1520.2308349609</ele>
        <time>2020-10-22T19:08:52.476Z</time>
      </trkpt>
      <trkpt lat="44.11447" lon="5.79506">
        <ele>1514.5454101562</ele>
        <time>2020-10-22T19:09:04.815Z</time>
      </trkpt>
      <trkpt lat="44.11436" lon="5.79506">
        <ele>1513.7969970703</ele>
        <time>2020-10-22T19:09:17.157Z</time>
      </trkpt>
      <trkpt lat="44.11387" lon="5.79497">
        <ele>1516.2084960938</ele>
        <time>2020-10-22T19:09:29.516Z</time>
      </trkpt>
      <trkpt lat="44.11359" lon="5.79485">
        <ele>1515.7995605469</ele>
        <time>2020-10-22T19:09:41.884Z</time>
      </trkpt>
      <trkpt lat="44.113" lon="5.79467">
        <ele>1521.2683105469</ele>
        <time>2020-10-22T19:09:54.273Z</time>
      </trkpt>
      <trkpt lat="44.11275" lon="5.79447">
        <ele>1528.4010009766</ele>
        <time>2020-10-22T19:10:06.671Z</time>
      </trkpt>
      <trkpt lat="44.11235" lon="5.79425">
        <ele>1538.6712646484</ele>
        <time>2020-10-22T19:10:19.084Z</time>
      </trkpt>
      <trkpt lat="44.11189" lon="5.79393">
        <ele>1552.7282714844</ele>
        <time>2020-10-22T19:10:31.514Z</time>
      </trkpt>
      <trkpt lat="44.11124" lon="5.79352">
        <ele>1565.8955078125</ele>
        <time>2020-10-22T19:10:43.967Z</time>
      </trkpt>
      <trkpt lat="44.11128" lon="5.79326">
        <ele>1569.2548828125</ele>
        <time>2020-10-22T19:10:56.427Z</time>
      </trkpt>
      <trkpt lat="44.11138" lon="5.79315">
        <ele>1571.5777587891</ele>
        <time>2020-10-22T19:11:08.891Z</time>
      </trkpt>
      <trkpt lat="44.11152" lon="5.79309">
        <ele>1573.017578125</ele>
        <time>2020-10-22T19:11:21.360Z</time>
      </trkpt>
      <trkpt lat="44.1117" lon="5.79307">
        <ele>1573.4974365234</ele>
        <time>2020-10-22T19:11:33.835Z</time>
      </trkpt>
      <trkpt lat="44.11181" lon="5.79293">
        <ele>1572.7143554688</ele>
        <time>2020-10-22T19:11:46.315Z</time>
      </trkpt>
      <trkpt lat="44.11183" lon="5.79281">
        <ele>1573.8218994141</ele>
        <time>2020-10-22T19:11:58.798Z</time>
      </trkpt>
      <trkpt lat="44.11189" lon="5.79266">
        <ele>1575.9815673828</ele>
        <time>2020-10-22T19:12:11.285Z</time>
      </trkpt>
      <trkpt lat="44.11195" lon="5.79262">
        <ele>1577.1234130859</ele>
        <time>2020-10-22T19:12:23.774Z</time>
      </trkpt>
      <trkpt lat="44.11206" lon="5.79261">
        <ele>1577.4593505859</ele>
        <time>2020-10-22T19:12:36.267Z</time>
      </trkpt>
      <trkpt lat="44.11204" lon="5.7926">
        <ele>1577.4833984375</ele>
        <time>2020-10-22T19:12:48.761Z</time>
      </trkpt>
      <trkpt lat="44.11284" lon="5.7921">
        <ele>1595.0758056641</ele>
        <time>2020-10-22T19:13:01.284Z</time>
      </trkpt>
      <trkpt lat="44.11322" lon="5.79181">
        <ele>1600.6608886719</ele>
        <time>2020-10-22T19:13:13.821Z</time>
      </trkpt>
      <trkpt lat="44.11333" lon="5.7917">
        <ele>1604.3562011719</ele>
        <time>2020-10-22T19:13:26.363Z</time>
      </trkpt>
      <trkpt lat="44.11348" lon="5.79142">
        <ele>1610.7991943359</ele>
        <time>2020-10-22T19:13:38.913Z</time>
      </trkpt>
      <trkpt lat="44.1136" lon="5.79125">
        <ele>1615.0327148438</ele>
        <time>2020-10-22T19:13:51.469Z</time>
      </trkpt>
      <trkpt lat="44.11372" lon="5.79102">
        <ele>1618.4514160156</ele>
        <time>2020-10-22T19:14:04.032Z</time>
      </trkpt>
      <trkpt lat="44.11393" lon="5.79103">
        <ele>1620.8870849609</ele>
        <time>2020-10-22T19:14:16.602Z</time>
      </trkpt>
      <trkpt lat="44.11401" lon="5.7909">
        <ele>1623.4779052734</ele>
        <time>2020-10-22T19:14:29.176Z</time>
      </trkpt>
      <trkpt lat="44.11408" lon="5.79084">
        <ele>1626.0694580078</ele>
        <time>2020-10-22T19:14:41.753Z</time>
      </trkpt>
      <trkpt lat="44.11424" lon="5.79052">
        <ele>1634.9058837891</ele>
        <time>2020-10-22T19:14:54.339Z</time>
      </trkpt>
      <trkpt lat="44.11426" lon="5.79037">
        <ele>1636.0804443359</ele>
        <time>2020-10-22T19:15:06.929Z</time>
      </trkpt>
      <trkpt lat="44.11426" lon="5.79011">
        <ele>1639.5118408203</ele>
        <time>2020-10-22T19:15:19.525Z</time>
      </trkpt>
      <trkpt lat="44.1143" lon="5.78971">
        <ele>1645.8668212891</ele>
        <time>2020-10-22T19:15:32.131Z</time>
      </trkpt>
      <trkpt lat="44.11434" lon="5.78957">
        <ele>1646.2045898438</ele>
        <time>2020-10-22T19:15:44.740Z</time>
      </trkpt>
      <trkpt lat="44.11436" lon="5.78934">
        <ele>1647.6203613281</ele>
        <time>2020-10-22T19:15:57.355Z</time>
      </trkpt>
      <trkpt lat="44.1144" lon="5.78925">
        <ele>1649.5639648438</ele>
        <time>2020-10-22T19:16:09.972Z</time>
      </trkpt>
      <trkpt lat="44.11462" lon="5.78895">
        <ele>1653.2819824219</ele>
        <time>2020-10-22T19:16:22.600Z</time>
      </trkpt>
      <trkpt lat="44.11462" lon="5.78868">
        <ele>1653.2192382812</ele>
        <time>2020-10-22T19:16:35.234Z</time>
      </trkpt>
      <trkpt lat="44.11446" lon="5.78796">
        <ele>1646.1917724609</ele>
        <time>2020-10-22T19:16:47.886Z</time>
      </trkpt>
      <trkpt lat="44.11479" lon="5.78743">
        <ele>1645.5621337891</ele>
        <time>2020-10-22T19:17:00.555Z</time>
      </trkpt>
      <trkpt lat="44.11533" lon="5.78669">
        <ele>1648.3898925781</ele>
        <time>2020-10-22T19:17:13.249Z</time>
      </trkpt>
      <trkpt lat="44.11522" lon="5.78655">
        <ele>1644.3028564453</ele>
        <time>2020-10-22T19:17:25.948Z</time>
      </trkpt>
      <trkpt lat="44.11543" lon="5.78634">
        <ele>1644.6519775391</ele>
        <time>2020-10-22T19:17:38.656Z</time>
      </trkpt>
      <trkpt lat="44.11515" lon="5.78626">
        <ele>1637.4997558594</ele>
        <time>2020-10-22T19:17:51.373Z</time>
      </trkpt>
      <trkpt lat="44.11603" lon="5.78521">
        <ele>1619.380859375</ele>
        <time>2020-10-22T19:18:04.129Z</time>
      </trkpt>
      <trkpt lat="44.11613" lon="5.78494">
        <ele>1613.3869628906</ele>
        <time>2020-10-22T19:18:16.892Z</time>
      </trkpt>
      <trkpt lat="44.11641" lon="5.78447">
        <ele>1605.6641845703</ele>
        <time>2020-10-22T19:18:29.670Z</time>
      </trkpt>
      <trkpt lat="44.1168" lon="5.78415">
        <ele>1602.9503173828</ele>
        <time>2020-10-22T19:18:42.463Z</time>
      </trkpt>
      <trkpt lat="44.11668" lon="5.78394">
        <ele>1595.3195800781</ele>
        <time>2020-10-22T19:18:55.263Z</time>
      </trkpt>
      <trkpt lat="44.11627" lon="5.78377">
        <ele>1589.0036621094</ele>
        <time>2020-10-22T19:19:08.077Z</time>
      </trkpt>
      <trkpt lat="44.11527" lon="5.78306">
        <ele>1578.8752441406</ele>
        <time>2020-10-22T19:19:20.928Z</time>
      </trkpt>
      <trkpt lat="44.11475" lon="5.78263">
        <ele>1576.1624755859</ele>
        <time>2020-10-22T19:19:33.799Z</time>
      </trkpt>
      <trkpt lat="44.11409" lon="5.78223">
        <ele>1573.013671875</ele>
        <time>2020-10-22T19:19:46.695Z</time>
      </trkpt>
      <trkpt lat="44.11328" lon="5.78191">
        <ele>1569.4362792969</ele>
        <time>2020-10-22T19:19:59.619Z</time>
      </trkpt>
      <trkpt lat="44.11301" lon="5.78187">
        <ele>1569.3522949219</ele>
        <time>2020-10-22T19:20:12.552Z</time>
      </trkpt>
      <trkpt lat="44.11302" lon="5.78179">
        <ele>1569.8442382812</ele>
        <time>2020-10-22T19:20:25.487Z</time>
      </trkpt>
      <trkpt lat="44.11282" lon="5.78175">
        <ele>1569.8442382812</ele>
        <time>2020-10-22T19:20:38.428Z</time>
      </trkpt>
      <trkpt lat="44.11264" lon="5.78245">
        <ele>1561.9014892578</ele>
        <time>2020-10-22T19:20:51.387Z</time>
      </trkpt>
      <trkpt lat="44.11252" lon="5.78418">
        <ele>1541.7508544922</ele>
        <time>2020-10-22T19:21:04.388Z</time>
      </trkpt>
      <trkpt lat="44.11224" lon="5.78442">
        <ele>1539.0827636719</ele>
        <time>2020-10-22T19:21:17.400Z</time>
      </trkpt>
      <trkpt lat="44.11194" lon="5.78461">
        <ele>1530.5881347656</ele>
        <time>2020-10-22T19:21:30.423Z</time>
      </trkpt>
      <trkpt lat="44.11169" lon="5.7848">
        <ele>1529.0889892578</ele>
        <time>2020-10-22T19:21:43.455Z</time>
      </trkpt>
      <trkpt lat="44.11136" lon="5.78511">
        <ele>1525.2713623047</ele>
        <time>2020-10-22T19:21:56.501Z</time>
      </trkpt>
      <trkpt lat="44.11093" lon="5.78545">
        <ele>1510.8442382812</ele>
        <time>2020-10-22T19:22:09.563Z</time>
      </trkpt>
      <trkpt lat="44.11088" lon="5.78548">
        <ele>1509.7884521484</ele>
        <time>2020-10-22T19:22:22.627Z</time>
      </trkpt>
      <trkpt lat="44.11079" lon="5.7855">
        <ele>1509.1525878906</ele>
        <time>2020-10-22T19:22:35.694Z</time>
      </trkpt>
      <trkpt lat="44.11074" lon="5.78554">
        <ele>1507.7248535156</ele>
        <time>2020-10-22T19:22:48.763Z</time>
      </trkpt>
      <trkpt lat="44.11077" lon="5.7856">
        <ele>1507.0227050781</ele>
        <time>2020-10-22T19:23:01.834Z</time>
      </trkpt>
      <trkpt lat="44.11079" lon="5.78571">
        <ele>1506.2067871094</ele>
        <time>2020-10-22T19:23:14.907Z</time>
      </trkpt>
      <trkpt lat="44.11078" lon="5.78579">
        <ele>1505.6429443359</ele>
        <time>2020-10-22T19:23:27.982Z</time>
      </trkpt>
      <trkpt lat="44.11048" lon="5.78632">
        <ele>1493.4409179688</ele>
        <time>2020-10-22T19:23:41.074Z</time>
      </trkpt>
      <trkpt lat="44.11033" lon="5.78647">
        <ele>1489.5487060547</ele>
        <time>2020-10-22T19:23:54.172Z</time>
      </trkpt>
      <trkpt lat="44.11004" lon="5.78691">
        <ele>1485.8448486328</ele>
        <time>2020-10-22T19:24:07.284Z</time>
      </trkpt>
      <trkpt lat="44.1098" lon="5.78719">
        <ele>1478.2504882812</ele>
        <time>2020-10-22T19:24:20.406Z</time>
      </trkpt>
      <trkpt lat="44.10971" lon="5.78746">
        <ele>1476.6846923828</ele>
        <time>2020-10-22T19:24:33.536Z</time>
      </trkpt>
      <trkpt lat="44.10961" lon="5.78759">
        <ele>1472.6838378906</ele>
        <time>2020-10-22T19:24:46.670Z</time>
      </trkpt>
      <trkpt lat="44.10935" lon="5.78784">
        <ele>1466.1313476562</ele>
        <time>2020-10-22T19:24:59.815Z</time>
      </trkpt>
      <trkpt lat="44.1089" lon="5.78823">
        <ele>1458.2015380859</ele>
        <time>2020-10-22T19:25:12.977Z</time>
      </trkpt>
      <trkpt lat="44.10883" lon="5.78837">
        <ele>1455.0363769531</ele>
        <time>2020-10-22T19:25:26.144Z</time>
      </trkpt>
      <trkpt lat="44.10882" lon="5.78855">
        <ele>1449.5772705078</ele>
        <time>2020-10-22T19:25:39.315Z</time>
      </trkpt>
      <trkpt lat="44.10886" lon="5.78869">
        <ele>1446.6497802734</ele>
        <time>2020-10-22T19:25:52.489Z</time>
      </trkpt>
      <trkpt lat="44.10886" lon="5.78879">
        <ele>1443.7702636719</ele>
        <time>2020-10-22T19:26:05.666Z</time>
      </trkpt>
      <trkpt lat="44.10881" lon="5.78891">
        <ele>1439.7160644531</ele>
        <time>2020-10-22T19:26:18.846Z</time>
      </trkpt>
      <trkpt lat="44.10862" lon="5.78914">
        <ele>1430.1667480469</ele>
        <time>2020-10-22T19:26:32.035Z</time>
      </trkpt>
      <trkpt lat="44.10854" lon="5.78939">
        <ele>1426.2570800781</ele>
        <time>2020-10-22T19:26:45.230Z</time>
      </trkpt>
      <trkpt lat="44.10859" lon="5.78976">
        <ele>1419.8347167969</ele>
        <time>2020-10-22T19:26:58.434Z</time>
      </trkpt>
      <trkpt lat="44.10858" lon="5.78982">
        <ele>1420.9385986328</ele>
        <time>2020-10-22T19:27:11.640Z</time>
      </trkpt>
      <trkpt lat="44.10854" lon="5.78989">
        <ele>1422.2943115234</ele>
        <time>2020-10-22T19:27:24.848Z</time>
      </trkpt>
      <trkpt lat="44.10849" lon="5.78992">
        <ele>1422.9542236328</ele>
        <time>2020-10-22T19:27:38.058Z</time>
      </trkpt>
      <trkpt lat="44.1084" lon="5.78994">
        <ele>1423.5301513672</ele>
        <time>2020-10-22T19:27:51.271Z</time>
      </trkpt>
      <trkpt lat="44.10823" lon="5.79008">
        <ele>1426.4576416016</ele>
        <time>2020-10-22T19:28:04.490Z</time>
      </trkpt>
      <trkpt lat="44.10819" lon="5.79015">
        <ele>1427.3458251953</ele>
        <time>2020-10-22T19:28:17.711Z</time>
      </trkpt>
      <trkpt lat="44.10813" lon="5.79021">
        <ele>1424.2503662109</ele>
        <time>2020-10-22T19:28:30.935Z</time>
      </trkpt>
      <trkpt lat="44.10744" lon="5.79073">
        <ele>1408.8598632812</ele>
        <time>2020-10-22T19:28:44.185Z</time>
      </trkpt>
      <trkpt lat="44.10677" lon="5.79132">
        <ele>1400.9943847656</ele>
        <time>2020-10-22T19:28:57.462Z</time>
      </trkpt>
      <trkpt lat="44.1062" lon="5.79156">
        <ele>1390.7965087891</ele>
        <time>2020-10-22T19:29:10.758Z</time>
      </trkpt>
      <trkpt lat="44.1061" lon="5.79159">
        <ele>1387.9715576172</ele>
        <time>2020-10-22T19:29:24.058Z</time>
      </trkpt>
      <trkpt lat="44.1059" lon="5.79161">
        <ele>1386.1478271484</ele>
        <time>2020-10-22T19:29:37.364Z</time>
      </trkpt>
      <trkpt lat="44.10565" lon="5.79181">
        <ele>1388.0314941406</ele>
        <time>2020-10-22T19:29:50.680Z</time>
      </trkpt>
      <trkpt lat="44.10538" lon="5.79198">
        <ele>1381.2406005859</ele>
        <time>2020-10-22T19:30:04.006Z</time>
      </trkpt>
      <trkpt lat="44.10469" lon="5.79218">
        <ele>1371.2875976562</ele>
        <time>2020-10-22T19:30:17.355Z</time>
      </trkpt>
      <trkpt lat="44.10394" lon="5.79244">
        <ele>1367.8521728516</ele>
        <time>2020-10-22T19:30:30.730Z</time>
      </trkpt>
      <trkpt lat="44.10376" lon="5.79247">
        <ele>1365.7098388672</ele>
        <time>2020-10-22T19:30:44.111Z</time>
      </trkpt>
      <trkpt lat="44.10358" lon="5.79244">
        <ele>1361.1721191406</ele>
        <time>2020-10-22T19:30:57.498Z</time>
      </trkpt>
      <trkpt lat="44.10311" lon="5.79254">
        <ele>1360.9442138672</ele>
        <time>2020-10-22T19:31:10.901Z</time>
      </trkpt>
      <trkpt lat="44.1029" lon="5.79262">
        <ele>1356.6134033203</ele>
        <time>2020-10-22T19:31:24.311Z</time>
      </trkpt>
      <trkpt lat="44.10201" lon="5.79287">
        <ele>1343.0493164062</ele>
        <time>2020-10-22T19:31:37.752Z</time>
      </trkpt>
      <trkpt lat="44.10142" lon="5.79307">
        <ele>1333.3734130859</ele>
        <time>2020-10-22T19:31:51.213Z</time>
      </trkpt>
      <trkpt lat="44.10106" lon="5.79304">
        <ele>1325.3828125</ele>
        <time>2020-10-22T19:32:04.686Z</time>
      </trkpt>
      <trkpt lat="44.10076" lon="5.79318">
        <ele>1324.0847167969</ele>
        <time>2020-10-22T19:32:18.170Z</time>
      </trkpt>
      <trkpt lat="44.09917" lon="5.79365">
        <ele>1302.5997314453</ele>
        <time>2020-10-22T19:32:31.708Z</time>
      </trkpt>
      <trkpt lat="44.09809" lon="5.79388">
        <ele>1283.0155029297</ele>
        <time>2020-10-22T19:32:45.282Z</time>
      </trkpt>
      <trkpt lat="44.09764" lon="5.79394">
        <ele>1281.3790283203</ele>
        <time>2020-10-22T19:32:58.871Z</time>
      </trkpt>
      <trkpt lat="44.0973" lon="5.7939">
        <ele>1281.5949707031</ele>
        <time>2020-10-22T19:33:12.472Z</time>
      </trkpt>
      <trkpt lat="44.09705" lon="5.79375">
        <ele>1277.3688964844</ele>
        <time>2020-10-22T19:33:26.082Z</time>
      </trkpt>
      <trkpt lat="44.09686" lon="5.7934">
        <ele>1264.8776855469</ele>
        <time>2020-10-22T19:33:39.702Z</time>
      </trkpt>
      <trkpt lat="44.09675" lon="5.79336">
        <ele>1263.1259765625</ele>
        <time>2020-10-22T19:33:53.326Z</time>
      </trkpt>
      <trkpt lat="44.09653" lon="5.7932">
        <ele>1256.6469726562</ele>
        <time>2020-10-22T19:34:06.958Z</time>
      </trkpt>
      <trkpt lat="44.09645" lon="5.79313">
        <ele>1253.8514404297</ele>
        <time>2020-10-22T19:34:20.593Z</time>
      </trkpt>
      <trkpt lat="44.0964" lon="5.79302">
        <ele>1250.1282958984</ele>
        <time>2020-10-22T19:34:34.232Z</time>
      </trkpt>
      <trkpt lat="44.09548" lon="5.79234">
        <ele>1226.6176757812</ele>
        <time>2020-10-22T19:34:47.905Z</time>
      </trkpt>
      <trkpt lat="44.09535" lon="5.79243">
        <ele>1224.8594970703</ele>
        <time>2020-10-22T19:35:01.583Z</time>
      </trkpt>
      <trkpt lat="44.09516" lon="5.79253">
        <ele>1223.390625</ele>
        <time>2020-10-22T19:35:15.268Z</time>
      </trkpt>
      <trkpt lat="44.09484" lon="5.79264">
        <ele>1224.1580810547</ele>
        <time>2020-10-22T19:35:28.964Z</time>
      </trkpt>
      <trkpt lat="44.09479" lon="5.79267">
        <ele>1222.5144042969</ele>
        <time>2020-10-22T19:35:42.662Z</time>
      </trkpt>
      <trkpt lat="44.09462" lon="5.79286">
        <ele>1215.4476318359</ele>
        <time>2020-10-22T19:35:56.367Z</time>
      </trkpt>
      <trkpt lat="44.09438" lon="5.79309">
        <ele>1208.3366699219</ele>
        <time>2020-10-22T19:36:10.082Z</time>
      </trkpt>
      <trkpt lat="44.09433" lon="5.79316">
        <ele>1208.7686767578</ele>
        <time>2020-10-22T19:36:23.799Z</time>
      </trkpt>
      <trkpt lat="44.09427" lon="5.79339">
        <ele>1209.8125</ele>
        <time>2020-10-22T19:36:37.522Z</time>
      </trkpt>
      <trkpt lat="44.09419" lon="5.79355">
        <ele>1210.6762695312</ele>
        <time>2020-10-22T19:36:51.250Z</time>
      </trkpt>
      <trkpt lat="44.09371" lon="5.79386">
        <ele>1197.5607910156</ele>
        <time>2020-10-22T19:37:04.995Z</time>
      </trkpt>
      <trkpt lat="44.09358" lon="5.794">
        <ele>1196.8583984375</ele>
        <time>2020-10-22T19:37:18.746Z</time>
      </trkpt>
      <trkpt lat="44.09344" lon="5.7942">
        <ele>1199.3779296875</ele>
        <time>2020-10-22T19:37:32.503Z</time>
      </trkpt>
      <trkpt lat="44.09334" lon="5.79426">
        <ele>1199.7858886719</ele>
        <time>2020-10-22T19:37:46.264Z</time>
      </trkpt>
      <trkpt lat="44.09264" lon="5.7944">
        <ele>1190.3015136719</ele>
        <time>2020-10-22T19:38:00.049Z</time>
      </trkpt>
      <trkpt lat="44.09249" lon="5.79448">
        <ele>1189.9477539062</ele>
        <time>2020-10-22T19:38:13.839Z</time>
      </trkpt>
      <trkpt lat="44.09189" lon="5.79491">
        <ele>1180.0054931641</ele>
        <time>2020-10-22T19:38:27.652Z</time>
      </trkpt>
      <trkpt lat="44.09142" lon="5.79499">
        <ele>1178.5297851562</ele>
        <time>2020-10-22T19:38:41.480Z</time>
      </trkpt>
      <trkpt lat="44.09107" lon="5.79521">
        <ele>1170.9868164062</ele>
        <time>2020-10-22T19:38:55.321Z</time>
      </trkpt>
      <trkpt lat="44.09056" lon="5.79542">
        <ele>1165.1953125</ele>
        <time>2020-10-22T19:39:09.180Z</time>
      </trkpt>
      <trkpt lat="44.09035" lon="5.79557">
        <ele>1159.5650634766</ele>
        <time>2020-10-22T19:39:23.047Z</time>
      </trkpt>
      <trkpt lat="44.09028" lon="5.79566">
        <ele>1158.6901855469</ele>
        <time>2020-10-22T19:39:36.917Z</time>
      </trkpt>
      <trkpt lat="44.08995" lon="5.79593">
        <ele>1163.0736083984</ele>
        <time>2020-10-22T19:39:50.800Z</time>
      </trkpt>
      <trkpt lat="44.08969" lon="5.79617">
        <ele>1157.5179443359</ele>
        <time>2020-10-22T19:40:04.693Z</time>
      </trkpt>
      <trkpt lat="44.0892" lon="5.79683">
        <ele>1152.3962402344</ele>
        <time>2020-10-22T19:40:18.609Z</time>
      </trkpt>
      <trkpt lat="44.08896" lon="5.79711">
        <ele>1147.3663330078</ele>
        <time>2020-10-22T19:40:32.535Z</time>
      </trkpt>
      <trkpt lat="44.08863" lon="5.79742">
        <ele>1141.7145996094</ele>
        <time>2020-10-22T19:40:46.475Z</time>
      </trkpt>
      <trkpt lat="44.08848" lon="5.7976">
        <ele>1140.9870605469</ele>
        <time>2020-10-22T19:41:00.421Z</time>
      </trkpt>
      <trkpt lat="44.08846" lon="5.7977">
        <ele>1140.2670898438</ele>
        <time>2020-10-22T19:41:14.370Z</time>
      </trkpt>
      <trkpt lat="44.08832" lon="5.79794">
        <ele>1137.3664550781</ele>
        <time>2020-10-22T19:41:28.326Z</time>
      </trkpt>
      <trkpt lat="44.08781" lon="5.7985">
        <ele>1130.6293945312</ele>
        <time>2020-10-22T19:41:42.304Z</time>
      </trkpt>
      <trkpt lat="44.08716" lon="5.79925">
        <ele>1126.3848876953</ele>
        <time>2020-10-22T19:41:56.310Z</time>
      </trkpt>
      <trkpt lat="44.08707" lon="5.79925">
        <ele>1124.5491943359</ele>
        <time>2020-10-22T19:42:10.319Z</time>
      </trkpt>
      <trkpt lat="44.08624" lon="5.79964">
        <ele>1118.6868896484</ele>
        <time>2020-10-22T19:42:24.357Z</time>
      </trkpt>
      <trkpt lat="44.08612" lon="5.79968">
        <ele>1118.4948730469</ele>
        <time>2020-10-22T19:42:38.399Z</time>
      </trkpt>
      <trkpt lat="44.086" lon="5.79969">
        <ele>1117.6912841797</ele>
        <time>2020-10-22T19:42:52.445Z</time>
      </trkpt>
      <trkpt lat="44.08556" lon="5.79931">
        <ele>1117.8592529297</ele>
        <time>2020-10-22T19:43:06.509Z</time>
      </trkpt>
      <trkpt lat="44.08521" lon="5.79906">
        <ele>1117.0264892578</ele>
        <time>2020-10-22T19:43:20.586Z</time>
      </trkpt>
      <trkpt lat="44.08476" lon="5.79885">
        <ele>1110.9276123047</ele>
        <time>2020-10-22T19:43:34.679Z</time>
      </trkpt>
      <trkpt lat="44.08462" lon="5.79881">
        <ele>1109.0559082031</ele>
        <time>2020-10-22T19:43:48.776Z</time>
      </trkpt>
      <trkpt lat="44.08454" lon="5.79877">
        <ele>1108.1921386719</ele>
        <time>2020-10-22T19:44:02.876Z</time>
      </trkpt>
      <trkpt lat="44.08436" lon="5.79864">
        <ele>1107.3240966797</ele>
        <time>2020-10-22T19:44:16.983Z</time>
      </trkpt>
      <trkpt lat="44.08433" lon="5.79863">
        <ele>1107.1921386719</ele>
        <time>2020-10-22T19:44:31.091Z</time>
      </trkpt>
      <trkpt lat="44.08418" lon="5.79865">
        <ele>1105.6923828125</ele>
        <time>2020-10-22T19:44:45.204Z</time>
      </trkpt>
      <trkpt lat="44.08398" lon="5.79875">
        <ele>1102.8128662109</ele>
        <time>2020-10-22T19:44:59.324Z</time>
      </trkpt>
      <trkpt lat="44.08362" lon="5.79904">
        <ele>1097.3037109375</ele>
        <time>2020-10-22T19:45:13.458Z</time>
      </trkpt>
      <trkpt lat="44.08354" lon="5.79907">
        <ele>1096.2598876953</ele>
        <time>2020-10-22T19:45:27.595Z</time>
      </trkpt>
      <trkpt lat="44.08344" lon="5.79914">
        <ele>1094.7601318359</ele>
        <time>2020-10-22T19:45:41.735Z</time>
      </trkpt>
      <trkpt lat="44.08326" lon="5.79955">
        <ele>1089.5379638672</ele>
        <time>2020-10-22T19:45:55.887Z</time>
      </trkpt>
      <trkpt lat="44.08313" lon="5.79992">
        <ele>1085.7087402344</ele>
        <time>2020-10-22T19:46:10.049Z</time>
      </trkpt>
      <trkpt lat="44.08282" lon="5.80025">
        <ele>1080.8735351562</ele>
        <time>2020-10-22T19:46:24.224Z</time>
      </trkpt>
      <trkpt lat="44.08279" lon="5.80026">
        <ele>1080.4056396484</ele>
        <time>2020-10-22T19:46:38.400Z</time>
      </trkpt>
      <trkpt lat="44.08261" lon="5.80016">
        <ele>1077.5981445312</ele>
        <time>2020-10-22T19:46:52.582Z</time>
      </trkpt>
      <trkpt lat="44.08253" lon="5.80003">
        <ele>1076.3503417969</ele>
        <time>2020-10-22T19:47:06.768Z</time>
      </trkpt>
      <trkpt lat="44.08245" lon="5.79995">
        <ele>1075.1025390625</ele>
        <time>2020-10-22T19:47:20.958Z</time>
      </trkpt>
      <trkpt lat="44.08227" lon="5.79993">
        <ele>1072.2950439453</ele>
        <time>2020-10-22T19:47:35.154Z</time>
      </trkpt>
      <trkpt lat="44.08201" lon="5.79986">
        <ele>1068.0869140625</ele>
        <time>2020-10-22T19:47:49.359Z</time>
      </trkpt>
      <trkpt lat="44.08178" lon="5.79972">
        <ele>1065.3670654297</ele>
        <time>2020-10-22T19:48:03.572Z</time>
      </trkpt>
      <trkpt lat="44.08159" lon="5.79964">
        <ele>1064.7058105469</ele>
        <time>2020-10-22T19:48:17.792Z</time>
      </trkpt>
      <trkpt lat="44.08127" lon="5.79955">
        <ele>1062.8701171875</ele>
        <time>2020-10-22T19:48:32.022Z</time>
      </trkpt>
      <trkpt lat="44.08106" lon="5.79938">
        <ele>1063.7952880859</ele>
        <time>2020-10-22T19:48:46.261Z</time>
      </trkpt>
      <trkpt lat="44.0808" lon="5.79902">
        <ele>1068.4025878906</ele>
        <time>2020-10-22T19:49:00.512Z</time>
      </trkpt>
      <trkpt lat="44.0806" lon="5.79886">
        <ele>1069.8422851562</ele>
        <time>2020-10-22T19:49:14.771Z</time>
      </trkpt>
      <trkpt lat="44.08029" lon="5.79877">
        <ele>1069.23046875</ele>
        <time>2020-10-22T19:49:29.040Z</time>
      </trkpt>
      <trkpt lat="44.07973" lon="5.79865">
        <ele>1067.55859375</ele>
        <time>2020-10-22T19:49:43.328Z</time>
      </trkpt>
      <trkpt lat="44.07959" lon="5.79866">
        <ele>1066.1667480469</ele>
        <time>2020-10-22T19:49:57.621Z</time>
      </trkpt>
      <trkpt lat="44.07913" lon="5.79879">
        <ele>1061.7042236328</ele>
        <time>2020-10-22T19:50:11.929Z</time>
      </trkpt>
      <trkpt lat="44.07887" lon="5.79882">
        <ele>1061.5843505859</ele>
        <time>2020-10-22T19:50:26.246Z</time>
      </trkpt>
      <trkpt lat="44.07866" lon="5.79881">
        <ele>1061.9802246094</ele>
        <time>2020-10-22T19:50:40.570Z</time>
      </trkpt>
      <trkpt lat="44.07822" lon="5.79873">
        <ele>1060.3641357422</ele>
        <time>2020-10-22T19:50:54.909Z</time>
      </trkpt>
      <trkpt lat="44.07814" lon="5.79865">
        <ele>1060.1721191406</ele>
        <time>2020-10-22T19:51:09.251Z</time>
      </trkpt>
      <trkpt lat="44.07803" lon="5.79843">
        <ele>1059.7762451172</ele>
        <time>2020-10-22T19:51:23.600Z</time>
      </trkpt>
      <trkpt lat="44.07804" lon="5.79838">
        <ele>1059.7282714844</ele>
        <time>2020-10-22T19:51:37.950Z</time>
      </trkpt>
      <trkpt lat="44.07822" lon="5.79799">
        <ele>1065.8114013672</ele>
        <time>2020-10-22T19:51:52.311Z</time>
      </trkpt>
      <trkpt lat="44.07822" lon="5.79794">
        <ele>1065.0914306641</ele>
        <time>2020-10-22T19:52:06.673Z</time>
      </trkpt>
      <trkpt lat="44.07813" lon="5.79783">
        <ele>1061.9959716797</ele>
        <time>2020-10-22T19:52:21.039Z</time>
      </trkpt>
      <trkpt lat="44.07803" lon="5.79777">
        <ele>1059.4523925781</ele>
        <time>2020-10-22T19:52:35.409Z</time>
      </trkpt>
      <trkpt lat="44.07798" lon="5.7977">
        <ele>1057.6047363281</ele>
        <time>2020-10-22T19:52:49.781Z</time>
      </trkpt>
      <trkpt lat="44.07799" lon="5.79711">
        <ele>1050.3835449219</ele>
        <time>2020-10-22T19:53:04.167Z</time>
      </trkpt>
      <trkpt lat="44.07803" lon="5.79702">
        <ele>1049.7836914062</ele>
        <time>2020-10-22T19:53:18.556Z</time>
      </trkpt>
      <trkpt lat="44.07802" lon="5.79701">
        <ele>1049.3876953125</ele>
        <time>2020-10-22T19:53:32.945Z</time>
      </trkpt>
      <trkpt lat="44.07786" lon="5.79706">
        <ele>1046.5802001953</ele>
        <time>2020-10-22T19:53:47.340Z</time>
      </trkpt>
      <trkpt lat="44.07772" lon="5.79707">
        <ele>1043.5048828125</ele>
        <time>2020-10-22T19:54:01.739Z</time>
      </trkpt>
      <trkpt lat="44.07769" lon="5.79704">
        <ele>1042.2811279297</ele>
        <time>2020-10-22T19:54:16.140Z</time>
      </trkpt>
      <trkpt lat="44.07767" lon="5.79697">
        <ele>1040.6253662109</ele>
        <time>2020-10-22T19:54:30.542Z</time>
      </trkpt>
      <trkpt lat="44.0777" lon="5.79673">
        <ele>1037.3139648438</ele>
        <time>2020-10-22T19:54:44.950Z</time>
      </trkpt>
      <trkpt lat="44.07768" lon="5.7967">
        <ele>1036.330078125</ele>
        <time>2020-10-22T19:54:59.359Z</time>
      </trkpt>
      <trkpt lat="44.07763" lon="5.79669">
        <ele>1034.9624023438</ele>
        <time>2020-10-22T19:55:13.770Z</time>
      </trkpt>
      <trkpt lat="44.07758" lon="5.79649">
        <ele>1030.4030761719</ele>
        <time>2020-10-22T19:55:28.186Z</time>
      </trkpt>
      <trkpt lat="44.07758" lon="5.79633">
        <ele>1028.9226074219</ele>
        <time>2020-10-22T19:55:42.606Z</time>
      </trkpt>
      <trkpt lat="44.07761" lon="5.79605">
        <ele>1028.0865478516</ele>
        <time>2020-10-22T19:55:57.033Z</time>
      </trkpt>
      <trkpt lat="44.07747" lon="5.79594">
        <ele>1025.9268798828</ele>
        <time>2020-10-22T19:56:11.465Z</time>
      </trkpt>
      <trkpt lat="44.0774" lon="5.79576">
        <ele>1023.3472900391</ele>
        <time>2020-10-22T19:56:25.902Z</time>
      </trkpt>
      <trkpt lat="44.0773" lon="5.79581">
        <ele>1023.3472900391</ele>
        <time>2020-10-22T19:56:40.342Z</time>
      </trkpt>
      <trkpt lat="44.07721" lon="5.79593">
        <ele>1022.4436035156</ele>
        <time>2020-10-22T19:56:54.787Z</time>
      </trkpt>
      <trkpt lat="44.07715" lon="5.79598">
        <ele>1020.703918457</ele>
        <time>2020-10-22T19:57:09.234Z</time>
      </trkpt>
      <trkpt lat="44.07705" lon="5.79587">
        <ele>1018.9642333984</ele>
        <time>2020-10-22T19:57:23.685Z</time>
      </trkpt>
      <trkpt lat="44.07698" lon="5.79588">
        <ele>1017.2244873047</ele>
        <time>2020-10-22T19:57:38.139Z</time>
      </trkpt>
      <trkpt lat="44.07666" lon="5.79602">
        <ele>1018.0894775391</ele>
        <time>2020-10-22T19:57:52.604Z</time>
      </trkpt>
      <trkpt lat="44.07645" lon="5.79619">
        <ele>1015.2088623047</ele>
        <time>2020-10-22T19:58:07.077Z</time>
      </trkpt>
      <trkpt lat="44.07588" lon="5.79649">
        <ele>1009.3628540039</ele>
        <time>2020-10-22T19:58:21.570Z</time>
      </trkpt>
      <trkpt lat="44.07559" lon="5.79668">
        <ele>1008.0070800781</ele>
        <time>2020-10-22T19:58:36.074Z</time>
      </trkpt>
      <trkpt lat="44.07516" lon="5.79701">
        <ele>998.45794677734</ele>
        <time>2020-10-22T19:58:50.594Z</time>
      </trkpt>
      <trkpt lat="44.07504" lon="5.79706">
        <ele>997.37811279297</ele>
        <time>2020-10-22T19:59:05.118Z</time>
      </trkpt>
      <trkpt lat="44.07458" lon="5.79709">
        <ele>996.73022460938</ele>
        <time>2020-10-22T19:59:19.658Z</time>
      </trkpt>
      <trkpt lat="44.07423" lon="5.79716">
        <ele>993.44549560547</ele>
        <time>2020-10-22T19:59:34.210Z</time>
      </trkpt>
      <trkpt lat="44.07409" lon="5.79714">
        <ele>992.74963378906</ele>
        <time>2020-10-22T19:59:48.766Z</time>
      </trkpt>
      <trkpt lat="44.07391" lon="5.79706">
        <ele>992.70159912109</ele>
        <time>2020-10-22T20:00:03.329Z</time>
      </trkpt>
      <trkpt lat="44.07373" lon="5.79702">
        <ele>992.02972412109</ele>
        <time>2020-10-22T20:00:17.898Z</time>
      </trkpt>
      <trkpt lat="44.07332" lon="5.79709">
        <ele>985.1875</ele>
        <time>2020-10-22T20:00:32.480Z</time>
      </trkpt>
      <trkpt lat="44.07316" lon="5.79717">
        <ele>981.34814453125</ele>
        <time>2020-10-22T20:00:47.068Z</time>
      </trkpt>
      <trkpt lat="44.07306" lon="5.79727">
        <ele>978.03582763672</ele>
        <time>2020-10-22T20:01:01.660Z</time>
      </trkpt>
      <trkpt lat="44.073" lon="5.7973">
        <ele>976.48809814453</ele>
        <time>2020-10-22T20:01:16.254Z</time>
      </trkpt>
      <trkpt lat="44.0728" lon="5.79732">
        <ele>972.92681884766</ele>
        <time>2020-10-22T20:01:30.855Z</time>
      </trkpt>
      <trkpt lat="44.07238" lon="5.7973">
        <ele>968.10919189453</ele>
        <time>2020-10-22T20:01:45.470Z</time>
      </trkpt>
      <trkpt lat="44.07221" lon="5.79734">
        <ele>965.44567871094</ele>
        <time>2020-10-22T20:02:00.091Z</time>
      </trkpt>
      <trkpt lat="44.07215" lon="5.79733">
        <ele>964.88177490234</ele>
        <time>2020-10-22T20:02:14.714Z</time>
      </trkpt>
      <trkpt lat="44.07173" lon="5.79711">
        <ele>962.26934814453</ele>
        <time>2020-10-22T20:02:29.352Z</time>
      </trkpt>
      <trkpt lat="44.07134" lon="5.79698">
        <ele>958.21405029297</ele>
        <time>2020-10-22T20:02:44.003Z</time>
      </trkpt>
      <trkpt lat="44.07118" lon="5.79691">
        <ele>956.69030761719</ele>
        <time>2020-10-22T20:02:58.660Z</time>
      </trkpt>
      <trkpt lat="44.0708" lon="5.79658">
        <ele>951.96588134766</ele>
        <time>2020-10-22T20:03:13.332Z</time>
      </trkpt>
      <trkpt lat="44.07056" lon="5.79641">
        <ele>948.21051025391</ele>
        <time>2020-10-22T20:03:28.013Z</time>
      </trkpt>
      <trkpt lat="44.07045" lon="5.79599">
        <ele>945.11920166016</ele>
        <time>2020-10-22T20:03:42.704Z</time>
      </trkpt>
      <trkpt lat="44.07044" lon="5.79549">
        <ele>944.6298828125</ele>
        <time>2020-10-22T20:03:57.407Z</time>
      </trkpt>
      <trkpt lat="44.07036" lon="5.79545">
        <ele>942.71020507812</ele>
        <time>2020-10-22T20:04:12.113Z</time>
      </trkpt>
      <trkpt lat="44.07015" lon="5.79542">
        <ele>938.69946289062</ele>
        <time>2020-10-22T20:04:26.826Z</time>
      </trkpt>
      <trkpt lat="44.07003" lon="5.79544">
        <ele>936.18927001953</ele>
        <time>2020-10-22T20:04:41.543Z</time>
      </trkpt>
      <trkpt lat="44.06999" lon="5.79543">
        <ele>935.45739746094</ele>
        <time>2020-10-22T20:04:56.262Z</time>
      </trkpt>
      <trkpt lat="44.06995" lon="5.79544">
        <ele>934.55755615234</ele>
        <time>2020-10-22T20:05:10.982Z</time>
      </trkpt>
      <trkpt lat="44.06987" lon="5.79553">
        <ele>932.16998291016</ele>
        <time>2020-10-22T20:05:25.705Z</time>
      </trkpt>
      <trkpt lat="44.06975" lon="5.79561">
        <ele>929.70404052734</ele>
        <time>2020-10-22T20:05:40.433Z</time>
      </trkpt>
      <trkpt lat="44.06958" lon="5.79566">
        <ele>926.35656738281</ele>
        <time>2020-10-22T20:05:55.167Z</time>
      </trkpt>
      <trkpt lat="44.06952" lon="5.79566">
        <ele>925.11004638672</ele>
        <time>2020-10-22T20:06:09.903Z</time>
      </trkpt>
      <trkpt lat="44.06934" lon="5.79555">
        <ele>921.30291748047</ele>
        <time>2020-10-22T20:06:24.645Z</time>
      </trkpt>
      <trkpt lat="44.06912" lon="5.79538">
        <ele>919.11236572266</ele>
        <time>2020-10-22T20:06:39.396Z</time>
      </trkpt>
      <trkpt lat="44.06901" lon="5.79533">
        <ele>917.60064697266</ele>
        <time>2020-10-22T20:06:54.150Z</time>
      </trkpt>
      <trkpt lat="44.06892" lon="5.79536">
        <ele>915.51293945312</ele>
        <time>2020-10-22T20:07:08.908Z</time>
      </trkpt>
      <trkpt lat="44.06869" lon="5.79526">
        <ele>912.29748535156</ele>
        <time>2020-10-22T20:07:23.674Z</time>
      </trkpt>
      <trkpt lat="44.06859" lon="5.7953">
        <ele>909.90979003906</ele>
        <time>2020-10-22T20:07:38.443Z</time>
      </trkpt>
      <trkpt lat="44.06856" lon="5.79533">
        <ele>909.04595947266</ele>
        <time>2020-10-22T20:07:53.213Z</time>
      </trkpt>
      <trkpt lat="44.06851" lon="5.79534">
        <ele>908.08612060547</ele>
        <time>2020-10-22T20:08:07.985Z</time>
      </trkpt>
      <trkpt lat="44.06831" lon="5.7953">
        <ele>905.33435058594</ele>
        <time>2020-10-22T20:08:22.764Z</time>
      </trkpt>
      <trkpt lat="44.068" lon="5.79527">
        <ele>901.49499511719</ele>
        <time>2020-10-22T20:08:37.553Z</time>
      </trkpt>
      <trkpt lat="44.06776" lon="5.79522">
        <ele>898.74206542969</ele>
        <time>2020-10-22T20:08:52.350Z</time>
      </trkpt>
      <trkpt lat="44.06773" lon="5.79519">
        <ele>898.49011230469</ele>
        <time>2020-10-22T20:09:07.148Z</time>
      </trkpt>
      <trkpt lat="44.06766" lon="5.79496">
        <ele>899.24597167969</ele>
        <time>2020-10-22T20:09:21.952Z</time>
      </trkpt>
      <trkpt lat="44.06759" lon="5.79483">
        <ele>899.16198730469</ele>
        <time>2020-10-22T20:09:36.760Z</time>
      </trkpt>
      <trkpt lat="44.06755" lon="5.79471">
        <ele>899.51953125</ele>
        <time>2020-10-22T20:09:51.571Z</time>
      </trkpt>
      <trkpt lat="44.06737" lon="5.79466">
        <ele>897.09594726562</ele>
        <time>2020-10-22T20:10:06.389Z</time>
      </trkpt>
      <trkpt lat="44.06735" lon="5.79463">
        <ele>897.11993408203</ele>
        <time>2020-10-22T20:10:21.208Z</time>
      </trkpt>
      <trkpt lat="44.06735" lon="5.79456">
        <ele>897.95977783203</ele>
        <time>2020-10-22T20:10:36.028Z</time>
      </trkpt>
      <trkpt lat="44.06728" lon="5.79445">
        <ele>898.10375976562</ele>
        <time>2020-10-22T20:10:50.852Z</time>
      </trkpt>
      <trkpt lat="44.06693" lon="5.79406">
        <ele>896.90399169922</ele>
        <time>2020-10-22T20:11:05.691Z</time>
      </trkpt>
      <trkpt lat="44.06683" lon="5.79399">
        <ele>896.41693115234</ele>
        <time>2020-10-22T20:11:20.533Z</time>
      </trkpt>
      <trkpt lat="44.06672" lon="5.79395">
        <ele>895.44506835938</ele>
        <time>2020-10-22T20:11:35.379Z</time>
      </trkpt>
      <trkpt lat="44.0666" lon="5.79388">
        <ele>894.70428466797</ele>
        <time>2020-10-22T20:11:50.230Z</time>
      </trkpt>
      <trkpt lat="44.06652" lon="5.79387">
        <ele>893.78039550781</ele>
        <time>2020-10-22T20:12:05.083Z</time>
      </trkpt>
      <trkpt lat="44.06649" lon="5.79389">
        <ele>893.12945556641</ele>
        <time>2020-10-22T20:12:19.937Z</time>
      </trkpt>
      <trkpt lat="44.06618" lon="5.7939">
        <ele>888.91821289062</ele>
        <time>2020-10-22T20:12:34.802Z</time>
      </trkpt>
      <trkpt lat="44.06571" lon="5.79378">
        <ele>883.60125732422</ele>
        <time>2020-10-22T20:12:49.683Z</time>
      </trkpt>
      <trkpt lat="44.0649" lon="5.79331">
        <ele>880.8974609375</ele>
        <time>2020-10-22T20:13:04.593Z</time>
      </trkpt>
      <trkpt lat="44.0646" lon="5.79331">
        <ele>878.48413085938</ele>
        <time>2020-10-22T20:13:19.513Z</time>
      </trkpt>
      <trkpt lat="44.06433" lon="5.79315">
        <ele>879.07824707031</ele>
        <time>2020-10-22T20:13:34.443Z</time>
      </trkpt>
      <trkpt lat="44.06419" lon="5.79304">
        <ele>879.95751953125</ele>
        <time>2020-10-22T20:13:49.378Z</time>
      </trkpt>
      <trkpt lat="44.06412" lon="5.79302">
        <ele>879.83752441406</ele>
        <time>2020-10-22T20:14:04.315Z</time>
      </trkpt>
      <trkpt lat="44.06398" lon="5.79306">
        <ele>878.6943359375</ele>
        <time>2020-10-22T20:14:19.257Z</time>
      </trkpt>
      <trkpt lat="44.06392" lon="5.79311">
        <ele>877.6865234375</ele>
        <time>2020-10-22T20:14:34.202Z</time>
      </trkpt>
      <trkpt lat="44.06386" lon="5.79313">
        <ele>877.11059570312</ele>
        <time>2020-10-22T20:14:49.149Z</time>
      </trkpt>
      <trkpt lat="44.0638" lon="5.79313">
        <ele>876.82263183594</ele>
        <time>2020-10-22T20:15:04.098Z</time>
      </trkpt>
      <trkpt lat="44.06369" lon="5.79304">
        <ele>877.55792236328</ele>
        <time>2020-10-22T20:15:19.051Z</time>
      </trkpt>
      <trkpt lat="44.06341" lon="5.79298">
        <ele>877.00006103516</ele>
        <time>2020-10-22T20:15:34.013Z</time>
      </trkpt>
      <trkpt lat="44.06323" lon="5.79296">
        <ele>876.54418945312</ele>
        <time>2020-10-22T20:15:48.981Z</time>
      </trkpt>
      <trkpt lat="44.06275" lon="5.79293">
        <ele>875.02764892578</ele>
        <time>2020-10-22T20:16:03.965Z</time>
      </trkpt>
      <trkpt lat="44.06229" lon="5.79302">
        <ele>869.72650146484</ele>
        <time>2020-10-22T20:16:18.965Z</time>
      </trkpt>
      <trkpt lat="44.06223" lon="5.793">
        <ele>869.31854248047</ele>
        <time>2020-10-22T20:16:33.967Z</time>
      </trkpt>
      <trkpt lat="44.06213" lon="5.79291">
        <ele>869.11456298828</ele>
        <time>2020-10-22T20:16:48.973Z</time>
      </trkpt>
      <trkpt lat="44.06184" lon="5.79259">
        <ele>869.33239746094</ele>
        <time>2020-10-22T20:17:03.991Z</time>
      </trkpt>
      <trkpt lat="44.06166" lon="5.79245">
        <ele>869.42840576172</ele>
        <time>2020-10-22T20:17:19.016Z</time>
      </trkpt>
      <trkpt lat="44.06148" lon="5.79234">
        <ele>869.27239990234</ele>
        <time>2020-10-22T20:17:34.048Z</time>
      </trkpt>
      <trkpt lat="44.06142" lon="5.79235">
        <ele>868.82849121094</ele>
        <time>2020-10-22T20:17:49.082Z</time>
      </trkpt>
      <trkpt lat="44.06129" lon="5.7926">
        <ele>865.72326660156</ele>
        <time>2020-10-22T20:18:04.123Z</time>
      </trkpt>
      <trkpt lat="44.06123" lon="5.79297">
        <ele>861.73992919922</ele>
        <time>2020-10-22T20:18:19.173Z</time>
      </trkpt>
      <trkpt lat="44.06116" lon="5.79308">
        <ele>860.10595703125</ele>
        <time>2020-10-22T20:18:34.227Z</time>
      </trkpt>
      <trkpt lat="44.06102" lon="5.79319">
        <ele>858.19720458984</ele>
        <time>2020-10-22T20:18:49.286Z</time>
      </trkpt>
      <trkpt lat="44.06099" lon="5.7932">
        <ele>857.86126708984</ele>
        <time>2020-10-22T20:19:04.346Z</time>
      </trkpt>
      <trkpt lat="44.06055" lon="5.79291">
        <ele>856.10095214844</ele>
        <time>2020-10-22T20:19:19.422Z</time>
      </trkpt>
      <trkpt lat="44.0599" lon="5.79236">
        <ele>852.4169921875</ele>
        <time>2020-10-22T20:19:34.524Z</time>
      </trkpt>
      <trkpt lat="44.05968" lon="5.79215">
        <ele>851.04919433594</ele>
        <time>2020-10-22T20:19:49.635Z</time>
      </trkpt>
      <trkpt lat="44.05919" lon="5.79135">
        <ele>850.44964599609</ele>
        <time>2020-10-22T20:20:04.771Z</time>
      </trkpt>
      <trkpt lat="44.05887" lon="5.79072">
        <ele>851.67510986328</ele>
        <time>2020-10-22T20:20:19.925Z</time>
      </trkpt>
      <trkpt lat="44.05879" lon="5.79059">
        <ele>851.96307373047</ele>
        <time>2020-10-22T20:20:35.084Z</time>
      </trkpt>
      <trkpt lat="44.05844" lon="5.79013">
        <ele>849.48364257812</ele>
        <time>2020-10-22T20:20:50.259Z</time>
      </trkpt>
      <trkpt lat="44.05809" lon="5.78957">
        <ele>846.53173828125</ele>
        <time>2020-10-22T20:21:05.451Z</time>
      </trkpt>
      <trkpt lat="44.05801" lon="5.78946">
        <ele>845.60791015625</ele>
        <time>2020-10-22T20:21:20.647Z</time>
      </trkpt>
      <trkpt lat="44.05749" lon="5.78893">
        <ele>840.35217285156</ele>
        <time>2020-10-22T20:21:35.865Z</time>
      </trkpt>
      <trkpt lat="44.05725" lon="5.78866">
        <ele>837.57452392578</ele>
        <time>2020-10-22T20:21:51.093Z</time>
      </trkpt>
      <trkpt lat="44.057" lon="5.78842">
        <ele>834.59899902344</ele>
        <time>2020-10-22T20:22:06.331Z</time>
      </trkpt>
      <trkpt lat="44.05689" lon="5.78829">
        <ele>832.96954345703</ele>
        <time>2020-10-22T20:22:21.574Z</time>
      </trkpt>
      <trkpt lat="44.05679" lon="5.78808">
        <ele>830.78588867188</ele>
        <time>2020-10-22T20:22:36.823Z</time>
      </trkpt>
      <trkpt lat="44.05679" lon="5.78799">
        <ele>830.70965576172</ele>
        <time>2020-10-22T20:22:52.074Z</time>
      </trkpt>
      <trkpt lat="44.05682" lon="5.78787">
        <ele>830.86865234375</ele>
        <time>2020-10-22T20:23:07.328Z</time>
      </trkpt>
      <trkpt lat="44.05679" lon="5.78751">
        <ele>828.78100585938</ele>
        <time>2020-10-22T20:23:22.591Z</time>
      </trkpt>
      <trkpt lat="44.0567" lon="5.78732">
        <ele>826.78930664062</ele>
        <time>2020-10-22T20:23:37.859Z</time>
      </trkpt>
      <trkpt lat="44.05649" lon="5.78657">
        <ele>823.49114990234</ele>
        <time>2020-10-22T20:23:53.147Z</time>
      </trkpt>
      <trkpt lat="44.05644" lon="5.78615">
        <ele>822.44268798828</ele>
        <time>2020-10-22T20:24:08.445Z</time>
      </trkpt>
      <trkpt lat="44.05635" lon="5.78594">
        <ele>820.64300537109</ele>
        <time>2020-10-22T20:24:23.749Z</time>
      </trkpt>
      <trkpt lat="44.05621" lon="5.78574">
        <ele>818.14739990234</ele>
        <time>2020-10-22T20:24:39.060Z</time>
      </trkpt>
      <trkpt lat="44.05611" lon="5.78539">
        <ele>815.67846679688</ele>
        <time>2020-10-22T20:24:54.380Z</time>
      </trkpt>
      <trkpt lat="44.05612" lon="5.78525">
        <ele>815.31854248047</ele>
        <time>2020-10-22T20:25:09.703Z</time>
      </trkpt>
      <trkpt lat="44.0561" lon="5.78521">
        <ele>814.88659667969</ele>
        <time>2020-10-22T20:25:25.027Z</time>
      </trkpt>
      <trkpt lat="44.0561" lon="5.78509">
        <ele>814.45465087891</ele>
        <time>2020-10-22T20:25:40.354Z</time>
      </trkpt>
      <trkpt lat="44.05605" lon="5.78471">
        <ele>812.42883300781</ele>
        <time>2020-10-22T20:25:55.690Z</time>
      </trkpt>
      <trkpt lat="44.0561" lon="5.7846">
        <ele>812.828125</ele>
        <time>2020-10-22T20:26:11.029Z</time>
      </trkpt>
      <trkpt lat="44.0561" lon="5.78447">
        <ele>812.51617431641</ele>
        <time>2020-10-22T20:26:26.372Z</time>
      </trkpt>
      <trkpt lat="44.05605" lon="5.78432">
        <ele>811.53924560547</ele>
        <time>2020-10-22T20:26:41.719Z</time>
      </trkpt>
      <trkpt lat="44.05604" lon="5.78418">
        <ele>811.08331298828</ele>
        <time>2020-10-22T20:26:57.069Z</time>
      </trkpt>
      <trkpt lat="44.05604" lon="5.78399">
        <ele>810.62744140625</ele>
        <time>2020-10-22T20:27:12.423Z</time>
      </trkpt>
      <trkpt lat="44.05607" lon="5.78384">
        <ele>810.48034667969</ele>
        <time>2020-10-22T20:27:27.781Z</time>
      </trkpt>
      <trkpt lat="44.05605" lon="5.78342">
        <ele>807.72076416016</ele>
        <time>2020-10-22T20:27:43.149Z</time>
      </trkpt>
      <trkpt lat="44.05589" lon="5.78303">
        <ele>803.58666992188</ele>
        <time>2020-10-22T20:27:58.528Z</time>
      </trkpt>
      <trkpt lat="44.05575" lon="5.78294">
        <ele>802.01495361328</ele>
        <time>2020-10-22T20:28:13.912Z</time>
      </trkpt>
      <trkpt lat="44.05567" lon="5.78291">
        <ele>801.09112548828</ele>
        <time>2020-10-22T20:28:29.299Z</time>
      </trkpt>
      <trkpt lat="44.05453" lon="5.78191">
        <ele>790.21765136719</ele>
        <time>2020-10-22T20:28:44.731Z</time>
      </trkpt>
      <trkpt lat="44.05415" lon="5.78159">
        <ele>786.93505859375</ele>
        <time>2020-10-22T20:29:00.178Z</time>
      </trkpt>
      <trkpt lat="44.05365" lon="5.78121">
        <ele>781.89483642578</ele>
        <time>2020-10-22T20:29:15.644Z</time>
      </trkpt>
      <trkpt lat="44.05328" lon="5.78089">
        <ele>778.21441650391</ele>
        <time>2020-10-22T20:29:31.124Z</time>
      </trkpt>
      <trkpt lat="44.05313" lon="5.78065">
        <ele>776.88262939453</ele>
        <time>2020-10-22T20:29:46.612Z</time>
      </trkpt>
      <trkpt lat="44.053" lon="5.7804">
        <ele>775.95513916016</ele>
        <time>2020-10-22T20:30:02.107Z</time>
      </trkpt>
      <trkpt lat="44.05293" lon="5.78031">
        <ele>775.41522216797</ele>
        <time>2020-10-22T20:30:17.606Z</time>
      </trkpt>
      <trkpt lat="44.05269" lon="5.78012">
        <ele>773.44512939453</ele>
        <time>2020-10-22T20:30:33.114Z</time>
      </trkpt>
      <trkpt lat="44.05257" lon="5.77993">
        <ele>772.89324951172</ele>
        <time>2020-10-22T20:30:48.628Z</time>
      </trkpt>
      <trkpt lat="44.05242" lon="5.77983">
        <ele>771.87341308594</ele>
        <time>2020-10-22T20:31:04.147Z</time>
      </trkpt>
      <trkpt lat="44.05213" lon="5.77973">
        <ele>769.677734375</ele>
        <time>2020-10-22T20:31:19.676Z</time>
      </trkpt>
      <trkpt lat="44.05198" lon="5.77964">
        <ele>768.36938476562</ele>
        <time>2020-10-22T20:31:35.211Z</time>
      </trkpt>
      <trkpt lat="44.05143" lon="5.77916">
        <ele>760.79614257812</ele>
        <time>2020-10-22T20:31:50.767Z</time>
      </trkpt>
      <trkpt lat="44.05101" lon="5.77885">
        <ele>754.66491699219</ele>
        <time>2020-10-22T20:32:06.339Z</time>
      </trkpt>
      <trkpt lat="44.05077" lon="5.77878">
        <ele>750.90954589844</ele>
        <time>2020-10-22T20:32:21.920Z</time>
      </trkpt>
      <trkpt lat="44.05067" lon="5.77879">
        <ele>749.67376708984</ele>
        <time>2020-10-22T20:32:37.504Z</time>
      </trkpt>
      <trkpt lat="44.05059" lon="5.77881">
        <ele>748.78588867188</ele>
        <time>2020-10-22T20:32:53.091Z</time>
      </trkpt>
      <trkpt lat="44.05042" lon="5.77891">
        <ele>747.09448242188</ele>
        <time>2020-10-22T20:33:08.684Z</time>
      </trkpt>
      <trkpt lat="44.05022" lon="5.77911">
        <ele>744.76501464844</ele>
        <time>2020-10-22T20:33:24.285Z</time>
      </trkpt>
      <trkpt lat="44.04998" lon="5.7793">
        <ele>740.32574462891</ele>
        <time>2020-10-22T20:33:39.895Z</time>
      </trkpt>
      <trkpt lat="44.04992" lon="5.77937">
        <ele>739.26995849609</ele>
        <time>2020-10-22T20:33:55.508Z</time>
      </trkpt>
      <trkpt lat="44.0497" lon="5.77985">
        <ele>736.45599365234</ele>
        <time>2020-10-22T20:34:11.134Z</time>
      </trkpt>
      <trkpt lat="44.04963" lon="5.7799">
        <ele>735.01623535156</ele>
        <time>2020-10-22T20:34:26.763Z</time>
      </trkpt>
      <trkpt lat="44.04952" lon="5.77993">
        <ele>733.07452392578</ele>
        <time>2020-10-22T20:34:42.396Z</time>
      </trkpt>
      <trkpt lat="44.0494" lon="5.77993">
        <ele>731.14916992188</ele>
        <time>2020-10-22T20:34:58.033Z</time>
      </trkpt>
      <trkpt lat="44.04937" lon="5.77999">
        <ele>730.60925292969</ele>
        <time>2020-10-22T20:35:13.672Z</time>
      </trkpt>
      <trkpt lat="44.04931" lon="5.78005">
        <ele>729.67346191406</ele>
        <time>2020-10-22T20:35:29.313Z</time>
      </trkpt>
      <trkpt lat="44.04923" lon="5.78022">
        <ele>728.20965576172</ele>
        <time>2020-10-22T20:35:44.959Z</time>
      </trkpt>
      <trkpt lat="44.0492" lon="5.78038">
        <ele>727.56927490234</ele>
        <time>2020-10-22T20:36:00.609Z</time>
      </trkpt>
      <trkpt lat="44.04911" lon="5.78061">
        <ele>726.52185058594</ele>
        <time>2020-10-22T20:36:16.265Z</time>
      </trkpt>
      <trkpt lat="44.04902" lon="5.781">
        <ele>725.08209228516</ele>
        <time>2020-10-22T20:36:31.931Z</time>
      </trkpt>
      <trkpt lat="44.04899" lon="5.78107">
        <ele>724.67413330078</ele>
        <time>2020-10-22T20:36:47.599Z</time>
      </trkpt>
      <trkpt lat="44.04896" lon="5.78109">
        <ele>724.326171875</ele>
        <time>2020-10-22T20:37:03.268Z</time>
      </trkpt>
      <trkpt lat="44.0489" lon="5.78109">
        <ele>723.67828369141</ele>
        <time>2020-10-22T20:37:18.939Z</time>
      </trkpt>
      <trkpt lat="44.04888" lon="5.78113">
        <ele>723.41436767578</ele>
        <time>2020-10-22T20:37:34.611Z</time>
      </trkpt>
      <trkpt lat="44.04885" lon="5.7814">
        <ele>722.81335449219</ele>
        <time>2020-10-22T20:37:50.290Z</time>
      </trkpt>
      <trkpt lat="44.04881" lon="5.78153">
        <ele>722.53741455078</ele>
        <time>2020-10-22T20:38:05.972Z</time>
      </trkpt>
      <trkpt lat="44.04874" lon="5.78162">
        <ele>721.99896240234</ele>
        <time>2020-10-22T20:38:21.657Z</time>
      </trkpt>
      <trkpt lat="44.0487" lon="5.78164">
        <ele>721.66296386719</ele>
        <time>2020-10-22T20:38:37.344Z</time>
      </trkpt>
      <trkpt lat="44.04818" lon="5.78148">
        <ele>717.76953125</ele>
        <time>2020-10-22T20:38:53.049Z</time>
      </trkpt>
      <trkpt lat="44.04772" lon="5.78131">
        <ele>714.54919433594</ele>
        <time>2020-10-22T20:39:08.769Z</time>
      </trkpt>
      <trkpt lat="44.0468" lon="5.78092">
        <ele>704.50524902344</ele>
        <time>2020-10-22T20:39:24.522Z</time>
      </trkpt>
      <trkpt lat="44.04613" lon="5.78045">
        <ele>698.97668457031</ele>
        <time>2020-10-22T20:39:40.300Z</time>
      </trkpt>
      <trkpt lat="44.04572" lon="5.78021">
        <ele>695.84124755859</ele>
        <time>2020-10-22T20:39:56.092Z</time>
      </trkpt>
      <trkpt lat="44.04541" lon="5.78007">
        <ele>693.03369140625</ele>
        <time>2020-10-22T20:40:11.895Z</time>
      </trkpt>
      <trkpt lat="44.04455" lon="5.78032">
        <ele>685.90509033203</ele>
        <time>2020-10-22T20:40:27.728Z</time>
      </trkpt>
      <trkpt lat="44.04396" lon="5.78073">
        <ele>681.53997802734</ele>
        <time>2020-10-22T20:40:43.583Z</time>
      </trkpt>
      <trkpt lat="44.04333" lon="5.78098">
        <ele>676.32922363281</ele>
        <time>2020-10-22T20:40:59.459Z</time>
      </trkpt>
      <trkpt lat="44.04328" lon="5.78102">
        <ele>675.95727539062</ele>
        <time>2020-10-22T20:41:15.337Z</time>
      </trkpt>
      <trkpt lat="44.04305" lon="5.78131">
        <ele>673.80920410156</ele>
        <time>2020-10-22T20:41:31.226Z</time>
      </trkpt>
      <trkpt lat="44.04295" lon="5.78136">
        <ele>672.84936523438</ele>
        <time>2020-10-22T20:41:47.118Z</time>
      </trkpt>
      <trkpt lat="44.04296" lon="5.78138">
        <ele>672.94537353516</ele>
        <time>2020-10-22T20:42:03.011Z</time>
      </trkpt>
      <trkpt lat="44.04279" lon="5.78136">
        <ele>671.31359863281</ele>
        <time>2020-10-22T20:42:18.909Z</time>
      </trkpt>
      <trkpt lat="44.04272" lon="5.7814">
        <ele>670.84429931641</ele>
        <time>2020-10-22T20:42:34.810Z</time>
      </trkpt>
      <trkpt lat="44.04267" lon="5.78149">
        <ele>670.71234130859</ele>
        <time>2020-10-22T20:42:50.714Z</time>
      </trkpt>
      <trkpt lat="44.04252" lon="5.78165">
        <ele>670.18444824219</ele>
        <time>2020-10-22T20:43:06.624Z</time>
      </trkpt>
      <trkpt lat="44.04247" lon="5.78173">
        <ele>670.04046630859</ele>
        <time>2020-10-22T20:43:22.537Z</time>
      </trkpt>
      <trkpt lat="44.04234" lon="5.78201">
        <ele>669.24041748047</ele>
        <time>2020-10-22T20:43:38.458Z</time>
      </trkpt>
      <trkpt lat="44.04204" lon="5.78334">
        <ele>666.83612060547</ele>
        <time>2020-10-22T20:43:54.412Z</time>
      </trkpt>
      <trkpt lat="44.04192" lon="5.78399">
        <ele>666.36511230469</ele>
        <time>2020-10-22T20:44:10.382Z</time>
      </trkpt>
      <trkpt lat="44.04179" lon="5.78444">
        <ele>667.04895019531</ele>
        <time>2020-10-22T20:44:26.364Z</time>
      </trkpt>
      <trkpt lat="44.04175" lon="5.78454">
        <ele>667.12097167969</ele>
        <time>2020-10-22T20:44:42.349Z</time>
      </trkpt>
      <trkpt lat="44.04142" lon="5.78502">
        <ele>664.53057861328</ele>
        <time>2020-10-22T20:44:58.350Z</time>
      </trkpt>
      <trkpt lat="44.04137" lon="5.78517">
        <ele>664.8642578125</ele>
        <time>2020-10-22T20:45:14.355Z</time>
      </trkpt>
      <trkpt lat="44.0413" lon="5.78548">
        <ele>665.93206787109</ele>
        <time>2020-10-22T20:45:30.367Z</time>
      </trkpt>
      <trkpt lat="44.04127" lon="5.78569">
        <ele>666.41876220703</ele>
        <time>2020-10-22T20:45:46.385Z</time>
      </trkpt>
      <trkpt lat="44.04127" lon="5.78609">
        <ele>666.50854492188</ele>
        <time>2020-10-22T20:46:02.412Z</time>
      </trkpt>
      <trkpt lat="44.04141" lon="5.78736">
        <ele>666.47515869141</ele>
        <time>2020-10-22T20:46:18.470Z</time>
      </trkpt>
      <trkpt lat="44.04141" lon="5.7875">
        <ele>666.64312744141</ele>
        <time>2020-10-22T20:46:34.531Z</time>
      </trkpt>
      <trkpt lat="44.04139" lon="5.78758">
        <ele>666.51635742188</ele>
        <time>2020-10-22T20:46:50.594Z</time>
      </trkpt>
      <trkpt lat="44.04135" lon="5.78765">
        <ele>666.18041992188</ele>
        <time>2020-10-22T20:47:06.660Z</time>
      </trkpt>
      <trkpt lat="44.04112" lon="5.78786">
        <ele>664.24877929688</ele>
        <time>2020-10-22T20:47:22.735Z</time>
      </trkpt>
      <trkpt lat="44.04105" lon="5.78787">
        <ele>663.66082763672</ele>
        <time>2020-10-22T20:47:38.812Z</time>
      </trkpt>
      <trkpt lat="44.03998" lon="5.78749">
        <ele>655.66906738281</ele>
        <time>2020-10-22T20:47:54.926Z</time>
      </trkpt>
      <trkpt lat="44.03956" lon="5.7874">
        <ele>652.92468261719</ele>
        <time>2020-10-22T20:48:11.054Z</time>
      </trkpt>
      <trkpt lat="44.03909" lon="5.78741">
        <ele>650.16552734375</ele>
        <time>2020-10-22T20:48:27.198Z</time>
      </trkpt>
      <trkpt lat="44.03863" lon="5.78751">
        <ele>647.837890625</ele>
        <time>2020-10-22T20:48:43.357Z</time>
      </trkpt>
      <trkpt lat="44.03821" lon="5.78764">
        <ele>645.21038818359</ele>
        <time>2020-10-22T20:48:59.531Z</time>
      </trkpt>
      <trkpt lat="44.03803" lon="5.78767">
        <ele>643.87652587891</ele>
        <time>2020-10-22T20:49:15.711Z</time>
      </trkpt>
      <trkpt lat="44.03761" lon="5.78764">
        <ele>640.74926757812</ele>
        <time>2020-10-22T20:49:31.905Z</time>
      </trkpt>
      <trkpt lat="44.03726" lon="5.78758">
        <ele>638.02154541016</ele>
        <time>2020-10-22T20:49:48.110Z</time>
      </trkpt>
      <trkpt lat="44.037" lon="5.78761">
        <ele>636.46179199219</ele>
        <time>2020-10-22T20:50:04.324Z</time>
      </trkpt>
      <trkpt lat="44.03656" lon="5.7878">
        <ele>633.5244140625</ele>
        <time>2020-10-22T20:50:20.553Z</time>
      </trkpt>
      <trkpt lat="44.03611" lon="5.78804">
        <ele>631.11285400391</ele>
        <time>2020-10-22T20:50:36.799Z</time>
      </trkpt>
      <trkpt lat="44.03567" lon="5.78825">
        <ele>629.93566894531</ele>
        <time>2020-10-22T20:50:53.060Z</time>
      </trkpt>
      <trkpt lat="44.03552" lon="5.78829">
        <ele>629.32379150391</ele>
        <time>2020-10-22T20:51:09.326Z</time>
      </trkpt>
      <trkpt lat="44.03523" lon="5.78828">
        <ele>627.29656982422</ele>
        <time>2020-10-22T20:51:25.602Z</time>
      </trkpt>
      <trkpt lat="44.03477" lon="5.78815">
        <ele>624.86096191406</ele>
        <time>2020-10-22T20:51:41.893Z</time>
      </trkpt>
      <trkpt lat="44.03449" lon="5.78812">
        <ele>623.64691162109</ele>
        <time>2020-10-22T20:51:58.194Z</time>
      </trkpt>
      <trkpt lat="44.03442" lon="5.78817">
        <ele>622.98126220703</ele>
        <time>2020-10-22T20:52:14.497Z</time>
      </trkpt>
      <trkpt lat="44.03418" lon="5.78849">
        <ele>621.25354003906</ele>
        <time>2020-10-22T20:52:30.812Z</time>
      </trkpt>
      <trkpt lat="44.03407" lon="5.78858">
        <ele>620.58386230469</ele>
        <time>2020-10-22T20:52:47.131Z</time>
      </trkpt>
      <trkpt lat="44.03362" lon="5.78874">
        <ele>618.80810546875</ele>
        <time>2020-10-22T20:53:03.465Z</time>
      </trkpt>
      <trkpt lat="44.03315" lon="5.78886">
        <ele>616.86651611328</ele>
        <time>2020-10-22T20:53:19.815Z</time>
      </trkpt>
      <trkpt lat="44.03282" lon="5.78897">
        <ele>615.20281982422</ele>
        <time>2020-10-22T20:53:36.177Z</time>
      </trkpt>
      <trkpt lat="44.0325" lon="5.78926">
        <ele>613.01239013672</ele>
        <time>2020-10-22T20:53:52.551Z</time>
      </trkpt>
      <trkpt lat="44.03234" lon="5.78945">
        <ele>612.00518798828</ele>
        <time>2020-10-22T20:54:08.932Z</time>
      </trkpt>
      <trkpt lat="44.032" lon="5.78979">
        <ele>610.28363037109</ele>
        <time>2020-10-22T20:54:25.327Z</time>
      </trkpt>
      <trkpt lat="44.03174" lon="5.79002">
        <ele>611.68151855469</ele>
        <time>2020-10-22T20:54:41.733Z</time>
      </trkpt>
      <trkpt lat="44.03167" lon="5.79016">
        <ele>612.43737792969</ele>
        <time>2020-10-22T20:54:58.143Z</time>
      </trkpt>
      <trkpt lat="44.03167" lon="5.79021">
        <ele>612.67736816406</ele>
        <time>2020-10-22T20:55:14.554Z</time>
      </trkpt>
      <trkpt lat="44.03193" lon="5.79103">
        <ele>616.27264404297</ele>
        <time>2020-10-22T20:55:30.986Z</time>
      </trkpt>
      <trkpt lat="44.03198" lon="5.79108">
        <ele>616.27264404297</ele>
        <time>2020-10-22T20:55:47.420Z</time>
      </trkpt>
      <trkpt lat="44.03216" lon="5.79169">
        <ele>618.38726806641</ele>
        <time>2020-10-22T20:56:03.870Z</time>
      </trkpt>
      <trkpt lat="44.03214" lon="5.79251">
        <ele>625.15289306641</ele>
        <time>2020-10-22T20:56:20.340Z</time>
      </trkpt>
      <trkpt lat="44.03206" lon="5.79278">
        <ele>627.732421875</ele>
        <time>2020-10-22T20:56:36.817Z</time>
      </trkpt>
      <trkpt lat="44.03199" lon="5.79292">
        <ele>629.41217041016</ele>
        <time>2020-10-22T20:56:53.298Z</time>
      </trkpt>
      <trkpt lat="44.03189" lon="5.79297">
        <ele>631.49114990234</ele>
        <time>2020-10-22T20:57:09.783Z</time>
      </trkpt>
      <trkpt lat="44.03184" lon="5.79305">
        <ele>633.85961914062</ele>
        <time>2020-10-22T20:57:26.270Z</time>
      </trkpt>
      <trkpt lat="44.03186" lon="5.7931">
        <ele>633.16375732422</ele>
        <time>2020-10-22T20:57:42.759Z</time>
      </trkpt>
      <trkpt lat="44.03118" lon="5.79454">
        <ele>647.06225585938</ele>
        <time>2020-10-22T20:57:59.289Z</time>
      </trkpt>
      <trkpt lat="44.03095" lon="5.79497">
        <ele>650.57708740234</ele>
        <time>2020-10-22T20:58:15.832Z</time>
      </trkpt>
      <trkpt lat="44.03068" lon="5.7954">
        <ele>654.81970214844</ele>
        <time>2020-10-22T20:58:32.389Z</time>
      </trkpt>
      <trkpt lat="44.02972" lon="5.79652">
        <ele>657.65771484375</ele>
        <time>2020-10-22T20:58:48.987Z</time>
      </trkpt>
      <trkpt lat="44.02967" lon="5.79656">
        <ele>657.84973144531</ele>
        <time>2020-10-22T20:59:05.587Z</time>
      </trkpt>
      <trkpt lat="44.02929" lon="5.7964">
        <ele>656.09234619141</ele>
        <time>2020-10-22T20:59:22.201Z</time>
      </trkpt>
      <trkpt lat="44.02924" lon="5.79641">
        <ele>655.75640869141</ele>
        <time>2020-10-22T20:59:38.816Z</time>
      </trkpt>
      <trkpt lat="44.0292" lon="5.79648">
        <ele>655.63641357422</ele>
        <time>2020-10-22T20:59:55.433Z</time>
      </trkpt>
      <trkpt lat="44.02913" lon="5.7967">
        <ele>655.66040039062</ele>
        <time>2020-10-22T21:00:12.056Z</time>
      </trkpt>
      <trkpt lat="44.02904" lon="5.79718">
        <ele>657.82171630859</ele>
        <time>2020-10-22T21:00:28.691Z</time>
      </trkpt>
      <trkpt lat="44.02895" lon="5.79735">
        <ele>659.15008544922</ele>
        <time>2020-10-22T21:00:45.331Z</time>
      </trkpt>
      <trkpt lat="44.02891" lon="5.79739">
        <ele>659.43804931641</ele>
        <time>2020-10-22T21:01:01.973Z</time>
      </trkpt>
      <trkpt lat="44.0288" lon="5.79757">
        <ele>660.39111328125</ele>
        <time>2020-10-22T21:01:18.621Z</time>
      </trkpt>
      <trkpt lat="44.02872" lon="5.7978">
        <ele>661.29095458984</ele>
        <time>2020-10-22T21:01:35.275Z</time>
      </trkpt>
      <trkpt lat="44.02863" lon="5.79789">
        <ele>661.29095458984</ele>
        <time>2020-10-22T21:01:51.932Z</time>
      </trkpt>
      <trkpt lat="44.02844" lon="5.79797">
        <ele>659.94696044922</ele>
        <time>2020-10-22T21:02:08.596Z</time>
      </trkpt>
      <trkpt lat="44.02816" lon="5.79802">
        <ele>656.3115234375</ele>
        <time>2020-10-22T21:02:25.269Z</time>
      </trkpt>
      <trkpt lat="44.02808" lon="5.79801">
        <ele>655.24371337891</ele>
        <time>2020-10-22T21:02:41.945Z</time>
      </trkpt>
      <trkpt lat="44.02767" lon="5.79773">
        <ele>649.49670410156</ele>
        <time>2020-10-22T21:02:58.636Z</time>
      </trkpt>
      <trkpt lat="44.0275" lon="5.79754">
        <ele>647.02508544922</ele>
        <time>2020-10-22T21:03:15.335Z</time>
      </trkpt>
      <trkpt lat="44.02745" lon="5.79753">
        <ele>646.35321044922</ele>
        <time>2020-10-22T21:03:32.035Z</time>
      </trkpt>
      <trkpt lat="44.02724" lon="5.79757">
        <ele>643.67156982422</ele>
        <time>2020-10-22T21:03:48.742Z</time>
      </trkpt>
      <trkpt lat="44.02708" lon="5.79755">
        <ele>641.70391845703</ele>
        <time>2020-10-22T21:04:05.455Z</time>
      </trkpt>
      <trkpt lat="44.027" lon="5.79757">
        <ele>640.79205322266</ele>
        <time>2020-10-22T21:04:22.170Z</time>
      </trkpt>
      <trkpt lat="44.02694" lon="5.79761">
        <ele>640.16815185547</ele>
        <time>2020-10-22T21:04:38.888Z</time>
      </trkpt>
      <trkpt lat="44.02682" lon="5.798">
        <ele>642.40313720703</ele>
        <time>2020-10-22T21:04:55.616Z</time>
      </trkpt>
      <trkpt lat="44.02677" lon="5.79801">
        <ele>643.30297851562</ele>
        <time>2020-10-22T21:05:12.346Z</time>
      </trkpt>
      <trkpt lat="44.02669" lon="5.79808">
        <ele>645.46405029297</ele>
        <time>2020-10-22T21:05:29.079Z</time>
      </trkpt>
      <trkpt lat="44.0266" lon="5.79823">
        <ele>649.85534667969</ele>
        <time>2020-10-22T21:05:45.816Z</time>
      </trkpt>
      <trkpt lat="44.02659" lon="5.79831">
        <ele>651.55908203125</ele>
        <time>2020-10-22T21:06:02.555Z</time>
      </trkpt>
      <trkpt lat="44.02647" lon="5.79827">
        <ele>652.80682373047</ele>
        <time>2020-10-22T21:06:19.298Z</time>
      </trkpt>
      <trkpt lat="44.02598" lon="5.79736">
        <ele>653.06176757812</ele>
        <time>2020-10-22T21:06:36.069Z</time>
      </trkpt>
      <trkpt lat="44.02602" lon="5.79693">
        <ele>647.62231445312</ele>
        <time>2020-10-22T21:06:52.850Z</time>
      </trkpt>
      <trkpt lat="44.02578" lon="5.7965">
        <ele>646.20654296875</ele>
        <time>2020-10-22T21:07:09.644Z</time>
      </trkpt>
      <trkpt lat="44.02571" lon="5.7961">
        <ele>640.8017578125</ele>
        <time>2020-10-22T21:07:26.448Z</time>
      </trkpt>
      <trkpt lat="44.02534" lon="5.79571">
        <ele>639.55395507812</ele>
        <time>2020-10-22T21:07:43.268Z</time>
      </trkpt>
      <trkpt lat="44.02517" lon="5.79536">
        <ele>635.55102539062</ele>
        <time>2020-10-22T21:08:00.098Z</time>
      </trkpt>
      <trkpt lat="44.025" lon="5.79509">
        <ele>632.35955810547</ele>
        <time>2020-10-22T21:08:16.936Z</time>
      </trkpt>
      <trkpt lat="44.02462" lon="5.79491">
        <ele>631.83166503906</ele>
        <time>2020-10-22T21:08:33.788Z</time>
      </trkpt>
      <trkpt lat="44.02439" lon="5.79497">
        <ele>633.10607910156</ele>
        <time>2020-10-22T21:08:50.648Z</time>
      </trkpt>
      <trkpt lat="44.02453" lon="5.79509">
        <ele>633.58978271484</ele>
        <time>2020-10-22T21:09:07.513Z</time>
      </trkpt>
      <trkpt lat="44.0247" lon="5.79506">
        <ele>633.30181884766</ele>
        <time>2020-10-22T21:09:24.384Z</time>
      </trkpt>
      <trkpt lat="44.02486" lon="5.79515">
        <ele>634.13531494141</ele>
        <time>2020-10-22T21:09:41.261Z</time>
      </trkpt>
      <trkpt lat="44.02497" lon="5.7953">
        <ele>635.60546875</ele>
        <time>2020-10-22T21:09:58.143Z</time>
      </trkpt>
      <trkpt lat="44.02506" lon="5.7956">
        <ele>638.90930175781</ele>
        <time>2020-10-22T21:10:15.033Z</time>
      </trkpt>
      <trkpt lat="44.0249" lon="5.79592">
        <ele>644.66833496094</ele>
        <time>2020-10-22T21:10:31.932Z</time>
      </trkpt>
      <trkpt lat="44.02523" lon="5.7964">
        <ele>653.22784423828</ele>
        <time>2020-10-22T21:10:48.847Z</time>
      </trkpt>
      <trkpt lat="44.02524" lon="5.79667">
        <ele>657.787109375</ele>
        <time>2020-10-22T21:11:05.768Z</time>
      </trkpt>
      <trkpt lat="44.0252" lon="5.79689">
        <ele>661.38653564453</ele>
        <time>2020-10-22T21:11:22.695Z</time>
      </trkpt>
      <trkpt lat="44.02503" lon="5.79702">
        <ele>663.39727783203</ele>
        <time>2020-10-22T21:11:39.628Z</time>
      </trkpt>
      <trkpt lat="44.0249" lon="5.79805">
        <ele>677.10174560547</ele>
        <time>2020-10-22T21:11:56.586Z</time>
      </trkpt>
      <trkpt lat="44.02472" lon="5.79833">
        <ele>677.34167480469</ele>
        <time>2020-10-22T21:12:13.553Z</time>
      </trkpt>
      <trkpt lat="44.02439" lon="5.79879">
        <ele>682.48388671875</ele>
        <time>2020-10-22T21:12:30.536Z</time>
      </trkpt>
      <trkpt lat="44.02418" lon="5.79902">
        <ele>685.31372070312</ele>
        <time>2020-10-22T21:12:47.528Z</time>
      </trkpt>
      <trkpt lat="44.02386" lon="5.79957">
        <ele>691.64282226562</ele>
        <time>2020-10-22T21:13:04.537Z</time>
      </trkpt>
      <trkpt lat="44.02375" lon="5.79991">
        <ele>695.14971923828</ele>
        <time>2020-10-22T21:13:21.555Z</time>
      </trkpt>
      <trkpt lat="44.02395" lon="5.80009">
        <ele>687.95086669922</ele>
        <time>2020-10-22T21:13:38.581Z</time>
      </trkpt>
      <trkpt lat="44.02405" lon="5.80021">
        <ele>684.35150146484</ele>
        <time>2020-10-22T21:13:55.611Z</time>
      </trkpt>
      <trkpt lat="44.02407" lon="5.80037">
        <ele>683.63159179688</ele>
        <time>2020-10-22T21:14:12.645Z</time>
      </trkpt>
      <trkpt lat="44.02392" lon="5.80082">
        <ele>689.67785644531</ele>
        <time>2020-10-22T21:14:29.691Z</time>
      </trkpt>
      <trkpt lat="44.02389" lon="5.801">
        <ele>689.24749755859</ele>
        <time>2020-10-22T21:14:46.742Z</time>
      </trkpt>
      <trkpt lat="44.02393" lon="5.80174">
        <ele>686.08215332031</ele>
        <time>2020-10-22T21:15:03.810Z</time>
      </trkpt>
      <trkpt lat="44.02395" lon="5.80188">
        <ele>684.30645751953</ele>
        <time>2020-10-22T21:15:20.882Z</time>
      </trkpt>
      <trkpt lat="44.024" lon="5.80196">
        <ele>683.10668945312</ele>
        <time>2020-10-22T21:15:37.956Z</time>
      </trkpt>
      <trkpt lat="44.02413" lon="5.80199">
        <ele>682.12286376953</ele>
        <time>2020-10-22T21:15:55.035Z</time>
      </trkpt>
      <trkpt lat="44.02425" lon="5.80187">
        <ele>679.81353759766</ele>
        <time>2020-10-22T21:16:12.119Z</time>
      </trkpt>
      <trkpt lat="44.02442" lon="5.80148">
        <ele>673.59857177734</ele>
        <time>2020-10-22T21:16:29.214Z</time>
      </trkpt>
      <trkpt lat="44.02448" lon="5.80139">
        <ele>673.83172607422</ele>
        <time>2020-10-22T21:16:46.312Z</time>
      </trkpt>
      <trkpt lat="44.02452" lon="5.80136">
        <ele>674.25036621094</ele>
        <time>2020-10-22T21:17:03.411Z</time>
      </trkpt>
      <trkpt lat="44.02465" lon="5.80134">
        <ele>675.91809082031</ele>
        <time>2020-10-22T21:17:20.514Z</time>
      </trkpt>
      <trkpt lat="44.02479" lon="5.80128">
        <ele>677.62176513672</ele>
        <time>2020-10-22T21:17:37.622Z</time>
      </trkpt>
      <trkpt lat="44.02491" lon="5.80117">
        <ele>678.94158935547</ele>
        <time>2020-10-22T21:17:54.735Z</time>
      </trkpt>
      <trkpt lat="44.02506" lon="5.80108">
        <ele>678.99938964844</ele>
        <time>2020-10-22T21:18:11.854Z</time>
      </trkpt>
      <trkpt lat="44.02517" lon="5.80099">
        <ele>677.11566162109</ele>
        <time>2020-10-22T21:18:28.977Z</time>
      </trkpt>
      <trkpt lat="44.02536" lon="5.80081">
        <ele>675.32061767578</ele>
        <time>2020-10-22T21:18:46.108Z</time>
      </trkpt>
      <trkpt lat="44.02545" lon="5.80078">
        <ele>676.18444824219</ele>
        <time>2020-10-22T21:19:03.242Z</time>
      </trkpt>
      <trkpt lat="44.02549" lon="5.80078">
        <ele>676.79418945312</ele>
        <time>2020-10-22T21:19:20.377Z</time>
      </trkpt>
      <trkpt lat="44.02566" lon="5.80085">
        <ele>680.46557617188</ele>
        <time>2020-10-22T21:19:37.518Z</time>
      </trkpt>
      <trkpt lat="44.02589" lon="5.80102">
        <ele>686.96850585938</ele>
        <time>2020-10-22T21:19:54.668Z</time>
      </trkpt>
      <trkpt lat="44.02595" lon="5.80104">
        <ele>688.16833496094</ele>
        <time>2020-10-22T21:20:11.820Z</time>
      </trkpt>
      <trkpt lat="44.02602" lon="5.80102">
        <ele>688.68420410156</ele>
        <time>2020-10-22T21:20:28.974Z</time>
      </trkpt>
      <trkpt lat="44.02607" lon="5.8011">
        <ele>690.97583007812</ele>
        <time>2020-10-22T21:20:46.131Z</time>
      </trkpt>
      <trkpt lat="44.02611" lon="5.80113">
        <ele>691.82373046875</ele>
        <time>2020-10-22T21:21:03.289Z</time>
      </trkpt>
      <trkpt lat="44.02635" lon="5.80123">
        <ele>693.86340332031</ele>
        <time>2020-10-22T21:21:20.455Z</time>
      </trkpt>
      <trkpt lat="44.02641" lon="5.8013">
        <ele>695.29113769531</ele>
        <time>2020-10-22T21:21:37.624Z</time>
      </trkpt>
      <trkpt lat="44.02643" lon="5.80136">
        <ele>696.51495361328</ele>
        <time>2020-10-22T21:21:54.795Z</time>
      </trkpt>
      <trkpt lat="44.0267" lon="5.80142">
        <ele>697.4345703125</ele>
        <time>2020-10-22T21:22:11.975Z</time>
      </trkpt>
      <trkpt lat="44.02676" lon="5.80144">
        <ele>697.67449951172</ele>
        <time>2020-10-22T21:22:29.157Z</time>
      </trkpt>
      <trkpt lat="44.02681" lon="5.80148">
        <ele>698.15441894531</ele>
        <time>2020-10-22T21:22:46.341Z</time>
      </trkpt>
      <trkpt lat="44.02683" lon="5.80158">
        <ele>699.35424804688</ele>
        <time>2020-10-22T21:23:03.527Z</time>
      </trkpt>
      <trkpt lat="44.0269" lon="5.80164">
        <ele>700.07409667969</ele>
        <time>2020-10-22T21:23:20.716Z</time>
      </trkpt>
      <trkpt lat="44.02696" lon="5.80176">
        <ele>700.54016113281</ele>
        <time>2020-10-22T21:23:37.908Z</time>
      </trkpt>
      <trkpt lat="44.02698" lon="5.80192">
        <ele>701.95593261719</ele>
        <time>2020-10-22T21:23:55.104Z</time>
      </trkpt>
      <trkpt lat="44.02707" lon="5.80219">
        <ele>702.927734375</ele>
        <time>2020-10-22T21:24:12.308Z</time>
      </trkpt>
      <trkpt lat="44.02705" lon="5.80294">
        <ele>703.91296386719</ele>
        <time>2020-10-22T21:24:29.530Z</time>
      </trkpt>
      <trkpt lat="44.02703" lon="5.80305">
        <ele>704.39288330078</ele>
        <time>2020-10-22T21:24:46.754Z</time>
      </trkpt>
      <trkpt lat="44.02706" lon="5.80339">
        <ele>705.80035400391</ele>
        <time>2020-10-22T21:25:03.987Z</time>
      </trkpt>
      <trkpt lat="44.027" lon="5.80363">
        <ele>708.17590332031</ele>
        <time>2020-10-22T21:25:21.226Z</time>
      </trkpt>
      <trkpt lat="44.02704" lon="5.80375">
        <ele>707.93597412109</ele>
        <time>2020-10-22T21:25:38.468Z</time>
      </trkpt>
      <trkpt lat="44.027" lon="5.80381">
        <ele>709.03979492188</ele>
        <time>2020-10-22T21:25:55.712Z</time>
      </trkpt>
      <trkpt lat="44.02699" lon="5.80389">
        <ele>709.66247558594</ele>
        <time>2020-10-22T21:26:12.958Z</time>
      </trkpt>
      <trkpt lat="44.02719" lon="5.80399">
        <ele>706.66302490234</ele>
        <time>2020-10-22T21:26:30.211Z</time>
      </trkpt>
      <trkpt lat="44.02726" lon="5.80394">
        <ele>704.6953125</ele>
        <time>2020-10-22T21:26:47.466Z</time>
      </trkpt>
      <trkpt lat="44.0273" lon="5.80395">
        <ele>703.98742675781</ele>
        <time>2020-10-22T21:27:04.723Z</time>
      </trkpt>
      <trkpt lat="44.02733" lon="5.80409">
        <ele>704.88726806641</ele>
        <time>2020-10-22T21:27:21.983Z</time>
      </trkpt>
      <trkpt lat="44.02739" lon="5.80419">
        <ele>704.74334716797</ele>
        <time>2020-10-22T21:27:39.246Z</time>
      </trkpt>
      <trkpt lat="44.0274" lon="5.80432">
        <ele>705.94311523438</ele>
        <time>2020-10-22T21:27:56.513Z</time>
      </trkpt>
      <trkpt lat="44.02753" lon="5.80438">
        <ele>703.939453125</ele>
        <time>2020-10-22T21:28:13.784Z</time>
      </trkpt>
      <trkpt lat="44.02759" lon="5.80462">
        <ele>705.06549072266</ele>
        <time>2020-10-22T21:28:31.061Z</time>
      </trkpt>
      <trkpt lat="44.02766" lon="5.80475">
        <ele>704.82556152344</ele>
        <time>2020-10-22T21:28:48.342Z</time>
      </trkpt>
      <trkpt lat="44.02773" lon="5.80484">
        <ele>704.29760742188</ele>
        <time>2020-10-22T21:29:05.626Z</time>
      </trkpt>
      <trkpt lat="44.02773" lon="5.80496">
        <ele>705.16149902344</ele>
        <time>2020-10-22T21:29:22.913Z</time>
      </trkpt>
      <trkpt lat="44.0277" lon="5.80511">
        <ele>706.74523925781</ele>
        <time>2020-10-22T21:29:40.204Z</time>
      </trkpt>
      <trkpt lat="44.02765" lon="5.80524">
        <ele>708.52093505859</ele>
        <time>2020-10-22T21:29:57.499Z</time>
      </trkpt>
      <trkpt lat="44.02756" lon="5.80533">
        <ele>710.68054199219</ele>
        <time>2020-10-22T21:30:14.797Z</time>
      </trkpt>
      <trkpt lat="44.02756" lon="5.80536">
        <ele>710.90979003906</ele>
        <time>2020-10-22T21:30:32.096Z</time>
      </trkpt>
      <trkpt lat="44.02766" lon="5.80549">
        <ele>710.27392578125</ele>
        <time>2020-10-22T21:30:49.400Z</time>
      </trkpt>
      <trkpt lat="44.02774" lon="5.80553">
        <ele>709.09680175781</ele>
        <time>2020-10-22T21:31:06.706Z</time>
      </trkpt>
      <trkpt lat="44.02779" lon="5.80552">
        <ele>708.69140625</ele>
        <time>2020-10-22T21:31:24.014Z</time>
      </trkpt>
      <trkpt lat="44.02782" lon="5.80549">
        <ele>708.40344238281</ele>
        <time>2020-10-22T21:31:41.323Z</time>
      </trkpt>
      <trkpt lat="44.02784" lon="5.80543">
        <ele>707.92352294922</ele>
        <time>2020-10-22T21:31:58.634Z</time>
      </trkpt>
      <trkpt lat="44.02786" lon="5.80541">
        <ele>707.73156738281</ele>
        <time>2020-10-22T21:32:15.946Z</time>
      </trkpt>
      <trkpt lat="44.02788" lon="5.80542">
        <ele>707.75555419922</ele>
        <time>2020-10-22T21:32:33.258Z</time>
      </trkpt>
      <trkpt lat="44.02789" lon="5.80549">
        <ele>708.23547363281</ele>
        <time>2020-10-22T21:32:50.572Z</time>
      </trkpt>
      <trkpt lat="44.02796" lon="5.80565">
        <ele>708.74487304688</ele>
        <time>2020-10-22T21:33:07.891Z</time>
      </trkpt>
      <trkpt lat="44.02797" lon="5.80584">
        <ele>710.06085205078</ele>
        <time>2020-10-22T21:33:25.214Z</time>
      </trkpt>
      <trkpt lat="44.02825" lon="5.80604">
        <ele>708.98486328125</ele>
        <time>2020-10-22T21:33:42.548Z</time>
      </trkpt>
      <trkpt lat="44.02837" lon="5.80632">
        <ele>711.21270751953</ele>
        <time>2020-10-22T21:33:59.890Z</time>
      </trkpt>
      <trkpt lat="44.02854" lon="5.80712">
        <ele>714.9892578125</ele>
        <time>2020-10-22T21:34:17.252Z</time>
      </trkpt>
      <trkpt lat="44.02888" lon="5.80748">
        <ele>719.40686035156</ele>
        <time>2020-10-22T21:34:34.628Z</time>
      </trkpt>
      <trkpt lat="44.02919" lon="5.80792">
        <ele>726.30871582031</ele>
        <time>2020-10-22T21:34:52.019Z</time>
      </trkpt>
      <trkpt lat="44.02928" lon="5.80819">
        <ele>728.34417724609</ele>
        <time>2020-10-22T21:35:09.417Z</time>
      </trkpt>
      <trkpt lat="44.02932" lon="5.80851">
        <ele>727.81628417969</ele>
        <time>2020-10-22T21:35:26.823Z</time>
      </trkpt>
      <trkpt lat="44.02917" lon="5.8086">
        <ele>728.24822998047</ele>
        <time>2020-10-22T21:35:44.234Z</time>
      </trkpt>
      <trkpt lat="44.02916" lon="5.80939">
        <ele>729.87121582031</ele>
        <time>2020-10-22T21:36:01.664Z</time>
      </trkpt>
      <trkpt lat="44.02928" lon="5.80993">
        <ele>726.44995117188</ele>
        <time>2020-10-22T21:36:19.108Z</time>
      </trkpt>
      <trkpt lat="44.02941" lon="5.81068">
        <ele>720.96887207031</ele>
        <time>2020-10-22T21:36:36.570Z</time>
      </trkpt>
      <trkpt lat="44.02965" lon="5.81098">
        <ele>715.70098876953</ele>
        <time>2020-10-22T21:36:54.043Z</time>
      </trkpt>
      <trkpt lat="44.02985" lon="5.81091">
        <ele>714.28472900391</ele>
        <time>2020-10-22T21:37:11.523Z</time>
      </trkpt>
      <trkpt lat="44.03039" lon="5.81115">
        <ele>707.69494628906</ele>
        <time>2020-10-22T21:37:29.022Z</time>
      </trkpt>
      <trkpt lat="44.03069" lon="5.81149">
        <ele>705.12188720703</ele>
        <time>2020-10-22T21:37:46.534Z</time>
      </trkpt>
      <trkpt lat="44.03163" lon="5.81201">
        <ele>696.20861816406</ele>
        <time>2020-10-22T21:38:04.079Z</time>
      </trkpt>
      <trkpt lat="44.03184" lon="5.81203">
        <ele>693.50854492188</ele>
        <time>2020-10-22T21:38:21.631Z</time>
      </trkpt>
      <trkpt lat="44.03189" lon="5.8122">
        <ele>692.42919921875</ele>
        <time>2020-10-22T21:38:39.188Z</time>
      </trkpt>
      <trkpt lat="44.03198" lon="5.81237">
        <ele>688.94989013672</ele>
        <time>2020-10-22T21:38:56.750Z</time>
      </trkpt>
      <trkpt lat="44.03218" lon="5.81235">
        <ele>686.25402832031</ele>
        <time>2020-10-22T21:39:14.319Z</time>
      </trkpt>
      <trkpt lat="44.03232" lon="5.81201">
        <ele>685.56848144531</ele>
        <time>2020-10-22T21:39:31.897Z</time>
      </trkpt>
      <trkpt lat="44.03191" lon="5.81149">
        <ele>693.06463623047</ele>
        <time>2020-10-22T21:39:49.494Z</time>
      </trkpt>
      <trkpt lat="44.03262" lon="5.81025">
        <ele>703.28521728516</ele>
        <time>2020-10-22T21:40:07.129Z</time>
      </trkpt>
      <trkpt lat="44.03279" lon="5.81005">
        <ele>706.63629150391</ele>
        <time>2020-10-22T21:40:24.771Z</time>
      </trkpt>
      <trkpt lat="44.03383" lon="5.81104">
        <ele>692.55944824219</ele>
        <time>2020-10-22T21:40:42.455Z</time>
      </trkpt>
      <trkpt lat="44.03424" lon="5.81138">
        <ele>693.24334716797</ele>
        <time>2020-10-22T21:41:00.155Z</time>
      </trkpt>
      <trkpt lat="44.03488" lon="5.81206">
        <ele>696.37133789062</ele>
        <time>2020-10-22T21:41:17.882Z</time>
      </trkpt>
      <trkpt lat="44.03532" lon="5.81246">
        <ele>697.72766113281</ele>
        <time>2020-10-22T21:41:35.626Z</time>
      </trkpt>
      <trkpt lat="44.03673" lon="5.81331">
        <ele>666.39447021484</ele>
        <time>2020-10-22T21:41:53.422Z</time>
      </trkpt>
      <trkpt lat="44.03671" lon="5.813">
        <ele>669.4482421875</ele>
        <time>2020-10-22T21:42:11.225Z</time>
      </trkpt>
      <trkpt lat="44.03689" lon="5.81271">
        <ele>667.48956298828</ele>
        <time>2020-10-22T21:42:29.037Z</time>
      </trkpt>
      <trkpt lat="44.03687" lon="5.81246">
        <ele>670.66900634766</ele>
        <time>2020-10-22T21:42:46.855Z</time>
      </trkpt>
      <trkpt lat="44.03698" lon="5.8123">
        <ele>670.85101318359</ele>
        <time>2020-10-22T21:43:04.679Z</time>
      </trkpt>
      <trkpt lat="44.03709" lon="5.81199">
        <ele>672.49761962891</ele>
        <time>2020-10-22T21:43:22.511Z</time>
      </trkpt>
      <trkpt lat="44.03696" lon="5.81172">
        <ele>674.26129150391</ele>
        <time>2020-10-22T21:43:40.351Z</time>
      </trkpt>
      <trkpt lat="44.03746" lon="5.81148">
        <ele>675.20587158203</ele>
        <time>2020-10-22T21:43:58.208Z</time>
      </trkpt>
      <trkpt lat="44.03766" lon="5.81153">
        <ele>674.78594970703</ele>
        <time>2020-10-22T21:44:16.072Z</time>
      </trkpt>
      <trkpt lat="44.03804" lon="5.81157">
        <ele>674.552734375</ele>
        <time>2020-10-22T21:44:33.949Z</time>
      </trkpt>
      <trkpt lat="44.03837" lon="5.81095">
        <ele>672.66241455078</ele>
        <time>2020-10-22T21:44:51.844Z</time>
      </trkpt>
      <trkpt lat="44.03876" lon="5.81">
        <ele>657.55456542969</ele>
        <time>2020-10-22T21:45:09.766Z</time>
      </trkpt>
      <trkpt lat="44.03887" lon="5.81012">
        <ele>658.23840332031</ele>
        <time>2020-10-22T21:45:27.692Z</time>
      </trkpt>
      <trkpt lat="44.03907" lon="5.81023">
        <ele>657.79449462891</ele>
        <time>2020-10-22T21:45:45.626Z</time>
      </trkpt>
      <trkpt lat="44.03946" lon="5.81022">
        <ele>652.14459228516</ele>
        <time>2020-10-22T21:46:03.573Z</time>
      </trkpt>
      <trkpt lat="44.03981" lon="5.81018">
        <ele>646.75750732422</ele>
        <time>2020-10-22T21:46:21.531Z</time>
      </trkpt>
      <trkpt lat="44.04031" lon="5.81015">
        <ele>639.49169921875</ele>
        <time>2020-10-22T21:46:39.506Z</time>
      </trkpt>
      <trkpt lat="44.04077" lon="5.81101">
        <ele>637.88598632812</ele>
        <time>2020-10-22T21:46:57.507Z</time>
      </trkpt>
      <trkpt lat="44.04085" lon="5.81135">
        <ele>640.79449462891</ele>
        <time>2020-10-22T21:47:15.516Z</time>
      </trkpt>
      <trkpt lat="44.04113" lon="5.81176">
        <ele>635.94506835938</ele>
        <time>2020-10-22T21:47:33.539Z</time>
      </trkpt>
      <trkpt lat="44.04131" lon="5.81232">
        <ele>637.34527587891</ele>
        <time>2020-10-22T21:47:51.577Z</time>
      </trkpt>
      <trkpt lat="44.04147" lon="5.81251">
        <ele>633.0859375</ele>
        <time>2020-10-22T21:48:09.622Z</time>
      </trkpt>
      <trkpt lat="44.04153" lon="5.81316">
        <ele>635.86322021484</ele>
        <time>2020-10-22T21:48:27.682Z</time>
      </trkpt>
      <trkpt lat="44.04145" lon="5.81399">
        <ele>632.83837890625</ele>
        <time>2020-10-22T21:48:45.763Z</time>
      </trkpt>
      <trkpt lat="44.0415" lon="5.8147">
        <ele>623.9296875</ele>
        <time>2020-10-22T21:49:03.861Z</time>
      </trkpt>
      <trkpt lat="44.04128" lon="5.81515">
        <ele>621.76092529297</ele>
        <time>2020-10-22T21:49:21.972Z</time>
      </trkpt>
      <trkpt lat="44.04116" lon="5.81555">
        <ele>613.89019775391</ele>
        <time>2020-10-22T21:49:40.093Z</time>
      </trkpt>
      <trkpt lat="44.04075" lon="5.81594">
        <ele>622.56091308594</ele>
        <time>2020-10-22T21:49:58.231Z</time>
      </trkpt>
      <trkpt lat="44.04055" lon="5.8162">
        <ele>621.49127197266</ele>
        <time>2020-10-22T21:50:16.378Z</time>
      </trkpt>
      <trkpt lat="44.04034" lon="5.81656">
        <ele>622.59777832031</ele>
        <time>2020-10-22T21:50:34.536Z</time>
      </trkpt>
      <trkpt lat="44.04002" lon="5.81681">
        <ele>626.80603027344</ele>
        <time>2020-10-22T21:50:52.706Z</time>
      </trkpt>
      <trkpt lat="44.03986" lon="5.81712">
        <ele>626.71661376953</ele>
        <time>2020-10-22T21:51:10.885Z</time>
      </trkpt>
      <trkpt lat="44.03961" lon="5.81768">
        <ele>626.88000488281</ele>
        <time>2020-10-22T21:51:29.080Z</time>
      </trkpt>
      <trkpt lat="44.03924" lon="5.81813">
        <ele>628.29675292969</ele>
        <time>2020-10-22T21:51:47.292Z</time>
      </trkpt>
      <trkpt lat="44.03832" lon="5.8177">
        <ele>624.62872314453</ele>
        <time>2020-10-22T21:52:05.536Z</time>
      </trkpt>
      <trkpt lat="44.03821" lon="5.81758">
        <ele>624.18475341797</ele>
        <time>2020-10-22T21:52:23.785Z</time>
      </trkpt>
      <trkpt lat="44.038" lon="5.8175">
        <ele>624.05279541016</ele>
        <time>2020-10-22T21:52:42.041Z</time>
      </trkpt>
      <trkpt lat="44.03777" lon="5.81764">
        <ele>625.00067138672</ele>
        <time>2020-10-22T21:53:00.305Z</time>
      </trkpt>
      <trkpt lat="44.03756" lon="5.81768">
        <ele>626.38757324219</ele>
        <time>2020-10-22T21:53:18.576Z</time>
      </trkpt>
      <trkpt lat="44.03708" lon="5.81864">
        <ele>635.17907714844</ele>
        <time>2020-10-22T21:53:36.876Z</time>
      </trkpt>
      <trkpt lat="44.03722" lon="5.8191">
        <ele>641.00207519531</ele>
        <time>2020-10-22T21:53:55.188Z</time>
      </trkpt>
      <trkpt lat="44.03702" lon="5.81966">
        <ele>651.40753173828</ele>
        <time>2020-10-22T21:54:13.515Z</time>
      </trkpt>
      <trkpt lat="44.03672" lon="5.81972">
        <ele>653.72747802734</ele>
        <time>2020-10-22T21:54:31.852Z</time>
      </trkpt>
      <trkpt lat="44.03648" lon="5.81955">
        <ele>651.32788085938</ele>
        <time>2020-10-22T21:54:50.198Z</time>
      </trkpt>
      <trkpt lat="44.03617" lon="5.81947">
        <ele>650.90795898438</ele>
        <time>2020-10-22T21:55:08.554Z</time>
      </trkpt>
      <trkpt lat="44.03591" lon="5.81925">
        <ele>646.32800292969</ele>
        <time>2020-10-22T21:55:26.920Z</time>
      </trkpt>
      <trkpt lat="44.03571" lon="5.81921">
        <ele>644.84020996094</ele>
        <time>2020-10-22T21:55:45.293Z</time>
      </trkpt>
      <trkpt lat="44.03527" lon="5.81932">
        <ele>643.35546875</ele>
        <time>2020-10-22T21:56:03.681Z</time>
      </trkpt>
      <trkpt lat="44.03506" lon="5.81942">
        <ele>644.91351318359</ele>
        <time>2020-10-22T21:56:22.076Z</time>
      </trkpt>
      <trkpt lat="44.03466" lon="5.81949">
        <ele>644.20623779297</ele>
        <time>2020-10-22T21:56:40.485Z</time>
      </trkpt>
      <trkpt lat="44.03481" lon="5.81987">
        <ele>648.83660888672</ele>
        <time>2020-10-22T21:56:58.904Z</time>
      </trkpt>
      <trkpt lat="44.03515" lon="5.82016">
        <ele>654.29571533203</ele>
        <time>2020-10-22T21:57:17.337Z</time>
      </trkpt>
      <trkpt lat="44.03527" lon="5.82038">
        <ele>657.80853271484</ele>
        <time>2020-10-22T21:57:35.776Z</time>
      </trkpt>
      <trkpt lat="44.03556" lon="5.82051">
        <ele>661.61193847656</ele>
        <time>2020-10-22T21:57:54.225Z</time>
      </trkpt>
      <trkpt lat="44.03596" lon="5.82066">
        <ele>667.36437988281</ele>
        <time>2020-10-22T21:58:12.688Z</time>
      </trkpt>
      <trkpt lat="44.0364" lon="5.82071">
        <ele>670.49420166016</ele>
        <time>2020-10-22T21:58:31.166Z</time>
      </trkpt>
      <trkpt lat="44.03678" lon="5.82098">
        <ele>677.69299316406</ele>
        <time>2020-10-22T21:58:49.658Z</time>
      </trkpt>
      <trkpt lat="44.03701" lon="5.82136">
        <ele>685.78826904297</ele>
        <time>2020-10-22T21:59:08.162Z</time>
      </trkpt>
      <trkpt lat="44.03718" lon="5.82168">
        <ele>692.40032958984</ele>
        <time>2020-10-22T21:59:26.676Z</time>
      </trkpt>
      <trkpt lat="44.03737" lon="5.82173">
        <ele>692.42156982422</ele>
        <time>2020-10-22T21:59:45.196Z</time>
      </trkpt>
      <trkpt lat="44.03779" lon="5.82215">
        <ele>699.779296875</ele>
        <time>2020-10-22T22:00:03.733Z</time>
      </trkpt>
      <trkpt lat="44.03839" lon="5.82254">
        <ele>696.32171630859</ele>
        <time>2020-10-22T22:00:22.292Z</time>
      </trkpt>
      <trkpt lat="44.03844" lon="5.82291">
        <ele>698.84722900391</ele>
        <time>2020-10-22T22:00:40.860Z</time>
      </trkpt>
      <trkpt lat="44.03854" lon="5.82322">
        <ele>700.91162109375</ele>
        <time>2020-10-22T22:00:59.437Z</time>
      </trkpt>
      <trkpt lat="44.03848" lon="5.82412">
        <ele>710.23699951172</ele>
        <time>2020-10-22T22:01:18.035Z</time>
      </trkpt>
      <trkpt lat="44.0383" lon="5.82445">
        <ele>717.24835205078</ele>
        <time>2020-10-22T22:01:36.643Z</time>
      </trkpt>
      <trkpt lat="44.03817" lon="5.82575">
        <ele>729.5625</ele>
        <time>2020-10-22T22:01:55.283Z</time>
      </trkpt>
      <trkpt lat="44.0382" lon="5.82693">
        <ele>733.08013916016</ele>
        <time>2020-10-22T22:02:13.951Z</time>
      </trkpt>
      <trkpt lat="44.03811" lon="5.82788">
        <ele>738.67291259766</ele>
        <time>2020-10-22T22:02:32.642Z</time>
      </trkpt>
      <trkpt lat="44.03802" lon="5.82914">
        <ele>742.396484375</ele>
        <time>2020-10-22T22:02:51.364Z</time>
      </trkpt>
      <trkpt lat="44.0378" lon="5.82998">
        <ele>741.73559570312</ele>
        <time>2020-10-22T22:03:10.107Z</time>
      </trkpt>
      <trkpt lat="44.03759" lon="5.83037">
        <ele>737.13403320312</ele>
        <time>2020-10-22T22:03:28.862Z</time>
      </trkpt>
      <trkpt lat="44.03719" lon="5.83067">
        <ele>739.22961425781</ele>
        <time>2020-10-22T22:03:47.632Z</time>
      </trkpt>
      <trkpt lat="44.037" lon="5.83091">
        <ele>740.26623535156</ele>
        <time>2020-10-22T22:04:06.411Z</time>
      </trkpt>
      <trkpt lat="44.03695" lon="5.83118">
        <ele>739.13842773438</ele>
        <time>2020-10-22T22:04:25.196Z</time>
      </trkpt>
      <trkpt lat="44.03668" lon="5.83148">
        <ele>733.91711425781</ele>
        <time>2020-10-22T22:04:43.993Z</time>
      </trkpt>
      <trkpt lat="44.03658" lon="5.83245">
        <ele>725.61791992188</ele>
        <time>2020-10-22T22:05:02.813Z</time>
      </trkpt>
      <trkpt lat="44.03645" lon="5.83455">
        <ele>710.63067626953</ele>
        <time>2020-10-22T22:05:21.684Z</time>
      </trkpt>
      <trkpt lat="44.03566" lon="5.83389">
        <ele>703.74926757812</ele>
        <time>2020-10-22T22:05:40.586Z</time>
      </trkpt>
      <trkpt lat="44.03486" lon="5.83226">
        <ele>699.58721923828</ele>
        <time>2020-10-22T22:05:59.535Z</time>
      </trkpt>
      <trkpt lat="44.03469" lon="5.83182">
        <ele>699.33526611328</ele>
        <time>2020-10-22T22:06:18.496Z</time>
      </trkpt>
      <trkpt lat="44.03435" lon="5.83149">
        <ele>697.72277832031</ele>
        <time>2020-10-22T22:06:37.471Z</time>
      </trkpt>
      <trkpt lat="44.03367" lon="5.8311">
        <ele>699.24945068359</ele>
        <time>2020-10-22T22:06:56.471Z</time>
      </trkpt>
      <trkpt lat="44.0333" lon="5.83102">
        <ele>700.830078125</ele>
        <time>2020-10-22T22:07:15.483Z</time>
      </trkpt>
      <trkpt lat="44.03293" lon="5.83084">
        <ele>702.68933105469</ele>
        <time>2020-10-22T22:07:34.508Z</time>
      </trkpt>
      <trkpt lat="44.03254" lon="5.83054">
        <ele>706.19854736328</ele>
        <time>2020-10-22T22:07:53.548Z</time>
      </trkpt>
      <trkpt lat="44.03229" lon="5.83045">
        <ele>709.35400390625</ele>
        <time>2020-10-22T22:08:12.597Z</time>
      </trkpt>
      <trkpt lat="44.03208" lon="5.83031">
        <ele>712.54547119141</ele>
        <time>2020-10-22T22:08:31.653Z</time>
      </trkpt>
      <trkpt lat="44.03191" lon="5.83008">
        <ele>716.06500244141</ele>
        <time>2020-10-22T22:08:50.717Z</time>
      </trkpt>
      <trkpt lat="44.03165" lon="5.82936">
        <ele>722.04278564453</ele>
        <time>2020-10-22T22:09:09.801Z</time>
      </trkpt>
      <trkpt lat="44.03141" lon="5.8288">
        <ele>725.98815917969</ele>
        <time>2020-10-22T22:09:28.900Z</time>
      </trkpt>
      <trkpt lat="44.03127" lon="5.82863">
        <ele>727.67987060547</ele>
        <time>2020-10-22T22:09:48.006Z</time>
      </trkpt>
      <trkpt lat="44.0312" lon="5.8285">
        <ele>728.79571533203</ele>
        <time>2020-10-22T22:10:07.115Z</time>
      </trkpt>
      <trkpt lat="44.03107" lon="5.82832">
        <ele>730.63415527344</ele>
        <time>2020-10-22T22:10:26.231Z</time>
      </trkpt>
      <trkpt lat="44.03094" lon="5.82825">
        <ele>732.61383056641</ele>
        <time>2020-10-22T22:10:45.351Z</time>
      </trkpt>
      <trkpt lat="44.03077" lon="5.82825">
        <ele>734.65350341797</ele>
        <time>2020-10-22T22:11:04.477Z</time>
      </trkpt>
      <trkpt lat="44.0303" lon="5.82838">
        <ele>735.47631835938</ele>
        <time>2020-10-22T22:11:23.619Z</time>
      </trkpt>
      <trkpt lat="44.02995" lon="5.82844">
        <ele>739.27233886719</ele>
        <time>2020-10-22T22:11:42.773Z</time>
      </trkpt>
      <trkpt lat="44.02962" lon="5.82855">
        <ele>741.14697265625</ele>
        <time>2020-10-22T22:12:01.938Z</time>
      </trkpt>
      <trkpt lat="44.02935" lon="5.82871">
        <ele>739.32177734375</ele>
        <time>2020-10-22T22:12:21.113Z</time>
      </trkpt>
      <trkpt lat="44.02913" lon="5.82851">
        <ele>743.83306884766</ele>
        <time>2020-10-22T22:12:40.297Z</time>
      </trkpt>
      <trkpt lat="44.02888" lon="5.8285">
        <ele>745.87786865234</ele>
        <time>2020-10-22T22:12:59.489Z</time>
      </trkpt>
      <trkpt lat="44.02874" lon="5.82826">
        <ele>750.02917480469</ele>
        <time>2020-10-22T22:13:18.688Z</time>
      </trkpt>
      <trkpt lat="44.02872" lon="5.82777">
        <ele>755.68328857422</ele>
        <time>2020-10-22T22:13:37.899Z</time>
      </trkpt>
      <trkpt lat="44.02822" lon="5.82688">
        <ele>763.61547851562</ele>
        <time>2020-10-22T22:13:57.137Z</time>
      </trkpt>
      <trkpt lat="44.02809" lon="5.82674">
        <ele>765.69116210938</ele>
        <time>2020-10-22T22:14:16.381Z</time>
      </trkpt>
      <trkpt lat="44.02788" lon="5.82683">
        <ele>767.52685546875</ele>
        <time>2020-10-22T22:14:35.632Z</time>
      </trkpt>
      <trkpt lat="44.02764" lon="5.82703">
        <ele>771.22509765625</ele>
        <time>2020-10-22T22:14:54.892Z</time>
      </trkpt>
      <trkpt lat="44.02756" lon="5.8273">
        <ele>773.07751464844</ele>
        <time>2020-10-22T22:15:14.159Z</time>
      </trkpt>
      <trkpt lat="44.0276" lon="5.82766">
        <ele>771.82977294922</ele>
        <time>2020-10-22T22:15:33.435Z</time>
      </trkpt>
      <trkpt lat="44.02756" lon="5.82809">
        <ele>772.01617431641</ele>
        <time>2020-10-22T22:15:52.722Z</time>
      </trkpt>
      <trkpt lat="44.02748" lon="5.82862">
        <ele>772.22790527344</ele>
        <time>2020-10-22T22:16:12.022Z</time>
      </trkpt>
      <trkpt lat="44.02744" lon="5.82906">
        <ele>772.06994628906</ele>
        <time>2020-10-22T22:16:31.332Z</time>
      </trkpt>
      <trkpt lat="44.02722" lon="5.82951">
        <ele>776.52117919922</ele>
        <time>2020-10-22T22:16:50.655Z</time>
      </trkpt>
      <trkpt lat="44.027" lon="5.83037">
        <ele>777.44677734375</ele>
        <time>2020-10-22T22:17:10.000Z</time>
      </trkpt>
      <trkpt lat="44.02684" lon="5.83074">
        <ele>777.73620605469</ele>
        <time>2020-10-22T22:17:29.356Z</time>
      </trkpt>
      <trkpt lat="44.02672" lon="5.8313">
        <ele>773.22155761719</ele>
        <time>2020-10-22T22:17:48.726Z</time>
      </trkpt>
      <trkpt lat="44.02629" lon="5.83173">
        <ele>773.63092041016</ele>
        <time>2020-10-22T22:18:08.113Z</time>
      </trkpt>
      <trkpt lat="44.02588" lon="5.83255">
        <ele>769.95037841797</ele>
        <time>2020-10-22T22:18:27.524Z</time>
      </trkpt>
      <trkpt lat="44.0256" lon="5.83269">
        <ele>774.48565673828</ele>
        <time>2020-10-22T22:18:46.945Z</time>
      </trkpt>
      <trkpt lat="44.02535" lon="5.83357">
        <ele>771.50170898438</ele>
        <time>2020-10-22T22:19:06.389Z</time>
      </trkpt>
      <trkpt lat="44.02524" lon="5.83427">
        <ele>768.87115478516</ele>
        <time>2020-10-22T22:19:25.850Z</time>
      </trkpt>
      <trkpt lat="44.02487" lon="5.83481">
        <ele>770.44470214844</ele>
        <time>2020-10-22T22:19:45.329Z</time>
      </trkpt>
      <trkpt lat="44.02457" lon="5.83506">
        <ele>773.50787353516</ele>
        <time>2020-10-22T22:20:04.820Z</time>
      </trkpt>
      <trkpt lat="44.02424" lon="5.83511">
        <ele>774.33386230469</ele>
        <time>2020-10-22T22:20:24.322Z</time>
      </trkpt>
      <trkpt lat="44.02384" lon="5.83509">
        <ele>770.12927246094</ele>
        <time>2020-10-22T22:20:43.837Z</time>
      </trkpt>
      <trkpt lat="44.02339" lon="5.83498">
        <ele>766.50860595703</ele>
        <time>2020-10-22T22:21:03.368Z</time>
      </trkpt>
      <trkpt lat="44.02294" lon="5.83492">
        <ele>764.62738037109</ele>
        <time>2020-10-22T22:21:22.914Z</time>
      </trkpt>
      <trkpt lat="44.02257" lon="5.83478">
        <ele>763.3603515625</ele>
        <time>2020-10-22T22:21:42.472Z</time>
      </trkpt>
      <trkpt lat="44.02213" lon="5.83473">
        <ele>761.90856933594</ele>
        <time>2020-10-22T22:22:02.045Z</time>
      </trkpt>
      <trkpt lat="44.02122" lon="5.83454">
        <ele>753.69097900391</ele>
        <time>2020-10-22T22:22:21.649Z</time>
      </trkpt>
      <trkpt lat="44.02093" lon="5.83424">
        <ele>751.63439941406</ele>
        <time>2020-10-22T22:22:41.265Z</time>
      </trkpt>
      <trkpt lat="44.02047" lon="5.83348">
        <ele>749.57073974609</ele>
        <time>2020-10-22T22:23:00.905Z</time>
      </trkpt>
      <trkpt lat="44.01991" lon="5.83318">
        <ele>744.95672607422</ele>
        <time>2020-10-22T22:23:20.565Z</time>
      </trkpt>
      <trkpt lat="44.01963" lon="5.83299">
        <ele>743.17236328125</ele>
        <time>2020-10-22T22:23:40.235Z</time>
      </trkpt>
      <trkpt lat="44.01933" lon="5.83287">
        <ele>740.04028320312</ele>
        <time>2020-10-22T22:23:59.915Z</time>
      </trkpt>
      <trkpt lat="44.01906" lon="5.83352">
        <ele>732.34814453125</ele>
        <time>2020-10-22T22:24:19.614Z</time>
      </trkpt>
      <trkpt lat="44.019" lon="5.83359">
        <ele>731.11346435547</ele>
        <time>2020-10-22T22:24:39.315Z</time>
      </trkpt>
      <trkpt lat="44.019" lon="5.83365">
        <ele>730.68151855469</ele>
        <time>2020-10-22T22:24:59.018Z</time>
      </trkpt>
      <trkpt lat="44.01894" lon="5.83378">
        <ele>729.02581787109</ele>
        <time>2020-10-22T22:25:18.724Z</time>
      </trkpt>
      <trkpt lat="44.01888" lon="5.83388">
        <ele>727.58605957031</ele>
        <time>2020-10-22T22:25:38.433Z</time>
      </trkpt>
      <trkpt lat="44.01875" lon="5.83404">
        <ele>724.33172607422</ele>
        <time>2020-10-22T22:25:58.148Z</time>
      </trkpt>
      <trkpt lat="44.01862" lon="5.83417">
        <ele>721.6650390625</ele>
        <time>2020-10-22T22:26:17.869Z</time>
      </trkpt>
      <trkpt lat="44.01845" lon="5.83442">
        <ele>717.10192871094</ele>
        <time>2020-10-22T22:26:37.598Z</time>
      </trkpt>
      <trkpt lat="44.01784" lon="5.83541">
        <ele>702.16510009766</ele>
        <time>2020-10-22T22:26:57.358Z</time>
      </trkpt>
      <trkpt lat="44.01767" lon="5.83573">
        <ele>698.04998779297</ele>
        <time>2020-10-22T22:27:17.128Z</time>
      </trkpt>
      <trkpt lat="44.01738" lon="5.83667">
        <ele>687.279296875</ele>
        <time>2020-10-22T22:27:36.922Z</time>
      </trkpt>
      <trkpt lat="44.0173" lon="5.83688">
        <ele>684.53186035156</ele>
        <time>2020-10-22T22:27:56.722Z</time>
      </trkpt>
      <trkpt lat="44.01716" lon="5.83696">
        <ele>682.51617431641</ele>
        <time>2020-10-22T22:28:16.527Z</time>
      </trkpt>
      <trkpt lat="44.01702" lon="5.83723">
        <ele>678.9296875</ele>
        <time>2020-10-22T22:28:36.340Z</time>
      </trkpt>
      <trkpt lat="44.01693" lon="5.83749">
        <ele>676.20227050781</ele>
        <time>2020-10-22T22:28:56.160Z</time>
      </trkpt>
      <trkpt lat="44.01642" lon="5.83814">
        <ele>670.20141601562</ele>
        <time>2020-10-22T22:29:16.003Z</time>
      </trkpt>
      <trkpt lat="44.0164" lon="5.83819">
        <ele>670.12945556641</ele>
        <time>2020-10-22T22:29:35.847Z</time>
      </trkpt>
      <trkpt lat="44.01643" lon="5.8383">
        <ele>670.23742675781</ele>
        <time>2020-10-22T22:29:55.694Z</time>
      </trkpt>
      <trkpt lat="44.01655" lon="5.83844">
        <ele>670.66937255859</ele>
        <time>2020-10-22T22:30:15.547Z</time>
      </trkpt>
      <trkpt lat="44.0166" lon="5.83854">
        <ele>670.84930419922</ele>
        <time>2020-10-22T22:30:35.402Z</time>
      </trkpt>
      <trkpt lat="44.0166" lon="5.8386">
        <ele>670.60028076172</ele>
        <time>2020-10-22T22:30:55.259Z</time>
      </trkpt>
      <trkpt lat="44.0165" lon="5.83885">
        <ele>667.30078125</ele>
        <time>2020-10-22T22:31:15.123Z</time>
      </trkpt>
      <trkpt lat="44.0164" lon="5.83898">
        <ele>665.54888916016</ele>
        <time>2020-10-22T22:31:34.991Z</time>
      </trkpt>
      <trkpt lat="44.01633" lon="5.83904">
        <ele>664.56506347656</ele>
        <time>2020-10-22T22:31:54.862Z</time>
      </trkpt>
      <trkpt lat="44.01624" lon="5.83928">
        <ele>662.90936279297</ele>
        <time>2020-10-22T22:32:14.740Z</time>
      </trkpt>
      <trkpt lat="44.01612" lon="5.8394">
        <ele>661.181640625</ele>
        <time>2020-10-22T22:32:34.623Z</time>
      </trkpt>
      <trkpt lat="44.01605" lon="5.83951">
        <ele>660.29504394531</ele>
        <time>2020-10-22T22:32:54.509Z</time>
      </trkpt>
      <trkpt lat="44.01599" lon="5.83969">
        <ele>659.27746582031</ele>
        <time>2020-10-22T22:33:14.400Z</time>
      </trkpt>
      <trkpt lat="44.0154" lon="5.84035">
        <ele>654.74011230469</ele>
        <time>2020-10-22T22:33:34.316Z</time>
      </trkpt>
      <trkpt lat="44.01513" lon="5.84057">
        <ele>652.89099121094</ele>
        <time>2020-10-22T22:33:54.243Z</time>
      </trkpt>
      <trkpt lat="44.01497" lon="5.84074">
        <ele>650.52740478516</ele>
        <time>2020-10-22T22:34:14.176Z</time>
      </trkpt>
      <trkpt lat="44.01487" lon="5.84078">
        <ele>649.44757080078</ele>
        <time>2020-10-22T22:34:34.113Z</time>
      </trkpt>
      <trkpt lat="44.01467" lon="5.8408">
        <ele>647.64788818359</ele>
        <time>2020-10-22T22:34:54.056Z</time>
      </trkpt>
      <trkpt lat="44.0146" lon="5.84075">
        <ele>647.38940429688</ele>
        <time>2020-10-22T22:35:14.002Z</time>
      </trkpt>
      <trkpt lat="44.01445" lon="5.84072">
        <ele>646.59753417969</ele>
        <time>2020-10-22T22:35:33.953Z</time>
      </trkpt>
      <trkpt lat="44.01425" lon="5.84076">
        <ele>644.44140625</ele>
        <time>2020-10-22T22:35:53.911Z</time>
      </trkpt>
      <trkpt lat="44.01419" lon="5.8408">
        <ele>643.64953613281</ele>
        <time>2020-10-22T22:36:13.871Z</time>
      </trkpt>
      <trkpt lat="44.01413" lon="5.84088">
        <ele>642.71368408203</ele>
        <time>2020-10-22T22:36:33.834Z</time>
      </trkpt>
      <trkpt lat="44.01395" lon="5.84079">
        <ele>641.09399414062</ele>
        <time>2020-10-22T22:36:53.803Z</time>
      </trkpt>
      <trkpt lat="44.0136" lon="5.84065">
        <ele>638.10223388672</ele>
        <time>2020-10-22T22:37:13.784Z</time>
      </trkpt>
      <trkpt lat="44.01347" lon="5.84062">
        <ele>635.916015625</ele>
        <time>2020-10-22T22:37:33.770Z</time>
      </trkpt>
      <trkpt lat="44.0132" lon="5.8406">
        <ele>631.05682373047</ele>
        <time>2020-10-22T22:37:53.765Z</time>
      </trkpt>
      <trkpt lat="44.01305" lon="5.84064">
        <ele>628.35723876953</ele>
        <time>2020-10-22T22:38:13.765Z</time>
      </trkpt>
      <trkpt lat="44.01282" lon="5.84074">
        <ele>624.77154541016</ele>
        <time>2020-10-22T22:38:33.773Z</time>
      </trkpt>
      <trkpt lat="44.01261" lon="5.84076">
        <ele>621.58367919922</ele>
        <time>2020-10-22T22:38:53.788Z</time>
      </trkpt>
      <trkpt lat="44.01241" lon="5.84082">
        <ele>618.51220703125</ele>
        <time>2020-10-22T22:39:13.810Z</time>
      </trkpt>
      <trkpt lat="44.01204" lon="5.84077">
        <ele>612.05725097656</ele>
        <time>2020-10-22T22:39:33.844Z</time>
      </trkpt>
      <trkpt lat="44.01174" lon="5.84077">
        <ele>608.3056640625</ele>
        <time>2020-10-22T22:39:53.888Z</time>
      </trkpt>
      <trkpt lat="44.01164" lon="5.84082">
        <ele>607.58575439453</ele>
        <time>2020-10-22T22:40:13.936Z</time>
      </trkpt>
      <trkpt lat="44.01162" lon="5.8409">
        <ele>607.77770996094</ele>
        <time>2020-10-22T22:40:33.986Z</time>
      </trkpt>
      <trkpt lat="44.01153" lon="5.84097">
        <ele>607.24981689453</ele>
        <time>2020-10-22T22:40:54.039Z</time>
      </trkpt>
      <trkpt lat="44.01148" lon="5.84096">
        <ele>606.67150878906</ele>
        <time>2020-10-22T22:41:14.094Z</time>
      </trkpt>
      <trkpt lat="44.01135" lon="5.84089">
        <ele>604.72778320312</ele>
        <time>2020-10-22T22:41:34.153Z</time>
      </trkpt>
      <trkpt lat="44.01129" lon="5.84088">
        <ele>603.80395507812</ele>
        <time>2020-10-22T22:41:54.214Z</time>
      </trkpt>
      <trkpt lat="44.01123" lon="5.84083">
        <ele>602.92810058594</ele>
        <time>2020-10-22T22:42:14.278Z</time>
      </trkpt>
      <trkpt lat="44.01114" lon="5.84071">
        <ele>601.66833496094</ele>
        <time>2020-10-22T22:42:34.346Z</time>
      </trkpt>
      <trkpt lat="44.01101" lon="5.84059">
        <ele>600.14642333984</ele>
        <time>2020-10-22T22:42:54.419Z</time>
      </trkpt>
      <trkpt lat="44.01047" lon="5.84072">
        <ele>594.15942382812</ele>
        <time>2020-10-22T22:43:14.510Z</time>
      </trkpt>
      <trkpt lat="44.00996" lon="5.84066">
        <ele>591.7939453125</ele>
        <time>2020-10-22T22:43:34.619Z</time>
      </trkpt>
      <trkpt lat="44.00949" lon="5.84049">
        <ele>588.72528076172</ele>
        <time>2020-10-22T22:43:54.744Z</time>
      </trkpt>
      <trkpt lat="44.00897" lon="5.84004">
        <ele>575.60699462891</ele>
        <time>2020-10-22T22:44:14.889Z</time>
      </trkpt>
      <trkpt lat="44.00843" lon="5.83965">
        <ele>564.28619384766</ele>
        <time>2020-10-22T22:44:35.054Z</time>
      </trkpt>
      <trkpt lat="44.00789" lon="5.83967">
        <ele>561.95861816406</ele>
        <time>2020-10-22T22:44:55.237Z</time>
      </trkpt>
      <trkpt lat="44.00766" lon="5.83961">
        <ele>559.953125</ele>
        <time>2020-10-22T22:45:15.428Z</time>
      </trkpt>
      <trkpt lat="44.00743" lon="5.83946">
        <ele>556.73284912109</ele>
        <time>2020-10-22T22:45:35.628Z</time>
      </trkpt>
      <trkpt lat="44.00711" lon="5.83948">
        <ele>555.89300537109</ele>
        <time>2020-10-22T22:45:55.838Z</time>
      </trkpt>
      <trkpt lat="44.00652" lon="5.83946">
        <ele>551.23773193359</ele>
        <time>2020-10-22T22:46:16.068Z</time>
      </trkpt>
      <trkpt lat="44.00606" lon="5.83935">
        <ele>546.02838134766</ele>
        <time>2020-10-22T22:46:36.314Z</time>
      </trkpt>
      <trkpt lat="44.00558" lon="5.83928">
        <ele>537.83624267578</ele>
        <time>2020-10-22T22:46:56.576Z</time>
      </trkpt>
      <trkpt lat="44.00534" lon="5.83921">
        <ele>533.36102294922</ele>
        <time>2020-10-22T22:47:16.846Z</time>
      </trkpt>
      <trkpt lat="44.00514" lon="5.8391">
        <ele>528.72033691406</ele>
        <time>2020-10-22T22:47:37.123Z</time>
      </trkpt>
      <trkpt lat="44.00504" lon="5.83902">
        <ele>525.93682861328</ele>
        <time>2020-10-22T22:47:57.404Z</time>
      </trkpt>
      <trkpt lat="44.00465" lon="5.83928">
        <ele>527.55328369141</ele>
        <time>2020-10-22T22:48:17.699Z</time>
      </trkpt>
      <trkpt lat="44.00455" lon="5.83887">
        <ele>518.51110839844</ele>
        <time>2020-10-22T22:48:38.005Z</time>
      </trkpt>
      <trkpt lat="44.00479" lon="5.83873">
        <ele>522.49444580078</ele>
        <time>2020-10-22T22:48:58.319Z</time>
      </trkpt>
      <trkpt lat="44.0049" lon="5.83864">
        <ele>524.63012695312</ele>
        <time>2020-10-22T22:49:18.638Z</time>
      </trkpt>
      <trkpt lat="44.00525" lon="5.83825">
        <ele>528.83569335938</ele>
        <time>2020-10-22T22:49:38.972Z</time>
      </trkpt>
      <trkpt lat="44.00555" lon="5.83797">
        <ele>532.02996826172</ele>
        <time>2020-10-22T22:49:59.318Z</time>
      </trkpt>
      <trkpt lat="44.00584" lon="5.83759">
        <ele>536.57452392578</ele>
        <time>2020-10-22T22:50:19.677Z</time>
      </trkpt>
      <trkpt lat="44.0059" lon="5.83746">
        <ele>535.302734375</ele>
        <time>2020-10-22T22:50:40.040Z</time>
      </trkpt>
      <trkpt lat="44.00594" lon="5.83699">
        <ele>537.70733642578</ele>
        <time>2020-10-22T22:51:00.414Z</time>
      </trkpt>
      <trkpt lat="44.00606" lon="5.83669">
        <ele>535.69171142578</ele>
        <time>2020-10-22T22:51:20.796Z</time>
      </trkpt>
      <trkpt lat="44.00602" lon="5.83652">
        <ele>538.30725097656</ele>
        <time>2020-10-22T22:51:41.183Z</time>
      </trkpt>
      <trkpt lat="44.00603" lon="5.8364">
        <ele>538.82318115234</ele>
        <time>2020-10-22T22:52:01.573Z</time>
      </trkpt>
      <trkpt lat="44.00598" lon="5.8359">
        <ele>541.8125</ele>
        <time>2020-10-22T22:52:21.975Z</time>
      </trkpt>
      <trkpt lat="44.00599" lon="5.83567">
        <ele>542.01647949219</ele>
        <time>2020-10-22T22:52:42.382Z</time>
      </trkpt>
      <trkpt lat="44.00594" lon="5.83542">
        <ele>544.51947021484</ele>
        <time>2020-10-22T22:53:02.796Z</time>
      </trkpt>
      <trkpt lat="44.00592" lon="5.8352">
        <ele>545.77734375</ele>
        <time>2020-10-22T22:53:23.215Z</time>
      </trkpt>
      <trkpt lat="44.00587" lon="5.83504">
        <ele>547.9609375</ele>
        <time>2020-10-22T22:53:43.638Z</time>
      </trkpt>
      <trkpt lat="44.0059" lon="5.83468">
        <ele>547.84741210938</ele>
        <time>2020-10-22T22:54:04.070Z</time>
      </trkpt>
      <trkpt lat="44.00612" lon="5.8342">
        <ele>544.73101806641</ele>
        <time>2020-10-22T22:54:24.515Z</time>
      </trkpt>
      <trkpt lat="44.00625" lon="5.83378">
        <ele>547.78656005859</ele>
        <time>2020-10-22T22:54:44.971Z</time>
      </trkpt>
      <trkpt lat="44.00623" lon="5.8335">
        <ele>547.57061767578</ele>
        <time>2020-10-22T22:55:05.434Z</time>
      </trkpt>
      <trkpt lat="44.00617" lon="5.83307">
        <ele>546.83734130859</ele>
        <time>2020-10-22T22:55:25.908Z</time>
      </trkpt>
      <trkpt lat="44.00616" lon="5.83277">
        <ele>549.80950927734</ele>
        <time>2020-10-22T22:55:46.389Z</time>
      </trkpt>
      <trkpt lat="44.00634" lon="5.83223">
        <ele>552.91033935547</ele>
        <time>2020-10-22T22:56:06.884Z</time>
      </trkpt>
      <trkpt lat="44.00668" lon="5.83196">
        <ele>552.91296386719</ele>
        <time>2020-10-22T22:56:27.392Z</time>
      </trkpt>
      <trkpt lat="44.00748" lon="5.83152">
        <ele>557.25946044922</ele>
        <time>2020-10-22T22:56:47.929Z</time>
      </trkpt>
      <trkpt lat="44.00806" lon="5.8313">
        <ele>566.2939453125</ele>
        <time>2020-10-22T22:57:08.486Z</time>
      </trkpt>
      <trkpt lat="44.00846" lon="5.83113">
        <ele>574.48742675781</ele>
        <time>2020-10-22T22:57:29.057Z</time>
      </trkpt>
      <trkpt lat="44.00867" lon="5.83092">
        <ele>580.82189941406</ele>
        <time>2020-10-22T22:57:49.637Z</time>
      </trkpt>
      <trkpt lat="44.00913" lon="5.83002">
        <ele>597.55755615234</ele>
        <time>2020-10-22T22:58:10.243Z</time>
      </trkpt>
      <trkpt lat="44.00972" lon="5.82866">
        <ele>618.45062255859</ele>
        <time>2020-10-22T22:58:30.887Z</time>
      </trkpt>
      <trkpt lat="44.01001" lon="5.82822">
        <ele>627.13995361328</ele>
        <time>2020-10-22T22:58:51.546Z</time>
      </trkpt>
      <trkpt lat="44.01015" lon="5.82789">
        <ele>633.73785400391</ele>
        <time>2020-10-22T22:59:12.214Z</time>
      </trkpt>
      <trkpt lat="44.01019" lon="5.82771">
        <ele>637.26525878906</ele>
        <time>2020-10-22T22:59:32.886Z</time>
      </trkpt>
      <trkpt lat="44.01007" lon="5.82764">
        <ele>636.19744873047</ele>
        <time>2020-10-22T22:59:53.563Z</time>
      </trkpt>
      <trkpt lat="44.00999" lon="5.82762">
        <ele>635.06958007812</ele>
        <time>2020-10-22T23:00:14.243Z</time>
      </trkpt>
      <trkpt lat="44.00996" lon="5.82759">
        <ele>634.99761962891</ele>
        <time>2020-10-22T23:00:34.924Z</time>
      </trkpt>
      <trkpt lat="44.00992" lon="5.82744">
        <ele>636.61737060547</ele>
        <time>2020-10-22T23:00:55.609Z</time>
      </trkpt>
      <trkpt lat="44.00991" lon="5.82731">
        <ele>638.46502685547</ele>
        <time>2020-10-22T23:01:16.297Z</time>
      </trkpt>
      <trkpt lat="44.00994" lon="5.82726">
        <ele>639.78485107422</ele>
        <time>2020-10-22T23:01:36.986Z</time>
      </trkpt>
      <trkpt lat="44.01001" lon="5.82722">
        <ele>641.66680908203</ele>
        <time>2020-10-22T23:01:57.678Z</time>
      </trkpt>
      <trkpt lat="44.01012" lon="5.82688">
        <ele>646.53070068359</ele>
        <time>2020-10-22T23:02:18.379Z</time>
      </trkpt>
      <trkpt lat="44.01" lon="5.8268">
        <ele>645.90679931641</ele>
        <time>2020-10-22T23:02:39.084Z</time>
      </trkpt>
      <trkpt lat="44.00987" lon="5.82665">
        <ele>645.53485107422</ele>
        <time>2020-10-22T23:02:59.795Z</time>
      </trkpt>
      <trkpt lat="44.00967" lon="5.82626">
        <ele>645.41979980469</ele>
        <time>2020-10-22T23:03:20.517Z</time>
      </trkpt>
      <trkpt lat="44.00902" lon="5.82522">
        <ele>638.0947265625</ele>
        <time>2020-10-22T23:03:41.272Z</time>
      </trkpt>
      <trkpt lat="44.00883" lon="5.82506">
        <ele>634.80731201172</ele>
        <time>2020-10-22T23:04:02.035Z</time>
      </trkpt>
      <trkpt lat="44.00872" lon="5.82501">
        <ele>632.44372558594</ele>
        <time>2020-10-22T23:04:22.802Z</time>
      </trkpt>
      <trkpt lat="44.0085" lon="5.82495">
        <ele>627.38647460938</ele>
        <time>2020-10-22T23:04:43.576Z</time>
      </trkpt>
      <trkpt lat="44.00843" lon="5.82488">
        <ele>626.37866210938</ele>
        <time>2020-10-22T23:05:04.353Z</time>
      </trkpt>
      <trkpt lat="44.00813" lon="5.82428">
        <ele>624.76971435547</ele>
        <time>2020-10-22T23:05:25.148Z</time>
      </trkpt>
      <trkpt lat="44.00811" lon="5.82421">
        <ele>624.76477050781</ele>
        <time>2020-10-22T23:05:45.944Z</time>
      </trkpt>
      <trkpt lat="44.00812" lon="5.82414">
        <ele>625.30462646484</ele>
        <time>2020-10-22T23:06:06.742Z</time>
      </trkpt>
      <trkpt lat="44.00825" lon="5.82385">
        <ele>629.34796142578</ele>
        <time>2020-10-22T23:06:27.548Z</time>
      </trkpt>
      <trkpt lat="44.00834" lon="5.82358">
        <ele>632.17919921875</ele>
        <time>2020-10-22T23:06:48.362Z</time>
      </trkpt>
      <trkpt lat="44.0086" lon="5.82309">
        <ele>635.98193359375</ele>
        <time>2020-10-22T23:07:09.190Z</time>
      </trkpt>
      <trkpt lat="44.00862" lon="5.82282">
        <ele>634.79266357422</ele>
        <time>2020-10-22T23:07:30.025Z</time>
      </trkpt>
      <trkpt lat="44.00859" lon="5.8225">
        <ele>633.32885742188</ele>
        <time>2020-10-22T23:07:50.867Z</time>
      </trkpt>
      <trkpt lat="44.00862" lon="5.82217">
        <ele>631.73858642578</ele>
        <time>2020-10-22T23:08:11.717Z</time>
      </trkpt>
      <trkpt lat="44.00906" lon="5.8209">
        <ele>628.26531982422</ele>
        <time>2020-10-22T23:08:32.601Z</time>
      </trkpt>
      <trkpt lat="44.00912" lon="5.82082">
        <ele>628.52923583984</ele>
        <time>2020-10-22T23:08:53.488Z</time>
      </trkpt>
      <trkpt lat="44.00853" lon="5.81977">
        <ele>626.74853515625</ele>
        <time>2020-10-22T23:09:14.407Z</time>
      </trkpt>
      <trkpt lat="44.00841" lon="5.81949">
        <ele>627.54107666016</ele>
        <time>2020-10-22T23:09:35.334Z</time>
      </trkpt>
      <trkpt lat="44.00833" lon="5.81919">
        <ele>628.95684814453</ele>
        <time>2020-10-22T23:09:56.269Z</time>
      </trkpt>
      <trkpt lat="44.00809" lon="5.81876">
        <ele>630.38464355469</ele>
        <time>2020-10-22T23:10:17.217Z</time>
      </trkpt>
      <trkpt lat="44.00743" lon="5.81731">
        <ele>636.95263671875</ele>
        <time>2020-10-22T23:10:38.206Z</time>
      </trkpt>
      <trkpt lat="44.0074" lon="5.81715">
        <ele>637.75646972656</ele>
        <time>2020-10-22T23:10:59.199Z</time>
      </trkpt>
      <trkpt lat="44.0074" lon="5.81694">
        <ele>638.76428222656</ele>
        <time>2020-10-22T23:11:20.197Z</time>
      </trkpt>
      <trkpt lat="44.00736" lon="5.81684">
        <ele>639.29223632812</ele>
        <time>2020-10-22T23:11:41.198Z</time>
      </trkpt>
      <trkpt lat="44.00686" lon="5.81623">
        <ele>642.24139404297</ele>
        <time>2020-10-22T23:12:02.221Z</time>
      </trkpt>
      <trkpt lat="44.00658" lon="5.81554">
        <ele>642.94445800781</ele>
        <time>2020-10-22T23:12:23.263Z</time>
      </trkpt>
      <trkpt lat="44.00677" lon="5.81456">
        <ele>650.66412353516</ele>
        <time>2020-10-22T23:12:44.329Z</time>
      </trkpt>
      <trkpt lat="44.00696" lon="5.81411">
        <ele>651.89038085938</ele>
        <time>2020-10-22T23:13:05.408Z</time>
      </trkpt>
      <trkpt lat="44.00714" lon="5.81355">
        <ele>654.59197998047</ele>
        <time>2020-10-22T23:13:26.502Z</time>
      </trkpt>
      <trkpt lat="44.00729" lon="5.81329">
        <ele>656.65716552734</ele>
        <time>2020-10-22T23:13:47.604Z</time>
      </trkpt>
      <trkpt lat="44.00742" lon="5.81327">
        <ele>658.61285400391</ele>
        <time>2020-10-22T23:14:08.710Z</time>
      </trkpt>
      <trkpt lat="44.00743" lon="5.813">
        <ele>658.17413330078</ele>
        <time>2020-10-22T23:14:29.823Z</time>
      </trkpt>
      <trkpt lat="44.00745" lon="5.81296">
        <ele>658.63006591797</ele>
        <time>2020-10-22T23:14:50.937Z</time>
      </trkpt>
      <trkpt lat="44.00751" lon="5.81295">
        <ele>659.60192871094</ele>
        <time>2020-10-22T23:15:12.053Z</time>
      </trkpt>
      <trkpt lat="44.00755" lon="5.81298">
        <ele>660.11779785156</ele>
        <time>2020-10-22T23:15:33.170Z</time>
      </trkpt>
      <trkpt lat="44.00757" lon="5.81305">
        <ele>660.17779541016</ele>
        <time>2020-10-22T23:15:54.289Z</time>
      </trkpt>
      <trkpt lat="44.00755" lon="5.81335">
        <ele>660.92846679688</ele>
        <time>2020-10-22T23:16:15.415Z</time>
      </trkpt>
      <trkpt lat="44.00757" lon="5.8134">
        <ele>661.42034912109</ele>
        <time>2020-10-22T23:16:36.543Z</time>
      </trkpt>
      <trkpt lat="44.0076" lon="5.81341">
        <ele>661.92431640625</ele>
        <time>2020-10-22T23:16:57.672Z</time>
      </trkpt>
      <trkpt lat="44.00764" lon="5.8134">
        <ele>662.51220703125</ele>
        <time>2020-10-22T23:17:18.802Z</time>
      </trkpt>
      <trkpt lat="44.00769" lon="5.81332">
        <ele>663.00408935547</ele>
        <time>2020-10-22T23:17:39.935Z</time>
      </trkpt>
      <trkpt lat="44.00774" lon="5.81328">
        <ele>663.64001464844</ele>
        <time>2020-10-22T23:18:01.070Z</time>
      </trkpt>
      <trkpt lat="44.00781" lon="5.81327">
        <ele>663.64288330078</ele>
        <time>2020-10-22T23:18:22.207Z</time>
      </trkpt>
      <trkpt lat="44.00799" lon="5.81348">
        <ele>663.966796875</ele>
        <time>2020-10-22T23:18:43.352Z</time>
      </trkpt>
      <trkpt lat="44.00805" lon="5.81349">
        <ele>663.85882568359</ele>
        <time>2020-10-22T23:19:04.499Z</time>
      </trkpt>
      <trkpt lat="44.00826" lon="5.81345">
        <ele>664.40844726562</ele>
        <time>2020-10-22T23:19:25.653Z</time>
      </trkpt>
      <trkpt lat="44.00833" lon="5.81341">
        <ele>665.28430175781</ele>
        <time>2020-10-22T23:19:46.809Z</time>
      </trkpt>
      <trkpt lat="44.00838" lon="5.81336">
        <ele>666.06414794922</ele>
        <time>2020-10-22T23:20:07.967Z</time>
      </trkpt>
      <trkpt lat="44.00849" lon="5.81318">
        <ele>668.28381347656</ele>
        <time>2020-10-22T23:20:29.131Z</time>
      </trkpt>
      <trkpt lat="44.00857" lon="5.8131">
        <ele>669.53161621094</ele>
        <time>2020-10-22T23:20:50.298Z</time>
      </trkpt>
      <trkpt lat="44.00872" lon="5.81285">
        <ele>671.53857421875</ele>
        <time>2020-10-22T23:21:11.473Z</time>
      </trkpt>
      <trkpt lat="44.00871" lon="5.81261">
        <ele>672.34240722656</ele>
        <time>2020-10-22T23:21:32.654Z</time>
      </trkpt>
      <trkpt lat="44.00867" lon="5.81239">
        <ele>672.89434814453</ele>
        <time>2020-10-22T23:21:53.840Z</time>
      </trkpt>
      <trkpt lat="44.00862" lon="5.81232">
        <ele>672.84637451172</ele>
        <time>2020-10-22T23:22:15.029Z</time>
      </trkpt>
      <trkpt lat="44.00854" lon="5.81225">
        <ele>672.40258789062</ele>
        <time>2020-10-22T23:22:36.221Z</time>
      </trkpt>
      <trkpt lat="44.00848" lon="5.81205">
        <ele>672.57885742188</ele>
        <time>2020-10-22T23:22:57.418Z</time>
      </trkpt>
      <trkpt lat="44.00842" lon="5.81153">
        <ele>675.38635253906</ele>
        <time>2020-10-22T23:23:18.628Z</time>
      </trkpt>
      <trkpt lat="44.0084" lon="5.81097">
        <ele>678.38537597656</ele>
        <time>2020-10-22T23:23:39.851Z</time>
      </trkpt>
      <trkpt lat="44.00834" lon="5.81071">
        <ele>678.93731689453</ele>
        <time>2020-10-22T23:24:01.081Z</time>
      </trkpt>
      <trkpt lat="44.00827" lon="5.80987">
        <ele>683.49401855469</ele>
        <time>2020-10-22T23:24:22.331Z</time>
      </trkpt>
      <trkpt lat="44.00821" lon="5.80973">
        <ele>683.44598388672</ele>
        <time>2020-10-22T23:24:43.585Z</time>
      </trkpt>
      <trkpt lat="44.00818" lon="5.80959">
        <ele>684.22045898438</ele>
        <time>2020-10-22T23:25:04.843Z</time>
      </trkpt>
      <trkpt lat="44.00819" lon="5.80938">
        <ele>686.10418701172</ele>
        <time>2020-10-22T23:25:26.106Z</time>
      </trkpt>
      <trkpt lat="44.00826" lon="5.80908">
        <ele>688.33508300781</ele>
        <time>2020-10-22T23:25:47.376Z</time>
      </trkpt>
      <trkpt lat="44.00826" lon="5.80892">
        <ele>689.10290527344</ele>
        <time>2020-10-22T23:26:08.650Z</time>
      </trkpt>
      <trkpt lat="44.0082" lon="5.80885">
        <ele>689.18713378906</ele>
        <time>2020-10-22T23:26:29.927Z</time>
      </trkpt>
      <trkpt lat="44.00815" lon="5.80875">
        <ele>689.96697998047</ele>
        <time>2020-10-22T23:26:51.207Z</time>
      </trkpt>
      <trkpt lat="44.00812" lon="5.80848">
        <ele>692.95452880859</ele>
        <time>2020-10-22T23:27:12.493Z</time>
      </trkpt>
      <trkpt lat="44.00807" lon="5.80829">
        <ele>694.23779296875</ele>
        <time>2020-10-22T23:27:33.784Z</time>
      </trkpt>
      <trkpt lat="44.00791" lon="5.80743">
        <ele>706.37634277344</ele>
        <time>2020-10-22T23:27:55.097Z</time>
      </trkpt>
      <trkpt lat="44.00779" lon="5.80653">
        <ele>723.98840332031</ele>
        <time>2020-10-22T23:28:16.432Z</time>
      </trkpt>
      <trkpt lat="44.00781" lon="5.80649">
        <ele>724.7802734375</ele>
        <time>2020-10-22T23:28:37.768Z</time>
      </trkpt>
      <trkpt lat="44.00794" lon="5.80636">
        <ele>727.44299316406</ele>
        <time>2020-10-22T23:28:59.109Z</time>
      </trkpt>
      <trkpt lat="44.00827" lon="5.80597">
        <ele>734.58135986328</ele>
        <time>2020-10-22T23:29:20.465Z</time>
      </trkpt>
      <trkpt lat="44.00836" lon="5.8058">
        <ele>737.95281982422</ele>
        <time>2020-10-22T23:29:41.826Z</time>
      </trkpt>
      <trkpt lat="44.00854" lon="5.80564">
        <ele>741.240234375</ele>
        <time>2020-10-22T23:30:03.194Z</time>
      </trkpt>
      <trkpt lat="44.00858" lon="5.80557">
        <ele>742.63201904297</ele>
        <time>2020-10-22T23:30:24.564Z</time>
      </trkpt>
      <trkpt lat="44.00862" lon="5.80541">
        <ele>744.99005126953</ele>
        <time>2020-10-22T23:30:45.938Z</time>
      </trkpt>
      <trkpt lat="44.00884" lon="5.8051">
        <ele>749.18939208984</ele>
        <time>2020-10-22T23:31:07.322Z</time>
      </trkpt>
      <trkpt lat="44.00886" lon="5.80503">
        <ele>750.17321777344</ele>
        <time>2020-10-22T23:31:28.708Z</time>
      </trkpt>
      <trkpt lat="44.00884" lon="5.80482">
        <ele>754.13677978516</ele>
        <time>2020-10-22T23:31:50.099Z</time>
      </trkpt>
      <trkpt lat="44.00875" lon="5.8046">
        <ele>756.21557617188</ele>
        <time>2020-10-22T23:32:11.496Z</time>
      </trkpt>
      <trkpt lat="44.00872" lon="5.80448">
        <ele>756.50354003906</ele>
        <time>2020-10-22T23:32:32.896Z</time>
      </trkpt>
      <trkpt lat="44.00832" lon="5.80415">
        <ele>756.72534179688</ele>
        <time>2020-10-22T23:32:54.312Z</time>
      </trkpt>
      <trkpt lat="44.00828" lon="5.8041">
        <ele>756.85736083984</ele>
        <time>2020-10-22T23:33:15.730Z</time>
      </trkpt>
      <trkpt lat="44.00809" lon="5.80364">
        <ele>755.94122314453</ele>
        <time>2020-10-22T23:33:37.161Z</time>
      </trkpt>
      <trkpt lat="44.00803" lon="5.80311">
        <ele>754.00494384766</ele>
        <time>2020-10-22T23:33:58.604Z</time>
      </trkpt>
      <trkpt lat="44.00802" lon="5.80245">
        <ele>748.33856201172</ele>
        <time>2020-10-22T23:34:20.063Z</time>
      </trkpt>
      <trkpt lat="44.008" lon="5.8022">
        <ele>746.857421875</ele>
        <time>2020-10-22T23:34:41.528Z</time>
      </trkpt>
      <trkpt lat="44.00808" lon="5.80171">
        <ele>744.287109375</ele>
        <time>2020-10-22T23:35:03.005Z</time>
      </trkpt>
      <trkpt lat="44.00817" lon="5.80148">
        <ele>743.32727050781</ele>
        <time>2020-10-22T23:35:24.489Z</time>
      </trkpt>
      <trkpt lat="44.00824" lon="5.80116">
        <ele>740.85858154297</ele>
        <time>2020-10-22T23:35:45.981Z</time>
      </trkpt>
      <trkpt lat="44.0082" lon="5.80011">
        <ele>730.88244628906</ele>
        <time>2020-10-22T23:36:07.498Z</time>
      </trkpt>
      <trkpt lat="44.00821" lon="5.79984">
        <ele>729.74261474609</ele>
        <time>2020-10-22T23:36:29.022Z</time>
      </trkpt>
      <trkpt lat="44.00818" lon="5.79958">
        <ele>728.51940917969</ele>
        <time>2020-10-22T23:36:50.552Z</time>
      </trkpt>
      <trkpt lat="44.00819" lon="5.7991">
        <ele>727.30090332031</ele>
        <time>2020-10-22T23:37:12.094Z</time>
      </trkpt>
      <trkpt lat="44.00825" lon="5.79869">
        <ele>725.58911132812</ele>
        <time>2020-10-22T23:37:33.646Z</time>
      </trkpt>
      <trkpt lat="44.00836" lon="5.79826">
        <ele>725.24737548828</ele>
        <time>2020-10-22T23:37:55.209Z</time>
      </trkpt>
      <trkpt lat="44.00849" lon="5.7974">
        <ele>721.61248779297</ele>
        <time>2020-10-22T23:38:16.793Z</time>
      </trkpt>
      <trkpt lat="44.00873" lon="5.7967">
        <ele>717.89215087891</ele>
        <time>2020-10-22T23:38:38.395Z</time>
      </trkpt>
      <trkpt lat="44.00893" lon="5.79632">
        <ele>714.63208007812</ele>
        <time>2020-10-22T23:39:00.009Z</time>
      </trkpt>
      <trkpt lat="44.00891" lon="5.79625">
        <ele>713.68420410156</ele>
        <time>2020-10-22T23:39:21.624Z</time>
      </trkpt>
      <trkpt lat="44.00893" lon="5.79625">
        <ele>713.87622070312</ele>
        <time>2020-10-22T23:39:43.240Z</time>
      </trkpt>
      <trkpt lat="44.00893" lon="5.79623">
        <ele>713.66021728516</ele>
        <time>2020-10-22T23:40:04.857Z</time>
      </trkpt>
      <trkpt lat="44.00879" lon="5.79585">
        <ele>708.21313476562</ele>
        <time>2020-10-22T23:40:26.484Z</time>
      </trkpt>
      <trkpt lat="44.00844" lon="5.7959">
        <ele>704.69787597656</ele>
        <time>2020-10-22T23:40:48.123Z</time>
      </trkpt>
      <trkpt lat="44.00852" lon="5.7956">
        <ele>702.61022949219</ele>
        <time>2020-10-22T23:41:09.769Z</time>
      </trkpt>
      <trkpt lat="44.00852" lon="5.79508">
        <ele>701.73522949219</ele>
        <time>2020-10-22T23:41:31.428Z</time>
      </trkpt>
      <trkpt lat="44.00844" lon="5.7945">
        <ele>701.90435791016</ele>
        <time>2020-10-22T23:41:53.101Z</time>
      </trkpt>
      <trkpt lat="44.00852" lon="5.79437">
        <ele>703.45208740234</ele>
        <time>2020-10-22T23:42:14.778Z</time>
      </trkpt>
      <trkpt lat="44.00864" lon="5.79409">
        <ele>706.15161132812</ele>
        <time>2020-10-22T23:42:36.463Z</time>
      </trkpt>
      <trkpt lat="44.00852" lon="5.79369">
        <ele>707.84039306641</ele>
        <time>2020-10-22T23:42:58.158Z</time>
      </trkpt>
      <trkpt lat="44.00868" lon="5.79357">
        <ele>710.16204833984</ele>
        <time>2020-10-22T23:43:19.859Z</time>
      </trkpt>
      <trkpt lat="44.00889" lon="5.79354">
        <ele>712.39367675781</ele>
        <time>2020-10-22T23:43:41.567Z</time>
      </trkpt>
      <trkpt lat="44.00894" lon="5.7933">
        <ele>714.47637939453</ele>
        <time>2020-10-22T23:44:03.281Z</time>
      </trkpt>
      <trkpt lat="44.00891" lon="5.79321">
        <ele>714.76434326172</ele>
        <time>2020-10-22T23:44:24.998Z</time>
      </trkpt>
      <trkpt lat="44.00888" lon="5.79317">
        <ele>714.75238037109</ele>
        <time>2020-10-22T23:44:46.716Z</time>
      </trkpt>
      <trkpt lat="44.00883" lon="5.79314">
        <ele>714.51239013672</ele>
        <time>2020-10-22T23:45:08.436Z</time>
      </trkpt>
      <trkpt lat="44.00862" lon="5.79309">
        <ele>713.04156494141</ele>
        <time>2020-10-22T23:45:30.163Z</time>
      </trkpt>
      <trkpt lat="44.00824" lon="5.79305">
        <ele>710.09600830078</ele>
        <time>2020-10-22T23:45:51.903Z</time>
      </trkpt>
      <trkpt lat="44.00787" lon="5.79294">
        <ele>708.04211425781</ele>
        <time>2020-10-22T23:46:13.655Z</time>
      </trkpt>
      <trkpt lat="44.00776" lon="5.79289">
        <ele>707.59814453125</ele>
        <time>2020-10-22T23:46:35.411Z</time>
      </trkpt>
      <trkpt lat="44.00766" lon="5.79281">
        <ele>708.40435791016</ele>
        <time>2020-10-22T23:46:57.171Z</time>
      </trkpt>
      <trkpt lat="44.00741" lon="5.79252">
        <ele>711.48785400391</ele>
        <time>2020-10-22T23:47:18.942Z</time>
      </trkpt>
      <trkpt lat="44.00727" lon="5.79246">
        <ele>712.23168945312</ele>
        <time>2020-10-22T23:47:40.718Z</time>
      </trkpt>
      <trkpt lat="44.00717" lon="5.79246">
        <ele>712.35168457031</ele>
        <time>2020-10-22T23:48:02.497Z</time>
      </trkpt>
      <trkpt lat="44.00707" lon="5.79249">
        <ele>711.44921875</ele>
        <time>2020-10-22T23:48:24.280Z</time>
      </trkpt>
      <trkpt lat="44.0068" lon="5.7927">
        <ele>707.72760009766</ele>
        <time>2020-10-22T23:48:46.073Z</time>
      </trkpt>
      <trkpt lat="44.00655" lon="5.79293">
        <ele>704.44140625</ele>
        <time>2020-10-22T23:49:07.876Z</time>
      </trkpt>
      <trkpt lat="44.00623" lon="5.79319">
        <ele>700.79626464844</ele>
        <time>2020-10-22T23:49:29.691Z</time>
      </trkpt>
      <trkpt lat="44.00605" lon="5.79328">
        <ele>698.24810791016</ele>
        <time>2020-10-22T23:49:51.513Z</time>
      </trkpt>
      <trkpt lat="44.00589" lon="5.79331">
        <ele>697.44427490234</ele>
        <time>2020-10-22T23:50:13.340Z</time>
      </trkpt>
      <trkpt lat="44.00487" lon="5.79341">
        <ele>694.58972167969</ele>
        <time>2020-10-22T23:50:35.201Z</time>
      </trkpt>
      <trkpt lat="44.00441" lon="5.79343">
        <ele>695.32000732422</ele>
        <time>2020-10-22T23:50:57.078Z</time>
      </trkpt>
      <trkpt lat="44.00422" lon="5.7934">
        <ele>692.94439697266</ele>
        <time>2020-10-22T23:51:18.961Z</time>
      </trkpt>
      <trkpt lat="44.00417" lon="5.79338">
        <ele>692.46447753906</ele>
        <time>2020-10-22T23:51:40.846Z</time>
      </trkpt>
      <trkpt lat="44.00405" lon="5.79329">
        <ele>691.81658935547</ele>
        <time>2020-10-22T23:52:02.735Z</time>
      </trkpt>
      <trkpt lat="44.0039" lon="5.79315">
        <ele>691.33666992188</ele>
        <time>2020-10-22T23:52:24.630Z</time>
      </trkpt>
      <trkpt lat="44.00377" lon="5.793">
        <ele>691.08807373047</ele>
        <time>2020-10-22T23:52:46.531Z</time>
      </trkpt>
      <trkpt lat="44.00336" lon="5.79245">
        <ele>690.34210205078</ele>
        <time>2020-10-22T23:53:08.451Z</time>
      </trkpt>
      <trkpt lat="44.00264" lon="5.79171">
        <ele>691.14154052734</ele>
        <time>2020-10-22T23:53:30.401Z</time>
      </trkpt>
      <trkpt lat="44.00243" lon="5.79156">
        <ele>692.11340332031</ele>
        <time>2020-10-22T23:53:52.359Z</time>
      </trkpt>
      <trkpt lat="44.00227" lon="5.7915">
        <ele>692.13739013672</ele>
        <time>2020-10-22T23:54:14.322Z</time>
      </trkpt>
      <trkpt lat="44.00203" lon="5.79145">
        <ele>691.64544677734</ele>
        <time>2020-10-22T23:54:36.293Z</time>
      </trkpt>
      <trkpt lat="44.00142" lon="5.7915">
        <ele>687.35089111328</ele>
        <time>2020-10-22T23:54:58.285Z</time>
      </trkpt>
      <trkpt lat="44.00125" lon="5.7915">
        <ele>686.53497314453</ele>
        <time>2020-10-22T23:55:20.282Z</time>
      </trkpt>
      <trkpt lat="44.00109" lon="5.79145">
        <ele>686.50524902344</ele>
        <time>2020-10-22T23:55:42.285Z</time>
      </trkpt>
      <trkpt lat="44.00095" lon="5.79137">
        <ele>687.89715576172</ele>
        <time>2020-10-22T23:56:04.293Z</time>
      </trkpt>
      <trkpt lat="44.0008" lon="5.79134">
        <ele>688.0771484375</ele>
        <time>2020-10-22T23:56:26.306Z</time>
      </trkpt>
      <trkpt lat="44.00059" lon="5.79268">
        <ele>661.48651123047</ele>
        <time>2020-10-22T23:56:48.352Z</time>
      </trkpt>
      <trkpt lat="44.0004" lon="5.79286">
        <ele>656.25537109375</ele>
        <time>2020-10-22T23:57:10.406Z</time>
      </trkpt>
      <trkpt lat="44.00008" lon="5.79299">
        <ele>652.40887451172</ele>
        <time>2020-10-22T23:57:32.471Z</time>
      </trkpt>
      <trkpt lat="43.99981" lon="5.79307">
        <ele>651.10107421875</ele>
        <time>2020-10-22T23:57:54.545Z</time>
      </trkpt>
      <trkpt lat="43.99953" lon="5.79322">
        <ele>648.16979980469</ele>
        <time>2020-10-22T23:58:16.629Z</time>
      </trkpt>
      <trkpt lat="43.99948" lon="5.79323">
        <ele>647.80987548828</ele>
        <time>2020-10-22T23:58:38.715Z</time>
      </trkpt>
      <trkpt lat="43.99947" lon="5.79322">
        <ele>648.02581787109</ele>
        <time>2020-10-22T23:59:00.801Z</time>
      </trkpt>
      <trkpt lat="43.9993" lon="5.79328">
        <ele>646.17810058594</ele>
        <time>2020-10-22T23:59:22.893Z</time>
      </trkpt>
      <trkpt lat="43.99912" lon="5.7933">
        <ele>645.26629638672</ele>
        <time>2020-10-22T23:59:44.991Z</time>
      </trkpt>
      <trkpt lat="43.99886" lon="5.7933">
        <ele>644.64239501953</ele>
        <time>2020-10-23T00:00:07.098Z</time>
      </trkpt>
      <trkpt lat="43.99817" lon="5.79324">
        <ele>641.90936279297</ele>
        <time>2020-10-23T00:00:29.228Z</time>
      </trkpt>
      <trkpt lat="43.99753" lon="5.79336">
        <ele>635.61273193359</ele>
        <time>2020-10-23T00:00:51.379Z</time>
      </trkpt>
      <trkpt lat="43.9973" lon="5.79337">
        <ele>634.60491943359</ele>
        <time>2020-10-23T00:01:13.538Z</time>
      </trkpt>
      <trkpt lat="43.99676" lon="5.79348">
        <ele>632.56213378906</ele>
        <time>2020-10-23T00:01:35.715Z</time>
      </trkpt>
      <trkpt lat="43.9964" lon="5.79347">
        <ele>630.59271240234</ele>
        <time>2020-10-23T00:01:57.904Z</time>
      </trkpt>
      <trkpt lat="43.99591" lon="5.79352">
        <ele>626.88208007812</ele>
        <time>2020-10-23T00:02:20.109Z</time>
      </trkpt>
      <trkpt lat="43.99585" lon="5.7935">
        <ele>627.14605712891</ele>
        <time>2020-10-23T00:02:42.316Z</time>
      </trkpt>
      <trkpt lat="43.99582" lon="5.79346">
        <ele>627.78192138672</ele>
        <time>2020-10-23T00:03:04.525Z</time>
      </trkpt>
      <trkpt lat="43.99583" lon="5.79345">
        <ele>627.9619140625</ele>
        <time>2020-10-23T00:03:26.734Z</time>
      </trkpt>
      <trkpt lat="43.99576" lon="5.79342">
        <ele>628.3818359375</ele>
        <time>2020-10-23T00:03:48.946Z</time>
      </trkpt>
      <trkpt lat="43.99561" lon="5.79347">
        <ele>627.14477539062</ele>
        <time>2020-10-23T00:04:11.163Z</time>
      </trkpt>
      <trkpt lat="43.99545" lon="5.79348">
        <ele>626.17291259766</ele>
        <time>2020-10-23T00:04:33.385Z</time>
      </trkpt>
      <trkpt lat="43.99535" lon="5.79351">
        <ele>625.08111572266</ele>
        <time>2020-10-23T00:04:55.611Z</time>
      </trkpt>
      <trkpt lat="43.99498" lon="5.79366">
        <ele>622.28356933594</ele>
        <time>2020-10-23T00:05:17.849Z</time>
      </trkpt>
      <trkpt lat="43.99464" lon="5.79382">
        <ele>617.84436035156</ele>
        <time>2020-10-23T00:05:40.099Z</time>
      </trkpt>
      <trkpt lat="43.99398" lon="5.79424">
        <ele>607.55816650391</ele>
        <time>2020-10-23T00:06:02.374Z</time>
      </trkpt>
      <trkpt lat="43.99373" lon="5.79438">
        <ele>607.76153564453</ele>
        <time>2020-10-23T00:06:24.658Z</time>
      </trkpt>
      <trkpt lat="43.99347" lon="5.7945">
        <ele>606.23864746094</ele>
        <time>2020-10-23T00:06:46.951Z</time>
      </trkpt>
      <trkpt lat="43.99326" lon="5.79465">
        <ele>604.87567138672</ele>
        <time>2020-10-23T00:07:09.252Z</time>
      </trkpt>
      <trkpt lat="43.99317" lon="5.79464">
        <ele>605.60754394531</ele>
        <time>2020-10-23T00:07:31.556Z</time>
      </trkpt>
      <trkpt lat="43.99317" lon="5.7946">
        <ele>605.94348144531</ele>
        <time>2020-10-23T00:07:53.861Z</time>
      </trkpt>
      <trkpt lat="43.99228" lon="5.79541">
        <ele>586.11071777344</ele>
        <time>2020-10-23T00:08:16.201Z</time>
      </trkpt>
      <trkpt lat="43.99222" lon="5.79539">
        <ele>586.27868652344</ele>
        <time>2020-10-23T00:08:38.543Z</time>
      </trkpt>
      <trkpt lat="43.99217" lon="5.79532">
        <ele>587.05859375</ele>
        <time>2020-10-23T00:09:00.887Z</time>
      </trkpt>
      <trkpt lat="43.99211" lon="5.79527">
        <ele>587.58648681641</ele>
        <time>2020-10-23T00:09:23.234Z</time>
      </trkpt>
      <trkpt lat="43.99191" lon="5.79516">
        <ele>588.58020019531</ele>
        <time>2020-10-23T00:09:45.588Z</time>
      </trkpt>
      <trkpt lat="43.99184" lon="5.7951">
        <ele>588.12426757812</ele>
        <time>2020-10-23T00:10:07.945Z</time>
      </trkpt>
      <trkpt lat="43.99177" lon="5.79511">
        <ele>586.82849121094</ele>
        <time>2020-10-23T00:10:30.304Z</time>
      </trkpt>
      <trkpt lat="43.99158" lon="5.79547">
        <ele>581.46813964844</ele>
        <time>2020-10-23T00:10:52.674Z</time>
      </trkpt>
      <trkpt lat="43.99152" lon="5.79563">
        <ele>578.74591064453</ele>
        <time>2020-10-23T00:11:15.048Z</time>
      </trkpt>
      <trkpt lat="43.9915" lon="5.79584">
        <ele>573.53875732422</ele>
        <time>2020-10-23T00:11:37.427Z</time>
      </trkpt>
      <trkpt lat="43.99148" lon="5.7959">
        <ele>571.93103027344</ele>
        <time>2020-10-23T00:11:59.808Z</time>
      </trkpt>
      <trkpt lat="43.99141" lon="5.79606">
        <ele>568.81811523438</ele>
        <time>2020-10-23T00:12:22.193Z</time>
      </trkpt>
      <trkpt lat="43.99121" lon="5.79641">
        <ele>562.37451171875</ele>
        <time>2020-10-23T00:12:44.589Z</time>
      </trkpt>
      <trkpt lat="43.99095" lon="5.79654">
        <ele>556.83331298828</ele>
        <time>2020-10-23T00:13:06.994Z</time>
      </trkpt>
      <trkpt lat="43.99065" lon="5.7966">
        <ele>552.08209228516</ele>
        <time>2020-10-23T00:13:29.409Z</time>
      </trkpt>
      <trkpt lat="43.99057" lon="5.7966">
        <ele>551.31427001953</ele>
        <time>2020-10-23T00:13:51.827Z</time>
      </trkpt>
      <trkpt lat="43.99053" lon="5.79661">
        <ele>550.61834716797</ele>
        <time>2020-10-23T00:14:14.246Z</time>
      </trkpt>
      <trkpt lat="43.99046" lon="5.79666">
        <ele>548.93792724609</ele>
        <time>2020-10-23T00:14:36.668Z</time>
      </trkpt>
      <trkpt lat="43.99031" lon="5.79662">
        <ele>549.66979980469</ele>
        <time>2020-10-23T00:14:59.095Z</time>
      </trkpt>
      <trkpt lat="43.9902" lon="5.79669">
        <ele>547.12615966797</ele>
        <time>2020-10-23T00:15:21.526Z</time>
      </trkpt>
      <trkpt lat="43.99007" lon="5.79681">
        <ele>542.05102539062</ele>
        <time>2020-10-23T00:15:43.962Z</time>
      </trkpt>
      <trkpt lat="43.98984" lon="5.79693">
        <ele>537.22802734375</ele>
        <time>2020-10-23T00:16:06.407Z</time>
      </trkpt>
      <trkpt lat="43.98975" lon="5.797">
        <ele>536.70013427734</ele>
        <time>2020-10-23T00:16:28.855Z</time>
      </trkpt>
      <trkpt lat="43.98965" lon="5.79701">
        <ele>536.52014160156</ele>
        <time>2020-10-23T00:16:51.306Z</time>
      </trkpt>
      <trkpt lat="43.98955" lon="5.7971">
        <ele>535.86022949219</ele>
        <time>2020-10-23T00:17:13.761Z</time>
      </trkpt>
      <trkpt lat="43.98948" lon="5.79709">
        <ele>535.83624267578</ele>
        <time>2020-10-23T00:17:36.219Z</time>
      </trkpt>
      <trkpt lat="43.98946" lon="5.79707">
        <ele>535.93225097656</ele>
        <time>2020-10-23T00:17:58.677Z</time>
      </trkpt>
      <trkpt lat="43.98939" lon="5.79695">
        <ele>536.26696777344</ele>
        <time>2020-10-23T00:18:21.139Z</time>
      </trkpt>
      <trkpt lat="43.98928" lon="5.79682">
        <ele>535.59503173828</ele>
        <time>2020-10-23T00:18:43.606Z</time>
      </trkpt>
      <trkpt lat="43.98914" lon="5.79683">
        <ele>533.68737792969</ele>
        <time>2020-10-23T00:19:06.078Z</time>
      </trkpt>
      <trkpt lat="43.98901" lon="5.79691">
        <ele>531.728515625</ele>
        <time>2020-10-23T00:19:28.554Z</time>
      </trkpt>
      <trkpt lat="43.98885" lon="5.79697">
        <ele>529.78485107422</ele>
        <time>2020-10-23T00:19:51.036Z</time>
      </trkpt>
      <trkpt lat="43.98877" lon="5.79707">
        <ele>528.56109619141</ele>
        <time>2020-10-23T00:20:13.522Z</time>
      </trkpt>
      <trkpt lat="43.98867" lon="5.79714">
        <ele>527.22930908203</ele>
        <time>2020-10-23T00:20:36.011Z</time>
      </trkpt>
      <trkpt lat="43.9886" lon="5.79722">
        <ele>526.15112304688</ele>
        <time>2020-10-23T00:20:58.503Z</time>
      </trkpt>
      <trkpt lat="43.98857" lon="5.79724">
        <ele>525.88647460938</ele>
        <time>2020-10-23T00:21:20.996Z</time>
      </trkpt>
      <trkpt lat="43.9885" lon="5.79725">
        <ele>525.99444580078</ele>
        <time>2020-10-23T00:21:43.492Z</time>
      </trkpt>
      <trkpt lat="43.98841" lon="5.79734">
        <ele>525.67047119141</ele>
        <time>2020-10-23T00:22:05.991Z</time>
      </trkpt>
      <trkpt lat="43.98835" lon="5.79768">
        <ele>523.77478027344</ele>
        <time>2020-10-23T00:22:28.499Z</time>
      </trkpt>
      <trkpt lat="43.98832" lon="5.79773">
        <ele>523.54681396484</ele>
        <time>2020-10-23T00:22:51.008Z</time>
      </trkpt>
      <trkpt lat="43.98823" lon="5.7978">
        <ele>522.97668457031</ele>
        <time>2020-10-23T00:23:13.521Z</time>
      </trkpt>
      <trkpt lat="43.98822" lon="5.79785">
        <ele>522.48474121094</ele>
        <time>2020-10-23T00:23:36.035Z</time>
      </trkpt>
      <trkpt lat="43.98841" lon="5.79811">
        <ele>520.8662109375</ele>
        <time>2020-10-23T00:23:58.558Z</time>
      </trkpt>
      <trkpt lat="43.98832" lon="5.7981">
        <ele>520.74621582031</ele>
        <time>2020-10-23T00:24:21.084Z</time>
      </trkpt>
      <trkpt lat="43.98822" lon="5.79813">
        <ele>520.66223144531</ele>
        <time>2020-10-23T00:24:43.613Z</time>
      </trkpt>
      <trkpt lat="43.98812" lon="5.79819">
        <ele>520.6142578125</ele>
        <time>2020-10-23T00:25:06.146Z</time>
      </trkpt>
      <trkpt lat="43.98766" lon="5.79849">
        <ele>519.26123046875</ele>
        <time>2020-10-23T00:25:28.696Z</time>
      </trkpt>
      <trkpt lat="43.98733" lon="5.79877">
        <ele>518.31439208984</ele>
        <time>2020-10-23T00:25:51.259Z</time>
      </trkpt>
      <trkpt lat="43.98724" lon="5.79882">
        <ele>517.84643554688</ele>
        <time>2020-10-23T00:26:13.825Z</time>
      </trkpt>
      <trkpt lat="43.98721" lon="5.79886">
        <ele>517.52252197266</ele>
        <time>2020-10-23T00:26:36.393Z</time>
      </trkpt>
      <trkpt lat="43.98702" lon="5.79899">
        <ele>517.76129150391</ele>
        <time>2020-10-23T00:26:58.968Z</time>
      </trkpt>
      <trkpt lat="43.98633" lon="5.79925">
        <ele>516.19396972656</ele>
        <time>2020-10-23T00:27:21.566Z</time>
      </trkpt>
      <trkpt lat="43.98613" lon="5.79926">
        <ele>515.23413085938</ele>
        <time>2020-10-23T00:27:44.171Z</time>
      </trkpt>
      <trkpt lat="43.98546" lon="5.79919">
        <ele>515.17913818359</ele>
        <time>2020-10-23T00:28:06.799Z</time>
      </trkpt>
      <trkpt lat="43.98563" lon="5.79904">
        <ele>515.54138183594</ele>
        <time>2020-10-23T00:28:29.433Z</time>
      </trkpt>
      <trkpt lat="43.98565" lon="5.79899">
        <ele>515.51739501953</ele>
        <time>2020-10-23T00:28:52.069Z</time>
      </trkpt>
      <trkpt lat="43.98564" lon="5.79875">
        <ele>517.76953125</ele>
        <time>2020-10-23T00:29:14.710Z</time>
      </trkpt>
      <trkpt lat="43.98557" lon="5.79862">
        <ele>520.037109375</ele>
        <time>2020-10-23T00:29:37.355Z</time>
      </trkpt>
      <trkpt lat="43.98556" lon="5.79852">
        <ele>521.72882080078</ele>
        <time>2020-10-23T00:30:00.003Z</time>
      </trkpt>
      <trkpt lat="43.98571" lon="5.79803">
        <ele>527.44171142578</ele>
        <time>2020-10-23T00:30:22.664Z</time>
      </trkpt>
      <trkpt lat="43.98577" lon="5.79797">
        <ele>527.72967529297</ele>
        <time>2020-10-23T00:30:45.327Z</time>
      </trkpt>
      <trkpt lat="43.98599" lon="5.79794">
        <ele>526.89068603516</ele>
        <time>2020-10-23T00:31:07.997Z</time>
      </trkpt>
      <trkpt lat="43.98603" lon="5.79792">
        <ele>527.37060546875</ele>
        <time>2020-10-23T00:31:30.669Z</time>
      </trkpt>
      <trkpt lat="43.98613" lon="5.79776">
        <ele>530.44793701172</ele>
        <time>2020-10-23T00:31:53.346Z</time>
      </trkpt>
      <trkpt lat="43.98613" lon="5.79765">
        <ele>532.5595703125</ele>
        <time>2020-10-23T00:32:16.026Z</time>
      </trkpt>
      <trkpt lat="43.9861" lon="5.7976">
        <ele>533.59143066406</ele>
        <time>2020-10-23T00:32:38.707Z</time>
      </trkpt>
      <trkpt lat="43.98593" lon="5.79743">
        <ele>536.537109375</ele>
        <time>2020-10-23T00:33:01.395Z</time>
      </trkpt>
      <trkpt lat="43.98586" lon="5.79733">
        <ele>538.28881835938</ele>
        <time>2020-10-23T00:33:24.086Z</time>
      </trkpt>
      <trkpt lat="43.98582" lon="5.79731">
        <ele>538.57672119141</ele>
        <time>2020-10-23T00:33:46.779Z</time>
      </trkpt>
      <trkpt lat="43.98574" lon="5.79731">
        <ele>538.384765625</ele>
        <time>2020-10-23T00:34:09.475Z</time>
      </trkpt>
      <trkpt lat="43.9857" lon="5.79724">
        <ele>539.63256835938</ele>
        <time>2020-10-23T00:34:32.173Z</time>
      </trkpt>
      <trkpt lat="43.98573" lon="5.79716">
        <ele>540.49566650391</ele>
        <time>2020-10-23T00:34:54.873Z</time>
      </trkpt>
      <trkpt lat="43.98587" lon="5.79704">
        <ele>541.55151367188</ele>
        <time>2020-10-23T00:35:17.578Z</time>
      </trkpt>
      <trkpt lat="43.98598" lon="5.79687">
        <ele>544.30627441406</ele>
        <time>2020-10-23T00:35:40.289Z</time>
      </trkpt>
      <trkpt lat="43.986" lon="5.79678">
        <ele>545.55407714844</ele>
        <time>2020-10-23T00:36:03.002Z</time>
      </trkpt>
      <trkpt lat="43.986" lon="5.7966">
        <ele>547.71368408203</ele>
        <time>2020-10-23T00:36:25.719Z</time>
      </trkpt>
      <trkpt lat="43.98611" lon="5.79636">
        <ele>551.02001953125</ele>
        <time>2020-10-23T00:36:48.443Z</time>
      </trkpt>
      <trkpt lat="43.98613" lon="5.79621">
        <ele>552.15985107422</ele>
        <time>2020-10-23T00:37:11.171Z</time>
      </trkpt>
      <trkpt lat="43.98607" lon="5.79602">
        <ele>553.94061279297</ele>
        <time>2020-10-23T00:37:33.904Z</time>
      </trkpt>
      <trkpt lat="43.98592" lon="5.79586">
        <ele>553.84460449219</ele>
        <time>2020-10-23T00:37:56.643Z</time>
      </trkpt>
      <trkpt lat="43.9858" lon="5.79532">
        <ele>558.05401611328</ele>
        <time>2020-10-23T00:38:19.396Z</time>
      </trkpt>
      <trkpt lat="43.9858" lon="5.79521">
        <ele>559.23400878906</ele>
        <time>2020-10-23T00:38:42.152Z</time>
      </trkpt>
      <trkpt lat="43.98585" lon="5.79479">
        <ele>563.62530517578</ele>
        <time>2020-10-23T00:39:04.918Z</time>
      </trkpt>
      <trkpt lat="43.98595" lon="5.79456">
        <ele>565.67639160156</ele>
        <time>2020-10-23T00:39:27.690Z</time>
      </trkpt>
      <trkpt lat="43.98597" lon="5.79445">
        <ele>566.52825927734</ele>
        <time>2020-10-23T00:39:50.465Z</time>
      </trkpt>
      <trkpt lat="43.98576" lon="5.79411">
        <ele>566.55224609375</ele>
        <time>2020-10-23T00:40:13.251Z</time>
      </trkpt>
      <trkpt lat="43.98571" lon="5.79409">
        <ele>566.19232177734</ele>
        <time>2020-10-23T00:40:36.038Z</time>
      </trkpt>
      <trkpt lat="43.98567" lon="5.79408">
        <ele>565.86840820312</ele>
        <time>2020-10-23T00:40:58.827Z</time>
      </trkpt>
      <trkpt lat="43.98551" lon="5.79413">
        <ele>564.03271484375</ele>
        <time>2020-10-23T00:41:21.621Z</time>
      </trkpt>
      <trkpt lat="43.98544" lon="5.79412">
        <ele>563.529296875</ele>
        <time>2020-10-23T00:41:44.418Z</time>
      </trkpt>
      <trkpt lat="43.98534" lon="5.79406">
        <ele>563.025390625</ele>
        <time>2020-10-23T00:42:07.218Z</time>
      </trkpt>
      <trkpt lat="43.9851" lon="5.794">
        <ele>560.98181152344</ele>
        <time>2020-10-23T00:42:30.026Z</time>
      </trkpt>
      <trkpt lat="43.98451" lon="5.79408">
        <ele>554.93328857422</ele>
        <time>2020-10-23T00:42:52.854Z</time>
      </trkpt>
      <trkpt lat="43.98441" lon="5.79406">
        <ele>554.39514160156</ele>
        <time>2020-10-23T00:43:15.686Z</time>
      </trkpt>
      <trkpt lat="43.98431" lon="5.79395">
        <ele>553.41125488281</ele>
        <time>2020-10-23T00:43:38.522Z</time>
      </trkpt>
      <trkpt lat="43.98428" lon="5.79383">
        <ele>552.34014892578</ele>
        <time>2020-10-23T00:44:01.361Z</time>
      </trkpt>
      <trkpt lat="43.98428" lon="5.79313">
        <ele>545.32702636719</ele>
        <time>2020-10-23T00:44:24.217Z</time>
      </trkpt>
      <trkpt lat="43.98426" lon="5.79288">
        <ele>542.74694824219</ele>
        <time>2020-10-23T00:44:47.079Z</time>
      </trkpt>
      <trkpt lat="43.98421" lon="5.79273">
        <ele>541.00726318359</ele>
        <time>2020-10-23T00:45:09.945Z</time>
      </trkpt>
      <trkpt lat="43.98415" lon="5.79246">
        <ele>538.27172851562</ele>
        <time>2020-10-23T00:45:32.818Z</time>
      </trkpt>
      <trkpt lat="43.98406" lon="5.79229">
        <ele>535.86010742188</ele>
        <time>2020-10-23T00:45:55.696Z</time>
      </trkpt>
      <trkpt lat="43.98406" lon="5.7922">
        <ele>535.28698730469</ele>
        <time>2020-10-23T00:46:18.576Z</time>
      </trkpt>
      <trkpt lat="43.98415" lon="5.79199">
        <ele>535.97088623047</ele>
        <time>2020-10-23T00:46:41.462Z</time>
      </trkpt>
      <trkpt lat="43.98417" lon="5.7919">
        <ele>535.76220703125</ele>
        <time>2020-10-23T00:47:04.350Z</time>
      </trkpt>
      <trkpt lat="43.98416" lon="5.79165">
        <ele>534.16644287109</ele>
        <time>2020-10-23T00:47:27.244Z</time>
      </trkpt>
      <trkpt lat="43.98418" lon="5.79154">
        <ele>533.69854736328</ele>
        <time>2020-10-23T00:47:50.141Z</time>
      </trkpt>
      <trkpt lat="43.98425" lon="5.79136">
        <ele>533.42327880859</ele>
        <time>2020-10-23T00:48:13.043Z</time>
      </trkpt>
      <trkpt lat="43.98425" lon="5.79131">
        <ele>533.42327880859</ele>
        <time>2020-10-23T00:48:35.946Z</time>
      </trkpt>
      <trkpt lat="43.98416" lon="5.79109">
        <ele>532.46862792969</ele>
        <time>2020-10-23T00:48:58.855Z</time>
      </trkpt>
      <trkpt lat="43.98409" lon="5.79104">
        <ele>531.8447265625</ele>
        <time>2020-10-23T00:49:21.766Z</time>
      </trkpt>
      <trkpt lat="43.98394" lon="5.79098">
        <ele>530.44775390625</ele>
        <time>2020-10-23T00:49:44.683Z</time>
      </trkpt>
      <trkpt lat="43.98385" lon="5.79091">
        <ele>529.58392333984</ele>
        <time>2020-10-23T00:50:07.603Z</time>
      </trkpt>
      <trkpt lat="43.98371" lon="5.79059">
        <ele>528.02935791016</ele>
        <time>2020-10-23T00:50:30.532Z</time>
      </trkpt>
      <trkpt lat="43.98368" lon="5.79045">
        <ele>528.06921386719</ele>
        <time>2020-10-23T00:50:53.465Z</time>
      </trkpt>
      <trkpt lat="43.98357" lon="5.79036">
        <ele>527.75671386719</ele>
        <time>2020-10-23T00:51:16.402Z</time>
      </trkpt>
      <trkpt lat="43.9835" lon="5.79044">
        <ele>527.97271728516</ele>
        <time>2020-10-23T00:51:39.342Z</time>
      </trkpt>
      <trkpt lat="43.98343" lon="5.79047">
        <ele>527.84918212891</ele>
        <time>2020-10-23T00:52:02.284Z</time>
      </trkpt>
      <trkpt lat="43.98335" lon="5.79048">
        <ele>527.7412109375</ele>
        <time>2020-10-23T00:52:25.229Z</time>
      </trkpt>
      <trkpt lat="43.98325" lon="5.79054">
        <ele>527.09332275391</ele>
        <time>2020-10-23T00:52:48.178Z</time>
      </trkpt>
      <trkpt lat="43.98313" lon="5.79071">
        <ele>527</ele>
        <time>2020-10-23T00:53:11.132Z</time>
      </trkpt>
      <trkpt lat="43.98306" lon="5.79078">
        <ele>527</ele>
        <time>2020-10-23T00:53:34.089Z</time>
      </trkpt>
      <trkpt lat="43.9828" lon="5.7909">
        <ele>524.84985351562</ele>
        <time>2020-10-23T00:53:57.055Z</time>
      </trkpt>
      <trkpt lat="43.98254" lon="5.79095">
        <ele>524.85693359375</ele>
        <time>2020-10-23T00:54:20.030Z</time>
      </trkpt>
      <trkpt lat="43.98236" lon="5.79096">
        <ele>525.43286132812</ele>
        <time>2020-10-23T00:54:43.011Z</time>
      </trkpt>
      <trkpt lat="43.98183" lon="5.79092">
        <ele>525.96124267578</ele>
        <time>2020-10-23T00:55:06.010Z</time>
      </trkpt>
      <trkpt lat="43.98184" lon="5.79085">
        <ele>526.81311035156</ele>
        <time>2020-10-23T00:55:29.011Z</time>
      </trkpt>
      <trkpt lat="43.98182" lon="5.79075">
        <ele>528.56481933594</ele>
        <time>2020-10-23T00:55:52.014Z</time>
      </trkpt>
      <trkpt lat="43.98173" lon="5.79068">
        <ele>530.97637939453</ele>
        <time>2020-10-23T00:56:15.021Z</time>
      </trkpt>
      <trkpt lat="43.98171" lon="5.79063">
        <ele>532.00823974609</ele>
        <time>2020-10-23T00:56:38.029Z</time>
      </trkpt>
      <trkpt lat="43.98171" lon="5.79057">
        <ele>532.8720703125</ele>
        <time>2020-10-23T00:57:01.038Z</time>
      </trkpt>
      <trkpt lat="43.98178" lon="5.7904">
        <ele>535.08404541016</ele>
        <time>2020-10-23T00:57:24.052Z</time>
      </trkpt>
      <trkpt lat="43.98185" lon="5.7903">
        <ele>535.62396240234</ele>
        <time>2020-10-23T00:57:47.069Z</time>
      </trkpt>
      <trkpt lat="43.98185" lon="5.79012">
        <ele>538.86340332031</ele>
        <time>2020-10-23T00:58:10.091Z</time>
      </trkpt>
      <trkpt lat="43.98211" lon="5.78974">
        <ele>542.61383056641</ele>
        <time>2020-10-23T00:58:33.125Z</time>
      </trkpt>
      <trkpt lat="43.98213" lon="5.78967">
        <ele>543.26214599609</ele>
        <time>2020-10-23T00:58:56.161Z</time>
      </trkpt>
      <trkpt lat="43.98212" lon="5.78952">
        <ele>545.34979248047</ele>
        <time>2020-10-23T00:59:19.201Z</time>
      </trkpt>
      <trkpt lat="43.98211" lon="5.78947">
        <ele>546.11767578125</ele>
        <time>2020-10-23T00:59:42.242Z</time>
      </trkpt>
      <trkpt lat="43.98207" lon="5.78941">
        <ele>547.34149169922</ele>
        <time>2020-10-23T01:00:05.285Z</time>
      </trkpt>
      <trkpt lat="43.98187" lon="5.78923">
        <ele>552.66595458984</ele>
        <time>2020-10-23T01:00:28.336Z</time>
      </trkpt>
      <trkpt lat="43.98169" lon="5.78896">
        <ele>561.41247558594</ele>
        <time>2020-10-23T01:00:51.396Z</time>
      </trkpt>
      <trkpt lat="43.98158" lon="5.78887">
        <ele>565.86596679688</ele>
        <time>2020-10-23T01:01:14.460Z</time>
      </trkpt>
      <trkpt lat="43.98149" lon="5.78886">
        <ele>568.67352294922</ele>
        <time>2020-10-23T01:01:37.527Z</time>
      </trkpt>
      <trkpt lat="43.98138" lon="5.78887">
        <ele>571.625</ele>
        <time>2020-10-23T01:02:00.598Z</time>
      </trkpt>
      <trkpt lat="43.98118" lon="5.78893">
        <ele>576.49395751953</ele>
        <time>2020-10-23T01:02:23.676Z</time>
      </trkpt>
      <trkpt lat="43.98104" lon="5.78902">
        <ele>577.89251708984</ele>
        <time>2020-10-23T01:02:46.759Z</time>
      </trkpt>
      <trkpt lat="43.98094" lon="5.78912">
        <ele>578.49243164062</ele>
        <time>2020-10-23T01:03:09.846Z</time>
      </trkpt>
      <trkpt lat="43.98088" lon="5.78922">
        <ele>577.89251708984</ele>
        <time>2020-10-23T01:03:32.936Z</time>
      </trkpt>
      <trkpt lat="43.98059" lon="5.78938">
        <ele>583.68280029297</ele>
        <time>2020-10-23T01:03:56.036Z</time>
      </trkpt>
      <trkpt lat="43.9804" lon="5.78954">
        <ele>587.64215087891</ele>
        <time>2020-10-23T01:04:19.144Z</time>
      </trkpt>
      <trkpt lat="43.9802" lon="5.78967">
        <ele>590.72119140625</ele>
        <time>2020-10-23T01:04:42.259Z</time>
      </trkpt>
      <trkpt lat="43.97995" lon="5.78987">
        <ele>589.13452148438</ele>
        <time>2020-10-23T01:05:05.384Z</time>
      </trkpt>
      <trkpt lat="43.97984" lon="5.78988">
        <ele>589.95037841797</ele>
        <time>2020-10-23T01:05:28.512Z</time>
      </trkpt>
      <trkpt lat="43.97943" lon="5.78976">
        <ele>597.13830566406</ele>
        <time>2020-10-23T01:05:51.654Z</time>
      </trkpt>
      <trkpt lat="43.97934" lon="5.78968">
        <ele>597.56689453125</ele>
        <time>2020-10-23T01:06:14.800Z</time>
      </trkpt>
      <trkpt lat="43.97937" lon="5.78962">
        <ele>597.94555664062</ele>
        <time>2020-10-23T01:06:37.948Z</time>
      </trkpt>
      <trkpt lat="43.97949" lon="5.78949">
        <ele>598.61590576172</ele>
        <time>2020-10-23T01:07:01.101Z</time>
      </trkpt>
      <trkpt lat="43.97954" lon="5.78941">
        <ele>598.61590576172</ele>
        <time>2020-10-23T01:07:24.256Z</time>
      </trkpt>
      <trkpt lat="43.97959" lon="5.78919">
        <ele>599.45574951172</ele>
        <time>2020-10-23T01:07:47.417Z</time>
      </trkpt>
      <trkpt lat="43.97962" lon="5.7888">
        <ele>603.69171142578</ele>
        <time>2020-10-23T01:08:10.587Z</time>
      </trkpt>
      <trkpt lat="43.97969" lon="5.7884">
        <ele>604.81951904297</ele>
        <time>2020-10-23T01:08:33.767Z</time>
      </trkpt>
      <trkpt lat="43.97969" lon="5.7881">
        <ele>607.42730712891</ele>
        <time>2020-10-23T01:08:56.954Z</time>
      </trkpt>
      <trkpt lat="43.97967" lon="5.78781">
        <ele>608.91369628906</ele>
        <time>2020-10-23T01:09:20.148Z</time>
      </trkpt>
      <trkpt lat="43.97968" lon="5.78759">
        <ele>610.07751464844</ele>
        <time>2020-10-23T01:09:43.348Z</time>
      </trkpt>
      <trkpt lat="43.97973" lon="5.78752">
        <ele>610.98052978516</ele>
        <time>2020-10-23T01:10:06.550Z</time>
      </trkpt>
      <trkpt lat="43.97988" lon="5.78739">
        <ele>613.89605712891</ele>
        <time>2020-10-23T01:10:29.758Z</time>
      </trkpt>
      <trkpt lat="43.97996" lon="5.78725">
        <ele>615.95971679688</ele>
        <time>2020-10-23T01:10:52.970Z</time>
      </trkpt>
      <trkpt lat="43.98003" lon="5.78708">
        <ele>617.94567871094</ele>
        <time>2020-10-23T01:11:16.187Z</time>
      </trkpt>
      <trkpt lat="43.98008" lon="5.7869">
        <ele>619.50799560547</ele>
        <time>2020-10-23T01:11:39.409Z</time>
      </trkpt>
      <trkpt lat="43.98022" lon="5.78666">
        <ele>622.33953857422</ele>
        <time>2020-10-23T01:12:02.638Z</time>
      </trkpt>
      <trkpt lat="43.98034" lon="5.78638">
        <ele>622.33386230469</ele>
        <time>2020-10-23T01:12:25.875Z</time>
      </trkpt>
      <trkpt lat="43.98042" lon="5.78612">
        <ele>622.76580810547</ele>
        <time>2020-10-23T01:12:49.119Z</time>
      </trkpt>
      <trkpt lat="43.98043" lon="5.78603">
        <ele>623.23370361328</ele>
        <time>2020-10-23T01:13:12.365Z</time>
      </trkpt>
      <trkpt lat="43.9804" lon="5.78589">
        <ele>624.78143310547</ele>
        <time>2020-10-23T01:13:35.614Z</time>
      </trkpt>
      <trkpt lat="43.98039" lon="5.78547">
        <ele>627.99993896484</ele>
        <time>2020-10-23T01:13:58.874Z</time>
      </trkpt>
      <trkpt lat="43.98041" lon="5.78534">
        <ele>628.86376953125</ele>
        <time>2020-10-23T01:14:22.137Z</time>
      </trkpt>
      <trkpt lat="43.9804" lon="5.78519">
        <ele>630.49554443359</ele>
        <time>2020-10-23T01:14:45.403Z</time>
      </trkpt>
      <trkpt lat="43.98035" lon="5.78505">
        <ele>632.79913330078</ele>
        <time>2020-10-23T01:15:08.673Z</time>
      </trkpt>
      <trkpt lat="43.98034" lon="5.78496">
        <ele>633.85498046875</ele>
        <time>2020-10-23T01:15:31.945Z</time>
      </trkpt>
      <trkpt lat="43.98021" lon="5.78447">
        <ele>638.63061523438</ele>
        <time>2020-10-23T01:15:55.230Z</time>
      </trkpt>
      <trkpt lat="43.98002" lon="5.78419">
        <ele>639.53045654297</ele>
        <time>2020-10-23T01:16:18.524Z</time>
      </trkpt>
      <trkpt lat="43.97993" lon="5.78399">
        <ele>640.11834716797</ele>
        <time>2020-10-23T01:16:41.824Z</time>
      </trkpt>
      <trkpt lat="43.97989" lon="5.78386">
        <ele>640.72863769531</ele>
        <time>2020-10-23T01:17:05.127Z</time>
      </trkpt>
      <trkpt lat="43.97981" lon="5.78375">
        <ele>642.40832519531</ele>
        <time>2020-10-23T01:17:28.434Z</time>
      </trkpt>
      <trkpt lat="43.97978" lon="5.78368">
        <ele>643.4521484375</ele>
        <time>2020-10-23T01:17:51.743Z</time>
      </trkpt>
      <trkpt lat="43.97975" lon="5.78318">
        <ele>649.21868896484</ele>
        <time>2020-10-23T01:18:15.064Z</time>
      </trkpt>
      <trkpt lat="43.97972" lon="5.78304">
        <ele>650.48736572266</ele>
        <time>2020-10-23T01:18:38.389Z</time>
      </trkpt>
      <trkpt lat="43.97971" lon="5.78267">
        <ele>653.67883300781</ele>
        <time>2020-10-23T01:19:01.722Z</time>
      </trkpt>
      <trkpt lat="43.97975" lon="5.78254">
        <ele>654.51019287109</ele>
        <time>2020-10-23T01:19:25.059Z</time>
      </trkpt>
      <trkpt lat="43.97977" lon="5.7825">
        <ele>655.11010742188</ele>
        <time>2020-10-23T01:19:48.397Z</time>
      </trkpt>
      <trkpt lat="43.97986" lon="5.78241">
        <ele>656.40588378906</ele>
        <time>2020-10-23T01:20:11.739Z</time>
      </trkpt>
      <trkpt lat="43.98002" lon="5.7823">
        <ele>657.92962646484</ele>
        <time>2020-10-23T01:20:35.087Z</time>
      </trkpt>
      <trkpt lat="43.98018" lon="5.78208">
        <ele>660.20526123047</ele>
        <time>2020-10-23T01:20:58.442Z</time>
      </trkpt>
      <trkpt lat="43.9802" lon="5.782">
        <ele>661.14111328125</ele>
        <time>2020-10-23T01:21:21.799Z</time>
      </trkpt>
      <trkpt lat="43.98018" lon="5.78178">
        <ele>663.44470214844</ele>
        <time>2020-10-23T01:21:45.162Z</time>
      </trkpt>
      <trkpt lat="43.98021" lon="5.78154">
        <ele>666.14428710938</ele>
        <time>2020-10-23T01:22:08.530Z</time>
      </trkpt>
      <trkpt lat="43.98015" lon="5.78131">
        <ele>668.07379150391</ele>
        <time>2020-10-23T01:22:31.904Z</time>
      </trkpt>
      <trkpt lat="43.98021" lon="5.78062">
        <ele>675.03338623047</ele>
        <time>2020-10-23T01:22:55.295Z</time>
      </trkpt>
      <trkpt lat="43.98021" lon="5.78046">
        <ele>676.12322998047</ele>
        <time>2020-10-23T01:23:18.690Z</time>
      </trkpt>
      <trkpt lat="43.98027" lon="5.78002">
        <ele>678.38555908203</ele>
        <time>2020-10-23T01:23:42.096Z</time>
      </trkpt>
      <trkpt lat="43.98026" lon="5.7792">
        <ele>684.904296875</ele>
        <time>2020-10-23T01:24:05.521Z</time>
      </trkpt>
      <trkpt lat="43.98028" lon="5.77882">
        <ele>687.10437011719</ele>
        <time>2020-10-23T01:24:28.956Z</time>
      </trkpt>
      <trkpt lat="43.98027" lon="5.77862">
        <ele>688.16021728516</ele>
        <time>2020-10-23T01:24:52.395Z</time>
      </trkpt>
      <trkpt lat="43.98028" lon="5.77837">
        <ele>688.72412109375</ele>
        <time>2020-10-23T01:25:15.840Z</time>
      </trkpt>
      <trkpt lat="43.9802" lon="5.77838">
        <ele>689.34954833984</ele>
        <time>2020-10-23T01:25:39.288Z</time>
      </trkpt>
      <trkpt lat="43.9801" lon="5.77834">
        <ele>688.53369140625</ele>
        <time>2020-10-23T01:26:02.740Z</time>
      </trkpt>
      <trkpt lat="43.97989" lon="5.77801">
        <ele>687.92517089844</ele>
        <time>2020-10-23T01:26:26.202Z</time>
      </trkpt>
      <trkpt lat="43.9788" lon="5.77825">
        <ele>674.91516113281</ele>
        <time>2020-10-23T01:26:49.701Z</time>
      </trkpt>
      <trkpt lat="43.97882" lon="5.77828">
        <ele>674.783203125</ele>
        <time>2020-10-23T01:27:13.201Z</time>
      </trkpt>
      <trkpt lat="43.97874" lon="5.77836">
        <ele>673.15148925781</ele>
        <time>2020-10-23T01:27:36.704Z</time>
      </trkpt>
      <trkpt lat="43.97867" lon="5.7785">
        <ele>670.96783447266</ele>
        <time>2020-10-23T01:28:00.211Z</time>
      </trkpt>
      <trkpt lat="43.9785" lon="5.77876">
        <ele>666.24078369141</ele>
        <time>2020-10-23T01:28:23.727Z</time>
      </trkpt>
      <trkpt lat="43.97845" lon="5.77879">
        <ele>665.59228515625</ele>
        <time>2020-10-23T01:28:47.245Z</time>
      </trkpt>
      <trkpt lat="43.97822" lon="5.77886">
        <ele>664.32049560547</ele>
        <time>2020-10-23T01:29:10.770Z</time>
      </trkpt>
      <trkpt lat="43.9782" lon="5.77895">
        <ele>663.42095947266</ele>
        <time>2020-10-23T01:29:34.298Z</time>
      </trkpt>
      <trkpt lat="43.97815" lon="5.77904">
        <ele>662.20910644531</ele>
        <time>2020-10-23T01:29:57.828Z</time>
      </trkpt>
      <trkpt lat="43.97802" lon="5.77911">
        <ele>660.82934570312</ele>
        <time>2020-10-23T01:30:21.363Z</time>
      </trkpt>
      <trkpt lat="43.9779" lon="5.77914">
        <ele>659.92950439453</ele>
        <time>2020-10-23T01:30:44.902Z</time>
      </trkpt>
      <trkpt lat="43.97781" lon="5.77922">
        <ele>658.63372802734</ele>
        <time>2020-10-23T01:31:08.445Z</time>
      </trkpt>
      <trkpt lat="43.97769" lon="5.77943">
        <ele>655.04461669922</ele>
        <time>2020-10-23T01:31:31.994Z</time>
      </trkpt>
      <trkpt lat="43.97768" lon="5.77954">
        <ele>653.67687988281</ele>
        <time>2020-10-23T01:31:55.546Z</time>
      </trkpt>
      <trkpt lat="43.97752" lon="5.77996">
        <ele>649.02752685547</ele>
        <time>2020-10-23T01:32:19.109Z</time>
      </trkpt>
      <trkpt lat="43.9773" lon="5.78001">
        <ele>646.75994873047</ele>
        <time>2020-10-23T01:32:42.680Z</time>
      </trkpt>
      <trkpt lat="43.9771" lon="5.77958">
        <ele>647.73052978516</ele>
        <time>2020-10-23T01:33:06.263Z</time>
      </trkpt>
      <trkpt lat="43.97677" lon="5.77926">
        <ele>644.99975585938</ele>
        <time>2020-10-23T01:33:29.859Z</time>
      </trkpt>
      <trkpt lat="43.97634" lon="5.77915">
        <ele>640.44281005859</ele>
        <time>2020-10-23T01:33:53.470Z</time>
      </trkpt>
      <trkpt lat="43.97603" lon="5.77909">
        <ele>636.26483154297</ele>
        <time>2020-10-23T01:34:17.091Z</time>
      </trkpt>
      <trkpt lat="43.97582" lon="5.77889">
        <ele>635.44897460938</ele>
        <time>2020-10-23T01:34:40.721Z</time>
      </trkpt>
      <trkpt lat="43.97548" lon="5.77885">
        <ele>632.53356933594</ele>
        <time>2020-10-23T01:35:04.362Z</time>
      </trkpt>
      <trkpt lat="43.97548" lon="5.77888">
        <ele>632.24560546875</ele>
        <time>2020-10-23T01:35:28.004Z</time>
      </trkpt>
      <trkpt lat="43.97536" lon="5.7789">
        <ele>630.97369384766</ele>
        <time>2020-10-23T01:35:51.650Z</time>
      </trkpt>
      <trkpt lat="43.97504" lon="5.77921">
        <ele>630.44592285156</ele>
        <time>2020-10-23T01:36:15.309Z</time>
      </trkpt>
      <trkpt lat="43.97487" lon="5.77926">
        <ele>630.01403808594</ele>
        <time>2020-10-23T01:36:38.974Z</time>
      </trkpt>
      <trkpt lat="43.9747" lon="5.77928">
        <ele>628.66369628906</ele>
        <time>2020-10-23T01:37:02.645Z</time>
      </trkpt>
      <trkpt lat="43.97456" lon="5.77925">
        <ele>627.25994873047</ele>
        <time>2020-10-23T01:37:26.320Z</time>
      </trkpt>
      <trkpt lat="43.97441" lon="5.77926">
        <ele>625.66046142578</ele>
        <time>2020-10-23T01:37:50.000Z</time>
      </trkpt>
      <trkpt lat="43.97426" lon="5.77933">
        <ele>627.02819824219</ele>
        <time>2020-10-23T01:38:13.686Z</time>
      </trkpt>
      <trkpt lat="43.97406" lon="5.77949">
        <ele>627.83746337891</ele>
        <time>2020-10-23T01:38:37.379Z</time>
      </trkpt>
      <trkpt lat="43.97349" lon="5.78004">
        <ele>624.47442626953</ele>
        <time>2020-10-23T01:39:01.095Z</time>
      </trkpt>
      <trkpt lat="43.97325" lon="5.78024">
        <ele>622.47430419922</ele>
        <time>2020-10-23T01:39:24.821Z</time>
      </trkpt>
      <trkpt lat="43.97301" lon="5.78035">
        <ele>623.80603027344</ele>
        <time>2020-10-23T01:39:48.555Z</time>
      </trkpt>
      <trkpt lat="43.97288" lon="5.78034">
        <ele>624.77789306641</ele>
        <time>2020-10-23T01:40:12.294Z</time>
      </trkpt>
      <trkpt lat="43.97267" lon="5.78047">
        <ele>624.27856445312</ele>
        <time>2020-10-23T01:40:36.040Z</time>
      </trkpt>
      <trkpt lat="43.9724" lon="5.78069">
        <ele>621.13885498047</ele>
        <time>2020-10-23T01:40:59.797Z</time>
      </trkpt>
      <trkpt lat="43.97236" lon="5.78069">
        <ele>620.85089111328</ele>
        <time>2020-10-23T01:41:23.555Z</time>
      </trkpt>
      <trkpt lat="43.97181" lon="5.78086">
        <ele>617.66687011719</ele>
        <time>2020-10-23T01:41:47.332Z</time>
      </trkpt>
      <trkpt lat="43.9714" lon="5.78104">
        <ele>610.14831542969</ele>
        <time>2020-10-23T01:42:11.123Z</time>
      </trkpt>
      <trkpt lat="43.97129" lon="5.78113">
        <ele>608.6005859375</ele>
        <time>2020-10-23T01:42:34.918Z</time>
      </trkpt>
      <trkpt lat="43.97101" lon="5.78142">
        <ele>604.95556640625</ele>
        <time>2020-10-23T01:42:58.725Z</time>
      </trkpt>
      <trkpt lat="43.97063" lon="5.78176">
        <ele>600.7802734375</ele>
        <time>2020-10-23T01:43:22.547Z</time>
      </trkpt>
      <trkpt lat="43.97003" lon="5.78225">
        <ele>594.25915527344</ele>
        <time>2020-10-23T01:43:46.392Z</time>
      </trkpt>
      <trkpt lat="43.96924" lon="5.78257">
        <ele>586.17181396484</ele>
        <time>2020-10-23T01:44:10.265Z</time>
      </trkpt>
      <trkpt lat="43.96916" lon="5.78264">
        <ele>586.85571289062</ele>
        <time>2020-10-23T01:44:34.141Z</time>
      </trkpt>
      <trkpt lat="43.96908" lon="5.78278">
        <ele>588.49041748047</ele>
        <time>2020-10-23T01:44:58.021Z</time>
      </trkpt>
      <trkpt lat="43.96894" lon="5.78284">
        <ele>587.60260009766</ele>
        <time>2020-10-23T01:45:21.906Z</time>
      </trkpt>
      <trkpt lat="43.96881" lon="5.78294">
        <ele>587.36260986328</ele>
        <time>2020-10-23T01:45:45.796Z</time>
      </trkpt>
      <trkpt lat="43.96864" lon="5.78303">
        <ele>586.5107421875</ele>
        <time>2020-10-23T01:46:09.692Z</time>
      </trkpt>
      <trkpt lat="43.96789" lon="5.78317">
        <ele>576.88250732422</ele>
        <time>2020-10-23T01:46:33.613Z</time>
      </trkpt>
      <trkpt lat="43.96745" lon="5.78323">
        <ele>571.95715332031</ele>
        <time>2020-10-23T01:46:57.549Z</time>
      </trkpt>
      <trkpt lat="43.96677" lon="5.78312">
        <ele>562.77941894531</ele>
        <time>2020-10-23T01:47:21.508Z</time>
      </trkpt>
      <trkpt lat="43.96649" lon="5.78306">
        <ele>562.61145019531</ele>
        <time>2020-10-23T01:47:45.476Z</time>
      </trkpt>
      <trkpt lat="43.96645" lon="5.78307">
        <ele>562.74340820312</ele>
        <time>2020-10-23T01:48:09.446Z</time>
      </trkpt>
      <trkpt lat="43.9662" lon="5.78323">
        <ele>563.44366455078</ele>
        <time>2020-10-23T01:48:33.425Z</time>
      </trkpt>
      <trkpt lat="43.96581" lon="5.78344">
        <ele>562.10211181641</ele>
        <time>2020-10-23T01:48:57.418Z</time>
      </trkpt>
      <trkpt lat="43.96533" lon="5.78376">
        <ele>559.49243164062</ele>
        <time>2020-10-23T01:49:21.429Z</time>
      </trkpt>
      <trkpt lat="43.96499" lon="5.78393">
        <ele>557.39996337891</ele>
        <time>2020-10-23T01:49:45.452Z</time>
      </trkpt>
      <trkpt lat="43.96492" lon="5.78392">
        <ele>557.3759765625</ele>
        <time>2020-10-23T01:50:09.477Z</time>
      </trkpt>
      <trkpt lat="43.96475" lon="5.78382">
        <ele>557.69891357422</ele>
        <time>2020-10-23T01:50:33.508Z</time>
      </trkpt>
      <trkpt lat="43.96472" lon="5.78378">
        <ele>557.85485839844</ele>
        <time>2020-10-23T01:50:57.541Z</time>
      </trkpt>
      <trkpt lat="43.96467" lon="5.78379">
        <ele>557.74688720703</ele>
        <time>2020-10-23T01:51:21.575Z</time>
      </trkpt>
      <trkpt lat="43.96409" lon="5.78347">
        <ele>555.89135742188</ele>
        <time>2020-10-23T01:51:45.630Z</time>
      </trkpt>
      <trkpt lat="43.96381" lon="5.78345">
        <ele>553.095703125</ele>
        <time>2020-10-23T01:52:09.694Z</time>
      </trkpt>
      <trkpt lat="43.96368" lon="5.7834">
        <ele>551.99188232422</ele>
        <time>2020-10-23T01:52:33.763Z</time>
      </trkpt>
      <trkpt lat="43.96302" lon="5.78288">
        <ele>549.38861083984</ele>
        <time>2020-10-23T01:52:57.857Z</time>
      </trkpt>
      <trkpt lat="43.9629" lon="5.78282">
        <ele>548.66870117188</ele>
        <time>2020-10-23T01:53:21.955Z</time>
      </trkpt>
      <trkpt lat="43.96279" lon="5.78281">
        <ele>547.90081787109</ele>
        <time>2020-10-23T01:53:46.057Z</time>
      </trkpt>
      <trkpt lat="43.96272" lon="5.78278">
        <ele>547.46893310547</ele>
        <time>2020-10-23T01:54:10.162Z</time>
      </trkpt>
      <trkpt lat="43.96238" lon="5.78257">
        <ele>545.52526855469</ele>
        <time>2020-10-23T01:54:34.279Z</time>
      </trkpt>
      <trkpt lat="43.96203" lon="5.7822">
        <ele>543.94360351562</ele>
        <time>2020-10-23T01:54:58.411Z</time>
      </trkpt>
      <trkpt lat="43.96157" lon="5.78164">
        <ele>546.85150146484</ele>
        <time>2020-10-23T01:55:22.563Z</time>
      </trkpt>
      <trkpt lat="43.96148" lon="5.78155">
        <ele>547.49938964844</ele>
        <time>2020-10-23T01:55:46.719Z</time>
      </trkpt>
      <trkpt lat="43.96107" lon="5.78125">
        <ele>549.32995605469</ele>
        <time>2020-10-23T01:56:10.890Z</time>
      </trkpt>
      <trkpt lat="43.96099" lon="5.78117">
        <ele>549.7138671875</ele>
        <time>2020-10-23T01:56:35.065Z</time>
      </trkpt>
      <trkpt lat="43.96068" lon="5.78069">
        <ele>551.60955810547</ele>
        <time>2020-10-23T01:56:59.255Z</time>
      </trkpt>
      <trkpt lat="43.96067" lon="5.78065">
        <ele>551.72955322266</ele>
        <time>2020-10-23T01:57:23.446Z</time>
      </trkpt>
      <trkpt lat="43.96074" lon="5.78032">
        <ele>550.71948242188</ele>
        <time>2020-10-23T01:57:47.645Z</time>
      </trkpt>
      <trkpt lat="43.96082" lon="5.7801">
        <ele>550.15533447266</ele>
        <time>2020-10-23T01:58:11.850Z</time>
      </trkpt>
      <trkpt lat="43.96084" lon="5.77997">
        <ele>550.02331542969</ele>
        <time>2020-10-23T01:58:36.058Z</time>
      </trkpt>
    </trkseg>
  </trk>
</gpx>